# Wetter Temperatur Luftdruck Luftfeuchtigkeit Sichtweite Windgeschwindigkeit Windrichtung Zeit
1 Clear 19 1013 55 10000 2.7 215 10:26 14.08.2022
2 Clouds 17 1015 84 10000 0.91 205 08:20 14.08.2022
3 Clouds 17 1015 81 10000 0.21 172 06:20 14.08.2022
4 Clouds 19 1017 82 10000 1.36 85 02:35 14.08.2022
5 Clouds 21 1018 81 10000 1.09 198 23:23 13.08.2022
6 Clouds 21 1018 78 10000 1.91 225 22:28 13.08.2022
7 Clouds 22 1018 70 10000 1.79 134 20:58 13.08.2022
8 Clouds 23 1018 63 10000 1.79 43 19:50 13.08.2022
9 Clouds 23 1018 66 10000 1.34 45 19:19 13.08.2022
10 Clouds 27 1018 56 10000 0.89 109 17:22 13.08.2022
11 Clouds 33 1016 34 10000 0.89 220 15:18 13.08.2022
12 Clouds 33 1016 32 10000 1.34 275 14:24 13.08.2022
13 Clouds 31 1017 37 10000 1.79 236 13:36 13.08.2022
14 Clear 23 1015 29 10000 2.08 231 11:49 13.08.2022
15 Clear 27 1016 41 10000 1.32 208 09:43 13.08.2022
16 Clear 22 1017 61 10000 1.52 38 07:48 13.08.2022
17 Clear 19 1021 90 10000 1.66 38 02:33 13.08.2022
18 Clouds 20 1021 88 10000 2.66 27 23:45 12.08.2022
19 Clouds 20 1021 82 10000 2.56 33 21:40 12.08.2022
20 Clouds 21 1021 91 9366 4.84 354 19:51 12.08.2022
21 Rain 22 1020 87 10000 3 83 19:24 12.08.2022
22 Rain 27 1020 86 8559 3.92 39 18:31 12.08.2022
23 Rain 28 1019 60 10000 2.24 81 16:27 12.08.2022
24 Clouds 30 1017 41 10000 2.36 30 15:23 12.08.2022
25 Clouds 27 1017 41 10000 1.08 14 13:50 12.08.2022
26 Clouds 28 1019 44 10000 0.45 309 12:50 12.08.2022
27 Clouds 16 1019 57 10000 1.17 14 09:22 12.08.2022
28 Clear 21 1019 63 10000 1.98 22 07:46 12.08.2022
29 Clear 18 1021 84 10000 2.07 26 06:24 12.08.2022
30 Clouds 19 1023 84 10000 1.41 30 00:49 12.08.2022
31 Clouds 19 1022 83 10000 1.43 27 23:59 11.08.2022
32 Clouds 20 1023 82 10000 1.65 31 23:27 11.08.2022
33 Clouds 21 1022 82 10000 1.68 13 21:55 11.08.2022
34 Clouds 21 1022 81 10000 1.89 28 21:28 11.08.2022
35 Clouds 19 1022 85 10000 1.89 28 20:31 11.08.2022
36 Rain 19 1020 89 10000 2.43 44 19:34 11.08.2022
37 Rain 26 1022 91 6180 1.14 348 18:57 11.08.2022
38 Rain 31 1021 86 10000 1.82 126 17:22 11.08.2022
39 Rain 23 1019 61 10000 2.11 308 15:48 11.08.2022
40 Clouds 27 1018 46 10000 0.7 191 14:40 11.08.2022
41 Clouds 25 1021 47 10000 0.45 259 11:59 11.08.2022
42 Clouds 22 1020 49 10000 0.3 7 09:22 11.08.2022
43 Clouds 18 1022 78 10000 1.4 39 06:52 11.08.2022
44 Clouds 20 1022 73 10000 1.39 35 02:49 11.08.2022
45 Clouds 19 1022 71 10000 1.62 33 23:57 10.08.2022
46 Clouds 18 1022 82 10000 1.71 43 21:49 10.08.2022
47 Clouds 18 1022 89 10000 0.69 79 21:18 10.08.2022
48 Clouds 18 1022 89 10000 0.69 79 20:35 10.08.2022
49 Clouds 18 1023 92 10000 1.03 169 18:53 10.08.2022
50 Clouds 31 1021 87 7130 1.9 72 17:27 10.08.2022
51 Clouds 26 1018 39 10000 2.14 216 14:53 10.08.2022
52 Clear 29 1022 40 10000 2.24 234 13:33 10.08.2022
53 Clear 26 1020 46 10000 1.75 215 10:50 10.08.2022
54 Clear 12 1021 62 10000 0.2 153 08:39 10.08.2022
55 Clouds 20 1022 68 10000 1.08 43 07:35 10.08.2022
56 Clouds 16 1024 93 10000 1.44 45 04:50 10.08.2022
57 Clouds 17 1025 92 10000 2.01 37 01:33 10.08.2022
58 Clouds 18 1025 91 10000 2.06 38 23:31 09.08.2022
59 Clouds 18 1025 90 10000 0.45 59 21:58 09.08.2022
60 Clouds 19 1025 91 10000 0.08 75 21:23 09.08.2022
61 Rain 18 1026 91 10000 0.45 0 19:18 09.08.2022
62 Rain 19 1026 89 3339 1.09 320 17:37 09.08.2022
63 Rain 19 1026 89 4183 1.53 346 17:19 09.08.2022
64 Rain 21 1025 81 10000 1.79 351 16:22 09.08.2022
65 Rain 24 1023 68 10000 1.75 229 14:50 09.08.2022
66 Clear 25 1023 60 10000 1.45 204 11:29 09.08.2022
67 Clear 20 1022 61 10000 0.42 63 08:52 09.08.2022
68 Clear 17 1024 86 10000 1.69 45 07:57 09.08.2022
69 Clear 18 1024 85 10000 1.47 33 04:49 09.08.2022
70 Clouds 18 1023 73 10000 2.66 34 00:36 09.08.2022
71 Clouds 21 1023 83 10000 2.83 35 23:24 08.08.2022
72 Clouds 19 1023 80 10000 2.83 35 22:38 08.08.2022
73 Clouds 20 1023 84 10000 2.23 26 21:40 08.08.2022
74 Clouds 19 1022 89 10000 1.82 344 20:34 08.08.2022
75 Clouds 18 1024 90 10000 1.12 294 19:34 08.08.2022
76 Rain 24 1022 82 2056 0.45 0 17:56 08.08.2022
77 Rain 26 1020 60 10000 0.45 247 15:47 08.08.2022
78 Clouds 29 1018 40 10000 0.76 234 14:46 08.08.2022
79 Clear 26 1021 42 10000 0.45 227 12:30 08.08.2022
80 Clear 19 1019 54 10000 0.87 200 10:25 08.08.2022
81 Clear 20 1021 74 10000 1.74 24 07:49 08.08.2022
82 Clouds 17 1022 86 10000 1.94 30 03:39 08.08.2022
83 Clouds 17 1022 83 10000 2.46 29 22:53 07.08.2022
84 Clouds 18 1022 86 10000 0.88 351 21:41 07.08.2022
85 Clouds 19 1023 89 10000 1.08 272 20:55 07.08.2022
86 Clouds 19 1021 89 10000 1.39 359 20:18 07.08.2022
87 Clouds 20 1021 89 10000 1.39 359 19:51 07.08.2022
88 Clouds 23 1023 93 10000 2.01 279 18:41 07.08.2022
89 Rain 21 1022 79 10000 1.15 281 17:21 07.08.2022
90 Rain 22 1021 79 10000 1.15 281 16:41 07.08.2022
91 Rain 26 1018 65 10000 1.44 351 15:25 07.08.2022
92 Clouds 28 1020 42 10000 1.79 198 13:44 07.08.2022
93 Clear 25 1021 50 10000 1.44 245 12:19 07.08.2022
94 Clear 16 1019 60 10000 1.14 237 10:37 07.08.2022
95 Clouds 16 1022 77 10000 1.48 18 08:26 07.08.2022
96 Clouds 17 1022 78 10000 1.53 30 04:26 07.08.2022
97 Clouds 19 1023 73 10000 1.79 30 01:50 07.08.2022
98 Clouds 20 1024 76 10000 1.91 52 22:28 06.08.2022
99 Rain 18 1023 91 10000 2.27 78 21:28 06.08.2022
100 Rain 19 1023 93 10000 3.03 46 19:42 06.08.2022
101 Rain 21 1024 93 7703 3.45 346 18:33 06.08.2022
102 Rain 23 1023 72 10000 0.89 45 17:37 06.08.2022
103 Clouds 27 1018 44 10000 3.43 232 14:52 06.08.2022
104 Clouds 29 1022 36 10000 1.79 230 13:49 06.08.2022
105 Clouds 25 1023 53 10000 2.3 217 11:59 06.08.2022
106 Clouds 16 1020 39 10000 1.94 221 10:33 06.08.2022
107 Rain 22 1021 50 10000 0.8 204 09:21 06.08.2022
108 Clouds 17 1023 79 10000 1.16 36 03:54 06.08.2022
109 Clouds 19 1024 83 10000 0.45 221 23:54 05.08.2022
110 Clouds 19 1024 87 10000 3.22 25 22:33 05.08.2022
111 Rain 21 1023 80 10000 0.61 95 19:59 05.08.2022
112 Rain 20 1022 79 10000 0.89 0 18:46 05.08.2022
113 Rain 18 1023 92 10000 1.72 116 18:25 05.08.2022
114 Rain 20 1022 80 9716 1.65 201 16:49 05.08.2022
115 Rain 30 1023 88 8960 5.25 50 15:22 05.08.2022
116 Clouds 27 1023 88 8960 5.25 50 14:31 05.08.2022
117 Clouds 28 1020 38 10000 1.79 137 13:24 05.08.2022
118 Clouds 27 1021 36 10000 0.45 301 12:30 05.08.2022
119 Clouds 21 1019 44 10000 1.77 220 10:53 05.08.2022
120 Clear 22 1020 66 10000 0.84 79 08:30 05.08.2022
121 Clouds 16 1022 80 10000 1.58 58 07:22 05.08.2022
122 Clouds 20 1022 79 10000 0.45 263 01:28 05.08.2022
123 Rain 20 1023 80 10000 1.5 317 22:32 04.08.2022
124 Rain 20 1022 78 10000 1.79 0 21:27 04.08.2022
125 Rain 21 1022 75 10000 0.89 217 20:44 04.08.2022
126 Rain 22 1021 73 10000 0.89 225 19:48 04.08.2022
127 Clouds 25 1021 61 10000 0.89 0 18:42 04.08.2022
128 Rain 29 1020 85 10000 3.29 47 18:23 04.08.2022
129 Clouds 27 1018 57 10000 0.93 1 14:38 04.08.2022
130 Clear 29 1019 36 10000 2.24 297 13:18 04.08.2022
131 Clear 22 1018 38 10000 1.94 207 11:20 04.08.2022
132 Clear 23 1019 60 10000 0.83 56 07:54 04.08.2022
133 Clear 17 1021 87 10000 0.96 49 06:40 04.08.2022
134 Clouds 19 1022 84 10000 2.01 42 02:35 04.08.2022
135 Clouds 20 1023 82 10000 0.89 127 23:46 03.08.2022
136 Rain 20 1023 81 10000 0.89 67 22:59 03.08.2022
137 Rain 21 1023 79 10000 0.45 245 20:50 03.08.2022
138 Rain 23 1021 70 10000 1.34 302 19:46 03.08.2022
139 Rain 26 1019 65 10000 2.26 237 18:37 03.08.2022
140 Clouds 29 1016 35 10000 2.38 35 16:26 03.08.2022
141 Clouds 29 1016 35 10000 2.38 35 15:32 03.08.2022
142 Clear 31 1019 36 10000 0.89 187 12:44 03.08.2022
143 Clear 25 1018 44 10000 0.82 236 09:46 03.08.2022
144 Clear 21 1021 70 10000 0.92 28 04:51 03.08.2022
145 Clear 21 1021 68 10000 0.72 41 03:52 03.08.2022
146 Clouds 19 1021 70 10000 0.67 56 01:45 03.08.2022
147 Clouds 21 1021 65 10000 1.54 52 23:41 02.08.2022
148 Clouds 19 1020 67 10000 2.2 37 21:59 02.08.2022
149 Clouds 19 1020 67 10000 2.2 37 21:40 02.08.2022
150 Clouds 27 1020 59 10000 0.89 248 19:38 02.08.2022
151 Clouds 28 1017 42 10000 1.07 9 16:42 02.08.2022
152 Clear 31 1020 39 10000 1.34 274 13:21 02.08.2022
153 Clear 24 1020 53 10000 1.03 231 09:53 02.08.2022
154 Clear 18 1023 69 10000 1.18 28 08:26 02.08.2022
155 Clear 18 1023 69 10000 1.18 28 07:50 02.08.2022
156 Clear 20 1023 65 10000 0.45 0 04:55 02.08.2022
157 Clear 20 1024 78 10000 2.89 26 01:26 02.08.2022
158 Clear 22 1024 82 10000 3.07 18 22:57 01.08.2022
159 Clear 22 1022 82 10000 2.71 18 20:57 01.08.2022
160 Clouds 24 1021 73 10000 2.31 15 19:41 01.08.2022
161 Rain 25 1021 73 10000 2.6 13 18:43 01.08.2022
162 Clouds 29 1020 62 10000 2.12 7 16:54 01.08.2022
163 Clouds 29 1018 45 10000 1.21 276 16:29 01.08.2022
164 Clouds 29 1018 45 10000 1.21 276 15:31 01.08.2022
165 Clouds 31 1021 39 10000 2.24 259 14:43 01.08.2022
166 Clear 28 1022 50 10000 1.79 237 12:52 01.08.2022
167 Clear 19 1020 43 10000 0.89 219 10:30 01.08.2022
168 Clear 22 1021 59 10000 0.77 21 08:41 01.08.2022
169 Clouds 17 1023 77 10000 2.21 29 06:50 01.08.2022
170 Clouds 16 1023 85 10000 2.65 28 04:24 01.08.2022
171 Clouds 17 1024 90 10000 3.22 23 00:55 01.08.2022
172 Clouds 19 1024 90 10000 3.02 20 22:42 31.07.2022
173 Clouds 20 1023 90 10000 2.3 10 21:46 31.07.2022
174 Clouds 24 1023 78 10000 0.45 218 20:18 31.07.2022
175 Clouds 24 1021 79 10000 0.45 266 18:38 31.07.2022
176 Clouds 30 1021 81 10000 2.57 27 16:18 31.07.2022
177 Clouds 30 1022 44 10000 1.79 261 13:53 31.07.2022
178 Clear 28 1022 52 10000 0.45 271 12:29 31.07.2022
179 Clear 22 1024 72 10000 0.62 290 10:22 31.07.2022
180 Clear 20 1024 76 10000 1.07 9 08:18 31.07.2022
181 Clear 17 1023 92 10000 1.87 25 03:49 31.07.2022
182 Clouds 19 1024 92 10000 3.05 17 23:53 30.07.2022
183 Clouds 21 1024 90 10000 2.24 18 22:19 30.07.2022
184 Clouds 21 1024 90 10000 2.26 18 22:19 30.07.2022
185 Clouds 21 1024 90 10000 2.26 18 21:50 30.07.2022
186 Clouds 23 1023 82 10000 1.99 355 20:58 30.07.2022
187 Clouds 24 1020 61 10000 1.9 351 19:59 30.07.2022
188 Clouds 25 1019 49 10000 1.41 335 19:20 30.07.2022
189 Clear 29 1021 50 10000 1.79 288 17:45 30.07.2022
190 Clear 29 1021 48 10000 2.24 309 15:55 30.07.2022
191 Clear 28 1020 42 10000 1.3 239 15:25 30.07.2022
192 Clouds 27 1022 51 10000 1.79 266 13:20 30.07.2022
193 Clouds 26 1022 56 10000 1.79 274 12:20 30.07.2022
194 Clouds 22 1023 75 10000 1.06 257 10:35 30.07.2022
195 Clouds 21 1023 80 10000 0.85 278 09:57 30.07.2022
196 Clouds 16 1022 93 10000 1.6 15 07:55 30.07.2022
197 Clouds 15 1022 96 10000 1.46 9 04:20 30.07.2022
198 Clouds 16 1022 96 10000 2.13 7 02:28 30.07.2022
199 Clouds 17 1022 93 10000 1.76 19 22:46 29.07.2022
200 Clouds 18 1020 88 10000 1.94 11 21:24 29.07.2022
201 Clouds 18 1020 88 10000 1.94 11 20:41 29.07.2022
202 Clouds 25 1018 70 10000 1.73 262 18:26 29.07.2022
203 Clouds 24 1020 57 10000 3.15 217 15:38 29.07.2022
204 Clouds 23 1017 54 10000 3.42 218 13:45 29.07.2022
205 Clouds 22 1021 59 10000 4.02 223 11:30 29.07.2022
206 Clouds 19 1020 71 10000 0.98 326 08:50 29.07.2022
207 Clouds 18 1019 73 9587 1.13 315 08:20 29.07.2022
208 Clouds 19 1019 88 10000 0.59 85 02:29 29.07.2022
209 Rain 19 1019 88 10000 1.71 57 23:18 28.07.2022
210 Rain 19 1017 85 10000 1.39 23 21:29 28.07.2022
211 Clear 24 1017 85 10000 1.39 23 20:34 28.07.2022
212 Clouds 24 1016 79 10000 0.91 27 19:44 28.07.2022
213 Clouds 24 1015 72 8574 0.58 229 19:24 28.07.2022
214 Clear 25 1015 70 10000 2.04 217 17:44 28.07.2022
215 Clear 26 1015 64 9815 2.51 209 16:57 28.07.2022
216 Clear 25 1015 63 9747 3.04 202 16:28 28.07.2022
217 Clouds 24 1018 48 10000 1.79 352 13:30 28.07.2022
218 Clouds 24 1018 48 10000 2.09 214 11:27 28.07.2022
219 Clear 18 1018 59 10000 0.34 124 06:45 28.07.2022
220 Clear 15 1017 72 10000 0.16 86 05:31 28.07.2022
221 Clear 17 1018 69 10000 0.51 87 01:23 28.07.2022
222 Clear 16 1018 72 10000 2.08 26 22:41 27.07.2022
223 Clear 21 1016 57 10000 1 318 21:29 27.07.2022
224 Clear 24 1014 39 10000 2.05 237 19:43 27.07.2022
225 Clear 25 1013 29 10000 4.35 223 17:50 27.07.2022
226 Clear 30 1016 30 10000 2.68 284 15:52 27.07.2022
227 Clear 30 1016 31 10000 1.79 254 14:58 27.07.2022
228 Clear 30 1016 33 10000 2.68 171 14:35 27.07.2022
229 Clear 29 1016 37 10000 2.24 215 12:50 27.07.2022
230 Clear 19 1018 71 10000 0.28 310 07:54 27.07.2022
231 Clear 14 1017 84 10000 0.91 19 06:56 27.07.2022
232 Clouds 17 1020 80 10000 1.33 4 01:59 27.07.2022
233 Clouds 17 1019 87 10000 3.43 14 22:29 26.07.2022
234 Clouds 17 1018 74 10000 2.69 357 21:20 26.07.2022
235 Clouds 19 1016 57 10000 1.96 311 20:28 26.07.2022
236 Clouds 21 1015 43 10000 2.21 274 18:43 26.07.2022
237 Clouds 22 1015 36 10000 3.8 248 17:58 26.07.2022
238 Clear 30 1017 32 10000 2.68 263 15:59 26.07.2022
239 Clear 30 1017 33 10000 2.68 300 15:18 26.07.2022
240 Clear 24 1016 33 10000 3.45 215 13:20 26.07.2022
241 Clear 26 1018 49 10000 3.1 221 11:20 26.07.2022
242 Clear 20 1020 66 10000 1.14 259 08:55 26.07.2022
243 Clear 15 1020 76 10000 1.97 15 05:49 26.07.2022
244 Clouds 18 1023 87 10000 2.86 19 00:37 26.07.2022
245 Clouds 16 1023 92 10000 3.6 25 22:53 25.07.2022
246 Clouds 19 1022 92 10000 3.84 17 22:22 25.07.2022
247 Clouds 17 1022 92 10000 3.84 17 21:38 25.07.2022
248 Clouds 19 1021 83 10000 3.77 5 20:40 25.07.2022
249 Clouds 27 1018 54 10000 3.49 351 19:27 25.07.2022
250 Clouds 33 1018 44 10000 2.81 320 18:18 25.07.2022
251 Clouds 29 1017 38 10000 2.87 283 17:27 25.07.2022
252 Rain 31 1020 28 10000 0.89 254 14:44 25.07.2022
253 Clouds 29 1018 29 10000 3.74 213 12:21 25.07.2022
254 Clouds 27 1019 35 10000 1.34 203 09:18 25.07.2022
255 Clear 23 1022 47 10000 0.45 200 03:23 25.07.2022
256 Clear 23 1022 37 10000 1.31 25 23:54 24.07.2022
257 Clear 22 1021 37 10000 1.4 38 22:56 24.07.2022
258 Clear 22 1021 38 10000 1.06 4 22:26 24.07.2022
259 Clear 24 1019 40 10000 1 248 21:19 24.07.2022
260 Clear 24 1019 40 10000 1 248 20:50 24.07.2022
261 Clear 31 1018 30 10000 2.97 234 20:19 24.07.2022
262 Clear 33 1017 23 10000 3.91 237 18:38 24.07.2022
263 Clear 34 1018 22 10000 4.37 224 16:29 24.07.2022
264 Clear 34 1018 22 10000 4.37 224 15:45 24.07.2022
265 Clear 34 1021 26 10000 0.89 281 14:19 24.07.2022
266 Clear 32 1021 25 10000 1.34 249 12:52 24.07.2022
267 Clear 29 1022 36 10000 0.45 65 11:38 24.07.2022
268 Clear 24 1020 29 10000 2.54 211 10:59 24.07.2022
269 Clear 24 1021 41 10000 1.21 211 08:31 24.07.2022
270 Clear 21 1023 67 10000 0.37 66 07:47 24.07.2022
271 Clear 18 1023 60 10000 0.53 22 04:45 24.07.2022
272 Clear 21 1024 56 10000 1.08 61 00:28 24.07.2022
273 Clear 22 1021 53 10000 0.62 272 21:28 23.07.2022
274 Clear 27 1020 37 10000 2.45 228 19:59 23.07.2022
275 Clouds 30 1019 31 10000 3.07 240 18:50 23.07.2022
276 Clear 30 1019 28 10000 3.87 222 17:28 23.07.2022
277 Clear 30 1019 28 10000 3.87 222 16:31 23.07.2022
278 Clear 32 1021 27 10000 2.68 274 15:22 23.07.2022
279 Clear 33 1021 27 10000 0.89 221 14:58 23.07.2022
280 Clouds 32 1021 29 10000 1.79 292 14:26 23.07.2022
281 Clouds 29 1022 33 10000 1.34 228 12:44 23.07.2022
282 Clouds 24 1023 52 10000 3.52 214 10:45 23.07.2022
283 Clouds 24 1023 58 10000 3.12 205 09:54 23.07.2022
284 Clouds 22 1023 64 10000 2.39 199 08:30 23.07.2022
285 Clouds 21 1022 59 10000 0.78 122 03:38 23.07.2022
286 Clouds 22 1023 70 10000 1.2 78 00:39 23.07.2022
287 Clouds 20 1022 74 10000 2.07 81 22:19 22.07.2022
288 Clouds 23 1020 63 10000 1.62 61 20:39 22.07.2022
289 Clouds 32 1019 45 10000 0.3 51 19:32 22.07.2022
290 Clouds 34 1018 38 10000 1.59 259 18:23 22.07.2022
291 Clouds 31 1018 29 10000 2.46 240 16:46 22.07.2022
292 Clouds 32 1018 25 10000 3.96 217 14:20 22.07.2022
293 Clear 24 1020 32 10000 2.83 215 10:41 22.07.2022
294 Clear 23 1021 46 10000 1.5 194 09:25 22.07.2022
295 Clear 21 1023 62 10000 0.58 92 08:26 22.07.2022
296 Clear 21 1023 57 10000 0.78 34 04:48 22.07.2022
297 Clouds 20 1023 78 10000 1.33 71 23:45 21.07.2022
298 Clouds 23 1022 67 10000 1.42 86 22:25 21.07.2022
299 Clouds 23 1021 64 10000 1.65 67 20:48 21.07.2022
300 Clouds 30 1020 51 10000 2.3 40 18:54 21.07.2022
301 Clouds 31 1019 33 10000 0.87 235 17:29 21.07.2022
302 Clouds 32 1019 33 10000 0.87 235 16:53 21.07.2022
303 Clear 33 1022 30 10000 0.89 0 14:52 21.07.2022
304 Clear 33 1022 30 10000 1.34 229 14:22 21.07.2022
305 Clear 28 1024 40 10000 0.89 192 12:27 21.07.2022
306 Clear 23 1025 62 10000 2.42 217 10:39 21.07.2022
307 Clear 20 1025 71 10000 1.58 214 08:54 21.07.2022
308 Clear 20 1025 72 10000 1.58 214 08:35 21.07.2022
309 Clear 17 1024 81 10000 0.57 63 07:23 21.07.2022
310 Clear 18 1024 89 10000 0.81 35 03:48 21.07.2022
311 Clouds 21 1025 82 10000 2.1 28 23:23 20.07.2022
312 Clouds 21 1024 71 10000 1.01 2 22:20 20.07.2022
313 Clouds 23 1022 61 10000 0.9 258 20:49 20.07.2022
314 Clouds 24 1022 59 10000 0.68 224 19:48 20.07.2022
315 Clouds 23 1021 45 10000 2.36 228 19:19 20.07.2022
316 Clouds 23 1021 45 10000 2.36 228 18:33 20.07.2022
317 Clouds 24 1020 39 10000 3.43 226 17:43 20.07.2022
318 Clear 26 1020 32 10000 4.97 213 15:59 20.07.2022
319 Clear 31 1022 30 10000 1.79 289 14:54 20.07.2022
320 Clear 30 1022 34 10000 2.24 239 13:44 20.07.2022
321 Clear 28 1023 35 10000 2.68 279 11:31 20.07.2022
322 Clouds 20 1023 57 10000 1.07 124 07:36 20.07.2022
323 Clouds 21 1021 61 10000 0.92 62 01:58 20.07.2022
324 Clouds 22 1021 59 10000 1.04 79 00:43 20.07.2022
325 Clouds 21 1021 56 10000 1.35 77 22:39 19.07.2022
326 Clouds 21 1020 56 10000 0.78 125 22:21 19.07.2022
327 Clear 28 1020 51 10000 2.64 229 20:50 19.07.2022
328 Clear 32 1017 36 10000 3.55 198 19:38 19.07.2022
329 Clear 33 1017 27 10000 4.93 207 18:43 19.07.2022
330 Clear 32 1017 23 10000 4.93 212 17:56 19.07.2022
331 Clear 32 1017 20 10000 4.65 213 15:50 19.07.2022
332 Clear 34 1020 21 10000 1.79 286 13:51 19.07.2022
333 Clear 30 1021 37 10000 3.18 212 11:34 19.07.2022
334 Clear 25 1020 40 10000 2.56 205 09:54 19.07.2022
335 Clear 25 1020 47 10000 1.97 209 08:48 19.07.2022
336 Clear 20 1023 62 10000 0.41 171 08:21 19.07.2022
337 Clear 21 1023 61 10000 0.51 62 07:18 19.07.2022
338 Clear 21 1023 57 10000 0.34 66 05:20 19.07.2022
339 Clear 22 1023 55 10000 0.34 66 04:40 19.07.2022
340 Clear 22 1023 65 10000 0.77 70 00:18 19.07.2022
341 Clear 23 1023 64 10000 0.83 116 23:20 18.07.2022
342 Clear 21 1023 64 10000 0.84 115 22:51 18.07.2022
343 Clear 24 1021 50 10000 2.09 216 21:27 18.07.2022
344 Clear 24 1021 50 10000 2.08 216 20:49 18.07.2022
345 Clouds 31 1018 26 10000 3.58 212 19:21 18.07.2022
346 Clouds 34 1019 25 10000 3.68 212 16:45 18.07.2022
347 Clouds 35 1022 22 10000 1.34 227 15:40 18.07.2022
348 Clear 33 1022 26 10000 1.34 0 13:40 18.07.2022
349 Clear 31 1023 32 10000 0.89 290 12:21 18.07.2022
350 Clear 24 1022 39 10000 1.94 207 10:24 18.07.2022
351 Clear 20 1025 60 10000 0.31 95 08:20 18.07.2022
352 Clear 21 1025 56 10000 0.82 45 06:39 18.07.2022
353 Clear 22 1025 48 10000 1.17 82 23:19 17.07.2022
354 Clear 23 1025 48 10000 1.17 82 22:32 17.07.2022
355 Clear 22 1024 46 10000 1.36 57 21:40 17.07.2022
356 Clear 31 1022 49 10000 0.16 286 20:46 17.07.2022
357 Clouds 31 1021 37 10000 1.02 262 20:18 17.07.2022
358 Clouds 33 1020 24 10000 1.41 328 19:25 17.07.2022
359 Clouds 33 1020 19 10000 3.11 356 17:55 17.07.2022
360 Clouds 33 1020 19 10000 3.11 356 17:36 17.07.2022
361 Clear 35 1020 17 10000 3.03 354 16:45 17.07.2022
362 Clear 36 1020 16 10000 2.32 349 16:22 17.07.2022
363 Clear 34 1022 21 10000 1.07 283 13:58 17.07.2022
364 Clear 34 1023 22 10000 0.89 241 13:24 17.07.2022
365 Clear 22 1022 20 10000 0.59 252 10:23 17.07.2022
366 Clear 24 1023 31 10000 2 23 07:55 17.07.2022
367 Clear 23 1024 42 10000 1.94 29 02:35 17.07.2022
368 Clouds 22 1024 38 10000 2.72 22 00:33 17.07.2022
369 Clouds 21 1024 40 10000 2.87 20 22:43 16.07.2022
370 Clouds 24 1022 47 10000 2.79 13 20:45 16.07.2022
371 Clear 33 1019 25 10000 2.77 2 18:58 16.07.2022
372 Clear 33 1019 21 10000 3.18 357 17:48 16.07.2022
373 Clear 36 1019 19 10000 3.34 356 16:22 16.07.2022
374 Clear 33 1021 22 10000 0.45 269 13:26 16.07.2022
375 Clear 24 1020 24 10000 0.99 315 10:29 16.07.2022
376 Clear 25 1021 28 10000 0.85 331 09:26 16.07.2022
377 Clear 24 1021 28 10000 0.85 331 08:41 16.07.2022
378 Clear 20 1023 53 10000 2.14 15 07:23 16.07.2022
379 Clear 22 1023 47 10000 1.62 20 03:35 16.07.2022
380 Clear 21 1024 48 10000 2.39 27 00:45 16.07.2022
381 Clear 20 1023 52 10000 2.79 21 22:56 15.07.2022
382 Clear 23 1023 55 10000 3.06 19 22:24 15.07.2022
383 Clear 31 1022 55 10000 2.94 13 20:41 15.07.2022
384 Clouds 31 1018 26 10000 3.47 355 19:34 15.07.2022
385 Clouds 32 1018 21 10000 3.19 349 18:23 15.07.2022
386 Clouds 34 1018 19 10000 2.48 334 16:53 15.07.2022
387 Clouds 33 1019 19 10000 1.43 283 14:19 15.07.2022
388 Clouds 31 1022 18 10000 0.45 0 12:28 15.07.2022
389 Clouds 24 1021 21 10000 1.28 342 10:52 15.07.2022
390 Clear 19 1024 51 10000 2.73 20 07:48 15.07.2022
391 Clear 20 1024 45 10000 2.91 21 02:51 15.07.2022
392 Clear 22 1025 37 10000 3 18 00:39 15.07.2022
393 Clear 22 1025 37 10000 3 18 00:39 15.07.2022
394 Clear 20 1025 39 10000 2.96 20 22:56 14.07.2022
395 Clear 20 1025 43 10000 3.07 21 22:19 14.07.2022
396 Clear 20 1025 43 10000 3.07 21 21:37 14.07.2022
397 Clear 22 1023 45 10000 2.97 17 21:18 14.07.2022
398 Clear 22 1023 45 10000 2.95 16 20:42 14.07.2022
399 Clear 30 1022 33 10000 2.66 3 20:18 14.07.2022
400 Clear 31 1021 15 10000 3.48 4 17:25 14.07.2022
401 Clear 33 1021 14 10000 3.35 7 16:18 14.07.2022
402 Clear 33 1021 14 10000 3.16 6 14:44 14.07.2022
403 Clear 34 1023 14 10000 0.45 325 13:39 14.07.2022
404 Clear 31 1024 22 10000 0.45 244 12:23 14.07.2022
405 Clear 28 1024 44 10000 0.45 223 11:26 14.07.2022
406 Clear 25 1022 26 10000 1.15 345 10:51 14.07.2022
407 Clear 20 1026 73 10000 2.04 22 08:28 14.07.2022
408 Clear 19 1025 69 10000 1.65 28 03:42 14.07.2022
409 Clear 21 1026 64 10000 1.46 43 00:55 14.07.2022
410 Clouds 22 1026 63 10000 1.64 53 23:41 13.07.2022
411 Clouds 22 1025 63 10000 2.13 42 22:27 13.07.2022
412 Clouds 21 1025 63 10000 2.13 42 21:32 13.07.2022
413 Clouds 24 1024 59 10000 1.7 18 20:38 13.07.2022
414 Clouds 29 1021 30 10000 1.22 318 18:22 13.07.2022
415 Clear 33 1021 27 10000 1.39 256 17:22 13.07.2022
416 Clear 34 1021 26 10000 1.9 223 15:59 13.07.2022
417 Clear 32 1024 29 10000 1.34 0 13:50 13.07.2022
418 Clear 28 1025 43 10000 2.14 217 11:30 13.07.2022
419 Clear 24 1025 59 10000 2.01 216 10:44 13.07.2022
420 Clear 20 1024 55 10000 0.9 195 09:29 13.07.2022
421 Clear 20 1026 74 10000 0.59 61 08:23 13.07.2022
422 Clear 21 1026 67 10000 1.61 37 04:36 13.07.2022
423 Clouds 21 1026 60 10000 2.37 21 00:47 13.07.2022
424 Clouds 21 1025 58 10000 2.26 17 22:46 12.07.2022
425 Clouds 22 1024 54 10000 2.12 17 21:46 12.07.2022
426 Clouds 23 1024 55 10000 2.29 19 20:53 12.07.2022
427 Clouds 27 1023 47 10000 2.19 24 19:48 12.07.2022
428 Clouds 27 1022 43 10000 2.38 27 18:35 12.07.2022
429 Clear 33 1020 26 10000 1.12 312 16:24 12.07.2022
430 Clear 33 1023 23 10000 0.89 247 14:32 12.07.2022
431 Clear 33 1023 23 10000 0.89 247 14:32 12.07.2022
432 Clear 33 1023 25 10000 0.89 261 13:35 12.07.2022
433 Clear 29 1024 41 10000 0.72 257 11:54 12.07.2022
434 Clear 23 1022 37 10000 0.4 257 10:26 12.07.2022
435 Clear 22 1023 44 10000 0.29 15 08:46 12.07.2022
436 Clear 22 1023 56 10000 1.34 28 07:48 12.07.2022
437 Clear 18 1024 70 10000 1.86 28 05:45 12.07.2022
438 Clear 18 1024 69 10000 1.59 22 04:57 12.07.2022
439 Clouds 21 1024 65 10000 2.09 33 00:54 12.07.2022
440 Clouds 21 1023 58 10000 2.09 32 22:43 11.07.2022
441 Clouds 24 1021 60 10000 1.56 8 20:56 11.07.2022
442 Clouds 24 1021 60 10000 1.56 8 20:32 11.07.2022
443 Clouds 24 1021 60 10000 1.56 8 20:32 11.07.2022
444 Clouds 26 1021 71 10000 0.66 24 18:50 11.07.2022
445 Clouds 26 1021 72 10000 1.62 11 18:28 11.07.2022
446 Rain 28 1020 46 10000 0.45 109 16:26 11.07.2022
447 Clouds 33 1017 35 10000 1.14 232 15:23 11.07.2022
448 Clear 29 1020 35 10000 1.34 217 12:42 11.07.2022
449 Clear 26 1020 47 10000 1.81 220 11:23 11.07.2022
450 Clear 24 1019 45 10000 1.5 215 09:55 11.07.2022
451 Clear 21 1019 48 10000 0.6 225 09:25 11.07.2022
452 Clear 19 1022 71 10000 0.47 38 08:30 11.07.2022
453 Clear 19 1022 46 10000 1.99 36 00:56 11.07.2022
454 Clear 19 1022 48 10000 2.13 32 23:53 10.07.2022
455 Clear 18 1022 49 10000 2.44 27 22:37 10.07.2022
456 Clear 27 1020 54 10000 2.63 17 20:55 10.07.2022
457 Clear 27 1019 41 10000 2.72 9 20:24 10.07.2022
458 Clear 29 1018 30 10000 3.49 7 19:28 10.07.2022
459 Clear 29 1017 25 10000 3.21 2 17:59 10.07.2022
460 Clear 29 1017 22 10000 1.86 355 16:59 10.07.2022
461 Clear 31 1018 21 10000 0.94 328 16:20 10.07.2022
462 Clear 32 1020 18 10000 1.34 0 14:44 10.07.2022
463 Clear 30 1021 24 10000 0.89 263 13:18 10.07.2022
464 Clear 25 1023 37 10000 0.77 287 11:36 10.07.2022
465 Clear 18 1021 27 10000 0.75 328 09:44 10.07.2022
466 Clear 17 1022 33 10000 1.23 3 08:43 10.07.2022
467 Clear 16 1025 55 10000 2.76 22 06:39 10.07.2022
468 Clear 18 1027 57 10000 3.17 20 23:47 09.07.2022
469 Clear 17 1026 61 10000 3.24 19 22:26 09.07.2022
470 Clear 17 1026 61 10000 3.24 19 21:41 09.07.2022
471 Clear 25 1023 42 10000 3.1 6 19:44 09.07.2022
472 Clear 29 1022 29 10000 3.6 358 18:26 09.07.2022
473 Clear 29 1022 25 10000 3.32 355 17:21 09.07.2022
474 Clear 30 1022 23 10000 2.6 350 15:58 09.07.2022
475 Clear 31 1022 23 10000 2.6 350 15:38 09.07.2022
476 Clear 29 1022 22 10000 1.65 343 14:21 09.07.2022
477 Clear 28 1023 24 10000 1.14 342 13:28 09.07.2022
478 Clear 24 1026 33 10000 1.15 351 11:40 09.07.2022
479 Clear 19 1025 31 10000 1.85 7 10:25 09.07.2022
480 Clear 19 1025 38 10000 2.21 12 09:23 09.07.2022
481 Clear 16 1027 52 10000 2.53 20 07:43 09.07.2022
482 Clear 17 1027 47 10000 2.62 25 04:38 09.07.2022
483 Clear 17 1029 68 10000 2.81 26 23:33 08.07.2022
484 Clear 15 1029 74 10000 3.38 20 22:18 08.07.2022
485 Clear 18 1027 66 10000 3.25 15 21:21 08.07.2022
486 Clear 26 1027 66 10000 3.23 15 20:35 08.07.2022
487 Clear 27 1025 39 10000 3.44 9 18:45 08.07.2022
488 Clear 27 1024 34 10000 3.53 8 17:45 08.07.2022
489 Clear 31 1024 27 10000 3.38 5 15:53 08.07.2022
490 Clear 29 1024 25 10000 3.22 8 14:50 08.07.2022
491 Clear 25 1024 25 10000 2.97 9 12:30 08.07.2022
492 Clear 25 1026 29 10000 0.45 0 10:46 08.07.2022
493 Clear 18 1027 47 10000 3.75 13 09:24 08.07.2022
494 Clear 14 1028 81 10000 4.31 17 06:55 08.07.2022
495 Clear 14 1028 87 10000 4.3 14 04:32 08.07.2022
496 Clear 15 1029 88 10000 3.97 8 00:23 08.07.2022
497 Clear 15 1029 87 10000 3.99 7 22:47 07.07.2022
498 Clear 17 1028 85 10000 3.89 8 21:39 07.07.2022
499 Clear 19 1025 54 10000 4.01 5 19:28 07.07.2022
500 Clear 24 1025 49 10000 3.88 6 17:42 07.07.2022
501 Clear 26 1025 43 10000 3.89 9 15:57 07.07.2022
502 Clear 24 1025 37 10000 3.53 6 13:30 07.07.2022
503 Clear 24 1026 36 10000 0.45 284 12:40 07.07.2022
504 Clear 23 1025 39 10000 3.66 5 12:21 07.07.2022
505 Clear 23 1026 37 10000 1.34 0 11:31 07.07.2022
506 Clear 21 1026 42 10000 0.45 302 10:44 07.07.2022
507 Clear 20 1026 43 10000 0.45 201 10:26 07.07.2022
508 Clouds 14 1026 84 10000 3.37 6 07:58 07.07.2022
509 Clouds 14 1026 87 10000 3.37 11 04:44 07.07.2022
510 Clouds 16 1026 93 10000 3.09 13 23:37 06.07.2022
511 Clouds 16 1026 95 10000 2.6 33 23:19 06.07.2022
512 Clouds 16 1026 95 10000 2.6 33 23:19 06.07.2022
513 Rain 17 1026 95 10000 2.6 33 22:57 06.07.2022
514 Clouds 17 1026 95 10000 2.6 33 22:39 06.07.2022
515 Clouds 18 1026 96 6398 2.05 55 21:46 06.07.2022
516 Clouds 19 1025 96 2976 3.18 337 19:41 06.07.2022
517 Clouds 20 1022 96 1524 2.57 327 18:32 06.07.2022
518 Clouds 22 1025 67 10000 0.45 234 16:27 06.07.2022
519 Rain 20 1022 62 10000 0.63 120 14:58 06.07.2022
520 Rain 19 1026 81 10000 0.45 65 12:42 06.07.2022
521 Rain 19 1026 84 10000 0.88 89 11:49 06.07.2022
522 Rain 19 1027 83 1127 0.45 43 10:18 06.07.2022
523 Clouds 18 1026 86 10000 1.22 195 07:47 06.07.2022
524 Clouds 17 1024 84 10000 1.4 24 07:23 06.07.2022
525 Clouds 17 1024 88 10000 2.43 19 03:24 06.07.2022
526 Clouds 17 1026 94 10000 1.41 18 22:45 05.07.2022
527 Clouds 17 1025 94 10000 2.4 15 21:39 05.07.2022
528 Clouds 20 1023 78 10000 2.51 3 20:39 05.07.2022
529 Clouds 23 1021 63 10000 2 350 19:43 05.07.2022
530 Clouds 26 1020 39 10000 2.1 270 19:22 05.07.2022
531 Clear 28 1020 29 10000 3.15 263 17:47 05.07.2022
532 Clear 27 1020 28 10000 4.18 247 16:54 05.07.2022
533 Clear 32 1021 35 10000 1.79 279 15:25 05.07.2022
534 Clear 31 1021 33 10000 1.79 211 13:59 05.07.2022
535 Clear 29 1022 44 10000 4.09 221 12:42 05.07.2022
536 Clear 27 1023 47 10000 0.89 253 11:32 05.07.2022
537 Clear 23 1021 41 10000 2.73 220 10:34 05.07.2022
538 Clear 18 1024 67 10000 1.38 208 08:26 05.07.2022
539 Clear 18 1024 68 10000 1.38 208 07:45 05.07.2022
540 Clear 18 1023 60 10000 0.7 18 04:49 05.07.2022
541 Clear 19 1023 58 10000 0.35 20 04:21 05.07.2022
542 Clear 19 1022 68 10000 1.94 25 23:45 04.07.2022
543 Clear 18 1022 69 10000 2.28 17 23:25 04.07.2022
544 Clear 19 1021 67 10000 1.82 13 22:21 04.07.2022
545 Clear 22 1020 60 10000 0.56 291 21:20 04.07.2022
546 Clear 21 1020 60 10000 0.55 290 20:52 04.07.2022
547 Clear 21 1020 60 10000 0.56 291 20:33 04.07.2022
548 Clouds 25 1019 43 10000 2.4 235 19:51 04.07.2022
549 Clouds 29 1019 46 10000 1.82 280 19:33 04.07.2022
550 Clouds 28 1018 34 10000 4.79 231 17:42 04.07.2022
551 Clear 31 1020 35 10000 2.24 277 15:44 04.07.2022
552 Clear 30 1020 38 10000 1.34 71 14:42 04.07.2022
553 Clear 28 1021 40 10000 1.79 225 13:29 04.07.2022
554 Clear 25 1021 59 10000 0.45 0 12:20 04.07.2022
555 Clear 22 1019 39 10000 3.21 217 10:33 04.07.2022
556 Clear 22 1020 46 10000 2 216 09:40 04.07.2022
557 Clouds 16 1023 87 10000 0.15 116 06:53 04.07.2022
558 Clouds 17 1024 87 10000 0.71 94 03:30 04.07.2022
559 Clouds 20 1025 81 10000 0.45 52 00:27 04.07.2022
560 Rain 22 1024 80 10000 1.48 122 22:58 03.07.2022
561 Clouds 29 1023 74 10000 1.84 290 20:47 03.07.2022
562 Clouds 29 1021 60 10000 2.47 323 20:21 03.07.2022
563 Clouds 31 1020 50 10000 4.04 240 19:26 03.07.2022
564 Rain 30 1020 50 10000 4.04 240 18:32 03.07.2022
565 Clouds 30 1018 37 10000 8.42 220 17:43 03.07.2022
566 Clear 32 1019 25 10000 5.16 232 15:28 03.07.2022
567 Clear 34 1021 26 10000 0.45 257 14:57 03.07.2022
568 Clear 32 1022 27 10000 1.79 271 13:50 03.07.2022
569 Clear 31 1022 31 10000 1.34 266 12:51 03.07.2022
570 Clear 29 1022 34 10000 0.89 267 12:22 03.07.2022
571 Clear 23 1020 34 10000 2.57 213 10:55 03.07.2022
572 Clear 22 1020 34 10000 2.57 213 10:36 03.07.2022
573 Clear 19 1021 41 10000 1.9 205 08:48 03.07.2022
574 Clouds 22 1022 48 10000 0.63 168 07:34 03.07.2022
575 Clear 19 1024 67 10000 1 71 01:32 03.07.2022
576 Clear 19 1024 67 10000 1.56 53 23:38 02.07.2022
577 Clear 18 1024 66 10000 1.38 61 22:31 02.07.2022
578 Clear 21 1021 60 10000 0.92 196 20:37 02.07.2022
579 Clouds 28 1020 43 10000 2.1 217 19:50 02.07.2022
580 Clouds 30 1019 31 10000 3.39 221 18:48 02.07.2022
581 Clouds 30 1019 28 10000 3.96 217 17:40 02.07.2022
582 Clouds 31 1019 27 10000 4.04 215 16:32 02.07.2022
583 Clear 31 1022 26 10000 1.34 272 13:51 02.07.2022
584 Clear 26 1023 37 10000 0.45 251 11:51 02.07.2022
585 Clear 20 1020 40 10000 2.44 215 10:52 02.07.2022
586 Clear 19 1021 43 10000 2.2 213 10:25 02.07.2022
587 Clear 19 1021 44 10000 1.76 201 08:38 02.07.2022
588 Clear 19 1022 50 10000 0.27 94 08:19 02.07.2022
589 Clear 16 1024 58 10000 0.66 23 04:19 02.07.2022
590 Clear 16 1023 59 10000 0.56 45 00:28 02.07.2022
591 Clear 16 1023 60 10000 0.93 38 23:26 01.07.2022
592 Clear 17 1023 60 10000 0.93 38 22:33 01.07.2022
593 Clouds 15 1021 60 10000 0.31 18 21:38 01.07.2022
594 Clouds 24 1020 59 10000 1.32 217 20:58 01.07.2022
595 Clouds 24 1020 59 10000 1.32 217 20:32 01.07.2022
596 Clear 24 1019 45 10000 2.07 218 19:36 01.07.2022
597 Clear 25 1018 33 10000 3.38 218 16:42 01.07.2022
598 Clear 26 1019 19 10000 2.24 300 14:34 01.07.2022
599 Clouds 24 1018 32 10000 3.84 215 13:51 01.07.2022
600 Clouds 21 1019 43 10000 2.24 226 11:22 01.07.2022
601 Clouds 18 1018 71 10000 2.55 214 10:19 01.07.2022
602 Clouds 15 1019 94 2116 0.63 238 07:32 01.07.2022
603 Clouds 12 1018 98 259 0.74 255 02:43 01.07.2022
604 Clouds 13 1018 98 3336 1.35 292 23:52 30.06.2022
605 Clouds 13 1018 97 10000 1.2 286 22:51 30.06.2022
606 Clouds 13 1018 97 10000 1.2 286 22:32 30.06.2022
607 Clouds 13 1018 97 10000 1.2 286 22:32 30.06.2022
608 Clouds 14 1017 95 8860 1.12 289 21:54 30.06.2022
609 Clouds 15 1015 86 10000 1.62 219 20:49 30.06.2022
610 Clouds 16 1013 62 10000 3.1 205 20:21 30.06.2022
611 Clouds 16 1013 62 10000 3.1 205 19:48 30.06.2022
612 Clouds 21 1013 53 10000 3.76 213 18:54 30.06.2022
613 Clouds 22 1013 43 10000 5.38 211 17:56 30.06.2022
614 Clouds 23 1013 43 10000 5.38 211 17:34 30.06.2022
615 Clouds 24 1015 36 10000 3.58 277 16:20 30.06.2022
616 Clouds 24 1014 36 10000 1.79 210 14:20 30.06.2022
617 Clouds 24 1015 38 10000 1.79 211 13:21 30.06.2022
618 Clouds 23 1015 37 10000 2.68 215 12:34 30.06.2022
619 Clouds 20 1015 49 10000 0.89 246 10:57 30.06.2022
620 Clouds 17 1016 79 10000 3.17 196 09:51 30.06.2022
621 Clouds 16 1016 84 10000 2.22 181 09:23 30.06.2022
622 Clouds 15 1016 88 10000 0.45 209 07:41 30.06.2022
623 Clouds 15 1016 87 10000 1.38 113 05:46 30.06.2022
624 Rain 15 1016 82 7070 1.58 42 23:56 29.06.2022
625 Clouds 16 1016 75 10000 1.86 73 22:42 29.06.2022
626 Clouds 19 1015 60 10000 1.16 85 22:20 29.06.2022
627 Clouds 20 1014 57 10000 1 202 20:54 29.06.2022
628 Clouds 20 1014 57 10000 1 202 20:32 29.06.2022
629 Clear 22 1013 41 10000 2.25 217 19:31 29.06.2022
630 Clear 23 1013 30 10000 3.55 217 17:39 29.06.2022
631 Clear 27 1015 30 10000 1.79 294 16:31 29.06.2022
632 Clear 27 1017 28 10000 1.34 277 13:58 29.06.2022
633 Clear 26 1018 31 10000 1.79 249 12:38 29.06.2022
634 Clear 18 1019 62 10000 2.47 207 10:19 29.06.2022
635 Clear 17 1017 40 10000 2.47 207 09:31 29.06.2022
636 Clear 14 1020 77 10000 0.94 46 06:57 29.06.2022
637 Clear 15 1020 74 10000 0.45 213 04:46 29.06.2022
638 Clouds 15 1021 87 10000 0.99 64 00:54 29.06.2022
639 Clouds 16 1021 87 10000 1.54 41 00:35 29.06.2022
640 Clouds 14 1021 89 10000 2.41 30 22:52 28.06.2022
641 Clouds 18 1020 86 10000 2.61 24 22:21 28.06.2022
642 Clouds 15 1020 86 10000 2.61 24 21:49 28.06.2022
643 Clouds 18 1020 86 10000 2.61 24 21:30 28.06.2022
644 Clouds 18 1017 56 10000 0.75 320 20:18 28.06.2022
645 Clouds 18 1017 57 10000 0.55 344 19:32 28.06.2022
646 Clouds 21 1017 53 10000 0.5 316 18:40 28.06.2022
647 Clouds 20 1016 46 10000 1.38 248 17:36 28.06.2022
648 Clouds 26 1017 41 10000 1.34 245 15:55 28.06.2022
649 Clouds 25 1018 44 10000 1.34 219 14:54 28.06.2022
650 Clouds 19 1016 43 10000 1.77 233 14:19 28.06.2022
651 Clouds 24 1018 48 10000 2.24 71 13:45 28.06.2022
652 Clouds 23 1018 54 10000 1.34 248 12:35 28.06.2022
653 Clouds 18 1018 57 10000 1.37 239 10:40 28.06.2022
654 Clouds 14 1020 91 10000 0.98 19 08:56 28.06.2022
655 Clouds 14 1020 91 10000 0.98 19 08:37 28.06.2022
656 Clouds 13 1021 90 10000 2.07 17 07:20 28.06.2022
657 Clouds 12 1021 95 10000 2.55 6 04:54 28.06.2022
658 Rain 15 1023 89 601 0.45 0 23:53 27.06.2022
659 Rain 12 1023 97 72 2.66 16 23:27 27.06.2022
660 Rain 13 1022 97 236 3 29 22:25 27.06.2022
661 Clouds 13 1021 97 54 2.83 20 21:29 27.06.2022
662 Rain 17 1021 97 54 2.83 20 20:33 27.06.2022
663 Clouds 19 1019 89 2961 1.73 11 18:51 27.06.2022
664 Clouds 19 1018 87 10000 1.43 1 17:38 27.06.2022
665 Clouds 19 1018 84 5832 0.64 302 15:50 27.06.2022
666 Clouds 22 1018 56 8090 2.68 213 14:25 27.06.2022
667 Clouds 21 1017 69 9971 1.6 229 12:58 27.06.2022
668 Clouds 21 1018 62 10000 0.45 279 11:40 27.06.2022
669 Clouds 19 1017 69 9842 0.15 184 09:49 27.06.2022
670 Clouds 17 1016 78 10000 0.88 14 08:43 27.06.2022
671 Clouds 16 1016 79 10000 2.12 26 07:49 27.06.2022
672 Clouds 14 1016 95 10000 1.95 29 05:50 27.06.2022
673 Clear 17 1016 95 10000 0.89 90 01:25 27.06.2022
674 Clear 15 1015 92 10000 1.11 81 23:22 26.06.2022
675 Clouds 16 1014 89 10000 0.65 104 21:39 26.06.2022
676 Clouds 25 1012 82 10000 1.96 178 20:33 26.06.2022
677 Clouds 25 1011 73 10000 2.31 212 18:34 26.06.2022
678 Clouds 25 1012 71 10000 2.42 206 17:47 26.06.2022
679 Clouds 24 1013 79 10000 3.19 215 15:37 26.06.2022
680 Clouds 26 1013 41 10000 4.02 277 14:23 26.06.2022
681 Clouds 26 1013 38 10000 3.13 267 13:26 26.06.2022
682 Clouds 24 1013 43 10000 1.79 331 11:49 26.06.2022
683 Clouds 19 1014 65 10000 0.45 0 10:42 26.06.2022
684 Clouds 18 1014 68 10000 2.96 182 10:19 26.06.2022
685 Clouds 16 1015 83 10000 2.3 172 08:36 26.06.2022
686 Clouds 15 1015 87 10000 1.51 115 06:31 26.06.2022
687 Clouds 17 1015 85 10000 1.06 126 00:37 26.06.2022
688 Clouds 17 1015 86 10000 0.93 134 00:19 26.06.2022
689 Clouds 18 1015 85 10000 0.93 134 23:31 25.06.2022
690 Clouds 18 1015 84 10000 0.77 63 22:48 25.06.2022
691 Clouds 17 1015 97 6233 0.55 273 22:25 25.06.2022
692 Clouds 18 1014 93 9726 1.2 252 21:21 25.06.2022
693 Rain 18 1014 93 9726 1.2 252 20:48 25.06.2022
694 Rain 18 1013 86 10000 1.51 260 20:25 25.06.2022
695 Rain 18 1013 86 10000 1.51 260 20:25 25.06.2022
696 Clouds 23 1014 47 10000 0.89 260 18:23 25.06.2022
697 Clouds 24 1013 40 10000 1.79 282 17:27 25.06.2022
698 Clouds 23 1012 40 10000 5.14 216 16:27 25.06.2022
699 Clouds 22 1012 36 10000 5.78 218 14:31 25.06.2022
700 Clouds 23 1015 45 10000 2.68 0 12:46 25.06.2022
701 Clouds 23 1015 45 10000 3.13 286 12:27 25.06.2022
702 Clouds 15 1016 74 10000 3.08 196 09:24 25.06.2022
703 Clouds 15 1016 74 10000 3.08 196 09:24 25.06.2022
704 Clouds 19 1014 62 10000 3.08 196 08:49 25.06.2022
705 Clear 14 1016 76 10000 1.6 189 08:20 25.06.2022
706 Clear 14 1016 74 10000 0.56 115 06:35 25.06.2022
707 Clear 14 1017 67 10000 0.68 150 00:45 25.06.2022
708 Clear 14 1017 66 10000 0.75 137 23:54 24.06.2022
709 Clear 18 1016 65 10000 0.73 222 22:25 24.06.2022
710 Clear 19 1015 58 10000 1.68 216 21:22 24.06.2022
711 Clear 23 1013 42 10000 3.2 218 20:23 24.06.2022
712 Clear 24 1012 36 10000 3.8 222 19:24 24.06.2022
713 Clear 24 1012 36 10000 3.8 222 18:51 24.06.2022
714 Clear 24 1012 36 10000 3.8 222 18:31 24.06.2022
715 Clear 25 1014 33 10000 1.79 278 17:47 24.06.2022
716 Clear 24 1015 33 10000 2.24 264 16:34 24.06.2022
717 Clouds 24 1015 37 10000 2.24 205 14:30 24.06.2022
718 Clear 23 1015 38 10000 2.24 190 13:58 24.06.2022
719 Clear 21 1015 45 10000 1.79 63 12:28 24.06.2022
720 Clear 21 1015 43 10000 2.24 236 11:40 24.06.2022
721 Clear 19 1015 61 10000 0.45 0 10:26 24.06.2022
722 Clear 16 1016 81 10000 2.88 221 09:41 24.06.2022
723 Clear 15 1016 87 10000 2.9 214 08:53 24.06.2022
724 Clouds 15 1016 87 10000 1.97 202 07:33 24.06.2022
725 Clouds 15 1016 87 10000 1.35 167 06:42 24.06.2022
726 Clouds 15 1016 87 10000 1.09 162 06:18 24.06.2022
727 Clear 15 1016 89 10000 1.19 203 02:44 24.06.2022
728 Clouds 17 1016 69 10000 1.85 212 22:58 23.06.2022
729 Clouds 18 1016 69 10000 1.85 211 22:40 23.06.2022
730 Clouds 21 1015 63 10000 1.93 212 20:57 23.06.2022
731 Clouds 21 1015 59 10000 2.07 230 20:32 23.06.2022
732 Clouds 24 1013 48 10000 2.46 233 19:25 23.06.2022
733 Clouds 25 1013 45 10000 5.34 239 17:51 23.06.2022
734 Clouds 24 1014 45 10000 2.68 265 16:58 23.06.2022
735 Clouds 24 1014 46 10000 1.79 214 15:50 23.06.2022
736 Clouds 24 1014 46 10000 2.68 275 15:24 23.06.2022
737 Rain 22 1015 58 10000 1.34 250 13:33 23.06.2022
738 Clear 21 1014 53 10000 2.68 270 11:27 23.06.2022
739 Clear 20 1014 57 10000 2.24 292 10:31 23.06.2022
740 Clear 17 1014 80 10000 2.05 191 08:49 23.06.2022
741 Clear 15 1015 86 10000 0.69 121 02:46 23.06.2022
742 Clear 17 1015 74 10000 0.62 137 00:26 23.06.2022
743 Clear 18 1015 71 10000 0.76 133 23:27 22.06.2022
744 Clear 15 1015 72 10000 0.74 134 22:39 22.06.2022
745 Clear 21 1013 65 10000 1.72 212 21:21 22.06.2022
746 Clear 22 1012 51 10000 2.83 219 20:25 22.06.2022
747 Clear 22 1012 51 10000 3.04 227 19:50 22.06.2022
748 Clear 24 1011 40 10000 4.77 231 18:21 22.06.2022
749 Clear 23 1011 38 10000 5.3 224 17:26 22.06.2022
750 Clear 23 1011 37 10000 5.74 216 16:18 22.06.2022
751 Clear 25 1013 27 10000 2.68 231 15:25 22.06.2022
752 Clouds 25 1013 40 10000 3.13 248 14:18 22.06.2022
753 Clouds 25 1013 43 10000 3.58 254 13:37 22.06.2022
754 Clear 25 1013 40 10000 2.24 274 13:18 22.06.2022
755 Clear 23 1013 54 10000 1.79 215 11:48 22.06.2022
756 Clear 20 1013 77 10000 3.45 214 10:54 22.06.2022
757 Clear 18 1014 90 10000 2.99 208 09:54 22.06.2022
758 Clouds 17 1014 93 10000 1.2 208 07:56 22.06.2022
759 Rain 16 1015 92 738 1.81 152 03:40 22.06.2022
760 Rain 15 1017 95 10000 2.73 152 01:23 22.06.2022
761 Rain 17 1017 91 2842 0.45 272 23:41 21.06.2022
762 Rain 18 1018 89 10000 1.06 352 21:32 21.06.2022
763 Rain 13 1016 95 8102 1.81 185 19:50 21.06.2022
764 Rain 23 1015 69 10000 0.89 59 18:32 21.06.2022
765 Rain 28 1014 31 10000 2.24 226 17:25 21.06.2022
766 Clouds 28 1015 33 10000 1.79 254 13:33 21.06.2022
767 Clouds 26 1015 44 10000 1.79 267 11:30 21.06.2022
768 Clear 22 1015 59 10000 0.45 268 09:48 21.06.2022
769 Clear 20 1015 66 10000 2.46 194 08:37 21.06.2022
770 Clouds 15 1016 89 10000 1.25 110 05:41 21.06.2022
771 Clouds 19 1017 86 10000 1.74 126 00:43 21.06.2022
772 Clouds 19 1016 90 6269 5.23 192 22:25 20.06.2022
773 Clouds 19 1016 90 6269 5.23 192 21:50 20.06.2022
774 Clear 26 1014 72 8326 2.89 199 20:32 20.06.2022
775 Clouds 27 1012 48 10000 5.2 203 19:38 20.06.2022
776 Clouds 29 1014 27 10000 0.89 223 18:44 20.06.2022
777 Clouds 28 1014 28 10000 2.24 302 17:52 20.06.2022
778 Clouds 29 1015 30 10000 1.79 190 17:29 20.06.2022
779 Clear 29 1015 33 10000 1.79 244 15:53 20.06.2022
780 Clear 29 1014 32 10000 1.79 318 12:44 20.06.2022
781 Clear 23 1014 47 10000 0.89 298 10:41 20.06.2022
782 Clear 19 1014 65 10000 3.69 202 09:30 20.06.2022
783 Clear 22 1013 55 10000 3.05 191 08:44 20.06.2022
784 Clear 17 1015 63 10000 1.13 119 05:55 20.06.2022
785 Clear 17 1016 79 10000 1.57 126 02:27 20.06.2022
786 Clear 18 1016 82 10000 1.85 142 00:26 20.06.2022
787 Clear 16 1016 78 10000 2.17 156 22:53 19.06.2022
788 Clear 24 1015 72 10000 2.7 173 21:58 19.06.2022
789 Clear 25 1015 72 10000 2.7 173 21:40 19.06.2022
790 Clear 27 1013 62 10000 3.19 190 20:39 19.06.2022
791 Clear 27 1012 48 10000 3.85 196 19:47 19.06.2022
792 Clear 27 1012 40 10000 5.01 196 18:46 19.06.2022
793 Clear 27 1012 36 10000 5.94 192 18:26 19.06.2022
794 Clear 28 1012 34 10000 7.09 190 17:22 19.06.2022
795 Clear 28 1012 34 10000 7.09 190 16:35 19.06.2022
796 Clear 29 1012 33 10000 7.69 188 15:41 19.06.2022
797 Clear 30 1014 29 10000 2.24 200 14:57 19.06.2022
798 Clouds 30 1015 28 10000 4.02 257 14:20 19.06.2022
799 Clouds 29 1015 24 10000 4.02 261 13:23 19.06.2022
800 Clouds 27 1016 28 10000 2.68 257 11:21 19.06.2022
801 Clouds 23 1016 42 10000 1.34 337 09:58 19.06.2022
802 Clear 22 1015 46 10000 3.76 183 08:47 19.06.2022
803 Clear 19 1017 61 10000 2.33 165 08:19 19.06.2022
804 Clear 20 1017 55 10000 1.55 136 05:42 19.06.2022
805 Clear 19 1019 57 10000 1.34 142 02:26 19.06.2022
806 Clear 21 1020 58 10000 1.48 134 00:25 19.06.2022
807 Clear 21 1020 58 10000 1.48 134 23:36 18.06.2022
808 Clear 19 1019 56 10000 1.52 149 22:44 18.06.2022
809 Clear 20 1019 54 10000 1.9 173 21:38 18.06.2022
810 Clear 22 1018 51 10000 2.41 192 20:42 18.06.2022
811 Clear 27 1017 34 10000 3.5 198 19:40 18.06.2022
812 Clear 31 1016 26 10000 4.99 187 18:53 18.06.2022
813 Clear 33 1017 22 10000 5.4 195 17:35 18.06.2022
814 Clear 34 1017 20 10000 5.23 202 16:56 18.06.2022
815 Clear 34 1018 21 10000 4.47 208 15:33 18.06.2022
816 Clear 34 1021 21 10000 1.34 248 14:45 18.06.2022
817 Clear 33 1022 22 10000 0.89 213 13:23 18.06.2022
818 Clear 30 1023 24 10000 1.34 265 11:45 18.06.2022
819 Clear 24 1020 26 10000 2.97 209 10:55 18.06.2022
820 Clear 23 1022 41 10000 1.59 188 09:27 18.06.2022
821 Clear 24 1022 41 10000 1.59 188 08:30 18.06.2022
822 Clear 24 1022 41 10000 1.59 188 08:30 18.06.2022
823 Clear 20 1025 66 10000 1.02 53 06:49 18.06.2022
824 Clear 21 1026 63 10000 1.4 54 03:45 18.06.2022
825 Clouds 23 1026 58 10000 1.47 35 01:26 18.06.2022
826 Clouds 23 1026 58 10000 1.47 35 01:26 18.06.2022
827 Clouds 23 1026 58 10000 1.47 35 01:26 18.06.2022
828 Clouds 21 1026 56 10000 1.47 35 00:48 18.06.2022
829 Clouds 22 1026 58 10000 1.72 38 23:52 17.06.2022
830 Clouds 22 1026 59 10000 1.78 41 23:24 17.06.2022
831 Clouds 23 1026 75 10000 2.58 34 21:18 17.06.2022
832 Clouds 30 1023 53 10000 1.79 27 20:00 17.06.2022
833 Clouds 30 1022 45 10000 0.88 36 18:49 17.06.2022
834 Clouds 31 1022 34 10000 1.22 65 17:44 17.06.2022
835 Clouds 32 1022 33 10000 1.43 19 16:43 17.06.2022
836 Clouds 31 1022 29 10000 1.96 27 15:49 17.06.2022
837 Clouds 34 1024 20 10000 0.89 252 15:22 17.06.2022
838 Clouds 33 1025 21 10000 0.89 221 14:20 17.06.2022
839 Clouds 33 1025 20 10000 0.89 222 13:46 17.06.2022
840 Clouds 32 1025 35 10000 1.56 254 12:57 17.06.2022
841 Clouds 28 1025 41 10000 1.35 245 11:57 17.06.2022
842 Clouds 27 1025 43 10000 1.35 245 11:36 17.06.2022
843 Clouds 27 1025 43 10000 1.35 245 11:36 17.06.2022
844 Clouds 29 1023 31 10000 0.97 248 10:52 17.06.2022
845 Clouds 21 1027 60 10000 1.06 29 08:30 17.06.2022
846 Clouds 20 1027 60 10000 2.11 26 07:47 17.06.2022
847 Clouds 20 1027 61 10000 2.12 31 05:57 17.06.2022
848 Clouds 21 1027 56 10000 1.02 13 02:52 17.06.2022
849 Clouds 21 1026 57 10000 0.76 0 00:42 17.06.2022
850 Clouds 23 1026 62 10000 1.26 18 22:45 16.06.2022
851 Clouds 19 1026 70 10000 1.83 34 22:20 16.06.2022
852 Clouds 20 1026 78 10000 3.34 50 21:19 16.06.2022
853 Clouds 20 1026 78 10000 3.34 50 20:50 16.06.2022
854 Clouds 21 1026 74 10000 2.72 47 19:57 16.06.2022
855 Clouds 28 1023 46 10000 2.39 264 18:34 16.06.2022
856 Clouds 30 1021 36 10000 1.33 156 17:44 16.06.2022
857 Clouds 30 1021 36 10000 1.33 156 17:44 16.06.2022
858 Rain 31 1023 38 10000 1.34 308 16:46 16.06.2022
859 Clouds 34 1023 23 10000 1.46 83 15:37 16.06.2022
860 Clouds 34 1022 21 10000 1.89 62 15:18 16.06.2022
861 Clouds 33 1024 27 10000 0.89 314 13:46 16.06.2022
862 Clouds 29 1024 44 10000 1.97 27 12:38 16.06.2022
863 Clouds 27 1024 45 10000 1.68 21 11:55 16.06.2022
864 Clouds 25 1024 47 10000 0.45 0 11:19 16.06.2022
865 Clouds 26 1022 20 10000 1.23 5 10:34 16.06.2022
866 Clouds 23 1022 34 10000 0.89 354 09:26 16.06.2022
867 Clouds 23 1022 34 10000 0.89 354 08:46 16.06.2022
868 Clouds 18 1025 69 10000 2.02 27 07:29 16.06.2022
869 Clouds 19 1026 67 10000 2.12 24 05:42 16.06.2022
870 Clouds 20 1025 62 10000 1.45 22 02:54 16.06.2022
871 Clouds 20 1025 58 10000 1.23 37 01:51 16.06.2022
872 Clouds 21 1026 56 10000 1.47 32 01:21 16.06.2022
873 Clouds 21 1026 56 10000 1.47 32 01:21 16.06.2022
874 Clouds 18 1025 78 10000 2.13 33 23:56 15.06.2022
875 Clouds 18 1025 78 10000 2.13 33 23:56 15.06.2022
876 Clouds 19 1025 80 10000 2.42 32 22:45 15.06.2022
877 Clouds 20 1024 83 10000 2.44 44 21:28 15.06.2022
878 Clouds 21 1024 83 10000 2.44 44 20:57 15.06.2022
879 Clouds 21 1024 83 10000 2.44 44 20:35 15.06.2022
880 Clouds 22 1025 82 10000 0.58 87 19:46 15.06.2022
881 Clouds 27 1024 70 10000 3.12 121 18:29 15.06.2022
882 Clouds 27 1024 70 10000 3.12 121 17:42 15.06.2022
883 Clouds 33 1019 31 10000 3.51 7 15:51 15.06.2022
884 Clouds 34 1021 26 10000 0.45 247 14:33 15.06.2022
885 Clouds 32 1022 30 10000 1.47 245 13:20 15.06.2022
886 Clouds 30 1022 41 10000 1.47 245 12:33 15.06.2022
887 Clouds 28 1020 30 10000 2.04 219 10:53 15.06.2022
888 Clouds 24 1020 34 10000 2.05 209 10:20 15.06.2022
889 Rain 26 1020 47 10000 0.64 163 08:57 15.06.2022
890 Clouds 17 1024 87 10000 1.52 24 07:21 15.06.2022
891 Clouds 18 1025 85 10000 1.13 15 04:51 15.06.2022
892 Clouds 18 1025 87 10000 0.61 9 02:31 15.06.2022
893 Clouds 18 1025 83 10000 1.11 67 01:33 15.06.2022
894 Rain 18 1029 83 10000 1.79 40 23:55 14.06.2022
895 Rain 19 1029 80 10000 2.24 49 23:37 14.06.2022
896 Rain 16 1026 89 10000 0.3 7 22:33 14.06.2022
897 Rain 16 1026 93 10000 1.83 89 21:42 14.06.2022
898 Rain 23 1026 96 6271 2.81 113 20:57 14.06.2022
899 Clouds 23 1026 96 6271 2.81 113 20:34 14.06.2022
900 Rain 24 1023 91 5900 3.72 93 19:25 14.06.2022
901 Clouds 28 1022 86 3033 4.05 22 18:25 14.06.2022
902 Clouds 21 1020 74 10000 3.6 98 16:49 14.06.2022
903 Rain 25 1021 55 10000 3.34 281 15:50 14.06.2022
904 Clouds 25 1021 56 10000 0.45 20 15:31 14.06.2022
905 Rain 25 1016 29 10000 3.66 292 14:46 14.06.2022
906 Clouds 32 1019 30 10000 1.34 226 13:46 14.06.2022
907 Clouds 31 1020 32 10000 0.89 288 12:48 14.06.2022
908 Clouds 28 1017 26 10000 3.39 224 11:46 14.06.2022
909 Clouds 25 1018 28 10000 2.55 224 10:49 14.06.2022
910 Clouds 25 1018 28 10000 2.55 224 10:49 14.06.2022
911 Clouds 24 1018 34 10000 1.25 211 10:24 14.06.2022
912 Clouds 25 1019 43 10000 0.68 227 08:49 14.06.2022
913 Clouds 20 1020 54 10000 0.63 34 07:50 14.06.2022
914 Clouds 17 1022 71 10000 1.2 40 05:46 14.06.2022
915 Clear 19 1023 69 10000 0.45 0 03:20 14.06.2022
916 Clear 20 1023 67 10000 0.45 216 01:31 14.06.2022
917 Clouds 17 1023 76 10000 0.67 41 23:48 13.06.2022
918 Clouds 18 1022 79 10000 1.58 91 22:26 13.06.2022
919 Clouds 19 1022 79 10000 1.6 91 21:54 13.06.2022
920 Clouds 21 1021 71 10000 1.07 97 20:42 13.06.2022
921 Clouds 22 1020 63 10000 0.44 56 19:35 13.06.2022
922 Clouds 28 1019 47 10000 1.42 345 18:31 13.06.2022
923 Clouds 27 1019 45 10000 1.55 25 17:47 13.06.2022
924 Clouds 28 1020 59 10000 2.41 14 16:53 13.06.2022
925 Clouds 28 1018 38 10000 3.57 277 15:40 13.06.2022
926 Clouds 31 1021 31 10000 0.89 302 14:47 13.06.2022
927 Clouds 31 1022 32 10000 1.79 252 13:55 13.06.2022
928 Clouds 29 1023 32 10000 1.34 211 12:49 13.06.2022
929 Clouds 26 1023 48 10000 3.32 219 11:37 13.06.2022
930 Clouds 20 1021 35 10000 2.24 214 10:27 13.06.2022
931 Clouds 24 1021 35 10000 2.24 214 09:42 13.06.2022
932 Clouds 20 1025 61 10000 0.06 16 08:24 13.06.2022
933 Clouds 17 1024 72 10000 0.88 43 06:33 13.06.2022
934 Clouds 17 1025 74 10000 1.37 36 03:28 13.06.2022
935 Clouds 19 1026 72 10000 1.48 31 01:38 13.06.2022
936 Clouds 20 1026 70 10000 1.59 9 00:22 13.06.2022
937 Clouds 21 1026 68 10000 1.42 335 23:29 12.06.2022
938 Clouds 22 1026 69 10000 0.31 207 22:23 12.06.2022
939 Clouds 19 1025 59 10000 0.31 207 21:39 12.06.2022
940 Clouds 24 1025 69 10000 1.97 96 20:39 12.06.2022
941 Clouds 24 1025 67 10000 2.17 63 19:38 12.06.2022
942 Rain 24 1023 61 10000 2.54 36 18:43 12.06.2022
943 Clouds 26 1019 26 10000 4.57 229 16:42 12.06.2022
944 Rain 31 1024 34 10000 0.45 148 15:30 12.06.2022
945 Clouds 31 1024 33 10000 0.45 0 14:32 12.06.2022
946 Clouds 30 1025 34 10000 0.89 240 13:55 12.06.2022
947 Clouds 30 1025 34 10000 1.34 288 12:58 12.06.2022
948 Clouds 27 1026 44 10000 2.92 216 11:47 12.06.2022
949 Clouds 23 1023 33 10000 2.33 218 10:45 12.06.2022
950 Clear 21 1024 41 10000 1.46 212 09:25 12.06.2022
951 Clear 21 1024 41 10000 1.46 212 08:48 12.06.2022
952 Clouds 22 1024 53 10000 0.21 122 07:39 12.06.2022
953 Clouds 17 1026 79 10000 0.38 39 05:38 12.06.2022
954 Clouds 18 1026 81 10000 0.4 48 03:38 12.06.2022
955 Clouds 19 1027 82 10000 0.91 80 01:43 12.06.2022
956 Clouds 19 1027 80 10000 1.34 198 00:58 12.06.2022
957 Clear 19 1027 84 10000 1.2 60 00:25 12.06.2022
958 Clear 19 1028 83 10000 1.2 60 23:48 11.06.2022
959 Clear 19 1028 83 10000 1.2 60 23:48 11.06.2022
960 Clear 20 1026 83 10000 1.41 64 22:39 11.06.2022
961 Clouds 20 1026 83 10000 2.04 61 22:18 11.06.2022
962 Rain 20 1026 82 10000 1.94 47 20:50 11.06.2022
963 Clouds 22 1026 80 10000 1.34 101 20:21 11.06.2022
964 Rain 30 1023 51 10000 2.55 57 19:26 11.06.2022
965 Rain 29 1023 51 10000 2.55 57 18:34 11.06.2022
966 Rain 29 1023 54 10000 3.29 46 17:51 11.06.2022
967 Clouds 27 1023 52 10000 1.34 294 17:28 11.06.2022
968 Clouds 29 1021 43 10000 1.56 347 16:57 11.06.2022
969 Clouds 32 1021 43 10000 1.56 347 16:30 11.06.2022
970 Clouds 28 1021 31 10000 1.37 254 15:43 11.06.2022
971 Clouds 28 1021 31 10000 1.37 254 15:43 11.06.2022
972 Clouds 30 1023 26 10000 1.34 304 13:53 11.06.2022
973 Clouds 28 1024 29 10000 1.34 306 12:57 11.06.2022
974 Clouds 21 1022 25 10000 1.83 217 10:55 11.06.2022
975 Clouds 19 1023 26 10000 1.21 222 10:19 11.06.2022
976 Clouds 20 1023 29 10000 0.49 230 09:19 11.06.2022
977 Clouds 20 1024 35 10000 0.78 57 07:43 11.06.2022
978 Clouds 16 1025 51 10000 1.84 37 06:30 11.06.2022
979 Clouds 17 1025 48 10000 1.96 29 04:49 11.06.2022
980 Clouds 19 1025 45 10000 2.07 29 01:53 11.06.2022
981 Clouds 17 1024 45 10000 2.2 31 01:33 11.06.2022
982 Clouds 17 1024 52 10000 2 26 00:20 11.06.2022
983 Clouds 18 1024 56 10000 1.92 29 22:32 10.06.2022
984 Clouds 19 1024 62 10000 2.31 30 21:52 10.06.2022
985 Clouds 27 1023 59 10000 2.48 15 20:42 10.06.2022
986 Clouds 27 1021 42 10000 2.43 6 20:22 10.06.2022
987 Clouds 27 1020 32 10000 2.89 6 19:20 10.06.2022
988 Clouds 27 1020 32 10000 2.89 6 18:56 10.06.2022
989 Clear 28 1020 27 10000 2.95 2 17:59 10.06.2022
990 Clear 28 1020 27 10000 2.95 2 17:35 10.06.2022
991 Clear 28 1019 23 10000 2.92 357 16:50 10.06.2022
992 Clear 31 1022 13 10000 1.34 281 15:44 10.06.2022
993 Clear 30 1022 14 10000 0.45 300 14:51 10.06.2022
994 Clear 29 1023 13 10000 0.45 269 13:36 10.06.2022
995 Clear 27 1023 15 10000 1.98 1 12:21 10.06.2022
996 Clear 25 1023 14 10000 0.45 201 11:30 10.06.2022
997 Clear 20 1023 26 10000 2.09 7 10:36 10.06.2022
998 Clear 17 1022 25 10000 2.74 14 09:26 10.06.2022
999 Clear 14 1024 44 10000 3.16 19 07:57 10.06.2022
1000 Clear 14 1024 40 10000 3.69 18 06:49 10.06.2022
1001 Clear 14 1024 38 10000 3.69 18 06:30 10.06.2022
1002 Clear 14 1024 38 10000 3.79 19 05:32 10.06.2022
1003 Clear 12 1024 60 10000 3.79 19 02:46 10.06.2022
1004 Clear 13 1024 81 10000 3.68 17 01:37 10.06.2022
1005 Clear 12 1025 91 10000 3.74 12 23:58 09.06.2022
1006 Clear 14 1025 91 10000 3.77 13 22:43 09.06.2022
1007 Clear 12 1024 89 10000 3.66 12 21:44 09.06.2022
1008 Clear 16 1022 75 10000 3.48 3 21:25 09.06.2022
1009 Clear 17 1022 75 10000 3.48 3 20:38 09.06.2022
1010 Clear 18 1021 60 10000 3.4 352 19:46 09.06.2022
1011 Clear 23 1020 51 10000 3.76 353 18:37 09.06.2022
1012 Clear 23 1019 46 10000 3.92 354 17:33 09.06.2022
1013 Clear 26 1018 42 10000 3.63 352 16:28 09.06.2022
1014 Clear 26 1018 41 10000 3.65 354 14:52 09.06.2022
1015 Clear 26 1018 39 10000 3.27 349 14:28 09.06.2022
1016 Clear 25 1018 37 10000 3.29 349 13:30 09.06.2022
1017 Clear 25 1018 37 10000 3.29 349 13:30 09.06.2022
1018 Clear 24 1018 34 10000 2.8 344 12:55 09.06.2022
1019 Clear 22 1018 33 10000 2.9 352 11:33 09.06.2022
1020 Clear 17 1019 42 10000 3.49 1 09:55 09.06.2022
1021 Clear 17 1019 42 10000 3.49 1 09:55 09.06.2022
1022 Clear 16 1019 45 10000 3.49 1 09:37 09.06.2022
1023 Clear 14 1020 53 10000 0.45 5 08:38 09.06.2022
1024 Clouds 11 1020 89 10000 3.92 9 07:29 09.06.2022
1025 Clouds 13 1019 89 10000 3.47 360 03:31 09.06.2022
1026 Clouds 14 1019 92 10000 3.14 1 00:34 09.06.2022
1027 Clouds 15 1018 89 10000 3.04 359 23:18 08.06.2022
1028 Clouds 15 1018 89 10000 3.03 358 22:42 08.06.2022
1029 Clouds 15 1018 92 10000 3.15 0 22:23 08.06.2022
1030 Clouds 15 1018 92 10000 3.15 0 21:32 08.06.2022
1031 Clouds 17 1016 90 2205 3.53 352 20:25 08.06.2022
1032 Clouds 18 1016 90 2205 3.53 352 19:41 08.06.2022
1033 Clouds 18 1016 84 10000 3.43 348 18:48 08.06.2022
1034 Clouds 18 1016 82 10000 2.94 343 17:41 08.06.2022
1035 Clouds 19 1015 72 10000 1.97 333 15:53 08.06.2022
1036 Rain 18 1014 67 10000 1.94 314 14:38 08.06.2022
1037 Clouds 18 1015 66 10000 1.62 298 12:55 08.06.2022
1038 Clouds 18 1015 66 10000 1.62 298 12:55 08.06.2022
1039 Clouds 18 1015 66 10000 1.62 298 12:55 08.06.2022
1040 Clouds 21 1015 57 10000 1.79 286 11:36 08.06.2022
1041 Clouds 20 1015 63 10000 1.83 243 10:51 08.06.2022
1042 Clouds 18 1016 70 10000 1.09 259 09:28 08.06.2022
1043 Clouds 18 1016 72 10000 1.09 259 08:54 08.06.2022
1044 Clouds 17 1017 66 10000 0.42 270 06:56 08.06.2022
1045 Clouds 17 1018 63 10000 0.58 219 04:41 08.06.2022
1046 Clouds 15 1019 95 10000 0.5 78 00:58 08.06.2022
1047 Clouds 16 1019 93 10000 1.08 70 23:32 07.06.2022
1048 Clouds 17 1019 92 10000 1.52 63 22:51 07.06.2022
1049 Clouds 17 1019 92 10000 1.52 63 22:33 07.06.2022
1050 Clouds 17 1019 87 10000 1.75 26 21:39 07.06.2022
1051 Clouds 17 1017 72 10000 1.54 313 21:20 07.06.2022
1052 Clouds 17 1017 72 10000 1.54 313 20:40 07.06.2022
1053 Clouds 18 1016 51 10000 2.27 253 19:51 07.06.2022
1054 Clouds 19 1016 39 10000 3.24 245 18:25 07.06.2022
1055 Clouds 20 1016 39 10000 3.24 245 17:31 07.06.2022
1056 Clouds 19 1016 46 10000 2.67 252 16:44 07.06.2022
1057 Clouds 23 1017 39 10000 4.12 241 15:58 07.06.2022
1058 Clouds 23 1017 39 10000 4.12 241 15:30 07.06.2022
1059 Clouds 21 1017 40 10000 4.2 232 14:56 07.06.2022
1060 Clouds 21 1017 40 10000 4.2 232 14:38 07.06.2022
1061 Clouds 21 1017 39 10000 4.43 226 13:33 07.06.2022
1062 Clouds 25 1019 39 10000 0.89 317 12:54 07.06.2022
1063 Clouds 24 1020 41 10000 1.34 18 11:49 07.06.2022
1064 Clouds 23 1020 48 10000 1.34 258 10:48 07.06.2022
1065 Clear 17 1021 70 10000 2.41 224 08:53 07.06.2022
1066 Clouds 16 1021 69 10000 1.06 239 07:47 07.06.2022
1067 Clouds 13 1021 78 10000 0.94 347 06:39 07.06.2022
1068 Clouds 13 1020 74 10000 0.31 278 04:39 07.06.2022
1069 Clouds 16 1022 89 10000 2.39 27 01:27 07.06.2022
1070 Clouds 17 1022 89 10000 2.81 20 23:53 06.06.2022
1071 Clouds 17 1022 80 10000 3.05 13 22:54 06.06.2022
1072 Clouds 17 1021 64 10000 2.25 4 22:29 06.06.2022
1073 Clouds 19 1019 54 10000 0.9 256 20:47 06.06.2022
1074 Clouds 19 1018 37 10000 2.98 245 19:28 06.06.2022
1075 Clouds 24 1018 37 10000 2.98 245 18:49 06.06.2022
1076 Clouds 24 1018 35 10000 3.47 245 18:21 06.06.2022
1077 Clouds 25 1018 31 10000 4.5 243 17:24 06.06.2022
1078 Clouds 26 1020 35 10000 1.34 179 16:18 06.06.2022
1079 Clouds 27 1020 32 10000 1.34 219 15:23 06.06.2022
1080 Clouds 26 1021 41 10000 0.45 246 14:29 06.06.2022
1081 Clouds 25 1021 41 10000 1.34 314 13:21 06.06.2022
1082 Clouds 25 1021 41 10000 0.45 254 12:35 06.06.2022
1083 Clouds 24 1022 41 10000 1.34 273 11:50 06.06.2022
1084 Clouds 18 1022 58 10000 3.03 215 10:21 06.06.2022
1085 Clear 16 1021 50 10000 2.4 215 09:23 06.06.2022
1086 Clear 17 1021 50 10000 2.4 215 08:31 06.06.2022
1087 Clear 14 1023 71 10000 0.01 123 07:24 06.06.2022
1088 Clear 15 1023 66 10000 0.53 190 04:42 06.06.2022
1089 Clouds 14 1024 68 10000 1.41 74 02:19 06.06.2022
1090 Clouds 14 1023 74 10000 1.27 70 00:57 06.06.2022
1091 Clouds 15 1023 74 10000 1.26 70 00:35 06.06.2022
1092 Clouds 15 1023 70 10000 1.78 3 23:25 05.06.2022
1093 Clouds 17 1022 66 10000 0.72 334 22:26 05.06.2022
1094 Clear 22 1019 45 10000 2.23 246 20:29 05.06.2022
1095 Clear 23 1018 36 10000 3.52 233 19:26 05.06.2022
1096 Clear 26 1020 34 10000 1.79 243 18:20 05.06.2022
1097 Clear 26 1020 35 10000 1.79 337 17:39 05.06.2022
1098 Clear 26 1020 36 10000 2.68 298 17:21 05.06.2022
1099 Clear 26 1020 34 10000 1.79 253 16:47 05.06.2022
1100 Clear 27 1020 31 10000 0.89 50 15:41 05.06.2022
1101 Clear 26 1020 27 10000 0.89 257 14:21 05.06.2022
1102 Clear 24 1021 31 10000 0.45 234 12:23 05.06.2022
1103 Clear 20 1020 50 10000 3.24 215 10:51 05.06.2022
1104 Clear 19 1020 61 10000 2.76 216 10:24 05.06.2022
1105 Clear 17 1020 72 10000 2.76 216 09:42 05.06.2022
1106 Clear 15 1020 77 10000 0.88 232 08:25 05.06.2022
1107 Clear 15 1020 75 10000 0.69 94 06:25 05.06.2022
1108 Clear 14 1019 87 10000 0.67 6 05:19 05.06.2022
1109 Clear 15 1019 89 10000 1.03 43 02:48 05.06.2022
1110 Clear 17 1019 88 10000 0.71 118 01:24 05.06.2022
1111 Clear 18 1019 90 10000 0.6 161 23:36 04.06.2022
1112 Clear 21 1017 82 10000 1.43 171 21:30 04.06.2022
1113 Clouds 23 1015 57 10000 3.18 192 19:36 04.06.2022
1114 Clouds 28 1016 27 10000 0.89 274 17:21 04.06.2022
1115 Clouds 28 1017 25 10000 1.79 269 16:20 04.06.2022
1116 Clouds 28 1017 24 10000 2.68 304 15:45 04.06.2022
1117 Clouds 28 1018 28 10000 2.24 242 14:18 04.06.2022
1118 Clouds 24 1018 42 10000 1.34 247 11:43 04.06.2022
1119 Clouds 21 1018 50 10000 4.15 198 10:55 04.06.2022
1120 Clouds 21 1016 44 10000 3.12 184 09:59 04.06.2022
1121 Clouds 20 1016 44 10000 3.12 184 09:38 04.06.2022
1122 Clouds 18 1016 48 10000 1.95 167 08:39 04.06.2022
1123 Clear 16 1018 68 10000 1.2 74 06:59 04.06.2022
1124 Clear 17 1018 65 10000 1.35 91 03:57 04.06.2022
1125 Clear 17 1018 79 10000 1.2 131 00:22 04.06.2022
1126 Clear 18 1018 78 10000 0.64 169 22:57 03.06.2022
1127 Clear 16 1017 76 10000 1.88 195 21:53 03.06.2022
1128 Clear 25 1016 65 10000 3.78 187 20:40 03.06.2022
1129 Clear 26 1015 47 10000 3.49 191 19:49 03.06.2022
1130 Clouds 28 1015 34 10000 4.65 199 16:59 03.06.2022
1131 Clouds 27 1015 36 10000 4.94 200 15:57 03.06.2022
1132 Clouds 26 1014 36 10000 5.33 205 14:42 03.06.2022
1133 Clear 26 1015 37 10000 3.12 204 12:21 03.06.2022
1134 Clear 19 1017 67 10000 1.86 190 09:57 03.06.2022
1135 Clouds 19 1017 70 10000 1.13 147 09:29 03.06.2022
1136 Clouds 18 1018 73 10000 0.96 131 07:47 03.06.2022
1137 Clouds 17 1017 72 10000 1.96 89 07:19 03.06.2022
1138 Clouds 17 1018 70 10000 1.8 164 06:29 03.06.2022
1139 Clouds 18 1017 67 10000 1.12 166 03:52 03.06.2022
1140 Clouds 18 1017 72 10000 0.91 86 23:53 02.06.2022
1141 Clouds 19 1017 72 10000 1.37 107 22:33 02.06.2022
1142 Clouds 19 1015 62 10000 1.81 188 20:57 02.06.2022
1143 Clouds 24 1014 48 10000 2.57 206 19:58 02.06.2022
1144 Clouds 25 1015 47 10000 2.67 200 19:39 02.06.2022
1145 Clouds 26 1014 37 10000 3.79 202 18:51 02.06.2022
1146 Rain 28 1016 29 10000 0.89 250 16:30 02.06.2022
1147 Clouds 28 1016 29 10000 0.89 277 15:47 02.06.2022
1148 Clouds 28 1016 31 10000 1.79 229 13:31 02.06.2022
1149 Clouds 28 1016 29 10000 2.24 290 12:49 02.06.2022
1150 Clear 21 1015 40 10000 3.33 192 10:45 02.06.2022
1151 Clear 19 1016 51 10000 1.36 154 09:30 02.06.2022
1152 Clear 19 1016 51 10000 1.36 154 08:45 02.06.2022
1153 Clouds 18 1016 63 10000 1.2 109 08:23 02.06.2022
1154 Clouds 16 1018 73 10000 1.29 65 06:21 02.06.2022
1155 Clear 17 1018 67 10000 1.23 55 03:50 02.06.2022
1156 Clear 16 1018 71 10000 1 85 00:55 02.06.2022
1157 Clouds 19 1017 65 10000 1.02 118 22:58 01.06.2022
1158 Clear 21 1017 62 10000 1 176 22:18 01.06.2022
1159 Rain 23 1016 60 10000 1.16 218 21:24 01.06.2022
1160 Clear 19 1016 60 10000 1.17 218 20:38 01.06.2022
1161 Clear 26 1015 47 10000 3.38 234 19:52 01.06.2022
1162 Clouds 26 1014 39 10000 5.05 232 18:37 01.06.2022
1163 Clouds 25 1015 33 10000 5.51 221 16:58 01.06.2022
1164 Clouds 24 1015 34 10000 5.21 218 15:43 01.06.2022
1165 Clear 28 1017 31 10000 1.34 308 14:49 01.06.2022
1166 Clouds 27 1018 32 10000 0.89 213 13:23 01.06.2022
1167 Clouds 22 1016 39 10000 3.86 219 10:48 01.06.2022
1168 Clear 18 1017 56 10000 2 216 09:29 01.06.2022
1169 Clear 17 1017 70 10000 0.61 222 08:18 01.06.2022
1170 Clear 14 1019 86 10000 0.35 65 07:20 01.06.2022
1171 Clear 15 1019 81 10000 0.31 62 03:55 01.06.2022
1172 Clear 15 1018 72 10000 0.59 129 23:47 31.05.2022
1173 Clear 16 1018 71 10000 0.16 163 22:39 31.05.2022
1174 Clear 16 1017 71 10000 0.53 194 22:19 31.05.2022
1175 Clear 18 1016 68 10000 1.29 213 21:23 31.05.2022
1176 Clear 18 1016 68 10000 1.29 213 20:43 31.05.2022
1177 Clouds 19 1014 55 10000 2.49 235 19:22 31.05.2022
1178 Clouds 19 1014 49 10000 3.82 230 18:26 31.05.2022
1179 Clouds 21 1014 49 10000 3.82 230 17:37 31.05.2022
1180 Clouds 24 1015 42 10000 1.79 225 15:45 31.05.2022
1181 Clouds 23 1015 44 10000 1.79 241 15:22 31.05.2022
1182 Clouds 22 1016 51 10000 0.89 303 12:41 31.05.2022
1183 Clouds 21 1016 54 10000 1.34 323 12:18 31.05.2022
1184 Clouds 15 1016 93 10000 2.46 211 10:22 31.05.2022
1185 Clouds 13 1016 94 10000 0.95 205 07:43 31.05.2022
1186 Clouds 14 1015 93 10000 0.46 131 05:38 31.05.2022
1187 Clouds 14 1016 93 10000 0.54 152 03:41 31.05.2022
1188 Clouds 14 1015 90 10000 0.91 114 23:45 30.05.2022
1189 Clouds 14 1015 89 10000 0.97 127 23:23 30.05.2022
1190 Clouds 13 1015 90 10000 0.89 58 22:33 30.05.2022
1191 Clouds 13 1014 90 10000 0.45 0 21:40 30.05.2022
1192 Rain 14 1014 90 6761 0.45 0 20:43 30.05.2022
1193 Rain 13 1013 89 10000 0.45 0 19:40 30.05.2022
1194 Rain 17 1012 88 4188 0.45 219 17:48 30.05.2022
1195 Rain 24 1009 69 9304 2.4 189 17:20 30.05.2022
1196 Rain 21 1009 64 10000 2.84 197 15:51 30.05.2022
1197 Clouds 21 1008 49 10000 2.97 233 13:21 30.05.2022
1198 Clouds 18 1009 72 10000 0.45 274 11:30 30.05.2022
1199 Clouds 15 1010 91 10000 1.93 241 09:41 30.05.2022
1200 Clouds 12 1009 91 10000 0.64 17 07:29 30.05.2022
1201 Clouds 12 1009 91 10000 0.35 329 05:52 30.05.2022
1202 Clouds 13 1009 89 10000 0.03 120 03:22 30.05.2022
1203 Clouds 15 1011 87 10000 0.45 0 23:57 29.05.2022
1204 Clouds 15 1011 86 10000 0.45 0 22:40 29.05.2022
1205 Clouds 16 1009 84 10000 0.73 117 21:44 29.05.2022
1206 Rain 17 1009 84 10000 1.34 68 20:18 29.05.2022
1207 Clouds 21 1006 49 10000 1.63 264 19:28 29.05.2022
1208 Rain 20 1007 77 10000 0.45 97 17:56 29.05.2022
1209 Clouds 23 1006 36 10000 3.41 240 15:59 29.05.2022
1210 Clouds 22 1006 36 10000 3.41 240 15:40 29.05.2022
1211 Clouds 26 1008 34 10000 1.34 347 14:44 29.05.2022
1212 Clear 21 1008 29 10000 1.82 242 12:21 29.05.2022
1213 Clear 20 1010 37 10000 0.45 250 10:45 29.05.2022
1214 Clear 17 1009 34 10000 0.89 325 09:52 29.05.2022
1215 Clear 13 1012 59 10000 2.34 17 07:42 29.05.2022
1216 Clear 14 1012 55 10000 2.9 22 04:51 29.05.2022
1217 Clear 15 1012 55 10000 2.9 22 04:31 29.05.2022
1218 Clear 14 1014 83 10000 3.16 14 00:48 29.05.2022
1219 Clear 15 1015 88 10000 3.18 16 23:42 28.05.2022
1220 Clear 13 1015 90 10000 3.47 15 22:56 28.05.2022
1221 Clear 13 1015 89 10000 3.36 16 21:45 28.05.2022
1222 Clear 16 1014 77 10000 3.11 8 20:30 28.05.2022
1223 Clouds 22 1012 41 10000 3.19 359 19:19 28.05.2022
1224 Clouds 25 1012 36 10000 3.2 355 18:19 28.05.2022
1225 Clouds 24 1013 33 10000 3.25 357 16:57 28.05.2022
1226 Clouds 28 1013 31 10000 3.46 0 15:45 28.05.2022
1227 Clouds 27 1013 30 10000 3.22 358 15:19 28.05.2022
1228 Clear 25 1015 31 10000 2.43 358 13:26 28.05.2022
1229 Clear 26 1017 24 10000 1.34 279 12:41 28.05.2022
1230 Clear 21 1017 35 10000 2.08 357 11:27 28.05.2022
1231 Clear 17 1018 41 10000 2.12 0 10:25 28.05.2022
1232 Clear 15 1017 29 10000 2.12 0 09:30 28.05.2022
1233 Clear 13 1020 60 10000 2.6 13 07:53 28.05.2022
1234 Clear 13 1020 60 10000 3.25 19 06:32 28.05.2022
1235 Clear 15 1021 55 10000 3.1 18 04:21 28.05.2022
1236 Clear 13 1023 82 10000 3.18 19 00:50 28.05.2022
1237 Clear 14 1024 87 10000 3.27 17 23:42 27.05.2022
1238 Clear 15 1024 92 10000 3.25 13 22:24 27.05.2022
1239 Clear 22 1023 82 10000 2.96 8 20:58 27.05.2022
1240 Clear 22 1023 82 10000 2.96 8 20:31 27.05.2022
1241 Clear 21 1021 65 10000 2.81 2 19:55 27.05.2022
1242 Clear 23 1021 64 10000 2.78 1 19:33 27.05.2022
1243 Clear 22 1020 49 10000 2.82 3 18:29 27.05.2022
1244 Clear 23 1020 45 10000 3.03 4 16:42 27.05.2022
1245 Clear 24 1020 44 10000 3.31 12 15:44 27.05.2022
1246 Clear 25 1021 43 10000 3.71 16 14:45 27.05.2022
1247 Clear 24 1021 42 10000 4.04 16 13:30 27.05.2022
1248 Clear 21 1022 42 10000 3.68 15 11:41 27.05.2022
1249 Clear 20 1022 44 10000 3.66 14 11:23 27.05.2022
1250 Clear 17 1022 51 10000 0.45 252 10:32 27.05.2022
1251 Clear 15 1023 60 10000 3.66 14 09:37 27.05.2022
1252 Clouds 12 1023 63 10000 3.87 20 08:19 27.05.2022
1253 Clouds 10 1025 90 10000 4.25 16 05:47 27.05.2022
1254 Clouds 10 1026 94 10000 3.99 16 02:53 27.05.2022
1255 Clouds 10 1027 92 10000 3.59 21 00:37 27.05.2022
1256 Clouds 11 1027 92 10000 3.68 14 22:47 26.05.2022
1257 Clouds 13 1027 93 10000 3.73 9 21:42 26.05.2022
1258 Clear 14 1026 85 10000 3.67 9 20:59 26.05.2022
1259 Clear 15 1023 60 10000 3.94 10 19:24 26.05.2022
1260 Clear 19 1023 54 10000 3.83 9 18:18 26.05.2022
1261 Clear 19 1023 51 10000 3.98 13 16:55 26.05.2022
1262 Clear 19 1023 48 10000 3.98 15 15:46 26.05.2022
1263 Clear 20 1024 41 10000 0.89 279 14:46 26.05.2022
1264 Clear 20 1024 45 10000 0.89 279 12:50 26.05.2022
1265 Clear 18 1024 47 10000 0.89 46 11:29 26.05.2022
1266 Clear 14 1024 48 10000 1.79 282 10:19 26.05.2022
1267 Clear 11 1024 51 10000 3.39 12 09:33 26.05.2022
1268 Clear 12 1025 51 10000 0.45 235 08:35 26.05.2022
1269 Clouds 7 1026 92 10000 4.13 14 04:41 26.05.2022
1270 Clouds 7 1027 93 10000 3.8 13 00:48 26.05.2022
1271 Clouds 7 1027 94 10000 3.91 14 23:40 25.05.2022
1272 Clouds 8 1027 93 10000 3.78 15 21:59 25.05.2022
1273 Clouds 7 1027 93 10000 3.78 15 21:32 25.05.2022
1274 Clouds 8 1025 88 10000 3.68 11 20:35 25.05.2022
1275 Clouds 12 1022 78 10000 3.91 9 19:24 25.05.2022
1276 Clouds 13 1021 73 10000 4.11 11 17:43 25.05.2022
1277 Clouds 15 1020 71 10000 4.03 7 16:38 25.05.2022
1278 Clouds 14 1019 71 10000 3.81 8 15:54 25.05.2022
1279 Clouds 14 1019 72 10000 4.1 4 14:51 25.05.2022
1280 Clouds 14 1019 72 10000 4.1 4 14:33 25.05.2022
1281 Clouds 13 1019 76 10000 3.99 5 13:45 25.05.2022
1282 Clouds 13 1019 79 10000 3.86 8 12:38 25.05.2022
1283 Clouds 6 1019 95 348 3.3 7 10:43 25.05.2022
1284 Clouds 5 1019 94 68 3.05 4 09:54 25.05.2022
1285 Clouds 7 1018 94 1447 3.32 6 08:37 25.05.2022
1286 Clouds 6 1017 96 296 3.68 17 07:22 25.05.2022
1287 Rain 6 1015 97 112 3.19 25 03:22 25.05.2022
1288 Rain 7 1016 98 73 3.36 10 23:56 24.05.2022
1289 Rain 7 1016 98 73 3.36 10 23:31 24.05.2022
1290 Rain 7 1015 96 316 3.78 22 22:21 24.05.2022
1291 Rain 9 1015 96 316 3.78 22 21:40 24.05.2022
1292 Rain 8 1013 95 10000 3.08 9 21:20 24.05.2022
1293 Clouds 9 1013 96 154 3.65 8 19:45 24.05.2022
1294 Rain 9 1012 94 10000 3.32 14 18:53 24.05.2022
1295 Clouds 14 1009 85 3137 2.05 331 16:42 24.05.2022
1296 Clouds 14 1010 89 4393 2.64 251 16:22 24.05.2022
1297 Clouds 13 1010 91 1520 3.46 218 14:56 24.05.2022
1298 Clouds 12 1010 89 6695 3.53 217 14:20 24.05.2022
1299 Clouds 10 1010 87 7279 3.6 217 12:49 24.05.2022
1300 Rain 15 1011 89 139 3.16 197 10:46 24.05.2022
1301 Clouds 15 1012 87 160 2.99 214 09:43 24.05.2022
1302 Rain 15 1012 87 2464 2.64 215 08:49 24.05.2022
1303 Rain 13 1011 87 10000 1.53 216 06:57 24.05.2022
1304 Clouds 14 1011 82 10000 0.61 346 03:56 24.05.2022
1305 Clouds 13 1011 80 10000 1.27 353 01:53 24.05.2022
1306 Clouds 13 1011 80 10000 1.27 353 01:32 24.05.2022
1307 Clouds 12 1012 90 10000 1.88 9 22:55 23.05.2022
1308 Clouds 13 1012 86 10000 1.7 340 21:55 23.05.2022
1309 Clouds 15 1010 75 10000 1.4 294 21:29 23.05.2022
1310 Clouds 23 1008 55 10000 2.62 246 20:29 23.05.2022
1311 Clouds 23 1008 57 10000 2.58 250 19:31 23.05.2022
1312 Clouds 23 1007 47 10000 3.18 240 18:57 23.05.2022
1313 Clouds 22 1007 43 10000 4.07 228 18:29 23.05.2022
1314 Clouds 23 1007 46 10000 4.29 222 17:20 23.05.2022
1315 Clouds 26 1009 34 10000 2.68 240 14:52 23.05.2022
1316 Clear 24 1009 28 10000 2.68 280 12:56 23.05.2022
1317 Clear 23 1009 35 10000 1.79 256 11:31 23.05.2022
1318 Clear 19 1010 45 10000 3.11 215 09:50 23.05.2022
1319 Clear 18 1010 46 10000 1.82 222 09:28 23.05.2022
1320 Clouds 16 1011 48 10000 0.87 206 08:20 23.05.2022
1321 Clouds 17 1011 44 10000 0.33 128 06:45 23.05.2022
1322 Clouds 17 1011 56 10000 0.48 97 05:31 23.05.2022
1323 Clouds 20 1012 36 10000 1.22 53 02:32 23.05.2022
1324 Clouds 19 1013 39 10000 1.37 108 01:37 23.05.2022
1325 Clouds 15 1014 38 10000 1.93 97 00:20 23.05.2022
1326 Clouds 20 1014 44 10000 0.93 71 22:36 22.05.2022
1327 Clouds 18 1014 47 10000 1.41 183 21:55 22.05.2022
1328 Clouds 28 1013 48 10000 1.91 185 20:54 22.05.2022
1329 Clouds 26 1012 41 10000 2.37 203 20:31 22.05.2022
1330 Clouds 27 1012 41 10000 2.37 202 19:56 22.05.2022
1331 Clouds 28 1012 31 10000 2.87 247 18:55 22.05.2022
1332 Clouds 29 1012 25 10000 4.33 238 18:25 22.05.2022
1333 Clouds 31 1012 25 10000 4.33 238 17:33 22.05.2022
1334 Clouds 30 1013 24 10000 4.35 255 16:31 22.05.2022
1335 Clouds 32 1014 23 10000 5.45 212 14:49 22.05.2022
1336 Clouds 32 1016 22 10000 0.45 281 13:48 22.05.2022
1337 Clouds 31 1017 21 10000 0.89 278 12:52 22.05.2022
1338 Clouds 27 1017 36 10000 3.75 221 11:44 22.05.2022
1339 Clouds 26 1016 24 10000 2.76 216 09:45 22.05.2022
1340 Clouds 22 1016 34 10000 0.81 160 08:54 22.05.2022
1341 Clouds 17 1020 54 10000 0.66 28 07:22 22.05.2022
1342 Clouds 18 1020 54 10000 0.77 39 06:23 22.05.2022
1343 Clouds 20 1022 47 10000 0.66 37 02:23 22.05.2022
1344 Clouds 19 1022 44 10000 0.57 12 00:44 22.05.2022
1345 Clouds 20 1022 43 10000 0.67 37 23:55 21.05.2022
1346 Clouds 21 1023 45 10000 1.28 45 23:21 21.05.2022
1347 Clouds 21 1023 49 10000 1.69 58 21:45 21.05.2022
1348 Clouds 20 1023 57 10000 2.1 52 21:25 21.05.2022
1349 Clouds 28 1023 55 10000 3.26 49 20:25 21.05.2022
1350 Clouds 22 1023 55 10000 3.05 57 19:35 21.05.2022
1351 Clouds 28 1020 28 10000 1.11 266 17:51 21.05.2022
1352 Clouds 32 1020 25 10000 2.32 243 16:46 21.05.2022
1353 Clouds 32 1024 20 10000 1.79 299 14:38 21.05.2022
1354 Clouds 32 1024 16 10000 2.24 184 13:52 21.05.2022
1355 Clouds 30 1024 17 10000 1.79 313 12:50 21.05.2022
1356 Clouds 28 1025 22 10000 0.45 55 12:26 21.05.2022
1357 Clouds 18 1023 29 10000 2.92 216 10:34 21.05.2022
1358 Clouds 22 1023 32 10000 2.15 203 09:44 21.05.2022
1359 Clouds 22 1024 37 10000 1.1 199 08:57 21.05.2022
1360 Clouds 21 1025 46 10000 0.42 70 07:54 21.05.2022
1361 Clouds 17 1027 55 10000 0.62 32 04:29 21.05.2022
1362 Clouds 18 1028 49 10000 0.68 40 23:54 20.05.2022
1363 Clouds 19 1028 48 10000 0.52 35 22:57 20.05.2022
1364 Clouds 20 1027 49 10000 0.2 102 22:23 20.05.2022
1365 Clouds 18 1027 49 10000 0.2 102 21:43 20.05.2022
1366 Clouds 26 1027 50 10000 1.01 210 20:56 20.05.2022
1367 Clouds 26 1026 43 10000 2.13 218 19:59 20.05.2022
1368 Clouds 26 1025 31 10000 2.61 222 19:26 20.05.2022
1369 Clouds 26 1025 31 10000 2.61 222 18:44 20.05.2022
1370 Clouds 29 1025 25 10000 3.34 224 16:54 20.05.2022
1371 Clouds 30 1027 23 10000 2.24 325 16:19 20.05.2022
1372 Clouds 30 1027 23 10000 1.79 280 15:44 20.05.2022
1373 Clouds 30 1027 22 10000 1.34 285 14:30 20.05.2022
1374 Clouds 29 1028 21 10000 2.68 259 13:55 20.05.2022
1375 Clouds 25 1029 34 10000 0.45 352 11:33 20.05.2022
1376 Clouds 19 1029 52 10000 2.46 211 09:51 20.05.2022
1377 Clouds 21 1028 44 10000 2.24 213 08:43 20.05.2022
1378 Clouds 16 1029 66 10000 0.44 183 06:50 20.05.2022
1379 Clouds 16 1029 66 10000 0.44 183 06:31 20.05.2022
1380 Clouds 17 1029 66 10000 0.5 190 04:31 20.05.2022
1381 Clouds 17 1027 76 10000 0.49 113 00:43 20.05.2022
1382 Clouds 17 1028 80 10000 0.88 184 22:46 19.05.2022
1383 Clouds 17 1027 77 10000 1.28 186 21:59 19.05.2022
1384 Clouds 17 1027 77 10000 1.28 186 21:40 19.05.2022
1385 Clear 18 1025 70 10000 2 197 21:22 19.05.2022
1386 Clouds 23 1024 55 10000 2.62 212 20:25 19.05.2022
1387 Clouds 23 1024 53 10000 2.47 217 19:34 19.05.2022
1388 Clouds 28 1023 40 10000 4.82 210 18:19 19.05.2022
1389 Clouds 28 1023 37 10000 4.65 213 16:32 19.05.2022
1390 Clouds 29 1025 32 10000 1.34 291 14:52 19.05.2022
1391 Clouds 28 1025 30 10000 2.68 253 14:23 19.05.2022
1392 Clouds 25 1026 37 10000 1.79 272 12:35 19.05.2022
1393 Clouds 23 1026 48 10000 1.34 257 11:25 19.05.2022
1394 Clouds 17 1026 70 10000 1.43 175 09:19 19.05.2022
1395 Clouds 16 1026 73 10000 1.19 129 07:48 19.05.2022
1396 Clouds 17 1025 70 10000 0.98 78 04:50 19.05.2022
1397 Clouds 16 1024 87 10000 0.32 78 01:58 19.05.2022
1398 Clouds 18 1024 81 10000 0.89 86 23:53 18.05.2022
1399 Clouds 18 1023 80 10000 1.2 92 22:46 18.05.2022
1400 Clouds 18 1023 80 10000 1.2 92 22:46 18.05.2022
1401 Clouds 17 1023 77 10000 1.38 106 21:47 18.05.2022
1402 Clouds 21 1022 72 10000 1.62 150 21:26 18.05.2022
1403 Clouds 22 1020 57 10000 2.09 172 20:24 18.05.2022
1404 Clouds 22 1020 53 10000 2.35 194 19:39 18.05.2022
1405 Clouds 22 1019 45 10000 2.91 208 18:21 18.05.2022
1406 Clouds 22 1019 45 10000 2.91 208 17:41 18.05.2022
1407 Clouds 28 1019 38 10000 3.77 224 17:23 18.05.2022
1408 Clouds 28 1021 33 10000 1.79 272 16:23 18.05.2022
1409 Clouds 28 1022 31 10000 1.79 258 15:39 18.05.2022
1410 Clouds 28 1020 34 10000 3.87 219 14:34 18.05.2022
1411 Clouds 27 1023 38 10000 1.79 267 13:20 18.05.2022
1412 Clouds 26 1023 38 10000 1.34 316 12:39 18.05.2022
1413 Clouds 25 1024 43 10000 1.79 267 11:34 18.05.2022
1414 Clouds 20 1024 56 10000 0.45 0 10:52 18.05.2022
1415 Clouds 21 1024 56 10000 0.45 0 10:52 18.05.2022
1416 Clouds 16 1024 71 10000 0.9 99 08:29 18.05.2022
1417 Clouds 16 1024 71 10000 1.73 53 07:28 18.05.2022
1418 Clouds 15 1023 87 10000 2.36 40 04:33 18.05.2022
1419 Clouds 18 1024 88 10000 2.8 28 00:52 18.05.2022
1420 Clouds 18 1024 88 10000 2.8 28 00:52 18.05.2022
1421 Clouds 18 1024 87 10000 2.86 27 00:18 18.05.2022
1422 Clouds 16 1023 87 10000 3.03 27 21:36 17.05.2022
1423 Clouds 18 1022 80 10000 2.68 19 21:18 17.05.2022
1424 Clouds 21 1020 66 10000 2.08 1 19:49 17.05.2022
1425 Clouds 23 1019 50 10000 1.25 318 19:26 17.05.2022
1426 Clouds 24 1018 42 10000 2.18 247 17:49 17.05.2022
1427 Clouds 25 1018 34 10000 3.11 223 16:58 17.05.2022
1428 Clouds 24 1019 34 10000 3.52 218 16:29 17.05.2022
1429 Clear 28 1021 27 10000 2.24 267 15:18 17.05.2022
1430 Clear 27 1021 29 10000 0.45 224 14:29 17.05.2022
1431 Clear 28 1020 37 10000 2.79 215 13:31 17.05.2022
1432 Clear 20 1022 44 10000 2.47 215 10:51 17.05.2022
1433 Clear 17 1021 49 10000 1.17 219 08:55 17.05.2022
1434 Clear 17 1022 58 10000 0.33 38 07:57 17.05.2022
1435 Clear 14 1023 64 10000 1.07 32 06:36 17.05.2022
1436 Clouds 15 1024 55 10000 0.75 36 02:27 17.05.2022
1437 Clouds 15 1023 60 10000 0.48 50 00:28 17.05.2022
1438 Clouds 17 1023 58 10000 0.36 68 22:41 16.05.2022
1439 Clouds 16 1023 55 10000 0.41 175 21:33 16.05.2022
1440 Clouds 17 1022 56 10000 1.14 219 20:44 16.05.2022
1441 Clouds 23 1020 35 10000 2.62 223 19:19 16.05.2022
1442 Clouds 26 1019 31 10000 2.94 221 17:34 16.05.2022
1443 Clouds 26 1020 29 10000 3.71 216 15:42 16.05.2022
1444 Clouds 25 1020 27 10000 3.09 210 13:48 16.05.2022
1445 Clouds 24 1020 29 10000 2.95 207 12:46 16.05.2022
1446 Clouds 19 1022 55 10000 3.15 211 10:47 16.05.2022
1447 Clouds 17 1021 54 10000 2.45 204 08:37 16.05.2022
1448 Clouds 15 1021 70 10000 1.01 168 06:32 16.05.2022
1449 Clouds 16 1020 77 10000 0.41 154 01:44 16.05.2022
1450 Clouds 17 1020 72 10000 0.9 168 22:52 15.05.2022
1451 Clouds 16 1020 75 10000 2.66 207 22:25 15.05.2022
1452 Clouds 20 1020 75 10000 2.66 207 21:38 15.05.2022
1453 Clouds 21 1018 65 10000 1.66 208 20:53 15.05.2022
1454 Clouds 23 1016 45 10000 4.61 220 18:52 15.05.2022
1455 Clouds 25 1016 40 10000 5.53 216 17:29 15.05.2022
1456 Clouds 24 1017 40 10000 5.11 211 14:58 15.05.2022
1457 Clouds 24 1019 34 10000 3.58 360 13:46 15.05.2022
1458 Rain 23 1020 40 10000 0.89 51 12:19 15.05.2022
1459 Clouds 22 1020 47 10000 0.45 175 11:27 15.05.2022
1460 Clouds 17 1018 57 10000 2.18 202 09:57 15.05.2022
1461 Clouds 14 1020 72 10000 0.14 225 07:24 15.05.2022
1462 Clouds 14 1020 71 10000 0.14 225 06:56 15.05.2022
1463 Clouds 15 1019 83 10000 0.77 91 03:38 15.05.2022
1464 Clouds 13 1021 87 10000 0.55 243 00:26 15.05.2022
1465 Clouds 14 1021 89 10000 0.5 227 23:37 14.05.2022
1466 Clouds 14 1021 87 10000 1.7 224 21:51 14.05.2022
1467 Clouds 15 1020 84 10000 2.19 211 21:26 14.05.2022
1468 Clouds 18 1019 68 8664 2.65 201 20:28 14.05.2022
1469 Clouds 18 1018 54 10000 2.21 209 19:21 14.05.2022
1470 Clouds 19 1018 54 10000 2.21 209 18:58 14.05.2022
1471 Clouds 23 1018 50 10000 2.24 220 17:47 14.05.2022
1472 Clouds 23 1018 39 10000 2.18 212 15:58 14.05.2022
1473 Clouds 26 1019 38 10000 2.73 216 14:39 14.05.2022
1474 Clouds 26 1019 38 10000 2.95 219 14:18 14.05.2022
1475 Clouds 23 1022 43 10000 1.34 296 11:48 14.05.2022
1476 Clouds 18 1023 58 10000 1.71 215 10:45 14.05.2022
1477 Clouds 17 1023 59 10000 1.24 215 10:19 14.05.2022
1478 Clouds 15 1022 61 10000 0.6 210 09:25 14.05.2022
1479 Clouds 13 1023 76 10000 0.95 50 07:34 14.05.2022
1480 Clouds 14 1023 70 10000 1.72 33 04:43 14.05.2022
1481 Clouds 14 1024 84 10000 1.65 29 00:43 14.05.2022
1482 Clouds 15 1023 78 10000 1.18 6 23:28 13.05.2022
1483 Clouds 16 1023 78 10000 1.17 5 22:55 13.05.2022
1484 Clouds 16 1023 76 10000 1.13 345 22:21 13.05.2022
1485 Clouds 22 1022 76 10000 1.46 0 20:59 13.05.2022
1486 Clouds 22 1022 74 10000 1.4 355 20:38 13.05.2022
1487 Clouds 21 1021 70 10000 1.28 332 20:20 13.05.2022
1488 Clouds 21 1021 63 10000 1.2 307 19:18 13.05.2022
1489 Clouds 24 1020 55 10000 1.24 271 17:42 13.05.2022
1490 Clouds 24 1020 48 10000 1.55 256 17:22 13.05.2022
1491 Clouds 22 1020 47 10000 1.72 238 15:46 13.05.2022
1492 Clouds 24 1021 34 10000 2.24 277 14:38 13.05.2022
1493 Clouds 22 1022 39 10000 1.79 237 12:51 13.05.2022
1494 Clouds 20 1023 44 10000 1.34 169 11:54 13.05.2022
1495 Clouds 16 1022 61 10000 0.55 186 09:55 13.05.2022
1496 Clouds 15 1022 74 10000 0.62 51 09:26 13.05.2022
1497 Clouds 12 1024 72 10000 1.61 31 07:51 13.05.2022
1498 Clouds 12 1023 72 10000 0.45 0 06:50 13.05.2022
1499 Clouds 13 1023 69 10000 2.19 30 04:54 13.05.2022
1500 Clouds 16 1024 58 10000 2.07 16 00:57 13.05.2022
1501 Clouds 16 1024 66 10000 0.71 17 22:49 12.05.2022
1502 Clouds 16 1024 66 10000 0.71 17 22:30 12.05.2022
1503 Clouds 17 1022 66 10000 0.81 216 20:49 12.05.2022
1504 Clouds 21 1021 47 10000 2.6 214 19:26 12.05.2022
1505 Clouds 22 1020 39 10000 3.09 213 18:25 12.05.2022
1506 Clouds 24 1019 35 10000 3.29 209 16:39 12.05.2022
1507 Clouds 25 1022 30 10000 3.13 248 14:52 12.05.2022
1508 Clouds 24 1022 30 10000 2.24 225 13:48 12.05.2022
1509 Clouds 20 1023 45 10000 0.45 201 11:31 12.05.2022
1510 Clouds 14 1022 44 10000 2.87 210 10:32 12.05.2022
1511 Clouds 14 1022 62 10000 1.78 195 08:52 12.05.2022
1512 Clouds 14 1022 62 10000 1.78 195 08:52 12.05.2022
1513 Clouds 14 1022 62 10000 1.78 195 08:52 12.05.2022
1514 Clouds 14 1022 62 10000 1.78 195 08:52 12.05.2022
1515 Clouds 14 1022 62 10000 1.78 195 08:52 12.05.2022
1516 Clouds 13 1024 74 10000 0.84 172 07:58 12.05.2022
1517 Clouds 13 1023 73 10000 0.67 115 06:58 12.05.2022
1518 Clouds 14 1024 69 10000 0.82 75 03:46 12.05.2022
1519 Clouds 15 1024 79 10000 1.01 52 00:50 12.05.2022
1520 Clouds 14 1024 80 10000 0.58 63 22:53 11.05.2022
1521 Clouds 14 1023 79 10000 0.58 112 22:18 11.05.2022
1522 Clouds 16 1021 70 10000 0.96 175 21:24 11.05.2022
1523 Clouds 16 1021 70 10000 0.96 175 21:24 11.05.2022
1524 Clouds 22 1020 60 10000 1.81 209 19:57 11.05.2022
1525 Clouds 25 1018 38 10000 3.05 214 17:27 11.05.2022
1526 Clouds 25 1019 37 10000 2.91 214 16:19 11.05.2022
1527 Clouds 26 1021 35 10000 1.79 263 14:45 11.05.2022
1528 Clouds 24 1020 39 10000 2.67 211 14:24 11.05.2022
1529 Clouds 23 1022 46 10000 1.34 219 12:23 11.05.2022
1530 Clouds 21 1022 48 10000 0.45 236 11:47 11.05.2022
1531 Clear 14 1022 63 10000 0.92 246 09:29 11.05.2022
1532 Clouds 12 1023 75 10000 0.97 25 06:24 11.05.2022
1533 Clouds 12 1024 87 10000 0.66 41 01:29 11.05.2022
1534 Clouds 12 1024 82 10000 0.63 79 22:53 10.05.2022
1535 Clouds 14 1024 79 10000 0.36 127 22:19 10.05.2022
1536 Clouds 14 1023 75 10000 0.53 205 20:59 10.05.2022
1537 Clouds 18 1022 70 10000 0.43 199 20:21 10.05.2022
1538 Clouds 20 1021 63 10000 0.34 140 18:36 10.05.2022
1539 Clouds 24 1021 50 10000 0.19 97 17:37 10.05.2022
1540 Clouds 19 1021 41 10000 0.33 311 15:49 10.05.2022
1541 Clouds 21 1024 37 10000 1.79 296 12:48 10.05.2022
1542 Clouds 20 1024 47 10000 1.01 203 11:53 10.05.2022
1543 Clouds 19 1025 48 10000 0.81 206 11:21 10.05.2022
1544 Clouds 16 1025 55 10000 0.81 206 10:54 10.05.2022
1545 Clouds 11 1025 77 10000 0.16 314 09:27 10.05.2022
1546 Clear 10 1026 80 10000 0.96 34 07:47 10.05.2022
1547 Clear 11 1025 78 10000 1.68 40 04:35 10.05.2022
1548 Clouds 11 1026 90 10000 1.41 35 01:36 10.05.2022
1549 Clouds 12 1027 91 10000 1.39 37 23:37 09.05.2022
1550 Clouds 13 1026 89 10000 1.24 31 22:29 09.05.2022
1551 Clouds 13 1025 89 10000 0.93 27 21:25 09.05.2022
1552 Clouds 14 1024 83 10000 0.61 0 19:52 09.05.2022
1553 Clouds 20 1024 81 10000 0.91 315 17:59 09.05.2022
1554 Clouds 19 1023 68 9848 0.65 337 16:49 09.05.2022
1555 Clouds 20 1023 59 9307 0.9 92 15:53 09.05.2022
1556 Clouds 19 1023 59 9307 0.9 92 15:31 09.05.2022
1557 Clouds 17 1023 53 10000 1.77 125 14:33 09.05.2022
1558 Clouds 17 1022 46 10000 1.23 148 13:51 09.05.2022
1559 Clouds 18 1024 36 10000 1.34 258 12:30 09.05.2022
1560 Clear 17 1024 47 10000 0.77 183 11:43 09.05.2022
1561 Clear 13 1024 62 10000 0.64 170 10:44 09.05.2022
1562 Clear 11 1023 58 10000 0.51 145 09:38 09.05.2022
1563 Clear 9 1025 78 10000 1.65 34 07:55 09.05.2022
1564 Clear 9 1024 73 10000 2.17 29 04:33 09.05.2022
1565 Clear 9 1024 73 10000 2.17 29 04:33 09.05.2022
1566 Clear 9 1024 73 10000 2.17 29 04:33 09.05.2022
1567 Clouds 10 1026 85 10000 2.49 24 00:21 09.05.2022
1568 Clouds 10 1025 91 10000 2.59 25 22:57 08.05.2022
1569 Clouds 11 1025 93 10000 2.7 24 22:22 08.05.2022
1570 Clouds 17 1023 88 10000 2.57 19 20:37 08.05.2022
1571 Clouds 16 1021 74 10000 2.3 11 19:53 08.05.2022
1572 Clouds 17 1020 63 10000 2.4 11 18:57 08.05.2022
1573 Clouds 16 1020 56 10000 2.56 7 18:19 08.05.2022
1574 Clouds 16 1020 52 10000 2.63 10 16:56 08.05.2022
1575 Clouds 18 1020 50 10000 2.74 10 15:41 08.05.2022
1576 Clouds 17 1022 54 10000 0.45 331 15:20 08.05.2022
1577 Clouds 17 1022 54 10000 0.45 331 15:20 08.05.2022
1578 Clouds 16 1022 47 10000 0.89 346 12:39 08.05.2022
1579 Clear 12 1022 70 10000 2.43 12 10:32 08.05.2022
1580 Clear 12 1022 69 10000 1.34 0 09:59 08.05.2022
1581 Clear 11 1022 75 10000 0.45 219 09:31 08.05.2022
1582 Clouds 10 1022 72 10000 2.53 18 07:31 08.05.2022
1583 Clouds 8 1023 92 10000 2.99 19 03:55 08.05.2022
1584 Clouds 9 1024 90 10000 3.07 19 02:51 08.05.2022
1585 Clear 9 1025 90 10000 3.27 19 00:28 08.05.2022
1586 Clear 9 1025 90 10000 3.25 19 23:51 07.05.2022
1587 Clear 9 1025 90 10000 3.23 17 22:48 07.05.2022
1588 Clear 9 1025 91 10000 3.16 15 21:59 07.05.2022
1589 Clear 9 1025 91 10000 3.16 15 21:34 07.05.2022
1590 Clear 9 1023 87 10000 2.91 11 20:34 07.05.2022
1591 Clouds 10 1021 70 10000 2.87 4 19:44 07.05.2022
1592 Clouds 15 1020 56 10000 2.85 10 17:35 07.05.2022
1593 Clouds 15 1021 58 10000 3.01 9 15:47 07.05.2022
1594 Clouds 15 1022 44 10000 1.34 144 13:58 07.05.2022
1595 Clouds 12 1022 69 10000 3.62 4 10:46 07.05.2022
1596 Clouds 7 1023 80 10000 3.52 7 09:19 07.05.2022
1597 Clouds 7 1024 91 10000 3.39 9 07:50 07.05.2022
1598 Clouds 7 1024 95 10000 3.25 4 06:43 07.05.2022
1599 Clouds 8 1023 95 194 2.74 356 04:41 07.05.2022
1600 Clouds 8 1025 95 232 2.77 353 01:19 07.05.2022
1601 Clouds 7 1025 95 10000 3.12 360 23:36 06.05.2022
1602 Clouds 7 1025 96 429 3.35 6 22:27 06.05.2022
1603 Clouds 7 1025 96 429 3.35 6 21:41 06.05.2022
1604 Clouds 11 1022 75 10000 3.44 0 20:24 06.05.2022
1605 Clouds 11 1022 72 10000 3.78 360 19:29 06.05.2022
1606 Clouds 11 1022 72 10000 3.78 360 19:29 06.05.2022
1607 Clouds 12 1022 72 10000 3.78 360 18:56 06.05.2022
1608 Clouds 12 1021 68 10000 3.93 0 17:38 06.05.2022
1609 Clouds 15 1022 45 10000 1.79 253 15:56 06.05.2022
1610 Clouds 15 1021 59 10000 4.2 0 15:38 06.05.2022
1611 Clouds 15 1022 44 10000 1.79 255 14:23 06.05.2022
1612 Clouds 14 1022 42 10000 2.24 337 12:53 06.05.2022
1613 Clouds 14 1022 42 10000 1.79 328 12:31 06.05.2022
1614 Clouds 13 1022 46 10000 2.68 330 11:38 06.05.2022
1615 Clouds 7 1022 74 10000 3.77 357 09:49 06.05.2022
1616 Clouds 6 1023 83 10000 3.38 357 09:19 06.05.2022
1617 Clouds 6 1024 90 10000 3.16 360 07:57 06.05.2022
1618 Clouds 6 1023 94 3673 2.76 351 06:29 06.05.2022
1619 Clouds 6 1024 97 150 2.55 349 04:32 06.05.2022
1620 Clouds 6 1023 97 90 2.49 345 02:40 06.05.2022
1621 Clouds 7 1025 95 144 2.8 355 23:25 05.05.2022
1622 Clouds 7 1025 91 10000 2.65 352 21:52 05.05.2022
1623 Clouds 7 1023 86 10000 2.66 350 20:48 05.05.2022
1624 Clouds 7 1022 81 10000 2.96 353 19:42 05.05.2022
1625 Clouds 14 1022 49 10000 2.24 277 16:51 05.05.2022
1626 Clouds 14 1022 49 10000 0.89 244 15:48 05.05.2022
1627 Clouds 14 1022 45 10000 1.34 19 14:34 05.05.2022
1628 Clouds 13 1021 53 10000 0.89 84 13:18 05.05.2022
1629 Clouds 14 1021 49 10000 0.89 52 11:46 05.05.2022
1630 Clouds 7 1020 73 10000 3.64 4 09:47 05.05.2022
1631 Clouds 7 1021 82 10000 3.61 5 09:26 05.05.2022
1632 Clouds 6 1021 97 4604 3.12 7 06:33 05.05.2022
1633 Clouds 7 1021 93 10000 2.8 10 02:28 05.05.2022
1634 Clouds 8 1021 93 10000 2.8 10 01:45 05.05.2022
1635 Clouds 8 1022 96 4728 2.42 8 00:57 05.05.2022
1636 Clouds 8 1022 95 10000 2.71 18 23:22 04.05.2022
1637 Clouds 9 1020 96 3446 2.57 11 22:18 04.05.2022
1638 Clouds 9 1020 96 3446 2.57 11 21:45 04.05.2022
1639 Clouds 9 1019 95 3540 2.53 360 21:18 04.05.2022
1640 Clouds 9 1018 92 10000 1.97 5 20:20 04.05.2022
1641 Clouds 9 1018 92 10000 1.88 357 19:35 04.05.2022
1642 Clouds 10 1017 91 10000 1.98 5 18:43 04.05.2022
1643 Clouds 10 1017 91 10000 1.98 5 18:43 04.05.2022
1644 Clouds 10 1017 88 10000 2.19 3 18:19 04.05.2022
1645 Clouds 11 1017 78 9788 1.89 7 17:22 04.05.2022
1646 Clouds 11 1017 74 10000 1.82 21 15:34 04.05.2022
1647 Clouds 12 1017 76 5928 1.64 33 14:41 04.05.2022
1648 Clouds 11 1017 80 10000 1.77 19 14:19 04.05.2022
1649 Clouds 13 1018 70 10000 0.89 230 12:50 04.05.2022
1650 Clouds 12 1018 80 10000 0.45 223 11:40 04.05.2022
1651 Clouds 10 1019 88 10000 0.71 33 10:27 04.05.2022
1652 Clouds 9 1018 90 10000 1.07 40 09:21 04.05.2022
1653 Clouds 8 1018 91 10000 1.12 37 07:51 04.05.2022
1654 Clouds 9 1017 90 10000 2.13 17 05:34 04.05.2022
1655 Clouds 8 1019 95 10000 2.25 20 02:37 04.05.2022
1656 Clouds 8 1018 97 3880 0.98 22 23:20 03.05.2022
1657 Clouds 9 1018 97 3615 1.15 43 21:53 03.05.2022
1658 Clouds 9 1018 97 3615 1.15 43 21:31 03.05.2022
1659 Clouds 9 1017 97 3564 1.22 42 20:46 03.05.2022
1660 Clouds 9 1016 99 1137 0.89 44 19:32 03.05.2022
1661 Clouds 11 1016 89 3451 0.82 25 18:43 03.05.2022
1662 Rain 10 1016 89 4761 0.65 319 17:21 03.05.2022
1663 Rain 11 1016 88 2857 0.38 255 15:57 03.05.2022
1664 Rain 13 1016 83 8583 0.3 209 14:23 03.05.2022
1665 Rain 13 1015 68 4270 2.24 0 12:35 03.05.2022
1666 Clouds 13 1015 70 6245 0.89 248 11:35 03.05.2022
1667 Clouds 12 1015 79 10000 1.07 167 10:44 03.05.2022
1668 Clouds 7 1015 91 10000 0.96 41 08:19 03.05.2022
1669 Clouds 7 1014 92 10000 1.14 54 06:45 03.05.2022
1670 Clouds 8 1014 94 10000 0.57 28 02:39 03.05.2022
1671 Clouds 8 1015 97 235 0.75 167 23:19 02.05.2022
1672 Clouds 8 1015 97 181 0.55 120 22:28 02.05.2022
1673 Clouds 8 1015 97 181 0.55 120 21:37 02.05.2022
1674 Clouds 9 1012 96 10000 1.37 168 19:26 02.05.2022
1675 Rain 11 1012 90 5204 1.4 174 18:26 02.05.2022
1676 Rain 11 1012 90 5184 1.39 174 17:39 02.05.2022
1677 Clouds 11 1012 88 8962 1.66 189 16:42 02.05.2022
1678 Clouds 14 1014 69 6386 1.6 188 15:41 02.05.2022
1679 Clouds 13 1014 69 7396 0.89 297 14:27 02.05.2022
1680 Clouds 12 1014 91 714 0.36 157 13:19 02.05.2022
1681 Clouds 12 1015 89 410 0.49 88 11:41 02.05.2022
1682 Clouds 10 1014 96 1409 0.49 213 09:32 02.05.2022
1683 Clouds 9 1014 95 10000 0.34 193 08:20 02.05.2022
1684 Rain 9 1014 94 10000 0.41 99 06:31 02.05.2022
1685 Clouds 10 1017 88 10000 1.28 17 00:44 02.05.2022
1686 Clouds 10 1017 88 10000 1.62 20 00:21 02.05.2022
1687 Clouds 11 1018 89 10000 1.98 21 22:53 01.05.2022
1688 Clouds 10 1018 89 10000 2.21 17 21:41 01.05.2022
1689 Clouds 15 1017 74 10000 1.34 242 20:30 01.05.2022
1690 Clouds 16 1016 73 10000 2.35 347 19:21 01.05.2022
1691 Rain 15 1015 62 10000 2.35 347 18:52 01.05.2022
1692 Clouds 16 1015 52 10000 2.95 355 17:49 01.05.2022
1693 Clouds 19 1015 42 10000 2.75 354 16:29 01.05.2022
1694 Clouds 17 1015 42 10000 2.76 354 15:45 01.05.2022
1695 Clouds 17 1016 40 10000 2.28 358 14:45 01.05.2022
1696 Clouds 13 1018 46 10000 2.04 6 12:23 01.05.2022
1697 Clouds 9 1020 65 10000 2.17 6 09:34 01.05.2022
1698 Clouds 8 1020 70 10000 2.61 14 08:49 01.05.2022
1699 Clouds 7 1022 89 10000 2.89 17 05:42 01.05.2022
1700 Clouds 8 1022 92 10000 2.29 16 01:56 01.05.2022
1701 Clouds 10 1023 93 10000 2.96 11 22:18 30.04.2022
1702 Clouds 9 1022 88 10000 3.03 8 21:32 30.04.2022
1703 Clouds 12 1020 76 10000 2.89 1 19:53 30.04.2022
1704 Clouds 14 1019 65 10000 2.82 358 18:52 30.04.2022
1705 Clouds 14 1019 69 10000 2.6 9 17:26 30.04.2022
1706 Clouds 18 1019 65 10000 2.63 1 15:51 30.04.2022
1707 Clouds 15 1019 62 10000 2.21 353 14:58 30.04.2022
1708 Clouds 15 1020 63 10000 2.45 349 13:41 30.04.2022
1709 Clouds 11 1021 65 10000 1.67 342 11:39 30.04.2022
1710 Clouds 14 1022 60 10000 1.65 353 10:55 30.04.2022
1711 Clouds 13 1022 69 10000 1.83 2 09:54 30.04.2022
1712 Clouds 11 1023 75 10000 2.5 18 07:36 30.04.2022
1713 Clouds 11 1024 92 10000 2.49 16 03:53 30.04.2022
1714 Clouds 11 1026 85 10000 2.82 23 23:54 29.04.2022
1715 Clouds 9 1026 90 10000 2.71 20 22:36 29.04.2022
1716 Clouds 10 1026 92 10000 2.57 17 21:55 29.04.2022
1717 Clouds 11 1026 90 10000 2.41 15 21:21 29.04.2022
1718 Clouds 17 1024 82 10000 1.49 20 19:52 29.04.2022
1719 Clouds 18 1023 72 10000 1.28 20 18:58 29.04.2022
1720 Clouds 21 1022 62 10000 1.74 12 17:33 29.04.2022
1721 Clouds 21 1022 46 10000 2.62 13 15:58 29.04.2022
1722 Clouds 18 1023 46 10000 2.45 24 14:34 29.04.2022
1723 Clouds 17 1024 49 10000 1.69 29 13:27 29.04.2022
1724 Clouds 17 1025 45 10000 0.45 231 12:26 29.04.2022
1725 Clouds 10 1026 82 10000 2 18 09:48 29.04.2022
1726 Clouds 9 1026 82 10000 0.45 0 07:42 29.04.2022
1727 Clouds 9 1026 82 10000 0.45 0 07:42 29.04.2022
1728 Clouds 9 1026 82 10000 3.06 24 07:23 29.04.2022
1729 Clouds 9 1026 83 10000 3.03 24 05:55 29.04.2022
1730 Clouds 11 1027 80 10000 2.83 18 00:47 29.04.2022
1731 Clouds 11 1026 81 10000 2.69 19 23:48 28.04.2022
1732 Clouds 11 1026 94 10000 2.68 24 22:45 28.04.2022
1733 Clouds 10 1026 93 10000 2.42 19 21:47 28.04.2022
1734 Clouds 11 1025 92 10000 2.23 17 21:29 28.04.2022
1735 Clouds 11 1025 92 10000 2.23 17 20:37 28.04.2022
1736 Clouds 12 1023 92 10000 1.54 6 19:46 28.04.2022
1737 Clouds 12 1023 94 10000 0.93 323 19:23 28.04.2022
1738 Clouds 12 1023 94 10000 0.93 323 18:37 28.04.2022
1739 Clouds 14 1023 85 4871 0.3 242 17:32 28.04.2022
1740 Rain 15 1023 86 4848 0.29 243 16:41 28.04.2022
1741 Rain 15 1023 85 7258 0.45 24 16:19 28.04.2022
1742 Rain 16 1022 82 7258 0.45 246 15:40 28.04.2022
1743 Rain 16 1022 76 10000 0.45 0 14:38 28.04.2022
1744 Clouds 18 1021 52 7274 0.45 221 13:19 28.04.2022
1745 Clouds 16 1021 59 8299 0.79 105 11:59 28.04.2022
1746 Clouds 15 1021 61 10000 0.89 305 10:47 28.04.2022
1747 Clouds 14 1021 63 10000 0.74 88 10:26 28.04.2022
1748 Clouds 12 1020 74 10000 1.14 57 08:44 28.04.2022
1749 Clouds 11 1020 74 10000 2.08 29 07:36 28.04.2022
1750 Clouds 10 1020 86 10000 1.56 17 05:56 28.04.2022
1751 Clouds 10 1020 86 10000 1.56 17 05:38 28.04.2022
1752 Clouds 10 1020 83 10000 0.54 353 04:40 28.04.2022
1753 Clouds 11 1020 77 10000 0.88 115 00:30 28.04.2022
1754 Clouds 12 1019 79 10000 0.83 115 22:45 27.04.2022
1755 Clouds 13 1019 75 10000 1.14 149 21:56 27.04.2022
1756 Clouds 13 1018 74 10000 1.35 162 21:26 27.04.2022
1757 Clouds 12 1018 74 10000 1.35 162 20:38 27.04.2022
1758 Clouds 13 1017 80 10000 0.58 129 19:38 27.04.2022
1759 Rain 14 1015 58 10000 3.02 190 19:18 27.04.2022
1760 Clouds 17 1017 48 10000 1.34 305 18:22 27.04.2022
1761 Clouds 18 1016 44 10000 1.79 263 17:24 27.04.2022
1762 Clouds 17 1015 51 10000 2.54 203 15:21 27.04.2022
1763 Clouds 18 1017 40 10000 1.34 257 12:25 27.04.2022
1764 Clouds 15 1018 59 10000 2.65 208 11:20 27.04.2022
1765 Clouds 12 1018 72 10000 1.71 188 09:43 27.04.2022
1766 Clouds 10 1017 78 10000 1.45 44 07:19 27.04.2022
1767 Clouds 10 1017 75 10000 0.45 185 04:45 27.04.2022
1768 Clouds 10 1017 90 10000 0.77 37 01:34 27.04.2022
1769 Clouds 10 1017 91 10000 0.82 48 00:38 27.04.2022
1770 Clouds 10 1017 92 10000 0.75 56 23:39 26.04.2022
1771 Clouds 11 1017 90 10000 0.63 74 23:18 26.04.2022
1772 Clouds 11 1017 90 10000 0.63 74 22:39 26.04.2022
1773 Clouds 12 1017 86 10000 0.72 153 21:35 26.04.2022
1774 Clouds 12 1015 78 10000 0.9 197 20:52 26.04.2022
1775 Clouds 12 1015 78 10000 0.9 197 20:30 26.04.2022
1776 Clouds 13 1013 70 10000 1.49 223 19:32 26.04.2022
1777 Clouds 14 1012 58 10000 2.08 229 18:45 26.04.2022
1778 Clouds 14 1012 51 10000 2.29 229 17:59 26.04.2022
1779 Clouds 15 1012 49 10000 2.4 226 16:49 26.04.2022
1780 Clouds 19 1015 38 10000 1.79 284 13:59 26.04.2022
1781 Clouds 19 1015 35 10000 2.24 305 13:33 26.04.2022
1782 Clouds 16 1016 53 10000 1.97 200 11:55 26.04.2022
1783 Clouds 10 1014 55 10000 1.72 190 10:37 26.04.2022
1784 Clouds 7 1014 67 10000 0.33 137 09:25 26.04.2022
1785 Clouds 6 1015 83 10000 1.47 31 07:22 26.04.2022
1786 Clouds 8 1015 80 10000 1.17 27 04:23 26.04.2022
1787 Clouds 7 1017 86 10000 0.69 54 01:25 26.04.2022
1788 Clouds 8 1017 86 10000 0.57 71 00:26 26.04.2022
1789 Clouds 9 1016 86 10000 0.43 71 22:33 25.04.2022
1790 Clouds 7 1016 85 10000 0.18 324 21:39 25.04.2022
1791 Clouds 14 1014 81 10000 0.67 267 20:39 25.04.2022
1792 Clouds 15 1011 61 10000 1.67 244 18:54 25.04.2022
1793 Clouds 15 1011 55 10000 2.02 236 17:52 25.04.2022
1794 Clouds 16 1010 53 10000 2.32 229 16:52 25.04.2022
1795 Clouds 17 1013 40 10000 2.24 261 15:24 25.04.2022
1796 Clouds 16 1011 52 10000 2.64 222 14:34 25.04.2022
1797 Clouds 14 1011 54 10000 2.52 220 13:30 25.04.2022
1798 Clouds 13 1013 55 10000 1.79 279 11:37 25.04.2022
1799 Clouds 9 1013 77 10000 1.55 223 10:20 25.04.2022
1800 Clouds 7 1013 86 10000 0.62 218 08:33 25.04.2022
1801 Clouds 5 1015 94 10000 2.08 29 06:27 25.04.2022
1802 Clouds 9 1013 76 571 1.7 19 02:20 25.04.2022
1803 Clouds 8 1014 95 10000 1.66 20 23:58 24.04.2022
1804 Clouds 8 1014 95 10000 1.66 20 23:30 24.04.2022
1805 Clouds 8 1014 94 10000 1.86 23 22:40 24.04.2022
1806 Clouds 8 1013 94 10000 2.03 26 21:58 24.04.2022
1807 Clouds 8 1012 94 10000 2.21 17 21:24 24.04.2022
1808 Clouds 10 1012 94 10000 2.22 17 20:47 24.04.2022
1809 Clouds 11 1010 89 10000 1.85 5 20:21 24.04.2022
1810 Clouds 11 1010 82 10000 1.8 360 18:58 24.04.2022
1811 Clouds 12 1009 78 10000 1.68 354 17:55 24.04.2022
1812 Clouds 12 1008 77 10000 1.48 358 17:22 24.04.2022
1813 Clouds 12 1008 77 10000 1.48 358 16:56 24.04.2022
1814 Clouds 12 1008 76 10000 2.1 358 16:29 24.04.2022
1815 Clouds 12 1008 76 10000 2.1 358 16:29 24.04.2022
1816 Clouds 11 1008 76 10000 2.1 358 15:52 24.04.2022
1817 Clouds 11 1009 77 10000 2.18 0 14:40 24.04.2022
1818 Clouds 10 1009 79 10000 1.74 343 13:38 24.04.2022
1819 Clouds 10 1008 82 10000 1.8 346 13:18 24.04.2022
1820 Clouds 7 1008 87 10000 1.98 342 11:50 24.04.2022
1821 Clouds 8 1007 85 10000 0.45 243 10:48 24.04.2022
1822 Clouds 8 1006 88 87 1.98 336 09:47 24.04.2022
1823 Clouds 5 1005 90 792 0.45 317 08:18 24.04.2022
1824 Rain 6 1003 89 215 0.89 209 05:45 24.04.2022
1825 Clouds 5 1002 86 117 0.45 217 02:48 24.04.2022
1826 Clouds 5 1001 87 2916 0.45 301 00:45 24.04.2022
1827 Clouds 4 1003 98 1481 1.61 261 23:52 23.04.2022
1828 Clouds 5 1003 98 1150 1.63 246 23:25 23.04.2022
1829 Clouds 5 1003 98 1259 1.63 245 23:25 23.04.2022
1830 Clouds 6 999 85 540 1.79 228 21:59 23.04.2022
1831 Clouds 6 999 85 540 0.89 5 21:38 23.04.2022
1832 Clouds 6 1001 99 414 2.68 202 20:59 23.04.2022
1833 Clouds 7 997 78 672 1.34 24 19:56 23.04.2022
1834 Clouds 7 997 80 964 2.24 240 19:20 23.04.2022
1835 Rain 7 999 95 964 3.21 218 18:54 23.04.2022
1836 Clouds 7 998 93 480 3.82 217 18:31 23.04.2022
1837 Rain 8 996 74 526 0.89 296 17:44 23.04.2022
1838 Clouds 9 997 91 384 4.05 223 16:45 23.04.2022
1839 Clouds 8 995 73 1638 0.89 217 15:43 23.04.2022
1840 Rain 7 998 95 1888 3.27 233 13:24 23.04.2022
1841 Rain 6 995 84 10000 0.45 0 11:29 23.04.2022
1842 Rain 8 994 91 802 2.86 175 09:39 23.04.2022
1843 Rain 8 995 89 372 0.45 0 07:52 23.04.2022
1844 Clouds 7 999 95 453 2.71 189 03:56 23.04.2022
1845 Clouds 7 1000 96 1142 1.87 184 01:59 23.04.2022
1846 Clouds 7 1002 97 7220 2.1 193 23:34 22.04.2022
1847 Clouds 8 1002 89 10000 2 205 22:32 22.04.2022
1848 Clouds 8 1002 89 10000 2.01 205 21:44 22.04.2022
1849 Clouds 9 1000 81 10000 2.37 204 21:20 22.04.2022
1850 Clouds 11 999 69 10000 3.19 211 20:28 22.04.2022
1851 Clouds 12 999 59 10000 3.6 219 19:23 22.04.2022
1852 Clouds 12 999 59 10000 3.6 219 18:52 22.04.2022
1853 Clouds 13 998 54 10000 3.85 216 17:54 22.04.2022
1854 Clouds 15 998 49 10000 4.21 216 16:52 22.04.2022
1855 Clouds 15 998 48 10000 4.09 215 15:47 22.04.2022
1856 Clouds 16 999 47 10000 3.83 216 15:21 22.04.2022
1857 Clouds 16 1000 46 10000 2.68 290 13:54 22.04.2022
1858 Clouds 15 1000 47 10000 2.24 303 13:27 22.04.2022
1859 Clouds 14 1000 50 10000 2.68 38 12:28 22.04.2022
1860 Clouds 12 1001 63 10000 0.45 272 11:22 22.04.2022
1861 Clouds 10 1001 66 10000 0.45 0 10:51 22.04.2022
1862 Clouds 8 1001 73 10000 0.45 57 10:31 22.04.2022
1863 Clouds 7 1001 80 10000 2.85 219 09:53 22.04.2022
1864 Clouds 6 1002 82 10000 1.47 203 08:51 22.04.2022
1865 Clouds 6 1002 82 10000 0.24 194 07:33 22.04.2022
1866 Clouds 5 1004 91 10000 0.15 56 03:47 22.04.2022
1867 Clouds 6 1006 93 10000 0.9 55 00:52 22.04.2022
1868 Clouds 6 1006 92 10000 1.85 22 23:25 21.04.2022
1869 Clouds 6 1005 92 10000 2.25 28 22:29 21.04.2022
1870 Clouds 6 1004 92 10000 2.45 15 20:43 21.04.2022
1871 Clouds 6 1004 92 142 2.11 17 20:24 21.04.2022
1872 Clouds 10 1004 87 503 2.44 3 18:44 21.04.2022
1873 Clouds 10 1004 87 181 2.79 360 18:18 21.04.2022
1874 Clouds 12 1004 88 70 2.94 355 16:44 21.04.2022
1875 Clouds 11 1003 80 10000 2.79 6 15:22 21.04.2022
1876 Clouds 10 1003 80 10000 2.79 6 14:49 21.04.2022
1877 Clouds 8 1004 81 10000 3.41 5 13:23 21.04.2022
1878 Clouds 7 1004 81 10000 3.41 5 12:57 21.04.2022
1879 Clouds 5 1005 88 480 3.45 12 10:49 21.04.2022
1880 Clouds 4 1006 91 10000 3.68 17 08:56 21.04.2022
1881 Clouds 4 1006 96 49 2.96 21 07:32 21.04.2022
1882 Clouds 4 1006 96 87 3.38 11 05:42 21.04.2022
1883 Clouds 4 1007 96 155 3.19 14 03:30 21.04.2022
1884 Clouds 4 1008 97 136 3.12 10 02:47 21.04.2022
1885 Clouds 4 1009 97 150 2.27 25 00:45 21.04.2022
1886 Clouds 5 1008 96 89 3.19 9 23:50 20.04.2022
1887 Clouds 5 1009 96 94 2.52 21 23:22 20.04.2022
1888 Clouds 5 1009 96 94 2.52 21 22:49 20.04.2022
1889 Clouds 5 1008 94 10000 3.76 28 22:30 20.04.2022
1890 Clouds 5 1008 95 10000 3.33 30 21:27 20.04.2022
1891 Clouds 6 1007 95 3474 3.57 29 20:24 20.04.2022
1892 Clouds 6 1007 95 3259 3.82 28 19:52 20.04.2022
1893 Clouds 7 1005 93 55 3.48 17 19:20 20.04.2022
1894 Clouds 7 1004 90 3238 3.49 29 17:56 20.04.2022
1895 Clouds 8 1003 84 5312 3.2 36 16:48 20.04.2022
1896 Clouds 13 1003 83 5368 3.2 36 16:30 20.04.2022
1897 Clouds 9 1003 84 5340 1.97 81 13:51 20.04.2022
1898 Clouds 6 1005 93 65 1.44 75 11:47 20.04.2022
1899 Clouds 8 1006 95 74 1.69 137 11:21 20.04.2022
1900 Clouds 8 1005 86 53 1.56 115 10:19 20.04.2022
1901 Clouds 7 1005 91 93 2.06 144 09:25 20.04.2022
1902 Clouds 6 1006 90 63 1.26 133 08:22 20.04.2022
1903 Clouds 6 1006 90 68 1.28 121 08:22 20.04.2022
1904 Clouds 6 1006 89 63 1.26 133 07:32 20.04.2022
1905 Rain 8 1008 89 97 1.64 144 03:34 20.04.2022
1906 Clouds 9 1008 88 185 0.43 120 00:22 20.04.2022
1907 Clouds 9 1008 88 185 0.43 120 23:37 19.04.2022
1908 Clouds 8 1010 99 107 0.78 25 22:25 19.04.2022
1909 Clouds 8 1010 99 107 0.78 25 21:55 19.04.2022
1910 Rain 10 1010 90 182 0.88 242 21:22 19.04.2022
1911 Rain 10 1010 89 182 0.88 242 20:41 19.04.2022
1912 Rain 10 1009 88 747 1 104 19:52 19.04.2022
1913 Rain 11 1010 89 158 1.34 275 18:47 19.04.2022
1914 Rain 11 1009 82 181 0.89 338 17:32 19.04.2022
1915 Clouds 8 1009 94 203 1.35 175 16:43 19.04.2022
1916 Rain 8 1010 94 4022 1.01 178 16:22 19.04.2022
1917 Clouds 11 1011 97 220 1.06 232 14:48 19.04.2022
1918 Clouds 13 1009 82 5414 2.5 214 13:35 19.04.2022
1919 Clouds 16 1011 56 2230 2.68 343 12:50 19.04.2022
1920 Clouds 14 1011 70 10000 2.59 212 11:55 19.04.2022
1921 Clouds 13 1013 76 10000 0.45 236 10:23 19.04.2022
1922 Clouds 9 1012 84 10000 0.44 346 08:54 19.04.2022
1923 Clouds 9 1012 92 10000 0.5 280 04:42 19.04.2022
1924 Clouds 9 1013 97 5338 1.08 248 03:25 19.04.2022
1925 Clouds 10 1014 95 10000 0.45 234 00:27 19.04.2022
1926 Clouds 11 1014 92 10000 0.3 289 23:25 18.04.2022
1927 Clouds 11 1014 89 10000 0.69 318 21:29 18.04.2022
1928 Clouds 10 1014 89 10000 0.69 318 20:54 18.04.2022
1929 Clouds 11 1014 89 10000 0.69 318 20:30 18.04.2022
1930 Clouds 11 1013 85 10000 1.03 344 19:42 18.04.2022
1931 Clouds 16 1013 77 10000 0.85 301 18:54 18.04.2022
1932 Clouds 17 1012 59 8206 1.4 254 17:55 18.04.2022
1933 Clouds 17 1012 59 8206 1.4 254 17:33 18.04.2022
1934 Clouds 17 1012 59 8206 1.4 254 17:33 18.04.2022
1935 Clouds 18 1011 40 10000 1.75 236 16:44 18.04.2022
1936 Clear 20 1013 43 10000 2.24 132 16:21 18.04.2022
1937 Clear 21 1013 24 10000 2.24 252 14:43 18.04.2022
1938 Clouds 21 1014 24 10000 2.68 239 13:35 18.04.2022
1939 Clouds 21 1014 24 10000 2.68 239 13:35 18.04.2022
1940 Clouds 18 1015 25 10000 1.34 210 12:29 18.04.2022
1941 Clouds 15 1016 27 10000 0.45 231 11:27 18.04.2022
1942 Clouds 11 1016 33 10000 0.4 347 10:29 18.04.2022
1943 Clouds 10 1017 38 10000 0.4 347 09:30 18.04.2022
1944 Clouds 9 1017 45 10000 2.37 19 07:35 18.04.2022
1945 Clouds 10 1018 50 10000 2.73 21 04:40 18.04.2022
1946 Clouds 10 1019 91 10000 2.78 17 23:51 17.04.2022
1947 Clouds 11 1019 91 10000 2.95 13 22:40 17.04.2022
1948 Clouds 12 1019 90 10000 3.04 12 21:42 17.04.2022
1949 Clouds 12 1018 84 10000 2.85 10 21:21 17.04.2022
1950 Clouds 18 1018 84 10000 2.85 10 20:32 17.04.2022
1951 Clear 18 1016 45 10000 2.89 0 19:21 17.04.2022
1952 Clear 20 1015 38 10000 3.16 359 17:43 17.04.2022
1953 Clear 20 1015 27 10000 3.02 359 15:39 17.04.2022
1954 Clear 19 1015 25 10000 2.47 355 14:54 17.04.2022
1955 Clear 20 1015 23 10000 1.85 340 13:45 17.04.2022
1956 Clear 20 1018 17 10000 0.45 195 12:58 17.04.2022
1957 Clear 17 1018 19 10000 0.45 186 11:53 17.04.2022
1958 Clear 13 1017 25 10000 1.02 325 10:45 17.04.2022
1959 Clear 11 1018 29 10000 1.63 4 10:27 17.04.2022
1960 Clear 10 1019 43 10000 2.51 18 09:28 17.04.2022
1961 Clear 9 1019 43 10000 2.51 18 08:42 17.04.2022
1962 Clear 9 1020 50 10000 3.49 25 07:00 17.04.2022
1963 Clear 8 1021 86 10000 3.68 20 03:53 17.04.2022
1964 Clear 10 1023 73 10000 3.9 18 00:55 17.04.2022
1965 Clear 9 1023 81 10000 3.9 15 23:50 16.04.2022
1966 Clear 10 1022 91 10000 3.84 12 22:27 16.04.2022
1967 Clear 10 1021 88 10000 3.87 12 21:29 16.04.2022
1968 Clear 10 1021 88 10000 3.87 12 21:29 16.04.2022
1969 Clear 12 1020 73 10000 3.63 11 19:57 16.04.2022
1970 Clear 22 1019 58 10000 4.08 10 18:54 16.04.2022
1971 Clear 22 1018 48 10000 4.23 10 17:40 16.04.2022
1972 Clear 20 1018 39 10000 3.59 13 16:32 16.04.2022
1973 Clear 19 1018 40 10000 3.51 14 15:26 16.04.2022
1974 Clear 22 1018 40 10000 3.51 14 14:47 16.04.2022
1975 Clouds 21 1019 41 10000 3.37 12 13:56 16.04.2022
1976 Clouds 20 1019 45 10000 2.85 9 13:25 16.04.2022
1977 Clouds 16 1020 49 10000 2.9 7 11:58 16.04.2022
1978 Clouds 17 1021 40 10000 0.89 61 10:37 16.04.2022
1979 Clouds 12 1021 57 10000 3.49 12 09:41 16.04.2022
1980 Clouds 10 1022 62 10000 3.72 14 08:56 16.04.2022
1981 Clouds 9 1022 63 10000 0.45 66 07:31 16.04.2022
1982 Clouds 10 1022 63 10000 3.6 19 06:22 16.04.2022
1983 Clouds 10 1025 81 10000 3.29 20 01:53 16.04.2022
1984 Clouds 12 1024 71 10000 2.97 17 00:19 16.04.2022
1985 Clouds 11 1024 92 10000 2.9 16 22:52 15.04.2022
1986 Clouds 12 1024 92 10000 2.88 18 22:31 15.04.2022
1987 Clouds 12 1024 92 10000 2.87 18 21:44 15.04.2022
1988 Clouds 12 1023 92 10000 2.92 16 20:55 15.04.2022
1989 Clouds 14 1022 86 10000 2.85 13 19:52 15.04.2022
1990 Clouds 13 1022 86 10000 2.8 11 19:33 15.04.2022
1991 Clouds 17 1021 76 10000 2.7 10 18:45 15.04.2022
1992 Clouds 17 1021 63 10000 2.35 11 18:23 15.04.2022
1993 Clouds 19 1020 44 10000 1.76 29 17:29 15.04.2022
1994 Clouds 21 1022 39 10000 0.89 5 16:25 15.04.2022
1995 Clouds 21 1022 40 10000 0.45 243 15:54 15.04.2022
1996 Clouds 20 1022 43 10000 0.45 18 14:22 15.04.2022
1997 Clouds 18 1023 48 10000 0.45 107 12:53 15.04.2022
1998 Clouds 17 1022 47 10000 1.34 0 12:28 15.04.2022
1999 Clouds 17 1022 52 10000 0.45 123 11:54 15.04.2022
2000 Clouds 15 1023 52 10000 2.28 20 10:48 15.04.2022
2001 Clouds 12 1023 66 10000 2.44 23 10:21 15.04.2022
2002 Clouds 10 1023 64 10000 2.75 23 09:23 15.04.2022
2003 Clouds 10 1023 61 10000 2.75 23 08:57 15.04.2022
2004 Clouds 9 1023 61 10000 2.87 25 06:52 15.04.2022
2005 Clouds 9 1022 61 10000 2.72 25 05:56 15.04.2022
2006 Clouds 9 1023 77 10000 2.63 29 01:27 15.04.2022
2007 Clouds 11 1023 71 10000 2.6 28 23:29 14.04.2022
2008 Clouds 11 1023 70 10000 2.6 28 22:46 14.04.2022
2009 Clouds 11 1022 69 10000 2.55 29 22:27 14.04.2022
2010 Clouds 11 1022 65 10000 2.53 29 21:53 14.04.2022
2011 Clouds 15 1019 77 10000 2.59 18 19:53 14.04.2022
2012 Clouds 16 1018 66 10000 2.55 27 19:22 14.04.2022
2013 Clouds 18 1017 56 10000 2.72 32 17:48 14.04.2022
2014 Clouds 18 1016 49 10000 2.45 35 17:27 14.04.2022
2015 Clouds 17 1016 49 10000 2.45 35 16:32 14.04.2022
2016 Clouds 18 1018 41 10000 0.45 28 13:55 14.04.2022
2017 Clouds 18 1018 38 10000 1.34 184 13:26 14.04.2022
2018 Clouds 17 1018 39 10000 2.24 0 12:33 14.04.2022
2019 Clouds 16 1018 45 10000 1.34 321 11:47 14.04.2022
2020 Clouds 14 1018 58 10000 2.51 42 11:20 14.04.2022
2021 Clouds 12 1018 69 10000 0.89 0 10:33 14.04.2022
2022 Clear 10 1018 73 10000 0.45 212 09:50 14.04.2022
2023 Clear 9 1018 77 10000 2.69 35 08:35 14.04.2022
2024 Clouds 7 1019 82 10000 3.6 22 05:58 14.04.2022
2025 Clouds 8 1019 86 10000 2.61 35 01:23 14.04.2022
2026 Clouds 9 1018 87 10000 2.51 42 22:38 13.04.2022
2027 Clouds 9 1018 87 10000 2.51 42 22:38 13.04.2022
2028 Clouds 9 1018 87 10000 2.72 34 21:43 13.04.2022
2029 Clouds 9 1017 86 10000 2.67 40 20:45 13.04.2022
2030 Clouds 9 1016 87 1862 2.47 34 19:54 13.04.2022
2031 Clouds 10 1015 87 3163 2.14 31 18:39 13.04.2022
2032 Clouds 10 1014 89 942 2.06 38 17:41 13.04.2022
2033 Clouds 10 1013 91 406 2.24 40 17:23 13.04.2022
2034 Clouds 11 1013 92 10000 1.73 36 16:18 13.04.2022
2035 Clouds 14 1013 83 7955 0.45 239 15:29 13.04.2022
2036 Clouds 13 1013 87 7917 0.45 0 14:43 13.04.2022
2037 Clouds 10 1012 95 10000 0.98 67 13:54 13.04.2022
2038 Rain 12 1014 91 1655 1.92 71 12:57 13.04.2022
2039 Rain 11 1013 92 3201 2.22 55 11:58 13.04.2022
2040 Clouds 11 1012 93 2370 2.27 42 10:34 13.04.2022
2041 Clouds 9 1012 95 3150 3.15 29 08:49 13.04.2022
2042 Clouds 10 1012 93 3189 2.82 31 08:23 13.04.2022
2043 Clouds 9 1011 95 3438 1.94 26 06:49 13.04.2022
2044 Clouds 9 1012 95 3450 0.8 87 06:24 13.04.2022
2045 Clouds 11 1012 89 3969 1.68 152 02:24 13.04.2022
2046 Clouds 11 1012 88 3547 1.56 150 00:20 13.04.2022
2047 Clouds 10 1012 86 3964 2.25 168 22:34 12.04.2022
2048 Clouds 11 1012 82 10000 2.39 166 21:56 12.04.2022
2049 Clouds 11 1011 78 10000 2.22 156 20:48 12.04.2022
2050 Clouds 11 1010 79 10000 2.65 153 20:22 12.04.2022
2051 Clouds 12 1010 77 4061 2.24 150 19:40 12.04.2022
2052 Rain 13 1010 73 10000 2.6 185 18:56 12.04.2022
2053 Clouds 13 1010 86 10000 2.81 195 17:39 12.04.2022
2054 Rain 15 1010 81 10000 3.44 196 16:47 12.04.2022
2055 Clouds 16 1010 63 10000 2.61 197 15:35 12.04.2022
2056 Clouds 16 1010 66 10000 3.49 180 14:53 12.04.2022
2057 Clouds 16 1011 59 10000 1.79 218 13:50 12.04.2022
2058 Clouds 17 1011 50 10000 2.24 351 13:25 12.04.2022
2059 Clouds 15 1010 51 10000 1.79 215 12:18 12.04.2022
2060 Clouds 14 1012 51 10000 1.34 284 11:36 12.04.2022
2061 Clouds 13 1011 54 10000 0.89 269 09:52 12.04.2022
2062 Clouds 12 1011 57 10000 0.45 0 08:49 12.04.2022
2063 Clouds 9 1012 73 10000 1.53 118 07:20 12.04.2022
2064 Clouds 5 1012 78 10000 1.53 129 05:41 12.04.2022
2065 Clouds 6 1014 82 10000 2.19 142 02:37 12.04.2022
2066 Clouds 10 1015 91 10000 2.3 145 23:24 11.04.2022
2067 Clouds 10 1015 91 10000 2.3 145 22:32 11.04.2022
2068 Clouds 12 1013 85 10000 2.73 140 21:22 11.04.2022
2069 Clouds 12 1013 85 10000 2.73 140 20:35 11.04.2022
2070 Clouds 13 1012 69 10000 3.23 165 19:59 11.04.2022
2071 Clouds 16 1011 46 10000 3.74 180 19:26 11.04.2022
2072 Clouds 17 1011 47 10000 3.74 180 18:53 11.04.2022
2073 Clouds 19 1010 42 10000 3.89 191 17:58 11.04.2022
2074 Clouds 19 1010 40 10000 3.89 191 17:38 11.04.2022
2075 Clouds 19 1013 40 10000 2.68 268 16:26 11.04.2022
2076 Clouds 19 1014 42 10000 3.13 282 14:49 11.04.2022
2077 Clouds 18 1015 47 10000 3.13 265 13:34 11.04.2022
2078 Clouds 17 1015 52 10000 2.24 223 12:38 11.04.2022
2079 Clouds 16 1015 54 10000 2.24 304 12:19 11.04.2022
2080 Clouds 11 1016 71 10000 3.49 202 10:36 11.04.2022
2081 Clouds 9 1016 75 10000 2.78 202 09:41 11.04.2022
2082 Clouds 7 1015 82 10000 0.45 80 07:54 11.04.2022
2083 Clouds 8 1016 79 10000 1.07 207 03:19 11.04.2022
2084 Clouds 8 1018 97 7453 1.1 189 23:22 10.04.2022
2085 Clouds 9 1017 92 10000 1.44 183 22:26 10.04.2022
2086 Clouds 10 1017 92 10000 1.44 183 21:35 10.04.2022
2087 Clouds 12 1016 83 10000 1.78 188 20:50 10.04.2022
2088 Clouds 13 1015 67 10000 2.51 207 19:53 10.04.2022
2089 Clouds 13 1015 67 10000 2.51 207 19:30 10.04.2022
2090 Clouds 14 1014 52 10000 3.25 209 18:46 10.04.2022
2091 Clouds 15 1014 44 10000 3.42 209 17:58 10.04.2022
2092 Clouds 15 1014 44 10000 3.42 209 17:58 10.04.2022
2093 Clouds 15 1014 44 10000 3.42 209 17:58 10.04.2022
2094 Clouds 15 1014 44 10000 3.42 209 17:58 10.04.2022
2095 Clouds 15 1014 44 10000 3.42 209 17:58 10.04.2022
2096 Clouds 15 1014 44 10000 3.42 209 17:39 10.04.2022
2097 Clouds 16 1014 33 10000 3.54 210 16:44 10.04.2022
2098 Clouds 17 1016 35 10000 3.13 208 15:37 10.04.2022
2099 Clouds 16 1016 31 10000 2.68 306 14:34 10.04.2022
2100 Clouds 13 1018 36 10000 0.89 215 12:40 10.04.2022
2101 Clouds 12 1018 39 10000 0.45 244 12:21 10.04.2022
2102 Clouds 9 1019 35 10000 2.55 210 11:29 10.04.2022
2103 Clouds 7 1017 41 10000 2.55 210 10:56 10.04.2022
2104 Clouds 8 1018 45 10000 1.95 204 10:00 10.04.2022
2105 Clouds 8 1018 45 10000 1.95 204 09:38 10.04.2022
2106 Clouds 3 1019 53 10000 0.31 18 08:23 10.04.2022
2107 Clouds 3 1019 54 10000 0.26 41 07:35 10.04.2022
2108 Clouds 3 1019 53 10000 0.6 18 05:50 10.04.2022
2109 Clouds 5 1019 48 10000 0.45 200 02:34 10.04.2022
2110 Clouds 2 1022 61 10000 1.46 30 00:29 10.04.2022
2111 Clouds 3 1022 61 10000 1.46 30 23:49 09.04.2022
2112 Clouds 4 1023 74 10000 2.18 21 22:48 09.04.2022
2113 Clouds 4 1023 82 10000 2.77 18 21:35 09.04.2022
2114 Clouds 4 1021 88 10000 3.03 14 20:49 09.04.2022
2115 Clouds 5 1018 75 10000 2.85 359 20:26 09.04.2022
2116 Clouds 6 1018 75 10000 2.85 359 19:42 09.04.2022
2117 Clouds 11 1016 60 10000 3.06 347 18:59 09.04.2022
2118 Clouds 11 1015 54 10000 3.03 337 18:20 09.04.2022
2119 Clouds 11 1015 54 10000 3.03 337 17:39 09.04.2022
2120 Clouds 12 1014 52 10000 3.01 336 16:52 09.04.2022
2121 Clouds 11 1014 51 10000 3.15 338 15:55 09.04.2022
2122 Clouds 11 1014 51 10000 3.15 338 15:30 09.04.2022
2123 Clouds 10 1014 51 10000 3.12 339 14:44 09.04.2022
2124 Clouds 11 1014 39 10000 3.09 342 14:22 09.04.2022
2125 Clouds 10 1015 43 10000 3.03 346 13:18 09.04.2022
2126 Clouds 9 1015 47 10000 3.03 346 12:41 09.04.2022
2127 Clouds 8 1015 53 10000 3.11 357 11:22 09.04.2022
2128 Clouds 9 1015 66 10000 3.15 358 10:21 09.04.2022
2129 Clouds 6 1015 68 10000 3.15 358 09:37 09.04.2022
2130 Clouds 5 1015 67 10000 3.33 1 08:51 09.04.2022
2131 Clouds 4 1016 90 10000 3.52 8 06:48 09.04.2022
2132 Clouds 6 1015 93 94 3.6 5 01:31 09.04.2022
2133 Clouds 9 1013 71 236 3 358 23:25 08.04.2022
2134 Clouds 8 1011 87 10000 2.37 1 21:58 08.04.2022
2135 Clouds 9 1011 83 10000 1.84 354 20:47 08.04.2022
2136 Clouds 9 1009 74 10000 1.1 325 19:58 08.04.2022
2137 Clouds 15 1009 49 10000 1.44 292 19:18 08.04.2022
2138 Clouds 16 1008 43 10000 1.61 274 18:28 08.04.2022
2139 Clouds 16 1008 43 10000 1.61 274 17:45 08.04.2022
2140 Clouds 18 1008 45 10000 2.37 250 17:22 08.04.2022
2141 Clouds 17 1008 43 10000 2.37 250 16:38 08.04.2022
2142 Clouds 18 1008 40 10000 3.06 241 15:53 08.04.2022
2143 Clouds 18 1009 37 10000 3.04 231 15:23 08.04.2022
2144 Clouds 19 1009 39 10000 3.58 222 14:26 08.04.2022
2145 Clouds 18 1011 40 10000 1.34 252 13:41 08.04.2022
2146 Clouds 18 1012 41 10000 2.24 184 13:22 08.04.2022
2147 Clouds 14 1013 56 10000 4.06 214 11:51 08.04.2022
2148 Clouds 10 1014 69 10000 4.08 215 10:31 08.04.2022
2149 Clouds 8 1015 75 10000 1.95 210 09:25 08.04.2022
2150 Clouds 7 1015 77 10000 1.12 211 08:25 08.04.2022
2151 Clouds 8 1015 75 10000 0.79 206 06:47 08.04.2022
2152 Clouds 8 1016 73 10000 0.25 108 04:32 08.04.2022
2153 Clouds 9 1017 75 10000 1.02 34 00:32 08.04.2022
2154 Clouds 10 1017 75 10000 1.08 43 23:59 07.04.2022
2155 Clouds 10 1017 77 10000 1.26 36 22:58 07.04.2022
2156 Clouds 10 1017 77 10000 1.26 36 22:37 07.04.2022
2157 Clouds 11 1017 78 10000 1.45 31 22:19 07.04.2022
2158 Clouds 9 1017 78 10000 1.45 31 21:47 07.04.2022
2159 Clouds 10 1016 79 10000 1.73 29 20:57 07.04.2022
2160 Clouds 10 1014 72 10000 1.2 5 20:28 07.04.2022
2161 Clouds 17 1012 41 10000 1.54 265 17:51 07.04.2022
2162 Clouds 17 1011 41 10000 1.68 259 17:24 07.04.2022
2163 Clouds 18 1011 39 10000 1.67 259 16:42 07.04.2022
2164 Clouds 17 1012 38 10000 2.2 248 15:58 07.04.2022
2165 Clouds 18 1013 33 10000 2.68 221 14:29 07.04.2022
2166 Clouds 16 1014 35 10000 1.79 290 13:41 07.04.2022
2167 Clouds 13 1014 39 10000 0.45 0 12:28 07.04.2022
2168 Clouds 8 1014 45 10000 1.63 245 10:57 07.04.2022
2169 Clouds 7 1014 50 10000 1.32 228 09:36 07.04.2022
2170 Clouds 5 1015 69 10000 0.39 297 08:35 07.04.2022
2171 Clouds 5 1014 70 10000 2.12 27 06:29 07.04.2022
2172 Clouds 6 1017 87 10000 2.72 17 02:40 07.04.2022
2173 Clouds 5 1018 93 10000 2.79 16 01:27 07.04.2022
2174 Clouds 5 1017 93 10000 2.84 9 23:53 06.04.2022
2175 Clouds 5 1017 92 10000 2.52 7 22:45 06.04.2022
2176 Clouds 5 1016 94 10000 2.36 14 22:24 06.04.2022
2177 Clouds 6 1015 96 2505 2.6 6 21:18 06.04.2022
2178 Clouds 5 1013 94 3256 2.38 359 20:27 06.04.2022
2179 Clouds 5 1013 94 3238 2.37 359 19:52 06.04.2022
2180 Clouds 5 1011 77 10000 2.53 350 18:50 06.04.2022
2181 Clouds 6 1010 72 10000 2.2 346 17:51 06.04.2022
2182 Clouds 6 1010 70 10000 1.82 342 17:21 06.04.2022
2183 Clouds 7 1010 70 10000 1.82 342 16:34 06.04.2022
2184 Clouds 13 1009 47 10000 1.62 334 15:46 06.04.2022
2185 Clouds 8 1009 64 6323 1.91 349 14:20 06.04.2022
2186 Clouds 9 1009 57 4881 2.05 359 12:37 06.04.2022
2187 Clouds 10 1010 54 10000 1.34 231 11:54 06.04.2022
2188 Clouds 8 1010 61 10000 2.02 1 10:43 06.04.2022
2189 Clouds 7 1010 63 10000 1.94 1 10:19 06.04.2022
2190 Clouds 6 1010 70 10000 2.1 9 09:26 06.04.2022
2191 Clouds 5 1010 71 10000 2.42 19 08:26 06.04.2022
2192 Clouds 5 1010 71 10000 2.57 20 07:37 06.04.2022
2193 Clouds 4 1015 76 10000 2.61 30 02:19 06.04.2022
2194 Clouds 3 1016 76 10000 3.03 29 23:50 05.04.2022
2195 Clouds 4 1017 81 10000 3.11 25 22:20 05.04.2022
2196 Clouds 5 1016 82 10000 2.74 22 21:18 05.04.2022
2197 Clouds 5 1016 82 10000 2.74 22 21:18 05.04.2022
2198 Clouds 5 1016 82 10000 2.74 22 21:18 05.04.2022
2199 Clouds 5 1016 82 10000 2.74 22 21:18 05.04.2022
2200 Clouds 5 1014 76 10000 2.46 15 20:25 05.04.2022
2201 Clouds 7 1011 59 10000 2.36 19 18:53 05.04.2022
2202 Clouds 11 1011 50 10000 2.45 20 17:30 05.04.2022
2203 Clear 12 1011 46 10000 2.48 21 16:45 05.04.2022
2204 Clear 13 1011 43 10000 2.27 22 15:52 05.04.2022
2205 Clear 11 1011 43 10000 2.27 22 15:31 05.04.2022
2206 Clear 13 1012 15 10000 1.67 25 13:59 05.04.2022
2207 Clear 11 1013 21 10000 0.45 199 12:55 05.04.2022
2208 Clear 7 1014 30 10000 0.81 31 11:43 05.04.2022
2209 Clear 6 1014 37 10000 0.97 28 11:25 05.04.2022
2210 Clear 2 1015 31 10000 1.49 23 09:41 05.04.2022
2211 Clear 1 1015 61 10000 2.37 25 08:52 05.04.2022
2212 Clear -1 1021 66 10000 2.17 29 05:28 05.04.2022
2213 Clouds 0 1023 76 10000 3.25 28 23:51 04.04.2022
2214 Clouds 0 1023 78 10000 2.86 27 22:41 04.04.2022
2215 Clouds -2 1023 85 10000 2.63 27 21:52 04.04.2022
2216 Clouds -2 1022 89 10000 2.66 23 21:21 04.04.2022
2217 Clouds -2 1022 89 10000 2.66 23 20:48 04.04.2022
2218 Clouds 3 1019 79 10000 2.57 18 19:39 04.04.2022
2219 Clouds 7 1016 63 10000 2.59 21 18:59 04.04.2022
2220 Clouds 8 1014 55 10000 2.68 23 17:39 04.04.2022
2221 Clouds 8 1014 50 10000 2.89 26 16:36 04.04.2022
2222 Clouds 9 1014 47 10000 2.75 30 15:34 04.04.2022
2223 Clouds 9 1014 29 10000 2.31 31 14:49 04.04.2022
2224 Clouds 10 1014 26 10000 2.31 31 14:31 04.04.2022
2225 Clouds 8 1014 31 10000 1.12 50 13:18 04.04.2022
2226 Clouds 2 1015 53 10000 1.43 35 11:29 04.04.2022
2227 Clouds 1 1018 60 10000 1.43 35 10:49 04.04.2022
2228 Clouds -4 1015 73 10000 2.96 25 07:36 04.04.2022
2229 Clouds -4 1025 79 10000 2.41 18 03:18 04.04.2022
2230 Clouds -3 1025 85 10000 2.5 15 23:48 03.04.2022
2231 Clouds -2 1024 66 10000 2.3 12 22:31 03.04.2022
2232 Snow -2 1023 63 4784 2.15 6 21:37 03.04.2022
2233 Clouds 0 1021 57 3546 2.27 356 20:40 03.04.2022
2234 Snow 1 1019 85 3551 2.33 355 19:45 03.04.2022
2235 Clouds 3 1016 42 2493 2.2 355 18:29 03.04.2022
2236 Clouds 3 1016 70 2493 2.2 355 17:44 03.04.2022
2237 Clouds 4 1015 42 2205 2.5 353 16:50 03.04.2022
2238 Clouds 4 1015 39 5053 3.11 350 16:21 03.04.2022
2239 Clouds 4 1012 39 10000 1.79 295 14:28 03.04.2022
2240 Clouds 4 1012 37 10000 3.13 294 13:45 03.04.2022
2241 Clouds 3 1013 40 10000 0.45 349 12:19 03.04.2022
2242 Clouds 1 1013 45 10000 0.89 105 10:54 03.04.2022
2243 Clouds -4 1021 65 10000 3.17 10 09:23 03.04.2022
2244 Clouds -5 1024 91 10000 3.34 16 07:24 03.04.2022
2245 Clouds -4 1024 91 10000 3.28 16 03:46 03.04.2022
2246 Clouds -5 1024 90 10000 3.34 12 00:36 03.04.2022
2247 Clouds -6 1024 90 10000 3.72 10 22:54 02.04.2022
2248 Clouds -6 1024 91 10000 3.65 12 21:57 02.04.2022
2249 Clouds -5 1024 91 10000 3.65 12 21:33 02.04.2022
2250 Clouds -5 1023 91 10000 3.73 13 20:51 02.04.2022
2251 Snow -1 1018 54 10000 3.62 2 19:28 02.04.2022
2252 Clouds 2 1016 53 10000 3.96 358 18:20 02.04.2022
2253 Clouds 2 1016 53 10000 3.96 358 18:20 02.04.2022
2254 Clouds 1 1016 53 10000 3.96 358 17:47 02.04.2022
2255 Clouds 2 1016 51 10000 4.57 354 16:22 02.04.2022
2256 Clouds 3 1015 50 10000 4.9 354 15:21 02.04.2022
2257 Clouds 2 1015 53 10000 4.9 354 14:43 02.04.2022
2258 Snow 1 1015 58 10000 5.13 353 13:34 02.04.2022
2259 Clouds 0 1011 63 10000 1.79 259 12:37 02.04.2022
2260 Clouds -1 1009 69 10000 0.89 227 10:56 02.04.2022
2261 Snow -4 1014 84 1531 4.73 345 08:44 02.04.2022
2262 Snow -5 1013 87 907 4.51 340 06:49 02.04.2022
2263 Snow -3 1006 90 403 3.77 320 03:39 02.04.2022
2264 Snow -2 1008 88 259 2.89 318 23:55 01.04.2022
2265 Snow -2 1008 88 574 2.75 305 23:18 01.04.2022
2266 Snow -1 1008 84 466 0.45 5 21:32 01.04.2022
2267 Snow -1 1007 83 442 0.89 245 20:50 01.04.2022
2268 Snow -1 1007 79 777 0.89 38 19:51 01.04.2022
2269 Snow 0 1007 58 7247 2.24 210 19:30 01.04.2022
2270 Snow 0 1011 48 7328 4.95 327 18:44 01.04.2022
2271 Snow 0 1010 44 3784 4.75 334 17:46 01.04.2022
2272 Snow 0 1011 46 10000 5.05 333 16:42 01.04.2022
2273 Snow 1 1010 51 10000 5.07 340 15:23 01.04.2022
2274 Clouds 1 1010 45 10000 5.41 344 14:18 01.04.2022
2275 Clouds 1 1006 40 10000 3.58 276 13:32 01.04.2022
2276 Clouds 1 1006 47 10000 2.24 256 12:32 01.04.2022
2277 Clouds 0 1006 50 10000 1.79 187 11:33 01.04.2022
2278 Snow -2 1010 55 10000 6.15 354 10:18 01.04.2022
2279 Snow -6 1011 79 10000 5.13 358 07:59 01.04.2022
2280 Clouds -5 1010 81 10000 4.57 2 06:30 01.04.2022
2281 Clouds -3 1008 82 10000 4.41 2 04:45 01.04.2022
2282 Snow -1 1005 83 10000 4.44 348 03:41 01.04.2022
2283 Clouds 3 1003 69 5904 2.06 334 01:53 01.04.2022
2284 Clouds 2 1005 91 10000 2.61 359 22:56 31.03.2022
2285 Clouds 1 1004 91 10000 2.79 7 21:49 31.03.2022
2286 Clouds 3 1004 90 10000 2.99 7 21:22 31.03.2022
2287 Clouds 5 1002 61 10000 2.92 353 20:28 31.03.2022
2288 Clouds 2 1001 80 10000 2.77 354 19:46 31.03.2022
2289 Clouds 8 1000 68 10000 3.08 358 18:38 31.03.2022
2290 Clouds 8 999 63 10000 3.37 353 17:32 31.03.2022
2291 Clouds 11 998 46 10000 3.39 347 16:18 31.03.2022
2292 Clouds 8 998 57 10000 3.39 347 15:33 31.03.2022
2293 Clouds 10 999 55 10000 3.21 347 14:52 31.03.2022
2294 Clouds 9 999 55 10000 3.24 346 14:19 31.03.2022
2295 Clouds 7 1000 56 10000 2.98 342 11:31 31.03.2022
2296 Clouds 5 1001 63 10000 2.6 356 10:27 31.03.2022
2297 Clouds 6 999 72 10000 2.6 356 09:43 31.03.2022
2298 Clouds 4 1003 82 10000 2.87 9 07:49 31.03.2022
2299 Clouds 5 1001 78 633 2.56 358 03:48 31.03.2022
2300 Clouds 6 1003 72 81 1.98 12 23:25 30.03.2022
2301 Clouds 6 1003 73 97 2.56 9 22:19 30.03.2022
2302 Clouds 6 1003 71 97 2.56 9 21:32 30.03.2022
2303 Clouds 5 1003 93 3208 2.62 11 20:44 30.03.2022
2304 Clouds 7 1002 64 10000 2.71 10 19:54 30.03.2022
2305 Clouds 5 1001 88 10000 2.59 11 18:50 30.03.2022
2306 Clouds 6 1001 87 1961 2.71 11 17:52 30.03.2022
2307 Clouds 6 1001 87 299 2.67 8 17:23 30.03.2022
2308 Clouds 6 1001 87 299 2.67 8 16:41 30.03.2022
2309 Clouds 7 1001 87 101 2.54 3 15:59 30.03.2022
2310 Clouds 7 1001 86 51 2.41 3 14:42 30.03.2022
2311 Clouds 7 1003 88 79 2.58 8 13:23 30.03.2022
2312 Clouds 9 1003 70 79 2.58 8 12:32 30.03.2022
2313 Clouds 8 1002 86 152 2.86 14 10:48 30.03.2022
2314 Clouds 7 1002 89 128 2.95 15 09:55 30.03.2022
2315 Clouds 7 1002 93 3203 0.89 264 08:21 30.03.2022
2316 Clouds 6 1003 93 496 2.39 9 06:50 30.03.2022
2317 Clouds 6 1003 92 10000 2.19 9 05:40 30.03.2022
2318 Clouds 7 1005 92 58 1.28 356 02:32 30.03.2022
2319 Rain 7 1008 91 158 0.29 57 22:42 29.03.2022
2320 Rain 8 1008 90 155 0.45 55 21:49 29.03.2022
2321 Rain 8 1008 90 228 0.45 252 21:28 29.03.2022
2322 Rain 8 1008 85 10000 1.09 147 20:25 29.03.2022
2323 Rain 9 1009 81 10000 1.09 147 19:31 29.03.2022
2324 Rain 9 1009 79 10000 0.89 180 18:53 29.03.2022
2325 Rain 11 1009 69 10000 0.45 311 17:48 29.03.2022
2326 Rain 14 1008 41 10000 3.13 207 16:59 29.03.2022
2327 Clouds 15 1008 40 10000 3.13 301 16:25 29.03.2022
2328 Clouds 16 1009 36 10000 4.02 252 14:58 29.03.2022
2329 Clouds 16 1009 37 10000 3.13 238 14:39 29.03.2022
2330 Clouds 14 1008 42 10000 2.05 196 13:30 29.03.2022
2331 Clouds 13 1012 50 10000 2.31 195 11:58 29.03.2022
2332 Clouds 11 1014 53 10000 1.7 175 10:59 29.03.2022
2333 Clouds 9 1013 63 10000 0.49 200 09:50 29.03.2022
2334 Clouds 7 1014 66 10000 1.02 33 08:20 29.03.2022
2335 Clouds 7 1015 65 10000 0.58 108 05:38 29.03.2022
2336 Clouds 7 1019 72 10000 0.44 77 01:31 29.03.2022
2337 Clouds 9 1021 73 10000 0.64 182 23:25 28.03.2022
2338 Clouds 9 1021 73 10000 0.64 182 22:54 28.03.2022
2339 Clouds 9 1021 71 10000 0.53 199 22:28 28.03.2022
2340 Clouds 9 1021 67 10000 2.09 206 21:18 28.03.2022
2341 Clouds 9 1021 67 10000 2.09 206 20:31 28.03.2022
2342 Clouds 10 1020 63 10000 2.12 201 19:46 28.03.2022
2343 Clouds 13 1019 36 10000 3.17 209 19:28 28.03.2022
2344 Clouds 14 1019 54 10000 3.17 209 18:40 28.03.2022
2345 Clouds 13 1019 50 10000 3.39 211 17:39 28.03.2022
2346 Clouds 14 1019 35 10000 3.39 211 16:33 28.03.2022
2347 Clouds 15 1022 35 10000 2.24 211 14:49 28.03.2022
2348 Clouds 15 1023 37 10000 2.24 211 14:22 28.03.2022
2349 Clouds 14 1024 40 10000 0.89 328 12:41 28.03.2022
2350 Clouds 10 1025 47 10000 3.03 203 11:32 28.03.2022
2351 Clouds 7 1025 53 10000 2.06 180 09:43 28.03.2022
2352 Clouds 5 1025 70 10000 1.03 150 09:19 28.03.2022
2353 Clouds 5 1026 69 10000 0.93 96 08:22 28.03.2022
2354 Clouds 5 1026 68 10000 0.93 96 07:34 28.03.2022
2355 Clear 6 1027 64 10000 0.8 87 03:52 28.03.2022
2356 Clouds 7 1030 76 10000 1.33 98 23:30 27.03.2022
2357 Clouds 8 1029 69 10000 1.02 123 22:24 27.03.2022
2358 Clouds 8 1029 68 10000 1.02 123 21:42 27.03.2022
2359 Clouds 9 1027 65 10000 0.94 148 20:57 27.03.2022
2360 Clouds 11 1026 58 10000 1.25 186 19:48 27.03.2022
2361 Clouds 11 1024 54 10000 1.31 209 19:24 27.03.2022
2362 Clouds 13 1024 46 10000 1.42 220 18:27 27.03.2022
2363 Clouds 13 1024 48 10000 1.42 220 17:39 27.03.2022
2364 Clouds 13 1023 49 10000 1.77 199 16:28 27.03.2022
2365 Clouds 14 1024 49 10000 1.79 222 15:21 27.03.2022
2366 Clouds 12 1024 61 10000 0.45 229 13:55 27.03.2022
2367 Clouds 10 1025 63 10000 0.89 265 12:31 27.03.2022
2368 Clouds 9 1024 64 10000 0.45 0 10:57 27.03.2022
2369 Clouds 7 1023 71 10000 0.45 35 08:51 27.03.2022
2370 Clouds 5 1024 73 10000 0.85 97 05:54 27.03.2022
2371 Clouds 6 1025 70 10000 0.96 108 00:48 27.03.2022
2372 Clouds 7 1025 68 10000 1.44 115 23:40 26.03.2022
2373 Clouds 7 1025 64 10000 1.07 104 22:36 26.03.2022
2374 Clouds 8 1024 81 10000 0.72 84 21:34 26.03.2022
2375 Clouds 8 1024 62 10000 0.6 168 20:52 26.03.2022
2376 Clouds 9 1021 58 10000 1.57 176 19:21 26.03.2022
2377 Clouds 11 1019 46 10000 0.89 200 17:53 26.03.2022
2378 Clouds 11 1019 50 10000 0.95 194 17:32 26.03.2022
2379 Clouds 13 1018 43 10000 1.34 296 16:27 26.03.2022
2380 Clouds 13 1018 41 10000 2.68 196 14:57 26.03.2022
2381 Clouds 13 1019 44 10000 1.79 267 13:52 26.03.2022
2382 Clouds 12 1019 52 10000 0.45 279 12:47 26.03.2022
2383 Clouds 10 1019 60 10000 1.87 173 11:33 26.03.2022
2384 Clouds 10 1020 63 10000 1.55 160 10:18 26.03.2022
2385 Clouds 7 1019 52 10000 0.9 100 08:33 26.03.2022
2386 Clouds 5 1020 80 10000 1.61 56 05:54 26.03.2022
2387 Clouds 6 1020 80 10000 1.27 57 03:59 26.03.2022
2388 Clouds 6 1023 77 10000 0.82 98 23:39 25.03.2022
2389 Clouds 8 1023 72 10000 0.66 103 21:35 25.03.2022
2390 Clouds 8 1023 72 10000 0.66 103 21:35 25.03.2022
2391 Clouds 8 1022 73 10000 0.97 102 20:46 25.03.2022
2392 Clouds 9 1020 68 10000 0.63 76 19:28 25.03.2022
2393 Clouds 12 1020 60 10000 0.85 71 18:46 25.03.2022
2394 Clouds 13 1019 54 10000 0.31 156 17:35 25.03.2022
2395 Clouds 13 1019 60 10000 0.93 178 16:41 25.03.2022
2396 Clouds 13 1019 60 10000 0.93 178 16:41 25.03.2022
2397 Clouds 13 1019 78 10000 1.27 169 15:52 25.03.2022
2398 Clouds 14 1020 58 10000 1.76 165 13:58 25.03.2022
2399 Clouds 14 1020 58 10000 2.24 274 12:32 25.03.2022
2400 Clouds 9 1022 69 10000 1.13 154 09:52 25.03.2022
2401 Clouds 9 1022 73 10000 0.82 137 09:23 25.03.2022
2402 Clouds 8 1022 77 10000 0.79 90 07:48 25.03.2022
2403 Clouds 8 1022 77 10000 0.68 112 07:21 25.03.2022
2404 Clouds 7 1022 76 6531 0.61 136 04:47 25.03.2022
2405 Clouds 5 1027 81 4843 1.17 102 00:29 25.03.2022
2406 Clouds 6 1027 74 1671 1 89 22:29 24.03.2022
2407 Clouds 7 1027 72 1671 1 89 21:33 24.03.2022
2408 Clouds 8 1025 65 5265 1.21 164 19:50 24.03.2022
2409 Clouds 8 1024 93 10000 1.82 170 18:49 24.03.2022
2410 Clouds 9 1022 84 10000 2.14 171 17:38 24.03.2022
2411 Clouds 10 1021 75 10000 2.18 176 16:44 24.03.2022
2412 Clouds 12 1022 42 10000 1.79 195 14:59 24.03.2022
2413 Clouds 12 1023 41 10000 2.24 311 14:40 24.03.2022
2414 Clouds 12 1023 41 10000 1.34 237 13:41 24.03.2022
2415 Clouds 10 1023 37 10000 2.24 205 12:39 24.03.2022
2416 Clouds 9 1024 36 10000 2.32 181 11:31 24.03.2022
2417 Clouds 1 1025 38 10000 2.1 171 09:34 24.03.2022
2418 Clouds 4 1026 39 10000 1.61 164 08:39 24.03.2022
2419 Clouds 3 1023 68 10000 1.35 93 05:45 24.03.2022
2420 Clouds 2 1030 76 10000 1.74 81 01:20 24.03.2022
2421 Clouds 4 1030 75 10000 1.47 75 22:23 23.03.2022
2422 Clouds 4 1030 82 10000 1.58 74 21:24 23.03.2022
2423 Clouds 6 1030 82 10000 1.58 74 20:45 23.03.2022
2424 Clouds 5 1028 80 10000 1.4 98 19:33 23.03.2022
2425 Clouds 10 1022 43 10000 1.97 165 18:19 23.03.2022
2426 Clouds 12 1022 39 10000 2.03 176 17:26 23.03.2022
2427 Clouds 13 1022 37 10000 1.79 235 15:56 23.03.2022
2428 Clouds 12 1023 39 10000 1.79 212 14:48 23.03.2022
2429 Clear 11 1024 42 10000 3.13 244 13:34 23.03.2022
2430 Clear 8 1025 52 10000 2.68 186 11:33 23.03.2022
2431 Clear 1 1026 81 10000 1.81 161 08:41 23.03.2022
2432 Clouds -1 1032 80 10000 1.3 88 06:25 23.03.2022
2433 Clouds 0 1032 86 10000 0.96 106 02:50 23.03.2022
2434 Clouds 2 1032 83 10000 0.89 127 00:27 23.03.2022
2435 Clouds 4 1031 75 9638 1.38 156 21:52 22.03.2022
2436 Clouds 3 1031 75 1260 1.59 161 21:23 22.03.2022
2437 Clouds 4 1030 73 829 2.21 176 20:23 22.03.2022
2438 Clouds 5 1028 66 975 2.43 180 19:27 22.03.2022
2439 Clouds 7 1028 65 773 2.46 172 18:49 22.03.2022
2440 Clouds 6 1027 63 845 2.47 177 17:44 22.03.2022
2441 Clouds 7 1026 63 1933 2.58 185 16:58 22.03.2022
2442 Clouds 8 1026 63 9735 2.77 190 15:42 22.03.2022
2443 Clouds 9 1026 61 10000 2.93 196 15:20 22.03.2022
2444 Clouds 8 1026 64 10000 2.93 196 14:44 22.03.2022
2445 Clouds 9 1026 55 10000 0.89 36 13:42 22.03.2022
2446 Clouds 9 1026 54 10000 2.24 316 12:18 22.03.2022
2447 Clouds 8 1026 63 10000 0.89 22 11:20 22.03.2022
2448 Clouds 4 1027 79 10000 0.45 27 09:28 22.03.2022
2449 Clouds 3 1026 84 4163 0.45 234 07:35 22.03.2022
2450 Clouds 3 1031 76 609 1.38 144 03:58 22.03.2022
2451 Clouds 3 1030 85 2064 1.25 155 01:27 22.03.2022
2452 Clouds 4 1030 83 4861 1.68 161 22:57 21.03.2022
2453 Clouds 5 1029 79 1249 2.01 162 21:37 21.03.2022
2454 Clouds 5 1029 80 1272 2.06 156 20:44 21.03.2022
2455 Clouds 5 1029 81 851 2.02 153 20:23 21.03.2022
2456 Clouds 6 1029 79 851 2.02 153 19:45 21.03.2022
2457 Clouds 6 1028 80 681 2.31 161 18:48 21.03.2022
2458 Clouds 7 1027 80 347 2.36 156 17:36 21.03.2022
2459 Clouds 7 1026 81 330 2.31 149 16:59 21.03.2022
2460 Clouds 7 1026 82 340 2.42 163 16:27 21.03.2022
2461 Clouds 8 1026 81 340 2.42 163 15:43 21.03.2022
2462 Clouds 7 1026 85 644 2.49 167 14:36 21.03.2022
2463 Clouds 6 1027 86 723 2.58 164 13:20 21.03.2022
2464 Clouds 6 1027 87 774 2.66 169 11:58 21.03.2022
2465 Clouds 6 1028 89 500 2.58 165 11:25 21.03.2022
2466 Clouds 7 1026 90 439 0.89 229 09:49 21.03.2022
2467 Clouds 7 1026 91 682 0.89 247 07:33 21.03.2022
2468 Clouds 7 1025 91 683 2.02 165 05:56 21.03.2022
2469 Clouds 7 1026 90 699 2.37 176 01:42 21.03.2022
2470 Clouds 7 1026 92 695 0.45 276 22:57 20.03.2022
2471 Clouds 7 1026 91 795 0.45 339 22:25 20.03.2022
2472 Clouds 8 1025 90 795 0.45 301 21:37 20.03.2022
2473 Clouds 8 1025 89 402 0.45 12 20:55 20.03.2022
2474 Clouds 8 1025 89 826 0.89 275 20:29 20.03.2022
2475 Clouds 8 1025 92 879 0.89 275 19:49 20.03.2022
2476 Clouds 8 1024 86 470 0.45 229 19:19 20.03.2022
2477 Clouds 9 1024 74 772 1.34 209 17:44 20.03.2022
2478 Clouds 10 1024 71 5243 1.79 225 17:24 20.03.2022
2479 Clouds 10 1024 72 4043 2.68 248 15:58 20.03.2022
2480 Clouds 10 1024 73 2735 3.13 265 14:38 20.03.2022
2481 Clouds 10 1024 64 10000 0.45 50 13:38 20.03.2022
2482 Clouds 10 1025 72 7740 0.89 202 11:58 20.03.2022
2483 Clouds 7 1025 81 10000 0.45 0 09:59 20.03.2022
2484 Clouds 5 1027 94 3039 1.75 180 08:20 20.03.2022
2485 Clouds 5 1026 97 2831 1.76 177 05:49 20.03.2022
2486 Clouds 5 1026 97 1958 1.96 195 03:18 20.03.2022
2487 Clouds 7 1025 85 2564 1.67 198 00:53 20.03.2022
2488 Clouds 8 1025 82 1306 0.45 27 00:28 20.03.2022
2489 Clouds 7 1027 98 1041 1.54 196 22:25 19.03.2022
2490 Clouds 7 1026 97 3936 1.51 193 21:26 19.03.2022
2491 Clouds 8 1026 94 1024 1.27 206 19:22 19.03.2022
2492 Clouds 8 1025 88 10000 1.47 214 18:38 19.03.2022
2493 Clouds 9 1024 80 10000 1.71 210 17:48 19.03.2022
2494 Clouds 9 1024 77 10000 1.92 201 16:46 19.03.2022
2495 Clouds 11 1024 74 3249 2.33 187 15:26 19.03.2022
2496 Clouds 11 1024 52 4670 2.37 184 13:45 19.03.2022
2497 Clouds 10 1025 50 5718 1.79 213 12:43 19.03.2022
2498 Clouds 10 1025 53 10000 0.45 11 12:20 19.03.2022
2499 Clouds 9 1025 54 10000 0.89 284 11:45 19.03.2022
2500 Clouds 5 1026 73 10000 1.73 154 09:22 19.03.2022
2501 Clouds 3 1029 86 10000 1.61 77 04:53 19.03.2022
2502 Clouds 4 1030 77 10000 1.71 78 02:33 19.03.2022
2503 Clouds 4 1030 75 10000 1.62 49 23:51 18.03.2022
2504 Clouds 5 1030 80 10000 1.66 45 22:48 18.03.2022
2505 Clouds 5 1030 87 10000 1.62 49 22:21 18.03.2022
2506 Clouds 6 1029 95 10000 1.77 80 20:25 18.03.2022
2507 Clouds 6 1029 95 10000 1.77 80 20:25 18.03.2022
2508 Clouds 6 1029 95 10000 1.77 80 20:25 18.03.2022
2509 Clouds 7 1027 92 10000 1.39 106 19:24 18.03.2022
2510 Clouds 7 1027 91 10000 1.28 96 18:43 18.03.2022
2511 Clouds 9 1025 82 10000 1.85 97 16:54 18.03.2022
2512 Clouds 9 1024 81 10000 1.74 76 16:23 18.03.2022
2513 Clouds 11 1023 62 2379 0.45 5 14:26 18.03.2022
2514 Clouds 11 1024 62 2379 2.2 38 13:39 18.03.2022
2515 Clouds 9 1025 67 10000 1.79 328 11:35 18.03.2022
2516 Clouds 9 1024 72 10000 0.45 266 10:21 18.03.2022
2517 Rain 5 1026 94 91 2.36 26 08:46 18.03.2022
2518 Rain 5 1025 95 225 2.3 6 06:45 18.03.2022
2519 Rain 5 1025 95 225 2.3 6 06:45 18.03.2022
2520 Rain 5 1025 95 10000 2.62 15 04:39 18.03.2022
2521 Clouds 6 1025 92 10000 2.68 19 00:55 18.03.2022
2522 Clouds 6 1025 91 10000 2.94 28 23:52 17.03.2022
2523 Clouds 6 1025 91 10000 2.94 28 23:52 17.03.2022
2524 Clouds 6 1025 93 10000 2.98 21 22:44 17.03.2022
2525 Clouds 9 1023 76 10000 0.45 56 22:18 17.03.2022
2526 Clouds 6 1025 93 10000 3.16 27 21:27 17.03.2022
2527 Clouds 7 1025 93 10000 3.16 27 20:53 17.03.2022
2528 Clouds 6 1025 95 75 2.96 22 20:19 17.03.2022
2529 Clouds 6 1025 95 75 2.96 22 19:37 17.03.2022
2530 Clouds 6 1024 95 70 2.98 23 18:51 17.03.2022
2531 Clouds 9 1022 95 47 2.67 17 17:28 17.03.2022
2532 Clouds 9 1022 97 49 2.69 14 16:19 17.03.2022
2533 Clouds 9 1022 97 50 2.69 14 16:19 17.03.2022
2534 Clouds 10 1022 97 50 2.69 14 15:42 17.03.2022
2535 Clouds 9 1022 95 48 2.64 26 14:58 17.03.2022
2536 Rain 9 1023 94 44 2.9 20 13:28 17.03.2022
2537 Rain 9 1023 94 44 2.9 20 12:38 17.03.2022
2538 Rain 8 1023 96 47 2.61 17 11:31 17.03.2022
2539 Clouds 8 1023 96 42 2.34 16 10:38 17.03.2022
2540 Clouds 7 1022 95 51 2.61 23 08:42 17.03.2022
2541 Clouds 7 1022 96 60 2.74 19 07:57 17.03.2022
2542 Clouds 7 1021 94 3133 3.85 16 05:48 17.03.2022
2543 Clouds 7 1021 94 191 3.01 15 03:41 17.03.2022
2544 Clouds 8 1021 90 10000 3.38 30 23:57 16.03.2022
2545 Clouds 8 1021 95 3488 3.06 34 22:51 16.03.2022
2546 Clouds 8 1021 95 3473 3.06 34 22:33 16.03.2022
2547 Clouds 9 1020 94 3191 3.09 34 21:46 16.03.2022
2548 Clouds 9 1019 92 10000 3.69 29 20:28 16.03.2022
2549 Clouds 10 1018 84 10000 3.18 30 19:22 16.03.2022
2550 Clouds 10 1018 81 10000 2.88 36 18:40 16.03.2022
2551 Clouds 12 1016 71 10000 1.9 55 17:43 16.03.2022
2552 Clouds 15 1017 53 10000 1.25 82 17:25 16.03.2022
2553 Clouds 16 1018 46 10000 1.21 121 15:56 16.03.2022
2554 Clouds 15 1018 47 10000 1.84 129 14:28 16.03.2022
2555 Clouds 15 1019 48 10000 1.84 129 13:32 16.03.2022
2556 Clouds 12 1020 59 10000 1.96 151 11:57 16.03.2022
2557 Clouds 12 1020 60 10000 1.98 148 11:21 16.03.2022
2558 Clouds 11 1020 64 10000 1.68 148 10:27 16.03.2022
2559 Clouds 10 1020 69 10000 1.68 148 09:42 16.03.2022
2560 Clouds 9 1020 69 10000 2.06 74 06:27 16.03.2022
2561 Clouds 9 1022 67 10000 1.78 51 01:56 16.03.2022
2562 Clouds 8 1025 61 10000 1.52 85 22:41 15.03.2022
2563 Clouds 8 1025 64 10000 1.46 93 22:18 15.03.2022
2564 Clouds 10 1025 67 10000 1.37 103 20:33 15.03.2022
2565 Clouds 10 1024 78 10000 2.36 76 18:58 15.03.2022
2566 Clouds 13 1021 62 10000 2.55 133 16:59 15.03.2022
2567 Clouds 14 1021 62 10000 2.55 133 16:32 15.03.2022
2568 Clouds 13 1021 54 10000 3.15 155 15:21 15.03.2022
2569 Clouds 12 1021 54 10000 3.15 155 14:40 15.03.2022
2570 Clouds 12 1021 55 10000 3.57 164 13:46 15.03.2022
2571 Clouds 15 1023 62 10000 1.34 263 12:24 15.03.2022
2572 Clouds 13 1023 70 10000 0.45 0 11:31 15.03.2022
2573 Clouds 10 1023 75 10000 2.76 163 09:45 15.03.2022
2574 Clouds 7 1024 91 10000 2.17 156 08:42 15.03.2022
2575 Clouds 7 1024 91 10000 1.9 141 07:51 15.03.2022
2576 Clouds 6 1023 91 10000 0.89 0 07:28 15.03.2022
2577 Clouds 7 1025 91 10000 1.95 130 03:30 15.03.2022
2578 Rain 7 1025 96 10000 2.13 146 23:40 14.03.2022
2579 Rain 9 1024 89 10000 1.91 152 23:21 14.03.2022
2580 Rain 9 1023 86 4412 0.45 51 22:26 14.03.2022
2581 Rain 9 1022 87 4412 0.45 140 21:30 14.03.2022
2582 Rain 9 1022 82 3348 2.01 141 20:41 14.03.2022
2583 Rain 7 1023 98 8851 2.25 131 20:19 14.03.2022
2584 Rain 7 1023 98 2987 1.96 135 18:42 14.03.2022
2585 Rain 7 1022 97 4126 2.25 148 17:54 14.03.2022
2586 Rain 7 1022 97 1074 2.58 137 16:58 14.03.2022
2587 Rain 5 1022 98 487 2.45 135 15:37 14.03.2022
2588 Rain 5 1021 98 176 2.6 143 14:38 14.03.2022
2589 Rain 6 1020 68 408 0.89 208 12:22 14.03.2022
2590 Rain 5 1020 71 8111 0.45 360 10:51 14.03.2022
2591 Clouds 4 1021 76 10000 3.09 135 09:41 14.03.2022
2592 Clouds 4 1021 78 10000 2.51 129 09:20 14.03.2022
2593 Clouds 4 1021 81 10000 2.51 129 08:55 14.03.2022
2594 Clouds 3 1020 84 10000 2.19 115 07:28 14.03.2022
2595 Clouds 3 1020 82 10000 2.05 87 05:44 14.03.2022
2596 Clouds -2 1024 92 10000 1.74 74 01:52 14.03.2022
2597 Clouds -2 1024 93 10000 1.48 93 01:20 14.03.2022
2598 Clouds -1 1025 92 10000 1.63 78 22:42 13.03.2022
2599 Clouds 0 1023 92 10000 1.97 68 21:28 13.03.2022
2600 Clouds 1 1023 92 10000 1.97 68 20:55 13.03.2022
2601 Clouds 2 1022 94 10000 2.17 53 20:29 13.03.2022
2602 Clouds 1 1022 94 10000 2.17 53 19:48 13.03.2022
2603 Clouds 3 1020 94 10000 1.52 65 19:25 13.03.2022
2604 Clouds 8 1018 92 10000 0.73 113 18:50 13.03.2022
2605 Clouds 7 1018 92 10000 0.73 113 18:30 13.03.2022
2606 Clouds 7 1016 86 10000 0.32 68 17:40 13.03.2022
2607 Clouds 6 1015 89 10000 0.81 357 16:49 13.03.2022
2608 Clouds 7 1015 96 172 0.81 270 16:27 13.03.2022
2609 Clouds 7 1015 96 172 0.81 270 15:44 13.03.2022
2610 Clouds 7 1013 90 39 0.89 0 14:50 13.03.2022
2611 Clouds 7 1013 90 39 0.89 0 14:50 13.03.2022
2612 Clouds 5 1013 90 31 0.45 348 13:30 13.03.2022
2613 Rain 5 1012 88 31 1.34 329 12:37 13.03.2022
2614 Rain 6 1012 91 47 1.34 286 11:51 13.03.2022
2615 Rain 6 1011 91 183 1.79 255 11:25 13.03.2022
2616 Rain 6 1011 89 183 0.89 261 10:44 13.03.2022
2617 Clouds 6 1011 90 534 0.45 0 09:43 13.03.2022
2618 Clouds 6 1011 90 714 0.45 253 08:51 13.03.2022
2619 Clouds 6 1011 90 714 0.45 273 08:31 13.03.2022
2620 Clouds 4 1014 96 1039 1.98 163 07:34 13.03.2022
2621 Clouds 4 1016 98 742 1.01 149 04:59 13.03.2022
2622 Clouds 5 1014 99 1003 1.57 177 01:48 13.03.2022
2623 Clouds 4 1016 96 10000 2.06 193 23:28 12.03.2022
2624 Clouds 4 1016 97 10000 1.42 174 21:43 12.03.2022
2625 Clouds 7 1013 87 9737 0.67 109 20:20 12.03.2022
2626 Clouds 6 1014 95 9737 0.67 109 19:46 12.03.2022
2627 Clouds 7 1014 98 498 0.53 131 18:41 12.03.2022
2628 Clouds 8 1013 98 438 0.67 212 17:53 12.03.2022
2629 Clouds 8 1011 81 370 0.45 238 16:28 12.03.2022
2630 Clouds 8 1011 83 346 0.45 274 15:50 12.03.2022
2631 Clouds 8 1011 83 55 0.45 317 15:21 12.03.2022
2632 Clouds 6 1012 90 48 0.8 188 13:53 12.03.2022
2633 Clouds 6 1012 90 48 0.8 188 13:53 12.03.2022
2634 Rain 5 1012 90 66 1.04 154 12:28 12.03.2022
2635 Rain 5 1012 91 66 1.04 154 11:53 12.03.2022
2636 Rain 5 1012 91 66 0.45 244 11:33 12.03.2022
2637 Rain 4 1014 98 73 0.66 20 10:24 12.03.2022
2638 Rain 5 1012 91 73 0.66 20 09:43 12.03.2022
2639 Rain 5 1012 91 53 0.52 66 07:52 12.03.2022
2640 Rain 6 1011 93 47 0.45 240 06:30 12.03.2022
2641 Clouds 6 1013 93 329 1.21 175 00:31 12.03.2022
2642 Clouds 7 1014 93 326 0.45 302 23:41 11.03.2022
2643 Clouds 7 1014 92 237 1.54 150 22:29 11.03.2022
2644 Clouds 7 1014 92 328 1.42 150 21:23 11.03.2022
2645 Clouds 7 1014 92 328 1.42 150 20:42 11.03.2022
2646 Clouds 7 1014 91 331 1.45 158 20:22 11.03.2022
2647 Rain 7 1014 91 345 0.45 0 19:29 11.03.2022
2648 Clouds 7 1014 91 330 0.89 360 17:50 11.03.2022
2649 Clouds 7 1014 91 332 0.89 352 17:21 11.03.2022
2650 Clouds 7 1013 89 280 0.89 256 15:58 11.03.2022
2651 Clouds 7 1013 89 333 1.79 330 15:29 11.03.2022
2652 Clouds 7 1014 88 341 1.34 246 13:28 11.03.2022
2653 Clouds 7 1015 86 286 1.79 327 12:30 11.03.2022
2654 Clouds 8 1015 85 294 2.24 300 11:57 11.03.2022
2655 Clouds 7 1016 86 376 0.89 309 10:24 11.03.2022
2656 Clouds 7 1015 85 376 3.12 182 09:32 11.03.2022
2657 Clouds 7 1015 86 335 0.45 0 08:25 11.03.2022
2658 Clouds 6 1015 87 335 0.89 31 07:46 11.03.2022
2659 Clouds 7 1015 88 388 3.33 202 06:22 11.03.2022
2660 Clouds 7 1015 89 391 0.89 27 04:24 11.03.2022
2661 Clouds 6 1017 89 379 2.68 189 00:21 11.03.2022
2662 Rain 7 1018 85 389 1.79 15 22:31 10.03.2022
2663 Rain 6 1020 99 491 2.2 191 21:50 10.03.2022
2664 Clouds 6 1020 98 648 2.23 190 21:23 10.03.2022
2665 Clouds 7 1020 97 591 2.48 196 19:51 10.03.2022
2666 Clouds 7 1019 93 10000 2.63 196 18:56 10.03.2022
2667 Clouds 8 1018 86 10000 2.71 202 17:36 10.03.2022
2668 Clouds 10 1018 72 6991 1.34 233 16:31 10.03.2022
2669 Clouds 10 1018 67 472 1.34 250 15:20 10.03.2022
2670 Clouds 9 1019 65 10000 0.89 249 13:24 10.03.2022
2671 Clouds 10 1020 63 8884 1.79 229 12:34 10.03.2022
2672 Clouds 8 1021 71 10000 0.45 220 11:20 10.03.2022
2673 Clouds 5 1021 81 10000 2.47 211 09:22 10.03.2022
2674 Clouds 4 1021 81 5856 1.54 207 07:41 10.03.2022
2675 Clouds 5 1021 79 10000 0.68 210 04:44 10.03.2022
2676 Clouds 5 1022 77 4455 0.95 221 01:49 10.03.2022
2677 Clouds 5 1022 75 10000 0.45 277 23:26 09.03.2022
2678 Clouds 5 1025 87 10000 1.43 200 21:51 09.03.2022
2679 Clouds 5 1025 87 10000 1.43 200 21:31 09.03.2022
2680 Clouds 7 1024 86 10000 1.53 201 19:44 09.03.2022
2681 Clouds 8 1023 79 10000 2 205 18:33 09.03.2022
2682 Clouds 10 1020 62 10000 2.76 208 17:27 09.03.2022
2683 Clouds 10 1020 62 10000 3.17 208 16:31 09.03.2022
2684 Clouds 11 1019 57 10000 1.34 217 14:59 09.03.2022
2685 Clouds 10 1020 58 10000 2.24 272 13:53 09.03.2022
2686 Clouds 10 1020 57 10000 1.34 315 12:45 09.03.2022
2687 Clouds 8 1020 66 10000 0.89 219 11:53 09.03.2022
2688 Clouds 8 1020 66 10000 2.74 199 11:35 09.03.2022
2689 Clouds 4 1021 80 6579 2.63 204 09:50 09.03.2022
2690 Clouds 3 1021 83 7445 2.01 189 08:49 09.03.2022
2691 Clouds 1 1024 93 10000 0.96 90 07:27 09.03.2022
2692 Clouds 3 1022 95 10000 1.69 26 01:54 09.03.2022
2693 Clouds 5 1018 86 10000 0.74 337 00:27 09.03.2022
2694 Clouds 4 1021 89 10000 0.47 266 22:47 08.03.2022
2695 Clouds 5 1017 79 10000 0.45 82 21:52 08.03.2022
2696 Clouds 6 1017 80 10000 0.44 276 21:22 08.03.2022
2697 Clouds 5 1019 87 10000 1.06 245 20:24 08.03.2022
2698 Clouds 5 1018 90 10000 1.78 223 19:25 08.03.2022
2699 Clouds 6 1017 88 7464 1.98 217 18:23 08.03.2022
2700 Clouds 8 1015 74 5603 1.34 266 16:56 08.03.2022
2701 Clouds 8 1015 68 2738 0.89 306 14:58 08.03.2022
2702 Clouds 8 1015 61 3861 1.34 32 13:48 08.03.2022
2703 Clouds 8 1015 64 9812 2.68 263 12:23 08.03.2022
2704 Clouds 7 1015 66 9812 0.89 219 11:42 08.03.2022
2705 Clouds 6 1015 72 10000 0.45 181 10:29 08.03.2022
2706 Clouds 4 1015 78 10000 1.54 209 08:57 08.03.2022
2707 Clouds 4 1015 78 10000 1.54 209 08:57 08.03.2022
2708 Clouds 2 1019 97 2107 0.75 232 06:30 08.03.2022
2709 Clouds 2 1018 97 4182 2.12 225 02:50 08.03.2022
2710 Clouds 3 1018 97 869 2.89 209 22:48 07.03.2022
2711 Clouds 3 1018 99 660 2.63 205 21:45 07.03.2022
2712 Clouds 3 1018 99 638 2.42 203 21:22 07.03.2022
2713 Clouds 4 1018 99 638 2.42 203 20:33 07.03.2022
2714 Clouds 4 1017 98 1109 2.56 205 19:49 07.03.2022
2715 Clouds 5 1017 98 1723 2.32 207 19:20 07.03.2022
2716 Clouds 5 1015 84 10000 2.38 212 18:29 07.03.2022
2717 Clouds 6 1015 84 10000 2.38 212 17:31 07.03.2022
2718 Clouds 7 1014 76 10000 2.48 215 16:43 07.03.2022
2719 Clouds 7 1015 77 10000 2.53 212 14:51 07.03.2022
2720 Clouds 6 1014 60 10000 3.13 217 12:34 07.03.2022
2721 Clouds 5 1014 75 10000 0.89 256 11:26 07.03.2022
2722 Clouds 4 1014 75 10000 2.09 201 10:30 07.03.2022
2723 Clouds 2 1014 73 10000 0.45 76 08:19 07.03.2022
2724 Clouds 2 1019 94 7595 0.43 346 01:23 07.03.2022
2725 Clouds 2 1020 96 9769 0.43 30 00:20 07.03.2022
2726 Clouds 2 1020 96 7018 0.87 41 23:22 06.03.2022
2727 Clouds 3 1019 97 1419 1.41 31 22:26 06.03.2022
2728 Clouds 3 1019 97 827 1.55 17 21:22 06.03.2022
2729 Rain 3 1017 98 343 1.49 4 20:29 06.03.2022
2730 Clouds 4 1017 98 343 1.49 4 19:35 06.03.2022
2731 Clouds 5 1016 96 143 1.22 356 18:49 06.03.2022
2732 Clouds 5 1015 96 171 1.95 2 17:36 06.03.2022
2733 Clouds 6 1014 92 190 1.31 344 17:18 06.03.2022
2734 Clouds 6 1014 87 233 0.76 301 16:26 06.03.2022
2735 Clouds 6 1013 80 545 0.69 265 15:23 06.03.2022
2736 Clouds 6 1013 80 545 0.69 265 14:41 06.03.2022
2737 Clouds 7 1013 80 4352 0.89 257 13:48 06.03.2022
2738 Clouds 6 1013 85 8560 1.07 227 12:36 06.03.2022
2739 Clouds 4 1014 90 8293 0.89 222 11:30 06.03.2022
2740 Clouds 4 1014 91 10000 1.06 224 10:33 06.03.2022
2741 Clouds 2 1017 77 10000 1.16 17 08:51 06.03.2022
2742 Clouds 1 1019 88 10000 2.26 20 08:27 06.03.2022
2743 Clouds 1 1019 92 10000 2.44 20 07:18 06.03.2022
2744 Clouds 3 1018 91 743 1.6 20 01:37 06.03.2022
2745 Clouds 3 1019 90 819 1.72 18 00:34 06.03.2022
2746 Clouds 3 1019 90 1144 1.83 21 23:46 05.03.2022
2747 Clouds 3 1019 89 3786 1.94 22 23:18 05.03.2022
2748 Clouds 3 1019 89 3786 1.94 22 22:31 05.03.2022
2749 Clouds 3 1018 89 10000 2.33 20 21:24 05.03.2022
2750 Rain 5 1018 91 5985 2.4 19 19:56 05.03.2022
2751 Rain 4 1016 90 3274 2.35 14 18:56 05.03.2022
2752 Rain 3 1016 90 3301 2.17 11 18:34 05.03.2022
2753 Clouds 6 1014 87 742 1.74 355 16:57 05.03.2022
2754 Clouds 7 1014 82 860 1.38 345 15:43 05.03.2022
2755 Clouds 8 1013 69 8556 0.91 328 14:52 05.03.2022
2756 Clouds 8 1013 69 8556 0.91 328 14:34 05.03.2022
2757 Clouds 8 1013 60 10000 0.79 322 13:34 05.03.2022
2758 Clouds 9 1014 50 10000 0.73 335 11:49 05.03.2022
2759 Clouds 8 1014 53 10000 1.28 8 11:20 05.03.2022
2760 Clouds 5 1017 66 10000 1.98 12 10:20 05.03.2022
2761 Clouds 2 1018 73 10000 2.58 18 09:28 05.03.2022
2762 Clouds 2 1020 85 10000 3.01 20 07:58 05.03.2022
2763 Clouds 1 1019 90 10000 3.14 18 05:43 05.03.2022
2764 Clouds 2 1019 90 10000 3.2 15 04:33 05.03.2022
2765 Clouds 3 1020 89 10000 3.27 9 23:38 04.03.2022
2766 Clouds 3 1020 89 10000 3.37 7 22:44 04.03.2022
2767 Clouds 3 1020 90 10000 3.5 10 22:23 04.03.2022
2768 Clouds 3 1019 88 10000 3.59 10 20:57 04.03.2022
2769 Clouds 4 1019 91 10000 3.7 10 20:27 04.03.2022
2770 Clouds 4 1019 91 10000 3.7 10 19:36 04.03.2022
2771 Clouds 7 1018 94 1077 3.37 6 18:45 04.03.2022
2772 Clouds 8 1016 83 10000 3.31 1 17:48 04.03.2022
2773 Clouds 8 1015 74 10000 3.39 360 17:28 04.03.2022
2774 Clouds 9 1014 70 10000 3.37 358 15:30 04.03.2022
2775 Clouds 9 1014 69 10000 3.21 355 14:33 04.03.2022
2776 Clouds 9 1015 69 10000 2.85 350 13:26 04.03.2022
2777 Clouds 8 1015 69 10000 2.82 352 11:54 04.03.2022
2778 Clouds 5 1016 74 10000 2.82 350 10:54 04.03.2022
2779 Clouds 5 1016 82 4244 2.6 358 09:58 04.03.2022
2780 Clouds 4 1016 86 1137 2.88 7 08:40 04.03.2022
2781 Clouds 4 1017 91 2618 3.3 10 07:38 04.03.2022
2782 Clouds 4 1015 93 10000 2.72 9 04:31 04.03.2022
2783 Clouds 6 1013 78 10000 2.72 12 00:38 04.03.2022
2784 Clouds 6 1014 95 838 2.08 24 22:28 03.03.2022
2785 Clouds 7 1014 95 838 2.08 24 21:44 03.03.2022
2786 Clouds 7 1014 94 636 1.42 27 21:26 03.03.2022
2787 Clouds 7 1013 89 1361 0.74 38 19:55 03.03.2022
2788 Clouds 8 1012 78 10000 0.72 62 18:54 03.03.2022
2789 Clouds 9 1010 68 10000 0.53 50 18:24 03.03.2022
2790 Clouds 11 1010 68 10000 0.53 50 17:30 03.03.2022
2791 Clouds 13 1011 50 10000 1.79 229 16:24 03.03.2022
2792 Clouds 13 1011 50 10000 3.58 221 15:23 03.03.2022
2793 Clouds 12 1012 50 10000 2.24 196 14:43 03.03.2022
2794 Clouds 12 1012 50 10000 2.24 281 14:20 03.03.2022
2795 Clear 9 1015 63 10000 2.17 212 12:21 03.03.2022
2796 Clear 7 1015 83 10000 2.39 218 10:47 03.03.2022
2797 Clear 4 1016 90 10000 2.11 207 09:38 03.03.2022
2798 Clouds 3 1017 90 10000 0.99 73 07:48 03.03.2022
2799 Clouds 2 1020 92 10000 1.72 34 06:36 03.03.2022
2800 Clouds 3 1020 95 10000 2.71 15 02:42 03.03.2022
2801 Clouds 4 1021 95 7591 2.75 15 23:34 02.03.2022
2802 Clouds 4 1021 93 4021 2.39 10 22:52 02.03.2022
2803 Clouds 6 1018 88 146 2.29 12 21:34 02.03.2022
2804 Clouds 6 1018 88 37 2.28 359 20:53 02.03.2022
2805 Clouds 6 1018 87 33 2.11 353 20:24 02.03.2022
2806 Rain 6 1018 85 33 2.11 353 19:36 02.03.2022
2807 Rain 7 1018 80 43 1.34 225 18:48 02.03.2022
2808 Clouds 8 1017 81 194 1.34 270 18:18 02.03.2022
2809 Clouds 8 1017 79 194 1.34 198 17:32 02.03.2022
2810 Clouds 9 1017 78 702 0.89 0 16:51 02.03.2022
2811 Clouds 10 1018 75 10000 0.45 200 14:48 02.03.2022
2812 Rain 10 1020 65 10000 3.13 259 13:25 02.03.2022
2813 Clouds 11 1018 60 10000 2.03 215 12:44 02.03.2022
2814 Rain 8 1019 61 10000 1.74 230 11:51 02.03.2022
2815 Clouds 4 1020 47 10000 2.87 221 11:24 02.03.2022
2816 Clouds 4 1020 47 10000 2.87 221 11:24 02.03.2022
2817 Clouds 1 1021 56 10000 2.06 221 09:46 02.03.2022
2818 Clouds -1 1021 57 10000 1.24 221 08:59 02.03.2022
2819 Clouds 0 1021 59 10000 0.49 55 07:51 02.03.2022
2820 Clouds 2 1023 62 10000 0.67 45 06:54 02.03.2022
2821 Clouds -1 1023 63 10000 0.45 209 02:54 02.03.2022
2822 Clouds 4 1027 87 10000 0.74 8 00:29 02.03.2022
2823 Clouds 4 1027 87 10000 0.49 356 22:48 01.03.2022
2824 Clouds 4 1027 84 10000 0.32 277 22:20 01.03.2022
2825 Clouds 6 1026 76 10000 0.56 237 21:25 01.03.2022
2826 Clouds 6 1026 76 10000 0.56 237 20:30 01.03.2022
2827 Clouds 6 1026 76 10000 0.56 237 20:30 01.03.2022
2828 Clouds 6 1026 76 10000 0.56 237 20:30 01.03.2022
2829 Clouds 7 1026 69 10000 1.14 216 19:38 01.03.2022
2830 Clouds 5 1024 58 10000 1.98 208 18:50 01.03.2022
2831 Clouds 10 1023 47 10000 2.37 210 18:21 01.03.2022
2832 Clouds 13 1023 47 10000 2.37 210 17:30 01.03.2022
2833 Clouds 13 1022 36 10000 2.6 211 16:34 01.03.2022
2834 Clouds 13 1022 31 10000 2.79 211 15:41 01.03.2022
2835 Clouds 13 1022 28 10000 2.9 214 14:35 01.03.2022
2836 Clouds 10 1023 21 10000 0.89 202 13:53 01.03.2022
2837 Clouds 9 1024 22 10000 0.45 0 13:24 01.03.2022
2838 Clouds 12 1022 25 10000 2.89 213 12:32 01.03.2022
2839 Clouds 9 1023 24 10000 0.75 202 10:36 01.03.2022
2840 Clear 7 1026 31 10000 2.47 28 08:42 01.03.2022
2841 Clear -5 1024 44 10000 3.46 27 07:52 01.03.2022
2842 Clear -3 1024 36 10000 3.91 24 06:20 01.03.2022
2843 Clear -4 1024 51 10000 3.85 16 02:44 01.03.2022
2844 Clear -1 1024 51 10000 3.6 16 00:34 01.03.2022
2845 Clear 2 1029 34 10000 3.58 19 23:30 28.02.2022
2846 Clear 4 1030 55 10000 3.34 17 22:18 28.02.2022
2847 Clear 4 1030 55 10000 3.34 17 21:37 28.02.2022
2848 Clear 5 1029 81 10000 2.98 13 19:56 28.02.2022
2849 Clear 5 1029 81 10000 2.98 13 19:36 28.02.2022
2850 Clear 6 1028 79 10000 2.76 10 18:43 28.02.2022
2851 Clear 10 1024 63 10000 2.28 1 17:33 28.02.2022
2852 Clear 10 1023 49 10000 2.75 360 16:33 28.02.2022
2853 Clear 10 1023 39 10000 2.46 352 15:24 28.02.2022
2854 Clear 11 1023 39 10000 2.46 352 14:32 28.02.2022
2855 Clear 7 1024 44 10000 1.34 240 13:47 28.02.2022
2856 Clouds 10 1024 45 10000 1.58 330 12:47 28.02.2022
2857 Clouds 8 1025 50 10000 1.11 324 11:57 28.02.2022
2858 Clouds 5 1026 58 10000 1.01 333 10:48 28.02.2022
2859 Clouds 4 1027 69 10000 1.46 358 10:20 28.02.2022
2860 Clouds 2 1027 69 10000 1.46 358 09:33 28.02.2022
2861 Clouds 3 1028 78 10000 2.02 12 08:32 28.02.2022
2862 Clouds 3 1029 92 10000 2.87 22 07:28 28.02.2022
2863 Clouds 3 1027 89 10000 2.62 16 04:55 28.02.2022
2864 Clouds 3 1027 89 10000 2.25 9 04:26 28.02.2022
2865 Clouds 4 1029 89 10000 2.45 25 23:42 27.02.2022
2866 Clouds 5 1029 89 10000 2.39 26 22:34 27.02.2022
2867 Clouds 5 1028 89 10000 2.23 22 21:51 27.02.2022
2868 Clouds 5 1026 87 10000 2.09 18 20:59 27.02.2022
2869 Clouds 5 1024 87 10000 1.96 12 20:27 27.02.2022
2870 Clouds 6 1024 87 10000 1.96 12 19:57 27.02.2022
2871 Clouds 7 1024 85 10000 1.81 10 19:26 27.02.2022
2872 Clouds 8 1024 85 10000 1.81 10 18:47 27.02.2022
2873 Clouds 9 1022 79 10000 1.47 15 17:56 27.02.2022
2874 Clouds 10 1021 74 10000 2.03 18 16:54 27.02.2022
2875 Clouds 10 1021 72 10000 2.35 14 16:21 27.02.2022
2876 Clouds 7 1020 48 10000 0.45 243 13:25 27.02.2022
2877 Clouds 9 1021 61 10000 1.17 2 12:32 27.02.2022
2878 Clouds 6 1021 64 10000 1.29 6 10:56 27.02.2022
2879 Clouds 6 1022 69 10000 1.61 15 10:19 27.02.2022
2880 Clouds 5 1022 69 10000 1.61 15 09:49 27.02.2022
2881 Clouds 4 1023 73 10000 1.68 26 09:19 27.02.2022
2882 Clear 3 1025 78 10000 2.31 26 07:37 27.02.2022
2883 Clouds 3 1025 91 10000 0.96 323 05:38 27.02.2022
2884 Clouds 4 1024 88 10000 1.55 234 01:53 27.02.2022
2885 Clouds 0 1022 69 5229 0.45 211 23:22 26.02.2022
2886 Clouds 0 1021 71 5253 2.26 212 21:49 26.02.2022
2887 Clouds 4 1024 96 2797 2.07 210 20:58 26.02.2022
2888 Clouds 4 1024 97 4050 1.93 206 20:20 26.02.2022
2889 Clouds 5 1024 97 4050 1.93 206 19:49 26.02.2022
2890 Clear 7 1024 92 10000 1.93 201 19:22 26.02.2022
2891 Clear 10 1020 63 10000 2.29 207 17:52 26.02.2022
2892 Clear 11 1019 48 10000 2.53 212 16:52 26.02.2022
2893 Clear 11 1019 38 10000 2.57 211 15:57 26.02.2022
2894 Clear 12 1019 33 10000 2.65 214 15:23 26.02.2022
2895 Clear 8 1020 33 10000 1.34 256 14:54 26.02.2022
2896 Clear 9 1020 33 10000 0.45 304 14:36 26.02.2022
2897 Clear 10 1021 26 10000 2.81 211 13:19 26.02.2022
2898 Clear 8 1021 24 10000 2.6 211 12:29 26.02.2022
2899 Clear 6 1022 24 10000 2.16 210 11:28 26.02.2022
2900 Clear 5 1022 24 10000 2.16 210 10:49 26.02.2022
2901 Clear 3 1024 28 10000 0.43 135 08:55 26.02.2022
2902 Clear -1 1027 32 10000 2.12 36 06:51 26.02.2022
2903 Clouds 1 1029 45 10000 3.12 23 00:56 26.02.2022
2904 Clouds 1 1029 48 10000 3.18 21 22:49 25.02.2022
2905 Clouds 2 1030 57 10000 3.2 22 21:43 25.02.2022
2906 Clouds 2 1030 63 10000 3.34 20 21:23 25.02.2022
2907 Clouds 2 1030 63 10000 3.34 20 20:32 25.02.2022
2908 Clouds 5 1029 78 10000 3.23 17 18:59 25.02.2022
2909 Clouds 7 1024 57 10000 3.37 7 17:27 25.02.2022
2910 Clouds 8 1023 50 10000 2.86 360 16:24 25.02.2022
2911 Clouds 8 1023 50 10000 2.86 360 15:43 25.02.2022
2912 Clouds 8 1022 47 10000 2.32 359 15:20 25.02.2022
2913 Clouds 8 1022 47 10000 2.32 359 14:42 25.02.2022
2914 Clouds 6 1022 46 10000 0.45 242 13:36 25.02.2022
2915 Clouds 4 1023 51 10000 1.93 355 12:56 25.02.2022
2916 Clouds 3 1024 57 10000 2.69 5 11:28 25.02.2022
2917 Clouds 1 1024 68 10000 0.45 0 10:29 25.02.2022
2918 Clouds 1 1024 71 10000 2.74 359 09:57 25.02.2022
2919 Clouds 0 1024 72 10000 3.6 9 09:18 25.02.2022
2920 Clouds 3 1028 87 10000 3.47 10 07:41 25.02.2022
2921 Clouds 3 1026 87 10000 3.02 2 05:48 25.02.2022
2922 Clouds 4 1026 85 10000 2.8 356 03:34 25.02.2022
2923 Clouds 6 1026 88 10000 2.49 3 23:42 24.02.2022
2924 Clouds 6 1025 89 10000 2.41 6 21:56 24.02.2022
2925 Clouds 6 1025 89 10000 2.41 6 21:37 24.02.2022
2926 Clouds 7 1025 89 10000 2.56 6 21:18 24.02.2022
2927 Clouds 7 1024 85 10000 2.09 12 19:38 24.02.2022
2928 Clouds 9 1023 85 10000 2.46 11 18:38 24.02.2022
2929 Clouds 10 1021 73 10000 1.98 1 18:18 24.02.2022
2930 Clouds 10 1021 73 10000 1.98 1 17:33 24.02.2022
2931 Clouds 10 1021 73 10000 1.98 1 17:33 24.02.2022
2932 Clouds 11 1020 62 10000 1.98 9 16:45 24.02.2022
2933 Clouds 12 1019 53 10000 2.06 5 16:21 24.02.2022
2934 Clouds 12 1019 46 10000 1.63 356 14:53 24.02.2022
2935 Clear 10 1019 35 10000 0.89 222 14:26 24.02.2022
2936 Clear 9 1019 39 10000 1.29 347 13:39 24.02.2022
2937 Clear 9 1019 39 10000 1.29 347 13:39 24.02.2022
2938 Clouds 10 1019 37 10000 0.48 324 12:49 24.02.2022
2939 Clouds 9 1019 38 10000 0.76 343 10:40 24.02.2022
2940 Clouds 0 1021 67 10000 1.34 358 08:59 24.02.2022
2941 Clouds 1 1021 67 10000 1.34 359 08:40 24.02.2022
2942 Clouds -1 1020 63 10000 0.92 8 05:52 24.02.2022
2943 Clouds 0 1021 60 10000 0.39 338 01:56 24.02.2022
2944 Clouds 0 1021 60 10000 0.39 338 01:56 24.02.2022
2945 Clouds 4 1026 74 10000 0.39 14 22:56 23.02.2022
2946 Clouds 5 1026 78 10000 0.73 29 21:40 23.02.2022
2947 Clouds 7 1025 71 10000 0.66 183 20:31 23.02.2022
2948 Clouds 8 1025 71 10000 0.65 182 19:46 23.02.2022
2949 Clouds 9 1023 64 10000 1.27 199 18:32 23.02.2022
2950 Clouds 12 1021 53 10000 1.98 208 17:36 23.02.2022
2951 Clouds 10 1022 29 10000 1.93 202 14:42 23.02.2022
2952 Clear 13 1022 31 10000 1.99 203 12:42 23.02.2022
2953 Clear 11 1023 33 10000 1.97 204 11:34 23.02.2022
2954 Clear 8 1024 35 10000 1.58 192 10:31 23.02.2022
2955 Clear 3 1026 37 10000 1.14 44 08:59 23.02.2022
2956 Clear -4 1025 47 10000 2.09 33 07:58 23.02.2022
2957 Clear -2 1025 43 10000 2.79 23 03:49 23.02.2022
2958 Clear 3 1031 66 10000 3.66 18 00:28 23.02.2022
2959 Clear 2 1031 66 10000 3.68 19 23:36 22.02.2022
2960 Clear 3 1032 70 10000 3.95 17 22:31 22.02.2022
2961 Clear 4 1032 70 10000 4.09 16 21:49 22.02.2022
2962 Clear 5 1032 70 10000 4.09 16 21:30 22.02.2022
2963 Clear 5 1032 70 10000 4.09 16 21:30 22.02.2022
2964 Clear 5 1032 72 10000 4.15 15 20:52 22.02.2022
2965 Clear 5 1031 76 10000 4.31 16 20:29 22.02.2022
2966 Clear 2 1031 76 10000 4.32 16 19:36 22.02.2022
2967 Clouds 8 1031 79 10000 4.31 15 19:18 22.02.2022
2968 Clouds 7 1028 70 10000 4.1 11 17:46 22.02.2022
2969 Clouds 13 1026 58 10000 3.58 6 17:20 22.02.2022
2970 Clouds 14 1026 58 10000 3.58 6 16:36 22.02.2022
2971 Clouds 15 1026 56 10000 3.48 6 15:39 22.02.2022
2972 Clouds 14 1026 54 10000 3.65 5 14:44 22.02.2022
2973 Clouds 14 1026 54 10000 3.65 5 14:44 22.02.2022
2974 Clear 13 1027 48 10000 3.17 1 12:23 22.02.2022
2975 Clear 9 1027 45 10000 3.31 1 10:39 22.02.2022
2976 Clear 0 1032 44 10000 4.11 12 07:52 22.02.2022
2977 Clear 0 1032 42 10000 4.03 13 07:26 22.02.2022
2978 Clear 1 1032 36 10000 4.33 9 04:31 22.02.2022
2979 Clear 1 1033 37 10000 4.23 5 01:44 22.02.2022
2980 Clear 1 1033 37 10000 4.23 5 01:44 22.02.2022
2981 Clear 2 1032 51 10000 4.15 0 22:44 21.02.2022
2982 Clear 3 1031 51 10000 4.37 3 21:31 21.02.2022
2983 Clear 4 1029 49 10000 4.85 2 20:34 21.02.2022
2984 Clear 5 1026 57 10000 5.41 360 18:46 21.02.2022
2985 Clear 11 1022 33 10000 6.19 353 16:56 21.02.2022
2986 Clear 11 1022 34 10000 5.67 347 14:52 21.02.2022
2987 Clear 11 1022 34 10000 5.67 347 14:52 21.02.2022
2988 Clear 13 1022 36 10000 4.94 345 14:21 21.02.2022
2989 Clouds 12 1022 47 10000 3.92 337 12:59 21.02.2022
2990 Clouds 9 1024 58 10000 4.04 336 12:23 21.02.2022
2991 Clouds 4 1023 67 10000 3.44 346 10:51 21.02.2022
2992 Clouds 3 1024 71 10000 3.23 354 09:30 21.02.2022
2993 Clouds 3 1024 71 10000 3.23 354 09:30 21.02.2022
2994 Clouds 1 1027 57 10000 4.02 11 04:52 21.02.2022
2995 Clouds -1 1025 68 10000 2.71 14 23:32 20.02.2022
2996 Clouds 4 1029 75 10000 2.69 14 22:20 20.02.2022
2997 Clouds 4 1029 75 10000 2.69 14 21:42 20.02.2022
2998 Clouds 4 1029 81 10000 2.62 13 20:53 20.02.2022
2999 Clouds 4 1028 87 10000 2.27 12 20:23 20.02.2022
3000 Clouds 5 1028 87 10000 2.27 12 19:30 20.02.2022
3001 Clouds 7 1027 84 10000 2 4 18:49 20.02.2022
3002 Clouds 7 1025 79 10000 2.52 359 18:31 20.02.2022
3003 Clouds 9 1025 78 10000 2.53 359 17:34 20.02.2022
3004 Clouds 9 1023 61 10000 2.11 353 15:31 20.02.2022
3005 Clouds 6 1024 40 10000 0.89 276 14:41 20.02.2022
3006 Clear 9 1025 54 10000 1.74 345 13:23 20.02.2022
3007 Clear 6 1026 54 10000 2.02 356 12:20 20.02.2022
3008 Clear 3 1027 50 10000 2.47 4 10:21 20.02.2022
3009 Clear 4 1027 50 10000 2.47 4 09:53 20.02.2022
3010 Clear -5 1024 68 10000 3.74 20 06:46 20.02.2022
3011 Clouds 0 1031 85 10000 4.01 17 00:34 20.02.2022
3012 Clouds 0 1031 88 10000 4.02 15 23:42 19.02.2022
3013 Clouds 1 1030 92 10000 3.96 14 22:25 19.02.2022
3014 Clouds 1 1030 92 10000 3.96 14 21:54 19.02.2022
3015 Clouds 1 1029 93 10000 3.82 14 20:48 19.02.2022
3016 Clouds 2 1027 90 10000 3.54 9 19:41 19.02.2022
3017 Clouds 3 1026 96 10000 3.65 9 18:41 19.02.2022
3018 Clouds 3 1024 92 10000 3.18 4 18:19 19.02.2022
3019 Clouds 4 1024 92 10000 3.18 4 17:33 19.02.2022
3020 Clouds 4 1022 79 10000 3.12 11 15:59 19.02.2022
3021 Rain 3 1023 88 2094 3.23 13 14:56 19.02.2022
3022 Rain 3 1024 92 325 3.03 9 13:58 19.02.2022
3023 Rain 3 1024 87 1452 3.47 7 11:58 19.02.2022
3024 Rain 3 1023 87 1716 3.21 8 11:29 19.02.2022
3025 Clouds 3 1023 93 250 3 8 09:21 19.02.2022
3026 Clouds 4 1022 94 106 2.81 8 06:49 19.02.2022
3027 Clouds 6 1020 96 72 2.38 6 00:55 19.02.2022
3028 Clouds 8 1019 92 10000 2.59 18 22:41 18.02.2022
3029 Clouds 8 1019 91 10000 3.47 16 21:27 18.02.2022
3030 Clouds 10 1019 90 10000 3.39 15 20:25 18.02.2022
3031 Clouds 9 1019 90 10000 3.39 15 19:50 18.02.2022
3032 Clouds 13 1017 87 10000 3.19 7 18:38 18.02.2022
3033 Clouds 13 1014 72 10000 1.63 329 18:18 18.02.2022
3034 Clouds 16 1013 56 10000 1.48 248 17:18 18.02.2022
3035 Clouds 16 1013 43 10000 2.77 216 14:30 18.02.2022
3036 Clouds 13 1016 45 10000 3.11 216 13:46 18.02.2022
3037 Clouds 15 1015 41 10000 3.08 218 12:50 18.02.2022
3038 Clouds 13 1016 43 10000 2.92 220 11:57 18.02.2022
3039 Clouds 14 1016 48 10000 2.39 221 10:45 18.02.2022
3040 Clouds 0 1018 68 10000 0.63 232 08:47 18.02.2022
3041 Clear -1 1020 75 10000 0.13 273 06:35 18.02.2022
3042 Clear -1 1020 75 10000 0.42 23 05:34 18.02.2022
3043 Clouds 7 1024 81 10000 0.68 41 22:20 17.02.2022
3044 Clouds 7 1024 81 10000 0.68 41 21:38 17.02.2022
3045 Clouds 8 1024 78 10000 0.69 53 20:43 17.02.2022
3046 Clouds 8 1024 78 10000 1.74 37 19:55 17.02.2022
3047 Clouds 9 1024 82 10000 2.3 25 19:22 17.02.2022
3048 Clouds 11 1022 77 10000 1.86 14 18:29 17.02.2022
3049 Clouds 14 1022 77 10000 1.86 14 17:30 17.02.2022
3050 Clouds 14 1022 62 10000 1.88 358 15:57 17.02.2022
3051 Clouds 14 1023 66 10000 2.53 4 14:29 17.02.2022
3052 Clouds 13 1023 66 10000 2.53 4 13:31 17.02.2022
3053 Clouds 9 1024 71 10000 3.15 359 11:48 17.02.2022
3054 Clouds 5 1024 56 10000 1.34 78 09:58 17.02.2022
3055 Clouds 5 1027 79 10000 4.39 14 06:44 17.02.2022
3056 Clouds 6 1027 92 10000 4.33 5 23:23 16.02.2022
3057 Clouds 7 1026 92 10000 4.2 2 22:27 16.02.2022
3058 Clouds 7 1025 92 10000 4.12 1 20:21 16.02.2022
3059 Clouds 7 1024 90 10000 3.81 2 18:50 16.02.2022
3060 Clouds 8 1023 89 10000 3.76 1 17:54 16.02.2022
3061 Clouds 9 1021 79 10000 3.78 360 15:58 16.02.2022
3062 Clouds 9 1020 81 10000 3.29 353 15:20 16.02.2022
3063 Clouds 6 1020 65 10000 0.45 221 13:31 16.02.2022
3064 Clouds 6 1021 80 10000 2.18 342 12:20 16.02.2022
3065 Clouds 6 1021 80 10000 2.18 342 11:31 16.02.2022
3066 Clouds 5 1022 90 10000 2.59 348 10:34 16.02.2022
3067 Clouds 0 1021 82 5267 2.38 8 08:24 16.02.2022
3068 Clouds 0 1021 73 7095 2.34 4 06:43 16.02.2022
3069 Clouds 2 1027 87 10000 2.24 13 23:45 15.02.2022
3070 Clouds 2 1027 88 10000 2.33 3 22:33 15.02.2022
3071 Clouds 2 1028 90 10000 2.85 4 21:49 15.02.2022
3072 Clouds 3 1028 89 10000 2.88 8 21:29 15.02.2022
3073 Clouds 3 1028 89 10000 2.88 8 20:56 15.02.2022
3074 Clouds 3 1027 90 10000 2.81 16 19:59 15.02.2022
3075 Clouds 3 1026 90 10000 2.91 16 19:26 15.02.2022
3076 Clouds 4 1023 80 10000 2.47 358 18:24 15.02.2022
3077 Clouds 4 1023 80 10000 2.47 358 17:52 15.02.2022
3078 Clouds 6 1022 66 10000 2.8 353 17:21 15.02.2022
3079 Clouds 6 1022 60 10000 2.84 344 15:32 15.02.2022
3080 Clouds 8 1022 55 10000 3.02 342 13:28 15.02.2022
3081 Clouds 7 1022 55 10000 3.02 342 12:53 15.02.2022
3082 Clouds 4 1023 58 10000 3.7 349 11:40 15.02.2022
3083 Clouds 1 1025 67 10000 3.98 354 09:52 15.02.2022
3084 Snow 0 1025 89 10000 3.66 353 06:59 15.02.2022
3085 Snow 0 1024 91 10000 3.23 348 05:32 15.02.2022
3086 Snow 1 1020 88 10000 2.85 352 23:34 14.02.2022
3087 Clouds 2 1020 89 10000 2.48 10 21:54 14.02.2022
3088 Clouds 2 1020 91 10000 2.45 14 20:40 14.02.2022
3089 Clouds 2 1019 92 10000 2.62 7 19:44 14.02.2022
3090 Clouds 2 1018 92 10000 2.8 5 19:25 14.02.2022
3091 Clouds 3 1015 86 10000 2.52 351 18:23 14.02.2022
3092 Clouds 6 1013 72 10000 2.8 344 17:26 14.02.2022
3093 Clouds 7 1013 66 10000 2.51 6 16:25 14.02.2022
3094 Clouds 6 1013 64 10000 2.35 351 14:39 14.02.2022
3095 Clouds 6 1013 67 10000 3.13 2 13:33 14.02.2022
3096 Clouds 6 1013 72 10000 3.26 7 12:55 14.02.2022
3097 Clouds 5 1014 83 1305 3.07 359 11:55 14.02.2022
3098 Clouds 4 1013 85 933 2.31 4 10:58 14.02.2022
3099 Clouds 1 1010 90 341 0.81 244 08:45 14.02.2022
3100 Clouds 2 1010 91 134 1.34 44 07:32 14.02.2022
3101 Clouds 5 1012 99 374 1.76 211 05:56 14.02.2022
3102 Clouds 6 1016 99 351 3.37 197 22:43 13.02.2022
3103 Clouds 6 1017 99 363 3.16 201 22:25 13.02.2022
3104 Clouds 6 1017 99 363 3.16 201 21:32 13.02.2022
3105 Clouds 6 1017 99 340 3.46 203 20:40 13.02.2022
3106 Clouds 6 1017 98 368 3.46 202 19:45 13.02.2022
3107 Clouds 6 1016 98 412 3.33 201 18:54 13.02.2022
3108 Clouds 6 1016 98 412 3.33 201 18:35 13.02.2022
3109 Clouds 7 1016 97 615 3.39 208 16:34 13.02.2022
3110 Clouds 8 1017 97 379 3.63 200 15:24 13.02.2022
3111 Clouds 7 1017 97 379 3.63 200 14:31 13.02.2022
3112 Clouds 6 1019 89 1078 4.06 211 12:51 13.02.2022
3113 Clouds 5 1020 90 1021 3.53 204 11:44 13.02.2022
3114 Clouds 5 1020 95 413 3.3 201 10:34 13.02.2022
3115 Clouds 4 1021 96 688 2.87 199 09:46 13.02.2022
3116 Clouds 1 1020 77 725 2.27 193 07:49 13.02.2022
3117 Clouds 1 1023 75 1333 1.53 212 00:35 13.02.2022
3118 Clouds 4 1025 98 810 1.55 200 23:42 12.02.2022
3119 Clouds 4 1026 97 886 1.1 195 22:33 12.02.2022
3120 Clouds 5 1026 95 1904 1.22 187 21:30 12.02.2022
3121 Clouds 5 1026 96 7299 0.75 174 20:45 12.02.2022
3122 Clouds 6 1026 96 5466 0.28 172 19:30 12.02.2022
3123 Clouds 6 1025 94 10000 0.15 170 18:53 12.02.2022
3124 Clouds 6 1025 94 10000 0.15 170 18:35 12.02.2022
3125 Clouds 8 1024 83 1778 1.35 226 17:19 12.02.2022
3126 Clouds 8 1023 74 10000 1.81 221 16:26 12.02.2022
3127 Clouds 9 1023 74 10000 1.81 221 15:51 12.02.2022
3128 Clouds 9 1023 74 10000 1.81 221 15:51 12.02.2022
3129 Clouds 9 1023 69 10000 2.03 211 14:31 12.02.2022
3130 Clouds 8 1024 68 10000 2.3 211 13:19 12.02.2022
3131 Clouds 3 1025 74 10000 1.83 211 10:41 12.02.2022
3132 Clouds -2 1024 78 10000 1.39 218 09:49 12.02.2022
3133 Clouds -3 1024 78 10000 0.26 213 09:26 12.02.2022
3134 Clouds -3 1024 79 10000 0.26 17 08:18 12.02.2022
3135 Clouds 2 1026 95 10000 0.13 350 05:33 12.02.2022
3136 Clouds 3 1026 94 10000 0.39 3 04:27 12.02.2022
3137 Clear 2 1027 94 10000 0.35 25 02:18 12.02.2022
3138 Clouds 3 1028 91 10000 1.24 31 22:33 11.02.2022
3139 Clouds 3 1028 92 10000 1.53 18 21:55 11.02.2022
3140 Clouds 4 1027 87 10000 1.57 6 20:41 11.02.2022
3141 Clouds 5 1027 85 10000 1.73 12 19:46 11.02.2022
3142 Clouds 5 1027 84 10000 1.83 18 19:27 11.02.2022
3143 Clouds 7 1025 77 10000 1.87 8 17:55 11.02.2022
3144 Clouds 8 1025 73 10000 2.05 7 17:25 11.02.2022
3145 Clouds 8 1025 71 10000 2.25 5 16:22 11.02.2022
3146 Clouds 7 1025 72 10000 2.53 1 14:43 11.02.2022
3147 Clouds 7 1025 67 10000 2.22 349 14:21 11.02.2022
3148 Clouds 6 1024 47 10000 0.45 239 13:57 11.02.2022
3149 Clouds 5 1025 49 10000 2.22 349 13:39 11.02.2022
3150 Clouds 2 1026 55 10000 1.27 340 11:42 11.02.2022
3151 Clouds 3 1027 74 10000 2.22 4 09:58 11.02.2022
3152 Clouds 3 1028 84 10000 2.5 6 08:49 11.02.2022
3153 Clouds 3 1029 89 10000 2.59 15 08:26 11.02.2022
3154 Clouds -1 1026 66 10000 2.6 17 07:18 11.02.2022
3155 Clouds 0 1025 57 10000 2.46 17 02:26 11.02.2022
3156 Clouds -1 1026 54 10000 2.36 20 00:51 11.02.2022
3157 Clear 3 1029 62 10000 2.55 22 22:49 10.02.2022
3158 Clear 4 1029 65 10000 2.6 19 21:45 10.02.2022
3159 Clear 5 1029 72 10000 2.64 13 20:57 10.02.2022
3160 Clear 5 1029 72 10000 2.64 13 20:30 10.02.2022
3161 Clear 7 1028 74 10000 2.46 15 19:25 10.02.2022
3162 Clear 7 1028 76 10000 2.47 16 18:44 10.02.2022
3163 Clear 11 1024 47 10000 2.13 9 17:26 10.02.2022
3164 Clear 12 1024 47 10000 2.13 9 16:50 10.02.2022
3165 Clear 13 1023 37 10000 1.79 3 15:47 10.02.2022
3166 Clear 10 1024 27 10000 0.45 22 15:28 10.02.2022
3167 Clear 12 1023 31 10000 1.22 355 14:46 10.02.2022
3168 Clear 11 1024 29 10000 0.43 322 14:23 10.02.2022
3169 Clear 10 1025 29 10000 0.18 223 13:22 10.02.2022
3170 Clear 9 1026 32 10000 0.23 111 12:23 10.02.2022
3171 Clear 7 1026 32 10000 0.23 111 11:33 10.02.2022
3172 Clear 8 1026 36 10000 0.88 39 10:35 10.02.2022
3173 Clear 7 1027 41 10000 1.68 29 09:49 10.02.2022
3174 Clear -3 1027 54 10000 2.25 30 08:53 10.02.2022
3175 Clear -4 1027 55 10000 1.94 30 06:42 10.02.2022
3176 Clear -3 1028 57 10000 1.37 34 03:39 10.02.2022
3177 Clouds -2 1029 56 10000 0.87 30 01:19 10.02.2022
3178 Clouds -2 1029 55 10000 0.86 30 00:42 10.02.2022
3179 Clouds -1 1029 55 10000 0.84 38 00:23 10.02.2022
3180 Clouds 0 1030 51 10000 1.01 44 22:57 09.02.2022
3181 Clouds 0 1030 49 10000 0.45 179 22:33 09.02.2022
3182 Clouds 5 1032 69 10000 0.89 41 21:48 09.02.2022
3183 Clouds 5 1031 69 10000 0.59 55 21:28 09.02.2022
3184 Clouds 5 1031 69 10000 0.59 55 20:45 09.02.2022
3185 Clouds 5 1031 66 10000 0.32 80 20:23 09.02.2022
3186 Clouds 6 1031 66 10000 0.32 80 19:42 09.02.2022
3187 Clouds 6 1030 61 10000 0.58 182 18:50 09.02.2022
3188 Clear 12 1027 37 10000 2.04 211 17:24 09.02.2022
3189 Clear 14 1027 31 10000 2.29 212 16:20 09.02.2022
3190 Clear 11 1028 23 10000 2.24 308 15:24 09.02.2022
3191 Clouds 12 1028 24 10000 2.36 211 12:53 09.02.2022
3192 Clouds 12 1028 25 10000 1.97 207 11:36 09.02.2022
3193 Clouds 10 1029 26 10000 1.63 216 10:34 09.02.2022
3194 Clouds 11 1029 26 10000 0.79 216 09:50 09.02.2022
3195 Clouds 4 1030 27 10000 0.69 35 09:22 09.02.2022
3196 Clouds 8 1030 27 10000 0.69 35 08:45 09.02.2022
3197 Clouds -5 1031 58 10000 0.45 0 05:57 09.02.2022
3198 Clouds -4 1031 59 10000 0.97 360 03:51 09.02.2022
3199 Clouds -3 1031 58 10000 0.79 355 03:25 09.02.2022
3200 Clouds -1 1031 56 10000 0.68 6 23:45 08.02.2022
3201 Clouds -1 1031 57 10000 0.62 9 23:19 08.02.2022
3202 Clouds -1 1031 57 10000 0.62 9 23:19 08.02.2022
3203 Clouds 0 1031 57 10000 0.62 9 22:38 08.02.2022
3204 Clouds 0 1031 55 10000 0.7 23 22:19 08.02.2022
3205 Clouds 1 1031 51 10000 0.72 28 21:22 08.02.2022
3206 Clouds 1 1031 51 10000 0.72 28 21:22 08.02.2022
3207 Clouds 5 1032 55 10000 0.72 28 20:57 08.02.2022
3208 Clouds 5 1032 55 10000 0.72 28 20:34 08.02.2022
3209 Clouds 7 1031 54 10000 0.24 10 19:18 08.02.2022
3210 Clear 10 1029 49 10000 0.99 225 18:19 08.02.2022
3211 Clear 13 1027 36 10000 1.81 214 16:56 08.02.2022
3212 Clear 10 1028 28 10000 0.45 288 15:46 08.02.2022
3213 Clear 10 1029 30 10000 0.45 182 14:58 08.02.2022
3214 Clear 9 1029 32 10000 0.45 328 13:39 08.02.2022
3215 Clear 12 1028 23 10000 0.65 19 12:21 08.02.2022
3216 Clear 10 1028 24 10000 1.15 19 10:47 08.02.2022
3217 Clear 8 1029 28 10000 1.85 25 09:47 08.02.2022
3218 Clear 0 1031 52 10000 2.82 27 08:34 08.02.2022
3219 Clouds -2 1030 54 10000 3.3 26 05:46 08.02.2022
3220 Clouds -2 1030 57 10000 3.34 24 04:40 08.02.2022
3221 Clouds -2 1030 58 10000 3.43 22 04:21 08.02.2022
3222 Clouds -1 1030 58 10000 3.43 22 03:36 08.02.2022
3223 Clouds -1 1030 57 10000 3.41 24 03:18 08.02.2022
3224 Clouds -1 1030 57 10000 3.41 24 02:59 08.02.2022
3225 Clouds 0 1030 56 10000 3.41 24 02:36 08.02.2022
3226 Clouds 0 1030 54 10000 3.48 23 02:18 08.02.2022
3227 Clouds 0 1030 55 10000 3.48 23 02:18 08.02.2022
3228 Clouds 0 1030 54 10000 3.48 23 01:44 08.02.2022
3229 Clouds 0 1030 53 10000 0.45 200 01:24 08.02.2022
3230 Clouds 3 1032 50 10000 3.48 24 00:55 08.02.2022
3231 Clouds 4 1033 65 10000 3.67 21 23:58 07.02.2022
3232 Clouds 4 1033 65 10000 3.67 21 23:40 07.02.2022
3233 Clouds 4 1034 81 10000 4.13 17 23:18 07.02.2022
3234 Clouds 5 1034 81 10000 4.11 17 22:54 07.02.2022
3235 Clouds 4 1034 86 10000 4.64 15 22:18 07.02.2022
3236 Clouds 5 1034 86 10000 4.64 15 21:44 07.02.2022
3237 Clouds 5 1032 86 10000 4.76 14 21:25 07.02.2022
3238 Clouds 5 1032 86 10000 4.76 14 20:41 07.02.2022
3239 Clouds 4 1032 85 10000 4.77 12 19:56 07.02.2022
3240 Clouds 5 1032 85 10000 4.77 12 19:38 07.02.2022
3241 Clouds 5 1030 82 10000 4.82 12 18:21 07.02.2022
3242 Clouds 11 1027 66 10000 4.48 8 16:53 07.02.2022
3243 Clouds 12 1026 60 10000 4.36 6 16:20 07.02.2022
3244 Clouds 12 1026 60 10000 4.36 6 15:48 07.02.2022
3245 Clouds 11 1026 55 10000 3.93 359 13:36 07.02.2022
3246 Clouds 10 1027 58 10000 3.43 358 13:18 07.02.2022
3247 Clouds 9 1028 62 10000 3.84 357 11:58 07.02.2022
3248 Clouds 9 1028 62 10000 3.84 357 11:36 07.02.2022
3249 Clouds 8 1029 68 10000 4.32 359 10:51 07.02.2022
3250 Clouds 7 1029 68 10000 4.32 359 10:31 07.02.2022
3251 Clouds 2 1029 74 10000 4.32 2 09:53 07.02.2022
3252 Clouds 0 1030 86 10000 4.33 8 09:18 07.02.2022
3253 Clouds 3 1030 86 10000 4.33 8 08:39 07.02.2022
3254 Clouds 2 1029 83 10000 4.06 9 07:19 07.02.2022
3255 Clouds 4 1029 85 10000 4.24 10 06:34 07.02.2022
3256 Clouds -4 1024 60 10000 3.65 9 03:27 07.02.2022
3257 Clouds -2 1026 51 10000 3.57 11 00:45 07.02.2022
3258 Clouds -2 1026 46 10000 3.4 13 23:48 06.02.2022
3259 Clouds -2 1026 46 10000 3.33 13 22:48 06.02.2022
3260 Clouds 1 1029 39 10000 3.14 14 21:55 06.02.2022
3261 Clouds 1 1029 39 10000 3.14 14 21:35 06.02.2022
3262 Clouds 2 1029 40 10000 3.36 13 20:55 06.02.2022
3263 Clouds 2 1029 40 10000 3.36 13 20:31 06.02.2022
3264 Clouds 3 1029 41 10000 3.18 12 19:38 06.02.2022
3265 Clouds 6 1028 47 10000 2.89 18 18:40 06.02.2022
3266 Clouds 7 1027 53 10000 2.86 10 17:56 06.02.2022
3267 Clouds 7 1025 43 10000 2.17 3 17:19 06.02.2022
3268 Clouds 8 1025 44 10000 2.17 3 16:38 06.02.2022
3269 Clouds 6 1023 27 10000 0.45 211 15:49 06.02.2022
3270 Clouds 7 1023 27 10000 1.33 276 15:26 06.02.2022
3271 Clouds 6 1024 25 10000 1.33 276 14:36 06.02.2022
3272 Clear 8 1025 20 10000 1.06 302 13:26 06.02.2022
3273 Clear 7 1025 21 10000 1.06 308 12:52 06.02.2022
3274 Clear 3 1025 19 10000 1.61 325 11:32 06.02.2022
3275 Clear 2 1024 16 10000 0.76 300 10:30 06.02.2022
3276 Clear -6 1026 51 10000 1.54 13 08:53 06.02.2022
3277 Clear -2 1029 25 10000 1.89 14 07:51 06.02.2022
3278 Clear -5 1025 50 10000 1.9 12 05:30 06.02.2022
3279 Clear -5 1025 50 10000 1.9 12 05:30 06.02.2022
3280 Clear -5 1025 50 10000 1.9 12 05:30 06.02.2022
3281 Clear -4 1026 53 10000 2.05 22 02:26 06.02.2022
3282 Clear -3 1026 54 10000 2.05 22 01:47 06.02.2022
3283 Clouds 0 1032 76 10000 2.92 16 00:26 06.02.2022
3284 Clouds 1 1031 84 10000 3.27 14 22:20 05.02.2022
3285 Clouds 2 1030 89 10000 3.25 15 20:59 05.02.2022
3286 Clouds 3 1030 89 10000 3.32 14 20:24 05.02.2022
3287 Clouds 3 1030 89 10000 3.31 14 19:45 05.02.2022
3288 Clouds 4 1028 89 10000 3.06 9 18:52 05.02.2022
3289 Clouds 7 1027 82 10000 3.08 6 17:38 05.02.2022
3290 Clouds 8 1025 76 10000 3.02 4 16:48 05.02.2022
3291 Clouds 9 1024 73 10000 2.75 360 15:33 05.02.2022
3292 Clouds 10 1024 68 10000 2.62 0 14:53 05.02.2022
3293 Clouds 7 1024 63 10000 2.4 2 12:47 05.02.2022
3294 Clouds 6 1025 64 10000 2.53 359 11:49 05.02.2022
3295 Clouds 5 1025 73 10000 2.73 0 10:47 05.02.2022
3296 Clouds 4 1025 80 10000 2.85 2 09:53 05.02.2022
3297 Clouds 0 1022 64 10000 2.79 2 09:29 05.02.2022
3298 Clouds 4 1025 87 10000 2.81 4 07:38 05.02.2022
3299 Clouds 4 1025 89 10000 2.97 7 06:56 05.02.2022
3300 Clouds 4 1024 88 10000 2.74 360 03:55 05.02.2022
3301 Clouds 4 1024 90 10000 2.68 7 01:19 05.02.2022
3302 Clouds 5 1024 88 10000 2.59 5 00:42 05.02.2022
3303 Clouds 5 1024 89 10000 2.61 2 23:38 04.02.2022
3304 Clouds 4 1023 87 10000 2.61 6 23:20 04.02.2022
3305 Clouds 5 1023 87 10000 2.8 7 21:36 04.02.2022
3306 Clouds 2 1021 55 10000 2.73 9 21:18 04.02.2022
3307 Clouds 5 1023 88 10000 2.73 9 20:46 04.02.2022
3308 Clouds 6 1023 90 10000 2.92 9 19:30 04.02.2022
3309 Clouds 8 1019 68 10000 2.86 359 16:56 04.02.2022
3310 Clouds 9 1018 56 10000 2.06 342 15:34 04.02.2022
3311 Clouds 7 1017 35 10000 0.45 233 14:51 04.02.2022
3312 Clouds 7 1018 37 10000 0.45 231 12:43 04.02.2022
3313 Clouds 6 1019 37 10000 0.93 291 11:46 04.02.2022
3314 Clouds 4 1019 45 10000 1.12 298 10:59 04.02.2022
3315 Clouds 3 1019 48 10000 0.89 326 10:22 04.02.2022
3316 Clouds 0 1019 49 10000 1.23 357 08:31 04.02.2022
3317 Clouds 0 1019 45 10000 1.04 5 04:45 04.02.2022
3318 Clouds 1 1019 45 10000 0.93 20 02:38 04.02.2022
3319 Clouds 2 1020 41 10000 0.53 65 00:18 04.02.2022
3320 Clouds 4 1019 40 10000 0.5 92 22:52 03.02.2022
3321 Clouds 4 1019 36 10000 1.34 41 21:58 03.02.2022
3322 Clouds 5 1019 36 10000 1.34 41 21:37 03.02.2022
3323 Clouds 6 1019 33 10000 0.45 0 20:22 03.02.2022
3324 Clouds 9 1020 35 10000 1.12 40 19:49 03.02.2022
3325 Clouds 9 1020 36 10000 1.18 24 19:20 03.02.2022
3326 Clouds 13 1019 35 10000 0.9 335 17:59 03.02.2022
3327 Clouds 11 1019 26 10000 0.45 64 17:19 03.02.2022
3328 Clouds 11 1019 22 10000 2.2 213 15:34 03.02.2022
3329 Clouds 12 1019 19 10000 2.56 214 14:18 03.02.2022
3330 Clouds 15 1019 17 10000 2.38 216 12:32 03.02.2022
3331 Clouds 8 1022 21 10000 1.28 40 08:56 03.02.2022
3332 Clear -2 1023 34 10000 1.43 34 07:43 03.02.2022
3333 Clear 3 1027 31 10000 2.52 28 00:49 03.02.2022
3334 Clear 1 1027 28 10000 2.81 29 00:22 03.02.2022
3335 Clear 3 1026 24 10000 3.01 23 22:39 02.02.2022
3336 Clear 8 1028 22 10000 3.13 23 21:46 02.02.2022
3337 Clear 5 1028 23 10000 3.19 22 21:28 02.02.2022
3338 Clear 4 1028 25 10000 3.33 18 20:24 02.02.2022
3339 Clear 5 1028 25 10000 3.33 18 19:46 02.02.2022
3340 Clear 6 1027 28 10000 3.48 16 18:56 02.02.2022
3341 Clear 8 1026 36 10000 3.66 17 18:24 02.02.2022
3342 Clear 12 1025 35 10000 3.19 10 17:20 02.02.2022
3343 Clear 12 1025 35 10000 3.19 10 16:54 02.02.2022
3344 Clear 14 1025 26 10000 3.48 358 15:23 02.02.2022
3345 Clear 12 1025 23 10000 3.48 354 12:30 02.02.2022
3346 Clear 9 1026 14 10000 0.45 42 11:44 02.02.2022
3347 Clear 9 1026 34 10000 3.38 4 11:24 02.02.2022
3348 Clear 2 1029 77 10000 4 12 08:27 02.02.2022
3349 Clouds 2 1029 93 10000 4.55 11 01:37 02.02.2022
3350 Clouds 5 1029 94 10000 5.33 11 22:29 01.02.2022
3351 Clouds 6 1029 93 10000 5.36 8 20:49 01.02.2022
3352 Clouds 5 1029 92 10000 5.56 6 18:55 01.02.2022
3353 Clouds 6 1026 82 10000 5.23 1 16:44 01.02.2022
3354 Clouds 8 1025 76 10000 5.62 2 15:30 01.02.2022
3355 Clear 9 1024 60 10000 5.95 5 12:49 01.02.2022
3356 Clear 7 1025 53 10000 5.92 4 11:48 01.02.2022
3357 Clear 0 1029 54 10000 5.88 7 08:34 01.02.2022
3358 Clouds 0 1027 83 10000 5.54 4 23:54 31.01.2022
3359 Clouds 0 1027 83 10000 5.54 4 23:54 31.01.2022
3360 Clouds 0 1027 83 10000 5.54 4 23:36 31.01.2022
3361 Clouds 0 1027 83 10000 5.54 4 23:36 31.01.2022
3362 Clouds 2 1027 82 10000 5.7 360 22:27 31.01.2022
3363 Clouds 3 1027 82 10000 5.7 360 21:34 31.01.2022
3364 Clouds 3 1026 82 10000 5.66 358 20:34 31.01.2022
3365 Clouds 3 1026 83 10000 5.12 353 19:46 31.01.2022
3366 Clouds 2 1026 84 10000 4.72 356 18:31 31.01.2022
3367 Clouds 2 1026 84 10000 4.72 356 18:31 31.01.2022
3368 Clouds 7 1026 84 10000 5.19 2 17:53 31.01.2022
3369 Clouds 8 1024 72 10000 4.95 357 16:58 31.01.2022
3370 Clouds 9 1023 63 10000 4.79 358 15:44 31.01.2022
3371 Clouds 9 1022 57 10000 4.45 356 14:25 31.01.2022
3372 Clouds 9 1024 67 10000 3.83 355 12:51 31.01.2022
3373 Clouds 7 1025 60 10000 4.27 359 11:59 31.01.2022
3374 Clouds 4 1025 51 10000 4.66 3 10:52 31.01.2022
3375 Clouds 2 1025 51 10000 4.66 3 10:34 31.01.2022
3376 Clouds 0 1027 83 10000 4.52 10 09:27 31.01.2022
3377 Clouds 0 1027 83 10000 4.52 10 08:52 31.01.2022
3378 Clouds 0 1027 83 10000 4.52 10 08:52 31.01.2022
3379 Clear -3 1028 84 10000 4.46 12 08:20 31.01.2022
3380 Clear -2 1023 31 10000 0.45 15 06:21 31.01.2022
3381 Clear -2 1023 31 10000 3.62 15 03:33 31.01.2022
3382 Clear -1 1024 30 10000 3.12 21 23:20 30.01.2022
3383 Clear 0 1025 28 10000 3.12 21 22:30 30.01.2022
3384 Clear 0 1025 28 10000 3.12 21 22:30 30.01.2022
3385 Clear 0 1025 28 10000 3.04 22 21:43 30.01.2022
3386 Clear 1 1025 26 10000 3.01 22 21:20 30.01.2022
3387 Clear 2 1026 32 10000 2.92 21 20:49 30.01.2022
3388 Clear 3 1026 37 10000 2.95 22 20:29 30.01.2022
3389 Clear 3 1027 37 10000 2.93 22 19:52 30.01.2022
3390 Clear 8 1027 45 10000 2.85 23 18:44 30.01.2022
3391 Clear 8 1026 51 10000 2.58 19 18:20 30.01.2022
3392 Clear 11 1024 42 10000 1.68 0 17:27 30.01.2022
3393 Clear 12 1024 42 10000 1.68 0 16:40 30.01.2022
3394 Clear 12 1024 42 10000 1.68 0 16:40 30.01.2022
3395 Clear 13 1024 31 10000 1.24 343 16:22 30.01.2022
3396 Clear 10 1024 18 10000 0.45 53 15:51 30.01.2022
3397 Clear 10 1024 19 10000 0.45 113 15:32 30.01.2022
3398 Clear 9 1025 21 10000 1.08 323 14:46 30.01.2022
3399 Clear 11 1026 24 10000 1.11 343 12:47 30.01.2022
3400 Clear 11 1027 24 10000 1.46 357 12:25 30.01.2022
3401 Clear 5 1027 26 10000 1.65 4 10:36 30.01.2022
3402 Clear 9 1028 31 10000 2.03 18 09:56 30.01.2022
3403 Clear -3 1029 38 10000 2.73 22 08:56 30.01.2022
3404 Clear -3 1029 34 10000 3.1 24 07:29 30.01.2022
3405 Clear -1 1030 30 10000 3.49 22 01:56 30.01.2022
3406 Clear 0 1031 32 10000 3.46 20 00:41 30.01.2022
3407 Clear 0 1031 30 10000 3.47 19 23:20 29.01.2022
3408 Clear 0 1035 27 10000 3.42 18 21:58 29.01.2022
3409 Clear 1 1035 28 10000 3.4 18 21:25 29.01.2022
3410 Clear 1 1035 28 10000 3.4 18 20:35 29.01.2022
3411 Clear 6 1035 30 10000 3.37 18 19:35 29.01.2022
3412 Clear 5 1034 35 10000 3.46 17 18:53 29.01.2022
3413 Clear 8 1034 44 10000 3.21 16 18:24 29.01.2022
3414 Clear 15 1034 44 10000 3.21 16 17:31 29.01.2022
3415 Clear 13 1031 27 10000 2.97 7 16:25 29.01.2022
3416 Clear 11 1031 23 10000 2.72 2 14:23 29.01.2022
3417 Clear 10 1031 23 10000 2.72 2 13:44 29.01.2022
3418 Clouds 9 1032 22 10000 2.5 1 13:24 29.01.2022
3419 Clouds 3 1033 34 10000 2.37 5 11:49 29.01.2022
3420 Clouds 5 1033 24 10000 2.58 8 11:24 29.01.2022
3421 Clouds -2 1033 38 10000 3.26 19 08:43 29.01.2022
3422 Clouds -3 1032 40 10000 3.54 20 06:55 29.01.2022
3423 Clear 5 1036 38 10000 3.77 22 00:35 29.01.2022
3424 Clear 5 1036 36 10000 4 21 23:52 28.01.2022
3425 Clear 5 1037 35 10000 3.9 21 22:50 28.01.2022
3426 Clear 3 1037 36 10000 3.95 19 22:21 28.01.2022
3427 Clear -1 1037 36 10000 3.95 19 21:36 28.01.2022
3428 Clear -1 1036 52 10000 4.06 18 20:29 28.01.2022
3429 Clear 1 1035 55 10000 4.03 17 19:29 28.01.2022
3430 Clear 9 1035 55 10000 4.03 17 18:42 28.01.2022
3431 Clear 11 1032 51 10000 3.73 13 16:46 28.01.2022
3432 Clear 11 1029 29 10000 3.05 6 15:18 28.01.2022
3433 Clear 9 1030 27 10000 2.73 5 13:37 28.01.2022
3434 Clouds 6 1031 23 10000 3.36 13 12:27 28.01.2022
3435 Clouds 1 1031 19 10000 3.36 13 10:41 28.01.2022
3436 Clouds -1 1031 23 10000 0.45 87 09:48 28.01.2022
3437 Clouds -5 1030 35 10000 4.06 18 07:43 28.01.2022
3438 Clear -5 1030 34 10000 3.94 17 06:32 28.01.2022
3439 Clear -4 1030 32 10000 3.65 19 03:52 28.01.2022
3440 Clear -2 1034 31 10000 3.74 19 02:30 28.01.2022
3441 Clear -2 1034 32 10000 3.73 19 01:57 28.01.2022
3442 Clear -1 1034 32 10000 3.73 19 01:30 28.01.2022
3443 Clear -1 1034 32 10000 3.56 19 22:40 27.01.2022
3444 Clear 1 1034 33 10000 3.53 20 21:41 27.01.2022
3445 Clear 1 1034 35 10000 3.45 19 21:21 27.01.2022
3446 Clear 2 1034 38 10000 3.46 19 19:47 27.01.2022
3447 Clear 5 1032 53 10000 3.26 18 18:22 27.01.2022
3448 Clear 10 1029 44 10000 2.77 12 16:59 27.01.2022
3449 Clear 9 1027 25 10000 2.14 8 14:24 27.01.2022
3450 Clear 3 1028 32 10000 2.1 11 12:53 27.01.2022
3451 Clear 2 1028 32 10000 0.45 219 12:18 27.01.2022
3452 Clear 6 1029 28 10000 2.03 15 09:49 27.01.2022
3453 Clear -5 1029 45 10000 2.78 21 08:40 27.01.2022
3454 Clear -5 1029 45 10000 2.93 21 07:53 27.01.2022
3455 Clear -5 1029 45 10000 2.83 25 03:34 27.01.2022
3456 Clear -5 1030 47 10000 1.59 19 00:24 27.01.2022
3457 Clear -3 1030 43 10000 1.73 31 22:28 26.01.2022
3458 Clear -2 1029 40 10000 1.73 32 21:44 26.01.2022
3459 Clear -2 1030 39 10000 1.87 34 20:52 26.01.2022
3460 Clear -2 1030 38 10000 1.87 34 20:32 26.01.2022
3461 Clear 2 1032 49 10000 1.9 35 19:49 26.01.2022
3462 Clear 4 1031 51 10000 1.81 37 18:48 26.01.2022
3463 Clear 5 1030 51 10000 1.17 28 18:24 26.01.2022
3464 Clear 7 1030 51 10000 1.17 28 17:33 26.01.2022
3465 Clear 9 1027 43 10000 0.38 294 16:49 26.01.2022
3466 Clear 7 1027 23 10000 0.45 0 16:22 26.01.2022
3467 Clear 10 1027 25 10000 0.95 220 14:40 26.01.2022
3468 Clear 9 1029 24 10000 1.05 216 12:20 26.01.2022
3469 Clear 7 1029 25 10000 0.68 218 10:52 26.01.2022
3470 Clear 6 1030 30 10000 0.43 31 09:52 26.01.2022
3471 Clear -6 1031 56 10000 1.54 32 08:49 26.01.2022
3472 Clear -6 1030 56 10000 1.5 30 06:36 26.01.2022
3473 Clear -4 1031 54 10000 1.07 34 00:21 26.01.2022
3474 Clear -5 1031 53 10000 1.07 34 23:37 25.01.2022
3475 Clear -5 1031 52 10000 1.08 29 22:48 25.01.2022
3476 Clear -4 1031 51 10000 1.09 30 22:18 25.01.2022
3477 Clear -3 1031 48 10000 1.15 28 21:23 25.01.2022
3478 Clear -3 1031 46 10000 1.15 28 20:45 25.01.2022
3479 Clear -2 1031 42 10000 1.2 28 19:54 25.01.2022
3480 Clear 2 1033 47 10000 1.22 25 18:50 25.01.2022
3481 Clear 5 1032 47 10000 0.36 346 17:47 25.01.2022
3482 Clear 7 1030 40 10000 1.39 228 17:18 25.01.2022
3483 Clear 8 1030 40 10000 1.39 228 16:34 25.01.2022
3484 Clear 6 1029 26 10000 1.75 217 15:39 25.01.2022
3485 Clear 9 1028 27 10000 1.81 209 14:58 25.01.2022
3486 Clear 9 1028 27 10000 1.81 209 14:38 25.01.2022
3487 Clear 7 1030 26 10000 1.55 200 11:30 25.01.2022
3488 Clear -6 1031 55 10000 0.95 57 09:21 25.01.2022
3489 Clear -7 1031 54 10000 1.02 48 07:46 25.01.2022
3490 Clear -7 1030 54 10000 0.93 57 06:54 25.01.2022
3491 Clear -6 1031 52 10000 1.1 69 05:23 25.01.2022
3492 Clear -5 1030 53 10000 1.23 67 00:20 25.01.2022
3493 Clear -4 1030 51 10000 1.23 67 23:36 24.01.2022
3494 Clear -4 1030 54 10000 1.21 67 23:18 24.01.2022
3495 Clear -5 1030 54 10000 1.21 67 22:42 24.01.2022
3496 Clear -4 1029 53 10000 1.33 60 21:57 24.01.2022
3497 Clear -4 1029 53 10000 1.33 60 21:57 24.01.2022
3498 Clear -4 1029 52 10000 1.5 55 21:32 24.01.2022
3499 Clear -3 1029 50 10000 1.52 55 20:33 24.01.2022
3500 Clear -2 1028 49 10000 1.57 47 19:57 24.01.2022
3501 Clear -2 1028 46 10000 1.57 47 19:35 24.01.2022
3502 Clear 3 1031 53 10000 1.72 39 18:35 24.01.2022
3503 Clear 8 1027 46 10000 0.92 229 17:24 24.01.2022
3504 Clear 8 1027 46 10000 0.92 229 16:55 24.01.2022
3505 Clear 8 1026 35 10000 1.52 216 16:21 24.01.2022
3506 Clear 8 1025 31 10000 1.86 204 14:45 24.01.2022
3507 Clear 6 1026 28 10000 2.15 194 13:26 24.01.2022
3508 Clear 5 1026 29 10000 2.18 192 12:30 24.01.2022
3509 Clear 4 1027 29 10000 1.74 177 11:20 24.01.2022
3510 Clear 5 1028 33 10000 1.05 139 09:49 24.01.2022
3511 Clear -7 1027 62 10000 1.35 72 08:54 24.01.2022
3512 Clear -7 1026 60 10000 1.31 71 06:41 24.01.2022
3513 Clear -1 1029 49 10000 0.78 64 01:31 24.01.2022
3514 Clear -6 1026 62 10000 0.93 73 00:38 24.01.2022
3515 Clear -6 1026 63 10000 0.87 79 00:20 24.01.2022
3516 Clear -5 1026 62 10000 0.93 75 22:37 23.01.2022
3517 Clear -5 1026 59 10000 0.96 71 21:50 23.01.2022
3518 Clear -4 1026 59 10000 0.98 70 21:26 23.01.2022
3519 Clear -3 1026 58 10000 0.98 70 20:45 23.01.2022
3520 Clear 0 1030 73 10000 0.81 84 19:52 23.01.2022
3521 Clear 3 1028 73 10000 0.88 92 18:52 23.01.2022
3522 Clear 3 1027 70 10000 0.68 154 17:49 23.01.2022
3523 Clear 7 1025 57 10000 1.61 199 16:47 23.01.2022
3524 Clear 8 1023 40 10000 1.89 193 15:00 23.01.2022
3525 Clear 7 1024 40 10000 1.92 192 14:25 23.01.2022
3526 Clear 5 1024 41 10000 2.11 197 12:59 23.01.2022
3527 Clear 5 1026 43 10000 1.79 195 12:22 23.01.2022
3528 Clear 4 1026 43 10000 1.79 195 11:59 23.01.2022
3529 Clear 3 1026 46 10000 1.47 195 11:19 23.01.2022
3530 Clear 1 1027 52 10000 0.92 177 10:27 23.01.2022
3531 Clear -1 1027 52 10000 0.92 177 09:51 23.01.2022
3532 Clear -8 1026 70 10000 0.74 69 08:54 23.01.2022
3533 Clear -7 1026 69 10000 0.78 66 05:57 23.01.2022
3534 Clear -7 1027 71 10000 1.09 42 01:53 23.01.2022
3535 Clear -7 1027 71 10000 1.09 42 01:52 23.01.2022
3536 Clear -6 1027 71 10000 1.49 36 01:27 23.01.2022
3537 Clear -6 1026 67 10000 2.23 24 00:23 23.01.2022
3538 Clear -5 1026 65 10000 2.23 24 23:57 22.01.2022
3539 Clear -5 1026 62 10000 2.75 21 22:46 22.01.2022
3540 Clear -4 1026 61 10000 3.1 16 21:36 22.01.2022
3541 Clear 0 1030 69 10000 3.46 18 20:21 22.01.2022
3542 Clear 1 1030 71 10000 3.44 19 18:57 22.01.2022
3543 Clear 2 1028 73 10000 3.3 16 18:24 22.01.2022
3544 Clear 3 1028 73 10000 3.3 16 17:40 22.01.2022
3545 Clear 5 1026 64 10000 2.79 8 16:56 22.01.2022
3546 Clear 5 1025 52 10000 3.01 7 15:53 22.01.2022
3547 Clear 6 1025 52 10000 3.01 7 15:32 22.01.2022
3548 Clear 2 1025 43 10000 3.08 5 13:51 22.01.2022
3549 Clear 3 1025 43 10000 2.99 5 12:53 22.01.2022
3550 Clear 2 1026 44 10000 3.32 11 12:29 22.01.2022
3551 Clear 3 1026 44 10000 3.32 11 11:44 22.01.2022
3552 Clear -1 1029 48 10000 3.28 13 10:29 22.01.2022
3553 Clear -1 1029 48 10000 3.28 13 09:59 22.01.2022
3554 Clear 0 1031 55 10000 3.68 19 08:53 22.01.2022
3555 Clear -2 1031 56 10000 3.77 20 07:39 22.01.2022
3556 Clear -8 1025 62 10000 3.85 20 04:53 22.01.2022
3557 Clear -6 1026 58 10000 3.56 20 01:35 22.01.2022
3558 Clear -3 1032 48 10000 3.46 16 23:45 21.01.2022
3559 Clear -2 1032 48 10000 3.55 15 22:36 21.01.2022
3560 Clear -2 1031 58 10000 3.55 18 20:28 21.01.2022
3561 Clear -1 1031 72 10000 3.83 15 18:40 21.01.2022
3562 Clear 0 1030 74 10000 4.06 15 17:41 21.01.2022
3563 Clear 4 1025 47 10000 3.38 7 15:44 21.01.2022
3564 Clear 7 1024 40 10000 3.1 4 13:51 21.01.2022
3565 Clear 7 1024 40 10000 3.1 4 13:51 21.01.2022
3566 Clear 4 1025 39 10000 3.55 7 12:39 21.01.2022
3567 Clear 1 1026 45 10000 3.78 8 11:28 21.01.2022
3568 Clear -3 1027 50 10000 3.9 9 10:20 21.01.2022
3569 Clear -3 1029 70 10000 4.34 12 08:25 21.01.2022
3570 Clouds -3 1029 74 10000 4.7 11 06:57 21.01.2022
3571 Clouds 1 1029 89 10000 4.07 6 23:40 20.01.2022
3572 Clouds 1 1029 90 10000 3.74 5 22:41 20.01.2022
3573 Clouds 1 1028 90 10000 3.64 1 21:43 20.01.2022
3574 Clouds 1 1028 91 10000 3.47 2 20:53 20.01.2022
3575 Clouds 2 1029 93 10000 3.87 11 19:20 20.01.2022
3576 Clouds 2 1028 92 10000 3.8 7 18:50 20.01.2022
3577 Clouds 6 1026 76 10000 3.17 359 17:29 20.01.2022
3578 Clouds 7 1026 68 10000 3.41 357 15:44 20.01.2022
3579 Clouds 6 1026 65 10000 3.48 358 15:22 20.01.2022
3580 Clouds 5 1026 63 10000 3.33 0 13:41 20.01.2022
3581 Clouds 3 1026 60 10000 2.74 357 12:35 20.01.2022
3582 Clouds 2 1027 64 10000 2.68 1 11:50 20.01.2022
3583 Clouds 0 1028 68 10000 2.92 3 10:40 20.01.2022
3584 Clouds -1 1029 75 10000 3.12 4 09:40 20.01.2022
3585 Clouds 1 1030 88 10000 3.36 5 08:32 20.01.2022
3586 Clouds 0 1030 86 10000 3.85 13 05:32 20.01.2022
3587 Clouds -3 1026 66 10000 0.45 0 23:28 19.01.2022
3588 Clouds -4 1027 65 10000 2.85 11 22:24 19.01.2022
3589 Clouds -4 1027 63 10000 2.66 12 21:23 19.01.2022
3590 Clouds 0 1032 80 10000 2.66 12 20:49 19.01.2022
3591 Clouds 0 1032 84 10000 2.6 17 19:45 19.01.2022
3592 Clear 2 1030 82 10000 1.87 5 18:29 19.01.2022
3593 Clear 3 1030 82 10000 1.87 5 17:45 19.01.2022
3594 Clear 4 1027 67 10000 1.05 319 16:47 19.01.2022
3595 Clear 3 1025 40 10000 1.09 301 14:42 19.01.2022
3596 Clear 6 1026 39 10000 1.2 248 12:43 19.01.2022
3597 Clear 5 1027 37 10000 0.96 242 11:41 19.01.2022
3598 Clear 6 1029 40 10000 0.5 331 10:23 19.01.2022
3599 Clear 5 1029 40 10000 0.5 331 09:34 19.01.2022
3600 Clear -5 1028 60 10000 0.95 33 06:45 19.01.2022
3601 Clear -4 1029 59 10000 0.6 42 02:38 19.01.2022
3602 Clear -3 1030 56 10000 0.72 68 23:19 18.01.2022
3603 Clear -4 1030 54 10000 0.71 66 22:19 18.01.2022
3604 Clear -2 1029 50 10000 0.74 61 20:55 18.01.2022
3605 Clear -1 1029 47 10000 0.79 51 19:54 18.01.2022
3606 Clear -1 1029 47 10000 0.79 51 19:36 18.01.2022
3607 Clear 0 1029 44 10000 0.92 25 18:51 18.01.2022
3608 Clear 3 1029 56 10000 0.37 351 17:58 18.01.2022
3609 Clear 7 1027 51 10000 1.34 221 16:40 18.01.2022
3610 Clear 6 1027 27 10000 0.45 0 15:40 18.01.2022
3611 Clear 6 1027 26 10000 0.45 117 15:20 18.01.2022
3612 Clear 9 1026 33 10000 1.03 208 12:30 18.01.2022
3613 Clear 8 1027 36 10000 0.55 31 10:46 18.01.2022
3614 Clear -5 1029 49 10000 2.26 28 08:49 18.01.2022
3615 Clear -5 1028 49 10000 2.27 26 07:49 18.01.2022
3616 Clear -4 1029 48 10000 2.37 24 02:33 18.01.2022
3617 Clear -3 1030 48 10000 2.64 26 23:22 17.01.2022
3618 Clear -4 1030 46 10000 2.7 26 22:23 17.01.2022
3619 Clear -4 1030 44 10000 2.7 26 21:33 17.01.2022
3620 Clear -2 1030 43 10000 2.39 21 19:56 17.01.2022
3621 Clear 2 1032 60 10000 1.86 24 18:29 17.01.2022
3622 Clear 3 1029 31 10000 1.05 351 17:24 17.01.2022
3623 Clear 5 1029 26 10000 0.82 293 16:27 17.01.2022
3624 Clear 5 1028 28 10000 0.69 267 14:59 17.01.2022
3625 Clear 4 1029 27 10000 0.69 267 14:33 17.01.2022
3626 Clouds 5 1030 29 10000 1.04 3 13:20 17.01.2022
3627 Clouds 4 1030 29 10000 1.04 3 12:54 17.01.2022
3628 Clouds 5 1030 28 10000 1.28 6 11:48 17.01.2022
3629 Clouds 0 1032 36 10000 2.12 20 10:21 17.01.2022
3630 Clouds -6 1030 45 10000 2.79 24 08:51 17.01.2022
3631 Clouds -6 1030 45 10000 3.02 26 07:22 17.01.2022
3632 Clear -7 1030 44 10000 2.85 25 02:23 17.01.2022
3633 Clear -7 1030 43 10000 2.85 26 00:53 17.01.2022
3634 Clear -5 1029 44 10000 3.02 25 21:26 16.01.2022
3635 Clear -4 1029 43 10000 3.02 25 20:30 16.01.2022
3636 Clear 1 1033 45 10000 2.82 23 18:48 16.01.2022
3637 Clear 4 1032 58 10000 2.6 26 17:51 16.01.2022
3638 Clear 5 1029 55 10000 1.61 19 16:55 16.01.2022
3639 Clear 4 1026 23 10000 0.97 353 15:43 16.01.2022
3640 Clear 3 1026 25 10000 0.57 320 14:29 16.01.2022
3641 Clear 5 1026 28 10000 0.57 320 13:33 16.01.2022
3642 Clear 6 1027 25 10000 0.16 259 12:22 16.01.2022
3643 Clear 5 1027 26 10000 0.42 54 11:29 16.01.2022
3644 Clear 4 1028 31 10000 1.47 34 10:28 16.01.2022
3645 Clear 2 1028 31 10000 1.47 34 09:58 16.01.2022
3646 Clear -2 1028 31 10000 1.47 34 09:37 16.01.2022
3647 Clear -8 1027 44 10000 2.22 33 09:19 16.01.2022
3648 Clear -8 1026 47 10000 2.08 32 06:35 16.01.2022
3649 Clear -7 1026 49 10000 1.58 42 00:19 16.01.2022
3650 Clear -6 1025 49 10000 1.61 41 22:50 15.01.2022
3651 Clear -5 1026 46 10000 1.91 39 21:21 15.01.2022
3652 Clear -5 1025 46 10000 1.91 39 20:44 15.01.2022
3653 Clear -4 1025 44 10000 1.86 36 20:21 15.01.2022
3654 Clear -3 1024 43 10000 1.78 30 19:26 15.01.2022
3655 Clear 3 1027 50 10000 1.22 22 17:58 15.01.2022
3656 Clear 6 1024 47 10000 0.65 233 16:43 15.01.2022
3657 Clear 6 1022 31 10000 1.76 210 14:32 15.01.2022
3658 Clear 7 1023 25 10000 1.68 196 12:38 15.01.2022
3659 Clear 5 1025 26 10000 0.95 165 11:20 15.01.2022
3660 Clear -2 1026 29 10000 0.74 76 09:35 15.01.2022
3661 Clear -6 1028 60 10000 1.48 40 01:25 15.01.2022
3662 Clear -6 1029 54 10000 1.41 45 21:57 14.01.2022
3663 Clear -5 1029 53 10000 1.76 44 20:54 14.01.2022
3664 Clear -5 1029 52 10000 1.92 38 20:23 14.01.2022
3665 Clear -5 1029 52 10000 1.91 38 19:49 14.01.2022
3666 Clear 2 1033 47 10000 1.78 32 18:33 14.01.2022
3667 Clear 5 1030 47 10000 0.87 204 16:51 14.01.2022
3668 Clear 6 1030 47 10000 0.87 204 16:33 14.01.2022
3669 Clear 6 1029 32 10000 1.51 192 14:47 14.01.2022
3670 Clear 6 1029 31 10000 1.74 191 13:47 14.01.2022
3671 Clear 4 1030 30 10000 1.84 187 12:32 14.01.2022
3672 Clear 7 1032 34 10000 1.15 161 11:29 14.01.2022
3673 Clear -4 1033 39 10000 0.97 121 09:51 14.01.2022
3674 Clear -8 1032 57 10000 1.57 59 08:52 14.01.2022
3675 Clear -2 1039 57 10000 2.58 45 07:21 14.01.2022
3676 Clear -4 1040 58 10000 2.44 47 01:37 14.01.2022
3677 Clear -3 1040 59 10000 2.29 49 23:32 13.01.2022
3678 Clear -2 1040 59 10000 2.45 43 21:40 13.01.2022
3679 Clear -2 1040 60 10000 2.38 48 21:22 13.01.2022
3680 Clear -1 1040 60 10000 2.58 44 19:40 13.01.2022
3681 Clear -1 1039 63 10000 2.49 40 19:22 13.01.2022
3682 Clear 4 1038 69 10000 1.94 43 17:54 13.01.2022
3683 Clear 6 1032 82 10000 0.6 169 16:21 13.01.2022
3684 Clear 6 1032 82 10000 0.6 169 16:21 13.01.2022
3685 Clear 7 1032 82 10000 0.6 169 15:37 13.01.2022
3686 Clear 3 1031 25 10000 0.7 166 14:47 13.01.2022
3687 Clear 4 1032 79 10000 1.01 163 12:45 13.01.2022
3688 Clear -4 1033 49 10000 1.42 62 10:25 13.01.2022
3689 Clear -8 1033 54 10000 2.25 52 09:20 13.01.2022
3690 Clear -8 1033 54 10000 2.25 52 09:20 13.01.2022
3691 Clear -8 1032 53 10000 2.32 47 08:27 13.01.2022
3692 Clear -8 1032 55 10000 2.36 47 07:24 13.01.2022
3693 Clear -8 1032 53 10000 2.42 48 05:59 13.01.2022
3694 Clear -8 1032 53 10000 2.42 48 05:59 13.01.2022
3695 Clear -2 1039 54 10000 2.46 48 05:19 13.01.2022
3696 Clear -5 1039 52 10000 2.48 40 01:58 13.01.2022
3697 Clouds -4 1039 54 10000 2.26 40 00:55 13.01.2022
3698 Clouds -4 1039 53 10000 2.31 44 23:49 12.01.2022
3699 Clouds -4 1039 53 10000 2.31 44 23:49 12.01.2022
3700 Clouds -4 1039 53 10000 2.35 35 23:19 12.01.2022
3701 Clouds -3 1039 54 10000 2.65 33 21:57 12.01.2022
3702 Clouds -3 1039 57 10000 3.09 32 21:22 12.01.2022
3703 Clouds -3 1039 57 10000 3.09 32 21:22 12.01.2022
3704 Clouds -3 1039 57 10000 3.09 32 20:56 12.01.2022
3705 Clouds -2 1039 59 10000 3.41 31 19:43 12.01.2022
3706 Clear -1 1037 62 10000 3.74 26 18:30 12.01.2022
3707 Clear 2 1034 72 10000 3.77 17 17:21 12.01.2022
3708 Clear 2 1034 72 10000 3.77 17 16:32 12.01.2022
3709 Clear 3 1030 70 10000 3.6 9 14:48 12.01.2022
3710 Clear 3 1031 68 10000 3.79 7 13:19 12.01.2022
3711 Clear 2 1033 68 10000 4.1 14 10:48 12.01.2022
3712 Clear -2 1035 66 10000 4.79 18 08:43 12.01.2022
3713 Clear -2 1035 65 10000 4.82 17 07:50 12.01.2022
3714 Clear -2 1035 65 10000 4.82 17 07:31 12.01.2022
3715 Clear -4 1035 68 10000 4.87 17 23:53 11.01.2022
3716 Clear -3 1035 67 10000 4.85 15 22:54 11.01.2022
3717 Clear -1 1035 67 10000 4.86 15 22:22 11.01.2022
3718 Clear 1 1034 67 10000 4.7 14 20:54 11.01.2022
3719 Clear -1 1034 69 10000 4.63 13 19:50 11.01.2022
3720 Clear -1 1033 74 10000 4.69 14 18:31 11.01.2022
3721 Clear 1 1030 81 10000 4.02 11 17:24 11.01.2022
3722 Clear 1 1030 81 10000 4.02 11 16:37 11.01.2022
3723 Clear 3 1027 82 10000 3.58 9 15:35 11.01.2022
3724 Clear 4 1026 79 10000 3.39 7 14:41 11.01.2022
3725 Clear 9 1026 76 10000 3.28 4 13:55 11.01.2022
3726 Clear 8 1026 76 10000 3.28 4 13:34 11.01.2022
3727 Clear 8 1026 75 10000 3.32 6 12:42 11.01.2022
3728 Clear 2 1027 75 10000 3.42 6 11:40 11.01.2022
3729 Clear 0 1032 69 10000 4.62 21 09:28 11.01.2022
3730 Clouds -1 1029 92 10000 4.13 12 06:36 11.01.2022
3731 Clouds 2 1024 97 246 2.98 5 00:30 11.01.2022
3732 Clouds -1 1019 81 361 3.03 4 23:41 10.01.2022
3733 Clouds 2 1023 97 274 3.14 4 22:51 10.01.2022
3734 Clouds 2 1023 97 275 3.21 3 22:19 10.01.2022
3735 Clouds 2 1023 97 276 3.22 3 21:52 10.01.2022
3736 Clouds 2 1022 97 181 3.28 1 21:19 10.01.2022
3737 Clouds 2 1022 97 181 3.28 1 20:56 10.01.2022
3738 Clouds 2 1021 97 166 3.37 5 20:27 10.01.2022
3739 Clouds 3 1021 97 166 3.37 5 19:41 10.01.2022
3740 Clouds 3 1020 97 124 3.41 6 19:20 10.01.2022
3741 Clouds 4 1020 97 159 3.37 7 18:48 10.01.2022
3742 Clouds 5 1019 97 149 3.47 10 17:40 10.01.2022
3743 Clouds 5 1018 97 185 3.61 8 16:41 10.01.2022
3744 Clouds 6 1014 99 123 3.01 351 15:20 10.01.2022
3745 Rain 6 1014 99 135 3.43 350 13:41 10.01.2022
3746 Clouds 7 1013 99 126 3.73 356 11:58 10.01.2022
3747 Rain 7 1013 99 121 3.97 353 11:24 10.01.2022
3748 Clouds 7 1012 99 131 4.45 354 09:46 10.01.2022
3749 Clouds 6 1009 98 672 6.75 342 06:22 10.01.2022
3750 Clouds 7 1009 98 672 6.75 342 05:49 10.01.2022
3751 Rain 2 1009 88 4206 1.34 32 01:26 10.01.2022
3752 Snow 1 1010 89 3225 0.89 180 00:24 10.01.2022
3753 Snow 0 1011 93 1418 3.75 355 23:29 09.01.2022
3754 Rain 5 1012 96 1418 3.75 355 22:37 09.01.2022
3755 Clouds 4 1013 96 581 3.42 0 21:44 09.01.2022
3756 Rain 4 1014 96 530 3.48 0 21:23 09.01.2022
3757 Clouds 4 1014 96 530 3.48 0 20:50 09.01.2022
3758 Rain 4 1014 95 611 3.35 359 20:29 09.01.2022
3759 Rain 4 1014 95 611 3.35 359 19:44 09.01.2022
3760 Clouds 4 1014 96 831 3.03 359 19:23 09.01.2022
3761 Rain 4 1014 96 831 3.03 359 18:49 09.01.2022
3762 Rain 4 1014 95 1036 3.58 6 18:30 09.01.2022
3763 Rain 4 1014 96 724 2.96 358 17:30 09.01.2022
3764 Rain 5 1013 94 1006 2.35 350 16:51 09.01.2022
3765 Rain 5 1013 91 966 2.32 346 15:56 09.01.2022
3766 Rain 5 1013 91 966 2.32 346 15:34 09.01.2022
3767 Rain 5 1012 89 2282 2.45 338 14:40 09.01.2022
3768 Clouds 5 1013 89 1826 2.33 334 13:50 09.01.2022
3769 Clouds 4 1013 88 1514 2.58 335 12:48 09.01.2022
3770 Clouds 3 1014 89 1991 3.01 336 11:48 09.01.2022
3771 Clouds 2 1015 89 1761 2.47 332 10:49 09.01.2022
3772 Clouds 2 1015 93 5087 2.21 328 09:42 09.01.2022
3773 Clouds 2 1016 97 704 1.77 322 08:31 09.01.2022
3774 Clouds 0 1013 77 1932 2.51 330 02:48 09.01.2022
3775 Clouds -1 1014 71 417 2.42 350 01:21 09.01.2022
3776 Clouds 1 1018 94 10000 2.31 11 23:38 08.01.2022
3777 Clouds -2 1015 66 10000 2.38 7 22:59 08.01.2022
3778 Clouds -2 1015 67 10000 2.39 17 21:33 08.01.2022
3779 Clouds 1 1021 75 10000 3.17 16 20:45 08.01.2022
3780 Clouds 1 1023 79 10000 3.01 18 20:24 08.01.2022
3781 Clouds 1 1023 80 10000 3 18 19:58 08.01.2022
3782 Clouds 5 1023 89 10000 2.53 6 17:51 08.01.2022
3783 Clouds 5 1021 89 10000 1.21 345 17:21 08.01.2022
3784 Clouds 6 1021 79 10000 1.59 343 15:47 08.01.2022
3785 Clouds 6 1021 76 10000 2.01 343 14:41 08.01.2022
3786 Clouds 4 1023 77 10000 1.86 335 12:44 08.01.2022
3787 Clouds 2 1025 85 10000 2.33 346 10:59 08.01.2022
3788 Clouds 1 1025 89 10000 2.53 353 10:24 08.01.2022
3789 Clouds 0 1025 89 10000 2.53 353 09:43 08.01.2022
3790 Clouds 0 1026 93 10000 3.34 1 07:18 08.01.2022
3791 Clouds 0 1028 91 10000 4.15 359 02:33 08.01.2022
3792 Clouds 0 1029 92 10000 3.73 360 00:40 08.01.2022
3793 Clouds 0 1030 92 10000 3.28 2 22:40 07.01.2022
3794 Clouds 0 1031 92 10000 3.44 11 20:56 07.01.2022
3795 Clouds -1 1031 92 10000 3.4 10 19:56 07.01.2022
3796 Snow 2 1027 91 10000 3.13 358 18:54 07.01.2022
3797 Snow 2 1027 91 10000 3.13 358 18:34 07.01.2022
3798 Clouds 0 1023 74 10000 0.89 282 17:25 07.01.2022
3799 Clouds 2 1022 59 9728 2.24 252 16:23 07.01.2022
3800 Clouds 3 1023 77 10000 3.14 1 13:53 07.01.2022
3801 Clear 2 1023 74 10000 3.06 1 13:19 07.01.2022
3802 Clear 1 1023 76 10000 2.91 348 12:35 07.01.2022
3803 Clear -6 1028 55 10000 4.2 17 07:31 07.01.2022
3804 Clouds -2 1026 56 10000 3.85 20 02:54 07.01.2022
3805 Clouds -2 1026 56 10000 3.84 20 01:52 07.01.2022
3806 Clouds -3 1026 56 10000 3.92 21 01:27 07.01.2022
3807 Clouds -2 1027 56 10000 4.01 20 00:55 07.01.2022
3808 Clouds -4 1027 56 10000 3.92 21 22:42 06.01.2022
3809 Clear -3 1027 57 10000 3.89 22 21:22 06.01.2022
3810 Clear -3 1026 60 10000 3.98 20 20:19 06.01.2022
3811 Clear -4 1026 60 10000 3.98 20 19:40 06.01.2022
3812 Clear -2 1026 80 10000 4.33 20 17:52 06.01.2022
3813 Clear -2 1026 80 10000 4.33 20 17:31 06.01.2022
3814 Clear 2 1023 80 10000 4.05 17 16:39 06.01.2022
3815 Clear 3 1020 73 10000 3.54 14 15:45 06.01.2022
3816 Clear 3 1019 64 10000 3.44 6 15:23 06.01.2022
3817 Clear 4 1018 59 10000 3.36 6 14:20 06.01.2022
3818 Clear 4 1018 59 10000 3.36 6 13:44 06.01.2022
3819 Clear 3 1019 59 10000 3.56 9 12:32 06.01.2022
3820 Clear 1 1020 60 10000 3.56 11 11:41 06.01.2022
3821 Clear -1 1021 66 10000 3.68 17 11:19 06.01.2022
3822 Clouds -6 1025 78 10000 4.35 16 08:31 06.01.2022
3823 Clouds -4 1023 91 10000 4.53 13 00:39 06.01.2022
3824 Clouds -4 1022 91 10000 4.43 10 23:35 05.01.2022
3825 Clouds -4 1022 91 10000 4.44 11 23:35 05.01.2022
3826 Clouds -3 1022 91 10000 4.45 9 22:50 05.01.2022
3827 Clouds -3 1022 91 10000 4.29 9 22:29 05.01.2022
3828 Clouds -3 1022 91 10000 4.29 9 21:44 05.01.2022
3829 Clouds -3 1022 90 10000 4.25 10 20:44 05.01.2022
3830 Clouds -3 1021 91 10000 3.83 10 19:46 05.01.2022
3831 Clouds -1 1017 91 10000 3.42 10 18:27 05.01.2022
3832 Clouds 0 1016 86 10000 3.32 6 16:59 05.01.2022
3833 Clouds 1 1015 81 10000 3.37 0 16:22 05.01.2022
3834 Clouds 1 1015 76 10000 3.38 357 15:20 05.01.2022
3835 Clouds 3 1015 74 10000 3.55 358 13:37 05.01.2022
3836 Clouds 3 1016 73 10000 3.94 358 12:46 05.01.2022
3837 Snow 0 1015 90 10000 4.82 3 08:47 05.01.2022
3838 Rain 1 1013 90 9662 4.63 1 07:20 05.01.2022
3839 Clouds 4 1011 93 1091 3.17 11 01:58 05.01.2022
3840 Clouds 4 1009 96 87 3.09 5 23:44 04.01.2022
3841 Clouds 4 1009 97 10000 2.33 8 23:26 04.01.2022
3842 Clouds 6 1009 97 10000 0.67 354 22:19 04.01.2022
3843 Clouds 8 1010 98 10000 0.71 348 20:46 04.01.2022
3844 Clouds 8 1010 93 10000 0.61 31 18:44 04.01.2022
3845 Clouds 7 1009 91 10000 0.35 122 17:34 04.01.2022
3846 Clouds 9 1008 86 10000 1.19 206 16:39 04.01.2022
3847 Clouds 12 1008 77 10000 2.13 217 16:20 04.01.2022
3848 Clouds 9 1010 53 10000 2.6 220 14:42 04.01.2022
3849 Clouds 13 1009 73 10000 2.84 224 14:23 04.01.2022
3850 Clouds 12 1011 77 10000 2.75 223 12:37 04.01.2022
3851 Clouds 1 1014 80 10000 1.05 205 10:28 04.01.2022
3852 Clouds -2 1014 80 10000 0.44 60 08:59 04.01.2022
3853 Clouds -2 1015 80 10000 0.36 203 06:46 04.01.2022
3854 Clouds -1 1019 78 10000 0.25 207 00:44 04.01.2022
3855 Clouds 0 1020 79 10000 0.16 71 23:56 03.01.2022
3856 Clouds 0 1020 77 10000 0.45 34 22:30 03.01.2022
3857 Clouds 1 1021 76 10000 0.41 23 21:41 03.01.2022
3858 Clouds 1 1021 76 10000 0.7 28 20:42 03.01.2022
3859 Clouds 3 1021 73 10000 0.72 33 19:43 03.01.2022
3860 Clouds 8 1022 85 10000 0.55 51 18:32 03.01.2022
3861 Clouds 10 1022 85 10000 0.32 55 17:34 03.01.2022
3862 Clouds 11 1021 78 10000 0.88 223 16:56 03.01.2022
3863 Clouds 9 1022 56 10000 0.45 203 14:33 03.01.2022
3864 Clouds 11 1023 68 10000 1.77 218 13:25 03.01.2022
3865 Clouds 6 1025 64 10000 1.54 216 12:22 03.01.2022
3866 Clouds 4 1025 68 10000 1.54 216 11:30 03.01.2022
3867 Clouds 1 1026 76 10000 0.05 329 09:41 03.01.2022
3868 Clouds 1 1026 75 10000 0.26 86 07:55 03.01.2022
3869 Clouds -1 1027 70 10000 0.45 69 04:23 03.01.2022
3870 Clouds 0 1029 65 10000 1.25 15 23:32 02.01.2022
3871 Clouds 1 1029 63 10000 1.07 43 22:56 02.01.2022
3872 Clouds 1 1028 61 10000 1.04 44 22:20 02.01.2022
3873 Clouds 5 1030 55 10000 1.42 44 20:52 02.01.2022
3874 Clouds 2 1028 60 10000 1.59 21 20:30 02.01.2022
3875 Clouds 3 1028 58 10000 1.6 22 19:32 02.01.2022
3876 Clouds 5 1028 59 10000 1.25 41 18:56 02.01.2022
3877 Clouds 8 1028 55 10000 0.75 53 18:23 02.01.2022
3878 Clouds 8 1028 55 10000 0.75 53 17:42 02.01.2022
3879 Clouds 10 1027 54 10000 0.49 187 17:21 02.01.2022
3880 Clouds 12 1027 51 10000 1.16 222 16:28 02.01.2022
3881 Clouds 12 1026 48 10000 1.41 226 15:18 02.01.2022
3882 Clouds 8 1028 48 10000 1.87 212 13:38 02.01.2022
3883 Clouds 6 1029 50 10000 0.35 164 12:32 02.01.2022
3884 Clouds 13 1028 47 10000 0.38 163 11:49 02.01.2022
3885 Clouds 9 1029 47 10000 0.53 24 10:54 02.01.2022
3886 Clouds 0 1030 58 10000 1.15 36 09:58 02.01.2022
3887 Clouds 0 1030 57 10000 1.45 37 07:35 02.01.2022
3888 Clouds 5 1030 40 10000 1.31 37 02:56 02.01.2022
3889 Clouds 5 1030 40 10000 1.42 36 23:45 01.01.2022
3890 Clouds 5 1030 40 10000 1.44 39 23:24 01.01.2022
3891 Clouds 6 1030 41 10000 1.3 35 22:25 01.01.2022
3892 Clouds 6 1030 41 10000 1.3 35 21:46 01.01.2022
3893 Clouds 6 1030 41 10000 1.47 40 21:28 01.01.2022
3894 Clouds 5 1030 43 10000 1.54 35 20:25 01.01.2022
3895 Clouds 5 1030 43 10000 1.54 35 19:36 01.01.2022
3896 Clouds 7 1029 45 10000 1.5 37 18:51 01.01.2022
3897 Clouds 10 1029 48 10000 1.28 44 17:38 01.01.2022
3898 Clouds 12 1028 50 10000 0.14 141 16:34 01.01.2022
3899 Clouds 14 1027 48 10000 1.05 213 15:37 01.01.2022
3900 Clouds 14 1027 44 10000 1.54 221 14:25 01.01.2022
3901 Clouds 13 1027 44 10000 1.54 221 13:41 01.01.2022
3902 Clouds 16 1028 41 10000 0.65 239 12:25 01.01.2022
3903 Clouds 14 1028 40 10000 0.34 356 11:25 01.01.2022
3904 Clouds 13 1028 40 10000 0.34 356 10:56 01.01.2022
3905 Clouds 8 1029 38 10000 1.51 20 09:48 01.01.2022
3906 Clouds -1 1030 59 10000 1.92 22 08:35 01.01.2022
3907 Clouds -1 1030 61 10000 0.45 48 07:56 01.01.2022
3908 Clouds -1 1030 60 10000 1.83 21 07:37 01.01.2022
3909 Clouds -1 1030 60 10000 1.83 21 07:37 01.01.2022
3910 Clear -1 1030 62 10000 0.45 0 06:43 01.01.2022
3911 Clear 0 1031 61 10000 1.34 25 04:39 01.01.2022
3912 Clear 0 1031 60 10000 1.12 29 03:50 01.01.2022
3913 Clear 0 1031 60 10000 0.79 49 23:53 31.12.2021
3914 Clear 1 1031 59 10000 1.02 54 21:56 31.12.2021
3915 Clear 1 1031 59 10000 1.02 54 21:32 31.12.2021
3916 Clear 6 1031 48 10000 1.05 53 19:43 31.12.2021
3917 Clear 10 1030 48 10000 1.26 52 18:47 31.12.2021
3918 Clear 11 1029 49 10000 1.49 50 17:49 31.12.2021
3919 Clear 11 1028 51 10000 0.56 94 17:22 31.12.2021
3920 Clear 12 1028 51 10000 0.56 94 16:51 31.12.2021
3921 Clear 14 1027 50 10000 0.8 176 16:18 31.12.2021
3922 Clear 15 1027 50 10000 0.8 177 15:42 31.12.2021
3923 Clear 15 1026 44 10000 1.18 205 15:20 31.12.2021
3924 Clear 14 1026 44 10000 1.18 205 14:37 31.12.2021
3925 Clear 8 1028 41 10000 0.45 147 13:45 31.12.2021
3926 Clouds 17 1027 42 10000 1.35 184 12:50 31.12.2021
3927 Clouds 16 1027 41 10000 0.97 161 12:19 31.12.2021
3928 Clouds 15 1027 41 10000 0.97 161 11:41 31.12.2021
3929 Clouds 16 1027 45 10000 0.91 80 10:48 31.12.2021
3930 Clouds 10 1028 42 10000 2.04 43 10:25 31.12.2021
3931 Clouds 1 1028 42 10000 2.04 43 09:34 31.12.2021
3932 Clouds 0 1029 57 10000 0.45 54 08:50 31.12.2021
3933 Clouds 1 1028 54 10000 2.69 34 07:49 31.12.2021
3934 Clear 0 1027 58 10000 2.78 24 01:38 31.12.2021
3935 Clouds 0 1027 59 10000 2.26 29 22:54 30.12.2021
3936 Clouds 1 1027 61 10000 2.36 32 22:27 30.12.2021
3937 Clouds 7 1026 30 10000 2.36 32 21:37 30.12.2021
3938 Clouds 6 1026 31 10000 2.37 34 20:58 30.12.2021
3939 Clouds 7 1026 31 10000 2.37 34 20:35 30.12.2021
3940 Clouds 7 1026 35 10000 2.4 32 19:50 30.12.2021
3941 Clouds 7 1026 42 10000 2.05 33 19:24 30.12.2021
3942 Clouds 6 1025 58 10000 1.7 42 18:26 30.12.2021
3943 Clouds 12 1024 52 10000 0.67 71 16:39 30.12.2021
3944 Clouds 13 1023 52 10000 0.6 172 15:53 30.12.2021
3945 Clouds 13 1023 48 10000 0.94 194 14:51 30.12.2021
3946 Clouds 12 1023 48 10000 0.94 194 14:31 30.12.2021
3947 Clouds 11 1023 45 10000 1.09 174 13:24 30.12.2021
3948 Clouds 7 1023 42 10000 0.69 49 11:35 30.12.2021
3949 Clouds 6 1024 37 10000 1.51 39 10:27 30.12.2021
3950 Clouds 0 1025 69 10000 2.04 37 09:27 30.12.2021
3951 Clouds 0 1025 71 10000 2.61 33 06:55 30.12.2021
3952 Clouds 6 1025 59 10000 2.78 28 04:42 30.12.2021
3953 Clouds 8 1026 77 10000 2.79 28 03:40 30.12.2021
3954 Clouds 8 1026 83 10000 3.22 22 01:56 30.12.2021
3955 Clouds 9 1026 84 10000 3.49 18 23:36 29.12.2021
3956 Clouds 7 1025 78 10000 3.3 14 22:32 29.12.2021
3957 Clouds 7 1025 77 10000 3.23 8 21:54 29.12.2021
3958 Clouds 10 1025 81 220 3.43 7 20:56 29.12.2021
3959 Clouds 10 1025 79 296 3.32 11 20:25 29.12.2021
3960 Clouds 11 1025 79 296 3.32 11 19:31 29.12.2021
3961 Clouds 10 1025 97 449 3.29 13 18:30 29.12.2021
3962 Clouds 11 1024 96 540 3.25 13 17:30 29.12.2021
3963 Clouds 10 1023 95 477 3.12 13 16:58 29.12.2021
3964 Clouds 10 1022 87 10000 2.7 9 16:19 29.12.2021
3965 Clouds 11 1022 80 10000 2.95 7 14:47 29.12.2021
3966 Clouds 4 1022 70 10000 3.07 11 12:50 29.12.2021
3967 Clouds 5 1022 73 10000 2.83 7 12:30 29.12.2021
3968 Clouds 10 1023 88 10000 3.44 10 10:53 29.12.2021
3969 Clouds 6 1023 95 10000 3.62 14 08:56 29.12.2021
3970 Clouds 6 1023 91 10000 3.71 15 06:49 29.12.2021
3971 Clouds 6 1023 88 10000 3.86 15 06:28 29.12.2021
3972 Clouds 5 1023 88 10000 3.86 15 05:50 29.12.2021
3973 Clouds 5 1023 93 10000 3.58 13 03:47 29.12.2021
3974 Clouds 2 1020 91 4265 0.45 63 00:28 29.12.2021
3975 Clouds 3 1019 91 4265 3.53 13 23:57 28.12.2021
3976 Clouds 3 1018 89 1988 3.34 13 22:56 28.12.2021
3977 Clouds 5 1019 90 1772 0.45 211 22:24 28.12.2021
3978 Clouds 4 1019 89 1772 0.45 94 21:54 28.12.2021
3979 Clouds 5 1019 94 1785 2.72 4 21:28 28.12.2021
3980 Clouds 9 1018 94 10000 2.41 353 19:52 28.12.2021
3981 Clouds 9 1017 94 10000 2.37 3 18:53 28.12.2021
3982 Clouds 10 1017 94 10000 2.06 2 18:24 28.12.2021
3983 Clouds 10 1016 93 10000 1.09 343 17:25 28.12.2021
3984 Clouds 11 1016 94 10000 1.18 337 15:53 28.12.2021
3985 Clouds 11 1015 92 10000 0.76 351 15:29 28.12.2021
3986 Clouds 10 1015 93 10000 0.76 351 14:54 28.12.2021
3987 Rain 10 1016 93 10000 1.37 334 14:22 28.12.2021
3988 Clouds 10 1016 91 10000 1.36 333 13:54 28.12.2021
3989 Rain 10 1016 92 10000 1.37 334 13:33 28.12.2021
3990 Clouds 10 1016 91 10000 1.22 318 12:55 28.12.2021
3991 Rain 10 1016 91 10000 1.49 334 12:18 28.12.2021
3992 Clouds 8 1015 95 10000 1.93 9 09:30 28.12.2021
3993 Clouds 1 1014 89 10000 2.76 14 07:33 28.12.2021
3994 Clouds 5 1013 90 10000 1.95 28 03:31 28.12.2021
3995 Clouds 1 1013 81 10000 1.81 358 23:37 27.12.2021
3996 Clouds 5 1014 86 10000 0.99 341 22:20 27.12.2021
3997 Clouds 0 1013 76 10000 0.99 341 21:30 27.12.2021
3998 Clouds 6 1013 85 10000 0.59 353 20:27 27.12.2021
3999 Clouds 6 1013 84 10000 0.59 353 19:47 27.12.2021
4000 Clouds 6 1014 93 10000 0.97 342 18:56 27.12.2021
4001 Clouds 8 1013 93 10000 0.48 348 17:50 27.12.2021
4002 Clouds 8 1011 69 10000 0.89 316 17:27 27.12.2021
4003 Clouds 8 1010 84 10000 1.06 322 15:53 27.12.2021
4004 Clouds 8 1009 83 10000 1.49 8 14:35 27.12.2021
4005 Clouds 7 1009 83 2138 1.9 326 13:59 27.12.2021
4006 Clouds 7 1009 80 1846 2.1 344 12:49 27.12.2021
4007 Clouds 5 1007 90 10000 1.15 344 10:37 27.12.2021
4008 Clouds 5 1007 90 968 1.15 350 10:18 27.12.2021
4009 Clouds 4 1007 88 2309 2.5 298 08:41 27.12.2021
4010 Clouds 0 1006 85 2481 0.68 266 07:33 27.12.2021
4011 Clouds 4 1010 89 5401 0.99 290 02:29 27.12.2021
4012 Clouds 5 1011 86 10000 1.02 221 00:29 27.12.2021
4013 Clouds 4 1011 86 10000 1.02 221 23:42 26.12.2021
4014 Clouds 5 1011 87 10000 0.76 182 22:49 26.12.2021
4015 Clouds 5 1011 84 10000 1.44 197 21:33 26.12.2021
4016 Clouds 5 1012 81 10000 1.12 168 19:54 26.12.2021
4017 Clouds 6 1011 78 10000 0.95 170 18:29 26.12.2021
4018 Clouds 6 1011 76 10000 0.95 170 17:51 26.12.2021
4019 Clouds 8 1009 79 10000 0.57 251 15:31 26.12.2021
4020 Clouds 8 1009 72 10000 0.55 259 13:43 26.12.2021
4021 Clouds 8 1009 64 10000 1.98 230 13:21 26.12.2021
4022 Clouds 7 1009 65 10000 1.79 221 12:34 26.12.2021
4023 Clouds 7 1010 75 10000 0.53 339 11:18 26.12.2021
4024 Clouds 1 1010 85 10000 1.13 34 09:30 26.12.2021
4025 Clouds 2 1012 85 10000 1.98 28 08:44 26.12.2021
4026 Clouds 2 1012 86 10000 2.01 28 08:23 26.12.2021
4027 Clouds 2 1010 88 10000 2.28 31 01:36 26.12.2021
4028 Clouds 2 1010 91 10000 1.63 27 00:20 26.12.2021
4029 Clouds 3 1010 92 10000 1.19 22 23:28 25.12.2021
4030 Clouds 5 1009 89 10000 0.62 23 22:29 25.12.2021
4031 Clouds 6 1009 92 10000 0.78 329 21:25 25.12.2021
4032 Clouds 6 1008 90 10000 0.54 251 19:28 25.12.2021
4033 Clouds 6 1008 89 10000 0.21 286 18:57 25.12.2021
4034 Clouds 6 1008 90 10000 0.4 295 18:26 25.12.2021
4035 Clouds 7 1007 86 10000 1.16 243 16:49 25.12.2021
4036 Clouds 8 1006 84 10000 1.14 254 15:30 25.12.2021
4037 Clouds 5 1005 76 10000 2.29 222 13:47 25.12.2021
4038 Clouds 4 1006 79 10000 1.81 227 12:19 25.12.2021
4039 Clouds 4 1008 90 10000 1.41 234 10:36 25.12.2021
4040 Clouds 1 1007 87 10000 0.94 257 09:48 25.12.2021
4041 Clouds 0 1007 88 10000 1.33 256 07:21 25.12.2021
4042 Clouds 6 1008 89 545 1.2 215 01:33 25.12.2021
4043 Clouds 6 1009 86 586 1.18 220 00:18 25.12.2021
4044 Rain 6 1010 85 10000 1.29 218 21:46 24.12.2021
4045 Clouds 3 1009 81 3291 1.14 210 19:26 24.12.2021
4046 Clouds 4 1009 79 2682 1.05 213 18:34 24.12.2021
4047 Clouds 9 1011 76 10000 1.9 221 16:40 24.12.2021
4048 Clouds 8 1010 94 986 2.3 215 15:49 24.12.2021
4049 Clouds 9 1011 72 824 2.5 211 15:20 24.12.2021
4050 Clouds 9 1011 73 803 2.5 211 14:31 24.12.2021
4051 Clouds 8 1011 71 1266 2.66 218 13:45 24.12.2021
4052 Clouds 8 1012 77 804 2.95 219 12:55 24.12.2021
4053 Clouds 7 1012 78 762 3.12 216 12:35 24.12.2021
4054 Clouds 6 1013 83 406 2.45 217 11:42 24.12.2021
4055 Clouds 3 1014 80 424 2.33 212 11:19 24.12.2021
4056 Clouds 2 1015 83 424 2.33 212 10:33 24.12.2021
4057 Clouds 1 1015 85 780 0.97 206 08:40 24.12.2021
4058 Clouds 0 1014 86 1066 0.59 194 07:58 24.12.2021
4059 Clouds 0 1015 85 4150 0.41 260 06:44 24.12.2021
4060 Clouds 1 1017 86 3197 0.9 207 00:21 24.12.2021
4061 Clouds 1 1017 86 3197 0.45 0 23:39 23.12.2021
4062 Clouds 4 1019 88 3225 0.79 201 22:50 23.12.2021
4063 Clouds 1 1018 84 2462 1.22 225 22:22 23.12.2021
4064 Clouds 5 1019 87 2462 1.22 225 21:39 23.12.2021
4065 Clouds 5 1019 86 8261 0.89 222 20:27 23.12.2021
4066 Clouds 3 1018 82 9654 1.18 227 19:28 23.12.2021
4067 Clouds 7 1019 83 10000 0.49 231 18:18 23.12.2021
4068 Clouds 8 1018 80 2851 0.49 226 17:29 23.12.2021
4069 Clouds 10 1018 71 2222 0.58 214 16:26 23.12.2021
4070 Clouds 10 1018 67 2222 0.58 214 15:33 23.12.2021
4071 Clouds 10 1018 67 308 0.84 224 14:59 23.12.2021
4072 Clouds 10 1018 67 308 0.84 224 14:39 23.12.2021
4073 Clouds 6 1018 68 238 1.96 220 13:25 23.12.2021
4074 Clouds 3 1020 79 463 1.63 215 11:27 23.12.2021
4075 Clouds -1 1020 86 1704 1.26 219 09:53 23.12.2021
4076 Clouds -1 1020 85 1704 1.26 219 09:33 23.12.2021
4077 Clouds -1 1020 88 1872 0.86 211 08:28 23.12.2021
4078 Clouds -1 1020 85 3849 0.34 200 05:30 23.12.2021
4079 Clear 0 1021 81 10000 0.45 71 00:40 23.12.2021
4080 Clear -2 1021 79 10000 1.16 38 22:50 22.12.2021
4081 Clear -2 1021 79 10000 1.28 35 21:59 22.12.2021
4082 Clear -2 1021 79 10000 1.28 35 21:30 22.12.2021
4083 Clear -1 1021 77 10000 1.25 36 20:59 22.12.2021
4084 Clear 3 1024 82 10000 1.33 37 20:40 22.12.2021
4085 Clear 3 1024 82 10000 1.3 36 19:50 22.12.2021
4086 Clouds 5 1022 92 10000 1.15 24 18:25 22.12.2021
4087 Clouds 6 1022 92 10000 1.13 23 17:38 22.12.2021
4088 Clouds 9 1019 92 139 0.61 7 15:56 22.12.2021
4089 Clouds 11 1018 51 59 0.49 280 14:23 22.12.2021
4090 Clear 10 1018 53 220 0.66 242 12:53 22.12.2021
4091 Clear 9 1019 57 3600 0.46 320 11:39 22.12.2021
4092 Clear -3 1020 78 10000 1.31 24 09:52 22.12.2021
4093 Clear -2 1019 74 10000 2.11 30 07:56 22.12.2021
4094 Clouds -1 1019 71 10000 2.32 32 05:51 22.12.2021
4095 Clouds -1 1019 70 10000 2.32 32 05:33 22.12.2021
4096 Clouds -1 1019 71 10000 2.2 33 04:55 22.12.2021
4097 Clouds -1 1019 72 10000 2.2 33 04:35 22.12.2021
4098 Clouds -1 1019 71 10000 2.01 30 03:34 22.12.2021
4099 Clouds 0 1019 68 10000 0.45 69 02:25 22.12.2021
4100 Clouds 0 1019 66 10000 2.05 37 23:47 21.12.2021
4101 Clouds 2 1023 84 10000 2.1 33 22:29 21.12.2021
4102 Clouds 4 1023 56 10000 2.1 33 21:53 21.12.2021
4103 Clouds 2 1023 84 10000 2.1 33 21:31 21.12.2021
4104 Clouds 0 1019 61 10000 2.02 29 20:24 21.12.2021
4105 Clouds 0 1019 61 10000 2.02 29 19:52 21.12.2021
4106 Clouds 5 1023 50 10000 2.02 29 19:31 21.12.2021
4107 Clouds 2 1018 56 10000 1.87 26 18:23 21.12.2021
4108 Clouds 6 1021 47 10000 1.87 26 17:52 21.12.2021
4109 Clouds 8 1020 46 8741 1.76 23 16:47 21.12.2021
4110 Clouds 9 1019 95 147 1.48 17 15:33 21.12.2021
4111 Clouds 10 1017 35 172 1 8 13:51 21.12.2021
4112 Clouds 10 1017 33 172 1 8 13:32 21.12.2021
4113 Clouds 9 1018 38 3435 1.19 18 12:20 21.12.2021
4114 Clouds 7 1019 87 10000 1.81 24 10:37 21.12.2021
4115 Clouds 4 1020 43 10000 2.34 27 09:35 21.12.2021
4116 Clouds -3 1019 59 10000 0.45 63 08:30 21.12.2021
4117 Clouds -3 1019 56 10000 3.2 27 07:32 21.12.2021
4118 Clouds -3 1019 55 10000 0.45 92 06:54 21.12.2021
4119 Clouds -2 1019 55 10000 2.74 26 03:22 21.12.2021
4120 Clouds -5 1019 63 10000 2.96 27 01:18 21.12.2021
4121 Clouds -4 1019 61 10000 2.91 26 23:34 20.12.2021
4122 Clouds -4 1019 64 10000 0.45 0 22:34 20.12.2021
4123 Clouds -4 1019 65 10000 2.98 20 21:48 20.12.2021
4124 Clouds -3 1019 65 10000 2.82 29 21:24 20.12.2021
4125 Clouds -3 1019 65 10000 2.82 29 20:48 20.12.2021
4126 Clouds 0 1023 69 10000 3.23 28 19:55 20.12.2021
4127 Clouds 1 1023 69 10000 3.23 28 19:32 20.12.2021
4128 Clouds 1 1023 69 10000 3.2 23 18:55 20.12.2021
4129 Clear 4 1023 72 10000 3.37 24 17:56 20.12.2021
4130 Clear 4 1023 72 10000 3.37 24 17:37 20.12.2021
4131 Clear 6 1021 76 10000 2.93 21 16:43 20.12.2021
4132 Clear 7 1019 82 10000 2.16 9 15:52 20.12.2021
4133 Clear 10 1018 37 10000 1.65 355 14:56 20.12.2021
4134 Clear 8 1018 42 10000 1.69 13 13:18 20.12.2021
4135 Clear 8 1020 47 10000 2.05 14 11:23 20.12.2021
4136 Clear -3 1020 65 10000 0.45 0 09:51 20.12.2021
4137 Clear -4 1020 65 10000 2.52 20 09:31 20.12.2021
4138 Clear -4 1020 65 10000 3.05 23 08:42 20.12.2021
4139 Clear -3 1020 65 10000 3.06 24 07:55 20.12.2021
4140 Clear -3 1020 65 10000 3.06 24 07:30 20.12.2021
4141 Clear -3 1020 62 10000 2.9 22 04:36 20.12.2021
4142 Clear -4 1022 65 10000 2.15 23 23:59 19.12.2021
4143 Clear -4 1022 64 10000 2.19 26 22:52 19.12.2021
4144 Clear -4 1022 65 10000 0.45 62 21:50 19.12.2021
4145 Clear -1 1027 65 10000 2.21 27 21:30 19.12.2021
4146 Clear 0 1027 64 10000 2.28 29 20:32 19.12.2021
4147 Clear 0 1028 64 10000 2.3 30 19:51 19.12.2021
4148 Clouds 1 1028 63 10000 2.48 29 19:27 19.12.2021
4149 Clouds 2 1028 66 10000 2.55 29 18:29 19.12.2021
4150 Clouds 4 1028 66 10000 2.55 29 17:53 19.12.2021
4151 Clouds 5 1026 74 10000 1.8 25 17:19 19.12.2021
4152 Clouds 8 1024 34 10000 0.71 18 16:26 19.12.2021
4153 Clouds 8 1024 34 10000 0.71 18 16:26 19.12.2021
4154 Clouds 8 1024 81 10000 0.8 18 15:42 19.12.2021
4155 Clouds 9 1023 34 3687 0.68 5 15:20 19.12.2021
4156 Clouds 9 1023 36 3687 0.68 5 14:41 19.12.2021
4157 Clear 8 1025 37 2065 0.48 343 13:22 19.12.2021
4158 Clear 7 1025 39 2065 0.48 343 12:36 19.12.2021
4159 Clear 6 1026 42 6846 0.51 355 12:18 19.12.2021
4160 Clear 3 1027 46 10000 0.67 18 11:18 19.12.2021
4161 Clear -3 1027 62 10000 0.45 94 10:25 19.12.2021
4162 Clear -4 1026 61 10000 1.4 26 09:37 19.12.2021
4163 Clear -4 1027 64 10000 2.38 30 07:50 19.12.2021
4164 Clear 1 1033 69 10000 2.13 29 04:45 19.12.2021
4165 Clear 1 1035 70 10000 1.83 37 01:19 19.12.2021
4166 Clear -5 1030 72 10000 1.83 37 00:52 19.12.2021
4167 Clear 0 1035 73 10000 1.83 42 22:36 18.12.2021
4168 Clear 0 1035 75 10000 1.84 44 21:54 18.12.2021
4169 Clear 0 1035 75 10000 1.84 44 21:35 18.12.2021
4170 Clear 1 1034 79 10000 2 42 20:44 18.12.2021
4171 Clear 2 1034 83 10000 1.93 40 19:54 18.12.2021
4172 Clouds 2 1034 83 10000 1.83 43 19:20 18.12.2021
4173 Clouds 4 1033 81 10000 1.56 55 18:20 18.12.2021
4174 Clouds 5 1033 81 10000 1.56 55 17:47 18.12.2021
4175 Clouds 9 1029 84 10000 0.84 104 16:25 18.12.2021
4176 Clouds 9 1029 85 7663 0.95 96 15:26 18.12.2021
4177 Clouds 8 1029 85 7663 0.95 96 14:32 18.12.2021
4178 Clouds 8 1029 49 702 1 85 13:18 18.12.2021
4179 Clear 6 1029 55 10000 0.85 82 11:21 18.12.2021
4180 Clear -2 1030 78 10000 1.73 54 09:37 18.12.2021
4181 Clear -3 1028 71 10000 2.47 39 08:43 18.12.2021
4182 Clear -3 1028 73 10000 2.85 38 08:19 18.12.2021
4183 Clear -4 1028 75 10000 1.94 33 01:48 18.12.2021
4184 Clear -1 1029 69 10000 1.82 37 00:27 18.12.2021
4185 Clear -3 1029 74 10000 1.82 37 23:37 17.12.2021
4186 Clear 2 1033 80 10000 1.88 41 21:55 17.12.2021
4187 Clear 1 1033 81 10000 1.79 43 20:51 17.12.2021
4188 Clear 2 1033 82 10000 1.9 42 20:28 17.12.2021
4189 Clouds 3 1032 81 10000 1.93 45 18:58 17.12.2021
4190 Clouds 4 1032 80 10000 1.99 45 18:38 17.12.2021
4191 Clouds 7 1030 81 10000 1.17 78 17:26 17.12.2021
4192 Clouds 9 1029 85 10000 0.72 102 16:29 17.12.2021
4193 Clouds 9 1029 85 10000 0.72 102 15:51 17.12.2021
4194 Clouds 10 1028 87 3430 0.54 115 15:19 17.12.2021
4195 Clouds 8 1028 87 3430 0.54 115 14:34 17.12.2021
4196 Clouds 8 1029 46 769 0.77 129 12:45 17.12.2021
4197 Clear 3 1030 58 10000 1 121 11:18 17.12.2021
4198 Clear -2 1030 66 10000 1.18 80 09:52 17.12.2021
4199 Clear -4 1029 74 10000 1.74 50 08:58 17.12.2021
4200 Clear 0 1034 71 10000 1.91 45 08:19 17.12.2021
4201 Clear 0 1033 65 10000 1.94 36 05:21 17.12.2021
4202 Clear -2 1029 70 10000 2.53 37 02:51 17.12.2021
4203 Clear -2 1029 70 10000 2.92 32 22:50 16.12.2021
4204 Clear -2 1029 69 10000 2.97 32 22:22 16.12.2021
4205 Clear 1 1032 68 10000 2.97 32 21:44 16.12.2021
4206 Clear 2 1032 68 10000 3.07 31 20:48 16.12.2021
4207 Clear 2 1032 68 10000 2.98 30 20:21 16.12.2021
4208 Clear 3 1032 68 10000 2.98 30 19:30 16.12.2021
4209 Clouds 4 1031 67 10000 2.91 28 18:33 16.12.2021
4210 Clouds 7 1031 68 10000 2.95 27 17:46 16.12.2021
4211 Clouds 10 1028 81 10000 1.74 31 16:24 16.12.2021
4212 Clouds 11 1028 81 10000 1.74 31 15:50 16.12.2021
4213 Clouds 9 1029 85 784 1.57 31 13:46 16.12.2021
4214 Clouds 4 1029 48 2643 1.42 45 12:26 16.12.2021
4215 Clouds 1 1029 54 10000 1.82 41 11:19 16.12.2021
4216 Clouds 3 1030 52 10000 1.82 41 10:39 16.12.2021
4217 Clouds -1 1030 64 10000 2.16 37 09:43 16.12.2021
4218 Clouds 2 1032 68 10000 2.37 26 06:23 16.12.2021
4219 Clouds -4 1028 70 10000 2.25 27 04:33 16.12.2021
4220 Clear -2 1029 67 10000 2.39 32 23:47 15.12.2021
4221 Clear 2 1032 69 10000 2.54 31 22:49 15.12.2021
4222 Clear 2 1032 72 10000 2.74 32 22:21 15.12.2021
4223 Clear 2 1032 72 10000 2.74 32 21:31 15.12.2021
4224 Clear 3 1032 74 10000 2.89 31 20:41 15.12.2021
4225 Clear 4 1032 76 10000 3.07 32 19:53 15.12.2021
4226 Clouds 5 1031 74 10000 3.18 28 18:50 15.12.2021
4227 Clouds 5 1030 75 10000 3.37 27 18:18 15.12.2021
4228 Clouds 7 1030 75 10000 3.37 27 17:43 15.12.2021
4229 Clouds 10 1029 77 10000 3.27 25 16:59 15.12.2021
4230 Clouds 11 1027 81 10000 3.07 23 15:47 15.12.2021
4231 Clouds 14 1027 86 8310 3.09 19 15:29 15.12.2021
4232 Clouds 13 1027 86 7929 2.92 22 14:44 15.12.2021
4233 Clouds 10 1028 86 7431 3.02 21 13:27 15.12.2021
4234 Clouds 1 1027 56 10000 3.07 21 11:40 15.12.2021
4235 Clouds 1 1027 58 10000 3.32 23 09:38 15.12.2021
4236 Clouds -1 1027 64 10000 3.73 23 07:52 15.12.2021
4237 Clear -2 1027 60 10000 3.73 25 03:58 15.12.2021
4238 Clear -1 1028 57 10000 3.8 26 23:47 14.12.2021
4239 Clear -1 1028 59 10000 3.79 24 22:52 14.12.2021
4240 Clear -1 1028 59 10000 3.79 24 22:34 14.12.2021
4241 Clouds -1 1028 60 10000 0.89 71 21:25 14.12.2021
4242 Clouds 3 1031 70 10000 3.93 24 20:18 14.12.2021
4243 Clear 4 1031 69 10000 3.93 25 19:21 14.12.2021
4244 Clear 5 1030 69 10000 3.88 26 18:38 14.12.2021
4245 Clear 6 1030 68 10000 3.86 25 17:50 14.12.2021
4246 Clear 9 1028 70 10000 3.65 24 16:43 14.12.2021
4247 Clear 11 1027 77 10000 3.34 25 15:52 14.12.2021
4248 Clear 8 1027 83 9057 3.02 24 13:33 14.12.2021
4249 Clear 4 1027 43 9059 2.87 25 12:41 14.12.2021
4250 Clear 1 1028 48 10000 2.98 28 11:24 14.12.2021
4251 Clear 9 1029 37 10000 3.37 28 10:27 14.12.2021
4252 Clear 1 1028 49 10000 3.37 28 09:53 14.12.2021
4253 Clear -2 1028 61 10000 3.91 28 08:29 14.12.2021
4254 Clear -2 1027 63 10000 3.91 28 07:59 14.12.2021
4255 Clear -2 1027 66 10000 3.73 28 05:52 14.12.2021
4256 Clear 4 1029 58 10000 3.08 30 23:39 13.12.2021
4257 Clear 5 1029 58 10000 3.01 31 21:54 13.12.2021
4258 Clear 5 1029 58 10000 3.01 31 21:34 13.12.2021
4259 Clear 5 1029 58 10000 3.03 33 20:50 13.12.2021
4260 Clear 3 1029 58 10000 3.05 33 19:59 13.12.2021
4261 Clear 3 1028 59 10000 3.14 33 19:20 13.12.2021
4262 Clouds 7 1026 65 10000 2.9 29 17:26 13.12.2021
4263 Clouds 9 1025 75 10000 2.46 29 16:20 13.12.2021
4264 Clouds 10 1025 75 10000 2.49 29 15:38 13.12.2021
4265 Clouds 8 1025 86 7444 1.65 29 13:49 13.12.2021
4266 Clouds 3 1025 52 2851 1.51 29 13:18 13.12.2021
4267 Clouds 1 1026 58 7911 1.39 30 12:22 13.12.2021
4268 Clouds 0 1026 65 7911 1.39 30 11:36 13.12.2021
4269 Clouds 1 1027 63 10000 1.41 34 10:53 13.12.2021
4270 Clouds -1 1027 66 10000 1.64 36 10:21 13.12.2021
4271 Clouds -4 1026 74 10000 2.5 36 08:28 13.12.2021
4272 Clouds -4 1026 78 10000 2.87 34 05:37 13.12.2021
4273 Clouds 2 1028 61 10000 2.82 31 03:31 13.12.2021
4274 Clouds 3 1029 78 10000 2.15 26 23:27 12.12.2021
4275 Clouds 4 1029 80 10000 2.08 27 21:52 12.12.2021
4276 Clouds 4 1029 81 10000 2.04 29 20:45 12.12.2021
4277 Clouds 0 1027 84 10000 2.04 36 19:30 12.12.2021
4278 Clouds 7 1027 84 10000 2.36 37 17:46 12.12.2021
4279 Clouds 10 1026 94 814 2.3 35 16:28 12.12.2021
4280 Clouds 11 1026 94 814 2.3 35 15:51 12.12.2021
4281 Clouds 12 1025 93 65 2.54 32 15:26 12.12.2021
4282 Clouds 11 1025 93 65 2.54 32 14:37 12.12.2021
4283 Clouds 10 1025 92 41 2.59 28 13:34 12.12.2021
4284 Clouds 9 1025 94 43 2.6 28 12:32 12.12.2021
4285 Clouds 7 1026 94 149 2.73 24 11:44 12.12.2021
4286 Clouds 6 1026 95 7158 3.11 26 11:25 12.12.2021
4287 Clouds 2 1026 74 7158 3.11 26 10:32 12.12.2021
4288 Clouds 2 1025 75 10000 3.48 22 09:39 12.12.2021
4289 Clouds 1 1025 79 10000 4.06 21 08:34 12.12.2021
4290 Clouds 2 1028 95 10000 4.03 15 06:34 12.12.2021
4291 Clouds 3 1027 95 10000 4.08 10 05:22 12.12.2021
4292 Clouds 3 1027 95 10000 4.44 12 03:57 12.12.2021
4293 Clouds 2 1025 98 85 3.83 3 23:48 11.12.2021
4294 Rain 1 1025 96 1437 4.08 3 22:24 11.12.2021
4295 Clouds 2 1025 96 1437 4.08 3 21:52 11.12.2021
4296 Clouds 2 1025 95 2444 4.15 4 21:18 11.12.2021
4297 Clouds 2 1025 95 3098 4.34 6 19:37 11.12.2021
4298 Clouds 2 1024 94 7449 4.57 5 18:53 11.12.2021
4299 Clouds 2 1023 95 1484 4.23 6 18:26 11.12.2021
4300 Clouds 6 1022 95 2178 4.32 3 17:24 11.12.2021
4301 Clouds 7 1021 94 8155 4.46 2 15:55 11.12.2021
4302 Clouds 7 1021 94 8155 4.46 2 15:30 11.12.2021
4303 Clouds 7 1020 71 10000 5.28 360 12:59 11.12.2021
4304 Clouds 4 1020 77 4360 5.04 353 11:26 11.12.2021
4305 Clouds 3 1019 93 5429 5.41 354 09:47 11.12.2021
4306 Snow 1 1018 92 7995 6.06 358 08:28 11.12.2021
4307 Snow 0 1014 96 264 4.46 345 02:29 11.12.2021
4308 Snow -4 1012 90 295 3.63 347 00:40 11.12.2021
4309 Rain 1 1013 97 186 3.27 346 23:23 10.12.2021
4310 Clouds 2 1012 98 139 2.69 342 21:57 10.12.2021
4311 Rain 2 1012 98 139 2.69 342 21:31 10.12.2021
4312 Snow 2 1010 97 144 3.11 331 19:22 10.12.2021
4313 Clouds 2 1010 97 185 3.3 330 18:21 10.12.2021
4314 Rain 4 1009 97 201 2.93 326 16:56 10.12.2021
4315 Rain 5 1009 97 256 2.68 332 16:29 10.12.2021
4316 Clouds 5 1009 97 256 2.68 332 15:41 10.12.2021
4317 Clouds 6 1008 94 733 3.46 315 15:21 10.12.2021
4318 Rain 7 1007 92 6889 3.92 308 13:52 10.12.2021
4319 Clouds 6 1008 92 4930 4.12 305 13:26 10.12.2021
4320 Clouds 6 1008 95 831 3.46 306 12:45 10.12.2021
4321 Rain 3 1009 93 3315 4.32 308 11:29 10.12.2021
4322 Rain 2 1009 93 3315 4.32 308 10:37 10.12.2021
4323 Clouds 3 1008 92 4485 4.93 306 08:58 10.12.2021
4324 Clouds 2 1005 100 98 1.74 202 06:56 10.12.2021
4325 Clouds 3 1008 99 2035 1.69 340 02:48 10.12.2021
4326 Snow -5 1009 95 371 1.75 277 00:38 10.12.2021
4327 Snow 0 1012 99 234 0.93 335 23:23 09.12.2021
4328 Snow 0 1012 98 199 1.23 337 22:28 09.12.2021
4329 Clouds 0 1012 98 199 1.23 337 21:59 09.12.2021
4330 Snow 0 1013 98 242 1.5 346 21:18 09.12.2021
4331 Snow 0 1013 98 147 1.52 321 20:22 09.12.2021
4332 Snow 0 1014 97 213 1.57 4 19:21 09.12.2021
4333 Snow 0 1014 97 197 1.65 351 18:48 09.12.2021
4334 Snow -1 1014 97 285 1.62 350 17:56 09.12.2021
4335 Snow 0 1014 96 477 1.29 323 17:26 09.12.2021
4336 Snow 0 1014 96 477 1.29 323 16:55 09.12.2021
4337 Snow 1 1014 94 440 1.26 321 15:46 09.12.2021
4338 Rain 2 1014 90 811 1.01 311 14:48 09.12.2021
4339 Clouds 3 1015 88 1929 2.39 305 13:23 09.12.2021
4340 Clouds 2 1015 88 1929 2.39 305 12:40 09.12.2021
4341 Rain 2 1015 88 3491 1.88 323 11:24 09.12.2021
4342 Snow -2 1016 92 1174 1.86 309 09:44 09.12.2021
4343 Snow -2 1015 97 197 1.76 320 06:50 09.12.2021
4344 Snow -2 1014 97 328 1.92 322 03:41 09.12.2021
4345 Snow -2 1014 96 359 2.02 344 23:44 08.12.2021
4346 Snow -2 1014 96 221 2.42 343 23:21 08.12.2021
4347 Snow -2 1014 96 220 2.41 343 22:48 08.12.2021
4348 Snow -1 1015 94 4471 2.76 17 21:42 08.12.2021
4349 Snow -1 1013 94 10000 2.97 10 21:24 08.12.2021
4350 Snow 0 1012 94 3706 2.75 6 19:58 08.12.2021
4351 Snow 0 1012 94 3706 2.75 6 19:34 08.12.2021
4352 Clouds 0 1012 94 10000 3.14 9 18:45 08.12.2021
4353 Clouds 0 1010 95 10000 2.64 10 17:36 08.12.2021
4354 Clouds 0 1010 95 10000 2.64 10 17:36 08.12.2021
4355 Clouds 4 1006 89 10000 1.66 332 15:51 08.12.2021
4356 Clouds 5 1005 83 10000 1.97 328 15:28 08.12.2021
4357 Clouds 4 1005 83 10000 1.97 328 14:30 08.12.2021
4358 Clouds 3 1005 96 114 0.93 101 10:55 08.12.2021
4359 Rain 2 1005 96 114 0.93 101 10:31 08.12.2021
4360 Rain 2 1005 96 114 0.93 101 10:31 08.12.2021
4361 Rain 1 1006 98 196 0.71 90 08:55 08.12.2021
4362 Rain 2 1005 98 2629 1.15 312 07:25 08.12.2021
4363 Rain 0 1004 93 44 2.96 191 02:30 08.12.2021
4364 Snow 0 1007 87 55 1.81 199 23:33 07.12.2021
4365 Clouds 0 1008 81 395 2.46 209 21:40 07.12.2021
4366 Clouds 0 1009 79 421 0.45 0 21:18 07.12.2021
4367 Clouds 0 1009 79 411 0.45 40 20:19 07.12.2021
4368 Clouds 1 1010 74 797 1.45 224 18:42 07.12.2021
4369 Clouds 6 1013 98 1882 1.88 237 17:29 07.12.2021
4370 Clouds 6 1013 98 1882 1.88 237 16:58 07.12.2021
4371 Clouds 5 1014 94 10000 1.08 238 16:28 07.12.2021
4372 Clouds 6 1014 92 6760 2.66 230 14:57 07.12.2021
4373 Clouds 6 1015 90 7681 2.2 226 13:49 07.12.2021
4374 Clouds 1 1015 68 10000 2.7 214 12:47 07.12.2021
4375 Clouds 0 1017 67 10000 1.02 162 11:25 07.12.2021
4376 Clear -3 1018 74 10000 0.45 0 09:55 07.12.2021
4377 Clouds -4 1018 73 10000 2.6 30 07:55 07.12.2021
4378 Clouds 0 1024 76 10000 3.37 18 05:55 07.12.2021
4379 Clouds 0 1024 76 10000 3.37 18 05:30 07.12.2021
4380 Clouds 0 1022 93 10000 4.36 2 23:45 06.12.2021
4381 Clouds -1 1017 80 10000 4.16 358 22:44 06.12.2021
4382 Clouds 1 1017 78 10000 0.45 143 22:18 06.12.2021
4383 Clouds 1 1016 80 10000 0.45 32 21:37 06.12.2021
4384 Rain 1 1016 79 10000 0.45 102 20:33 06.12.2021
4385 Rain 1 1016 74 10000 3.86 347 19:27 06.12.2021
4386 Rain 2 1016 72 10000 0.45 0 18:57 06.12.2021
4387 Clouds 3 1020 95 10000 4.36 3 17:55 06.12.2021
4388 Clouds 6 1020 95 10000 4.36 3 17:34 06.12.2021
4389 Clouds 7 1020 79 10000 4.42 4 16:21 06.12.2021
4390 Clouds 8 1020 79 10000 4.52 0 14:51 06.12.2021
4391 Clouds 7 1020 40 10000 4.6 357 13:36 06.12.2021
4392 Clouds 5 1020 57 10000 4.47 359 12:39 06.12.2021
4393 Clouds 2 1021 64 10000 4.35 347 10:31 06.12.2021
4394 Snow 0 1020 89 10000 5.99 349 07:59 06.12.2021
4395 Snow 1 1017 96 203 3.47 319 03:52 06.12.2021
4396 Snow -1 1017 92 387 3.07 327 22:28 05.12.2021
4397 Snow -1 1017 92 195 2.5 332 21:26 05.12.2021
4398 Snow -1 1017 92 195 2.5 332 20:58 05.12.2021
4399 Snow -1 1017 92 226 1.98 317 20:18 05.12.2021
4400 Snow -1 1016 91 198 1.78 328 19:26 05.12.2021
4401 Snow -1 1016 82 318 1.91 339 18:37 05.12.2021
4402 Snow 0 1015 87 313 2.49 333 17:53 05.12.2021
4403 Snow 0 1015 87 313 2.49 333 17:34 05.12.2021
4404 Snow 0 1014 87 471 2.72 341 16:38 05.12.2021
4405 Snow 1 1013 87 651 3.47 336 16:19 05.12.2021
4406 Snow 2 1012 91 1635 3.56 339 14:48 05.12.2021
4407 Rain 2 1012 90 1635 3.56 339 14:30 05.12.2021
4408 Rain 2 1010 93 163 3.15 320 13:36 05.12.2021
4409 Rain 1 1010 85 1308 3.25 325 12:47 05.12.2021
4410 Snow 1 1011 93 1631 2.38 283 12:27 05.12.2021
4411 Snow 1 1011 93 1631 2.38 283 11:46 05.12.2021
4412 Snow 0 1011 90 214 2.21 346 10:43 05.12.2021
4413 Snow 0 1011 93 800 1.34 283 09:47 05.12.2021
4414 Snow -1 1013 96 800 1.46 6 06:31 05.12.2021
4415 Clouds 0 1018 89 10000 2.18 341 01:38 05.12.2021
4416 Clouds 1 1020 92 10000 3.25 10 23:22 04.12.2021
4417 Clouds 2 1019 94 10000 3.76 8 21:51 04.12.2021
4418 Clouds 3 1017 81 10000 3.98 3 20:47 04.12.2021
4419 Clouds 3 1017 95 3406 3.62 360 19:54 04.12.2021
4420 Clouds 4 1017 95 3406 3.62 360 19:30 04.12.2021
4421 Clouds 6 1015 97 10000 2.43 1 17:53 04.12.2021
4422 Clouds 6 1015 97 10000 2.43 1 17:35 04.12.2021
4423 Clouds 7 1015 97 444 3.16 356 16:47 04.12.2021
4424 Clouds 7 1014 96 10000 2.79 357 16:28 04.12.2021
4425 Clouds 7 1013 76 118 2.13 353 13:30 04.12.2021
4426 Clouds 5 1014 85 44 1.88 334 11:41 04.12.2021
4427 Clouds 4 1014 86 849 1.39 308 11:19 04.12.2021
4428 Clouds 2 1015 94 7158 1.36 352 09:57 04.12.2021
4429 Clouds 0 1017 96 10000 1.6 1 08:38 04.12.2021
4430 Clouds -2 1016 88 10000 2.21 31 05:18 04.12.2021
4431 Clouds 1 1019 95 10000 2.21 31 04:39 04.12.2021
4432 Clouds -1 1018 80 10000 2.51 22 23:48 03.12.2021
4433 Clouds 4 1022 94 10000 2.66 20 22:54 03.12.2021
4434 Clouds 3 1022 94 10000 2.93 21 21:58 03.12.2021
4435 Clouds 2 1022 95 10000 3.03 15 21:24 03.12.2021
4436 Clouds 2 1022 95 10000 3.03 15 20:42 03.12.2021
4437 Clouds 2 1022 96 9680 2.81 1 19:28 03.12.2021
4438 Clouds 2 1021 95 10000 3.25 6 18:24 03.12.2021
4439 Clouds 2 1021 95 10000 3.25 6 17:31 03.12.2021
4440 Clear 7 1018 74 10000 3.93 7 13:40 03.12.2021
4441 Clouds 6 1018 71 10000 4.58 3 12:44 03.12.2021
4442 Clouds 4 1020 68 10000 5.03 6 11:23 03.12.2021
4443 Clear -2 1023 70 10000 5.5 10 09:25 03.12.2021
4444 Clear -2 1023 78 10000 5.91 11 08:20 03.12.2021
4445 Clouds -2 1022 85 10000 5.85 7 06:44 03.12.2021
4446 Snow -1 1014 91 6719 6.94 348 00:50 03.12.2021
4447 Snow -2 1014 91 1117 6.01 344 00:21 03.12.2021
4448 Snow -2 1014 90 1122 6.02 344 23:38 02.12.2021
4449 Snow -2 1016 87 1724 3.61 344 21:41 02.12.2021
4450 Snow -1 1017 75 264 3.14 330 20:46 02.12.2021
4451 Snow -1 1017 70 210 2.46 348 20:26 02.12.2021
4452 Snow 0 1017 95 245 3.24 1 19:23 02.12.2021
4453 Rain 2 1011 77 581 3.87 343 17:21 02.12.2021
4454 Rain 4 1010 61 10000 3.51 338 15:41 02.12.2021
4455 Clouds 4 1010 61 10000 3.51 338 15:41 02.12.2021
4456 Clouds 4 1009 57 8538 3.52 336 14:57 02.12.2021
4457 Clouds 5 1009 81 10000 3.23 337 13:44 02.12.2021
4458 Clouds 4 1010 79 10000 2.78 338 12:50 02.12.2021
4459 Clouds 4 1010 57 10000 3.26 344 11:52 02.12.2021
4460 Snow -1 1010 88 10000 2.87 2 09:27 02.12.2021
4461 Snow 0 1010 95 1625 3.19 0 08:19 02.12.2021
4462 Clouds 1 1011 91 10000 2.69 20 01:38 02.12.2021
4463 Clouds 1 1012 92 10000 2.54 20 00:50 02.12.2021
4464 Clouds 2 1013 95 10000 2.57 18 22:33 01.12.2021
4465 Clouds 2 1012 95 10000 2.24 15 21:54 01.12.2021
4466 Clouds 4 1013 74 2653 2.05 21 20:24 01.12.2021
4467 Rain 4 1013 73 2653 2.05 21 19:47 01.12.2021
4468 Rain 4 1012 68 523 2.07 354 18:55 01.12.2021
4469 Snow 2 1010 66 62 0.45 0 17:32 01.12.2021
4470 Rain 5 1011 65 46 0.76 324 16:36 01.12.2021
4471 Clouds 6 1011 86 10000 0.69 324 14:39 01.12.2021
4472 Clouds 6 1012 83 10000 1.19 296 13:37 01.12.2021
4473 Clouds 4 1015 67 10000 0.2 29 11:26 01.12.2021
4474 Clouds 4 1015 68 10000 0.2 29 10:40 01.12.2021
4475 Clouds -6 1017 76 10000 2.46 25 08:53 01.12.2021
4476 Clouds -1 1021 84 10000 2.78 19 08:26 01.12.2021
4477 Clouds -1 1021 84 10000 2.78 19 07:31 01.12.2021
4478 Clouds -5 1020 76 10000 2.5 20 03:59 01.12.2021
4479 Clouds -6 1020 75 10000 2.51 21 03:28 01.12.2021
4480 Clouds -5 1022 76 10000 2.44 22 00:44 01.12.2021
4481 Clouds -4 1022 76 10000 2.54 22 23:33 30.11.2021
4482 Clouds -4 1023 76 10000 2.52 23 22:32 30.11.2021
4483 Clear 0 1028 76 10000 2.7 21 20:47 30.11.2021
4484 Clear 0 1028 80 10000 2.63 21 20:25 30.11.2021
4485 Clear 0 1028 80 10000 2.63 21 19:39 30.11.2021
4486 Clear 1 1028 86 10000 2.5 22 18:54 30.11.2021
4487 Clear 1 1027 89 10000 2.51 20 17:46 30.11.2021
4488 Clear 2 1022 56 10000 1.15 330 16:19 30.11.2021
4489 Clear 2 1022 53 10000 1.19 327 14:35 30.11.2021
4490 Clear 8 1022 73 10000 1.28 343 13:41 30.11.2021
4491 Clear 7 1023 72 10000 1.73 350 12:54 30.11.2021
4492 Clear 6 1023 71 10000 2.04 0 11:59 30.11.2021
4493 Clear 5 1024 72 10000 2.49 8 11:25 30.11.2021
4494 Clear 6 1024 52 10000 2.49 8 10:36 30.11.2021
4495 Clear -1 1028 81 10000 3.31 18 08:57 30.11.2021
4496 Clear -1 1028 81 10000 3.31 18 08:32 30.11.2021
4497 Clear -1 1028 83 10000 3.31 16 07:56 30.11.2021
4498 Clouds -1 1028 77 10000 3.6 17 06:37 30.11.2021
4499 Clouds -1 1026 93 10000 3.2 16 01:50 30.11.2021
4500 Clouds 0 1025 94 10000 3.09 10 01:27 30.11.2021
4501 Clouds 0 1025 95 10000 3.34 10 23:40 29.11.2021
4502 Clouds -1 1024 93 10000 3.6 3 23:18 29.11.2021
4503 Clouds -1 1024 93 10000 3.6 3 23:18 29.11.2021
4504 Clouds 0 1024 93 10000 3.6 3 22:38 29.11.2021
4505 Clouds 0 1023 94 10000 3.74 3 21:54 29.11.2021
4506 Clouds 0 1022 94 10000 3.91 4 21:20 29.11.2021
4507 Clouds 1 1022 94 10000 3.91 4 20:46 29.11.2021
4508 Clouds 1 1022 94 10000 3.81 5 19:59 29.11.2021
4509 Clouds 1 1022 94 10000 3.81 5 19:40 29.11.2021
4510 Clouds 1 1020 94 10000 3.96 4 18:59 29.11.2021
4511 Clouds 0 1020 93 10000 3.97 4 18:40 29.11.2021
4512 Clouds 1 1017 92 10000 3.92 356 17:21 29.11.2021
4513 Clouds 1 1017 92 10000 3.91 356 16:44 29.11.2021
4514 Clouds 3 1014 85 10000 4.26 354 16:22 29.11.2021
4515 Clear 4 1013 76 10000 4.36 346 14:45 29.11.2021
4516 Clear 3 1012 72 10000 4.74 348 13:52 29.11.2021
4517 Clouds 2 1013 75 10000 5.72 352 12:58 29.11.2021
4518 Clouds 2 1013 75 10000 5.82 347 12:19 29.11.2021
4519 Snow 1 1014 79 10000 5.53 346 11:22 29.11.2021
4520 Snow -3 1016 84 5490 4.4 351 09:58 29.11.2021
4521 Clouds -8 1017 79 10000 4.32 358 07:21 29.11.2021
4522 Clouds -7 1015 87 10000 4.83 357 05:48 29.11.2021
4523 Snow -3 1009 94 236 2.19 313 00:46 29.11.2021
4524 Snow -3 1009 94 166 1.94 301 23:47 28.11.2021
4525 Snow -3 1010 94 143 1.91 293 23:29 28.11.2021
4526 Snow -3 1010 93 160 1.86 301 21:53 28.11.2021
4527 Snow -3 1010 93 160 1.86 301 21:53 28.11.2021
4528 Snow -3 1010 93 160 1.86 301 21:34 28.11.2021
4529 Snow -3 1010 90 470 1.83 317 20:36 28.11.2021
4530 Snow -3 1009 89 434 2.02 311 19:29 28.11.2021
4531 Snow -2 1008 93 203 1.64 308 18:40 28.11.2021
4532 Rain 1 1008 91 288 1.81 322 17:57 28.11.2021
4533 Rain 1 1008 79 1121 2.04 333 17:32 28.11.2021
4534 Clouds 2 1008 79 1130 2.03 333 16:44 28.11.2021
4535 Clouds 2 1007 63 10000 2.83 341 16:26 28.11.2021
4536 Clouds 3 1007 63 10000 2.83 341 15:43 28.11.2021
4537 Clouds 4 1007 56 10000 3.52 336 14:50 28.11.2021
4538 Clouds 3 1007 52 10000 3.71 333 13:49 28.11.2021
4539 Clouds 4 1007 54 10000 3.75 328 12:54 28.11.2021
4540 Clouds 2 1007 63 8716 3.72 329 11:19 28.11.2021
4541 Snow -1 1008 65 10000 3.67 346 10:22 28.11.2021
4542 Snow -3 1008 65 10000 3.67 346 09:40 28.11.2021
4543 Snow -2 1008 84 10000 2.83 338 08:19 28.11.2021
4544 Clouds -2 1007 89 10000 2.53 336 00:39 28.11.2021
4545 Snow -1 1005 83 7293 2.27 329 21:40 27.11.2021
4546 Snow -2 1005 87 10000 2.4 336 19:49 27.11.2021
4547 Clouds 4 1004 89 5312 2.84 357 17:57 27.11.2021
4548 Clouds 5 1001 61 10000 2.85 344 15:59 27.11.2021
4549 Clouds 3 1000 64 10000 3.04 352 14:26 27.11.2021
4550 Clouds 0 1000 63 10000 2.91 347 12:58 27.11.2021
4551 Clouds -1 998 80 431 3.3 335 10:52 27.11.2021
4552 Clouds -4 997 81 2827 1.06 7 09:53 27.11.2021
4553 Clouds 3 998 78 10000 0.89 18 08:44 27.11.2021
4554 Rain 1 998 81 10000 0.32 325 06:34 27.11.2021
4555 Clouds 1 1003 69 10000 1.05 292 01:59 27.11.2021
4556 Clouds 0 1005 68 10000 1.5 13 23:39 26.11.2021
4557 Clouds -1 1008 75 10000 2.62 11 22:25 26.11.2021
4558 Clouds -1 1008 75 10000 2.62 11 21:38 26.11.2021
4559 Clouds -1 1008 87 10000 2.83 5 21:18 26.11.2021
4560 Clouds -1 1008 87 10000 2.83 5 20:30 26.11.2021
4561 Clouds -1 1008 87 10000 3.06 7 19:54 26.11.2021
4562 Clouds 0 1008 87 10000 3.22 6 18:43 26.11.2021
4563 Clouds 6 1007 80 10000 3.31 5 17:24 26.11.2021
4564 Clouds 6 1007 80 10000 3.31 5 17:24 26.11.2021
4565 Clouds 7 1007 73 10000 3.58 2 16:29 26.11.2021
4566 Clouds 5 1006 67 10000 3.18 351 13:37 26.11.2021
4567 Clouds 4 1006 70 10000 2.87 355 12:55 26.11.2021
4568 Clouds 1 1004 76 10000 3.09 357 10:42 26.11.2021
4569 Clouds 2 1009 80 10000 3.02 8 09:29 26.11.2021
4570 Clouds 2 1009 89 10000 3.03 8 08:47 26.11.2021
4571 Clouds 2 1010 94 10000 3.23 8 08:19 26.11.2021
4572 Clouds 2 1009 94 10000 3.39 5 06:29 26.11.2021
4573 Clouds 2 1009 94 10000 3.39 5 04:52 26.11.2021
4574 Clouds 2 1010 95 10000 3.34 9 03:28 26.11.2021
4575 Clouds 2 1009 91 10000 3.07 1 23:29 25.11.2021
4576 Clouds 2 1009 92 10000 2.97 4 21:58 25.11.2021
4577 Clouds 2 1009 91 10000 2.94 8 20:41 25.11.2021
4578 Clouds 3 1009 93 10000 3.04 13 18:50 25.11.2021
4579 Clouds 4 1009 93 10000 3.07 19 18:00 25.11.2021
4580 Clouds 5 1006 88 10000 2.63 11 17:26 25.11.2021
4581 Clouds 5 1006 88 10000 2.63 11 16:41 25.11.2021
4582 Clouds 5 1005 76 10000 2.51 9 15:58 25.11.2021
4583 Clouds 6 1004 69 4748 1.57 348 14:21 25.11.2021
4584 Clouds 4 1004 63 10000 0.66 321 12:48 25.11.2021
4585 Clouds 3 1005 65 10000 0.42 296 11:55 25.11.2021
4586 Clouds 2 1005 74 10000 0.86 39 10:25 25.11.2021
4587 Snow 1 1005 99 56 1.3 144 06:24 25.11.2021
4588 Clouds 2 1006 98 71 1.72 39 02:53 25.11.2021
4589 Clouds 3 1007 97 4844 1.41 66 23:39 24.11.2021
4590 Clouds 3 1008 97 4850 1.22 62 22:28 24.11.2021
4591 Clouds 4 1008 97 4850 1.22 62 21:45 24.11.2021
4592 Clouds 1 1005 90 10000 1.54 61 20:58 24.11.2021
4593 Clouds 1 1005 89 1035 1.41 57 20:26 24.11.2021
4594 Rain 4 1009 99 95 1.28 64 18:37 24.11.2021
4595 Clouds 4 1009 100 105 1.13 75 18:18 24.11.2021
4596 Clouds 5 1010 100 76 1.17 113 16:19 24.11.2021
4597 Clouds 6 1010 98 965 1.55 101 14:54 24.11.2021
4598 Clouds 6 1010 98 290 1.17 79 14:20 24.11.2021
4599 Clouds 5 1012 97 3617 1.26 72 12:50 24.11.2021
4600 Clouds 4 1015 97 495 0.49 0 11:22 24.11.2021
4601 Clouds 3 1015 97 495 0.49 0 10:50 24.11.2021
4602 Clouds 3 1015 97 1091 0.87 146 10:27 24.11.2021
4603 Clouds 2 1016 95 10000 2.05 71 07:56 24.11.2021
4604 Clouds 2 1017 96 9229 1.99 64 06:56 24.11.2021
4605 Clouds 2 1015 99 1136 1.5 109 03:57 24.11.2021
4606 Rain 4 1015 99 238 1.18 135 00:58 24.11.2021
4607 Rain 5 1016 100 357 2.02 170 22:59 23.11.2021
4608 Rain 5 1016 100 357 2.02 170 22:34 23.11.2021
4609 Clouds 5 1016 100 357 2.02 170 22:34 23.11.2021
4610 Clouds 5 1015 99 328 1.6 111 21:45 23.11.2021
4611 Rain 5 1015 99 413 1.62 114 20:21 23.11.2021
4612 Clouds 6 1014 98 406 1.89 96 18:44 23.11.2021
4613 Clouds 6 1014 99 549 2.27 123 18:24 23.11.2021
4614 Clouds 6 1014 98 716 2.27 110 17:23 23.11.2021
4615 Clouds 7 1014 98 716 2.27 110 16:34 23.11.2021
4616 Clouds 8 1013 86 4546 2.55 137 15:23 23.11.2021
4617 Clouds 8 1013 80 10000 2.59 131 14:32 23.11.2021
4618 Clouds 3 1013 63 10000 2.48 127 11:57 23.11.2021
4619 Clouds 2 1013 68 10000 1.92 132 10:24 23.11.2021
4620 Clouds 0 1013 76 8491 1.95 116 09:23 23.11.2021
4621 Clouds 0 1013 79 10000 0.45 35 07:28 23.11.2021
4622 Clouds 4 1016 95 10000 1.33 67 03:56 23.11.2021
4623 Clouds 4 1017 95 10000 1.33 75 02:58 23.11.2021
4624 Clouds 4 1018 96 10000 1.1 72 23:21 22.11.2021
4625 Clouds 4 1018 96 10000 1.12 72 22:53 22.11.2021
4626 Clouds 4 1017 95 10000 0.97 67 22:29 22.11.2021
4627 Clouds 4 1017 95 10000 0.97 67 21:43 22.11.2021
4628 Clouds 5 1017 96 8216 1.37 57 20:52 22.11.2021
4629 Clouds 5 1016 95 10000 0.76 72 19:58 22.11.2021
4630 Clouds 5 1015 93 10000 1.21 52 19:19 22.11.2021
4631 Clouds 6 1014 88 10000 0.35 76 18:40 22.11.2021
4632 Clouds 7 1013 89 10000 0.27 42 17:45 22.11.2021
4633 Clouds 7 1011 83 8368 0.97 222 16:22 22.11.2021
4634 Clouds 5 1009 68 4528 1.22 175 14:20 22.11.2021
4635 Clouds 3 1009 71 654 0.45 0 12:26 22.11.2021
4636 Clouds 5 1012 86 5176 0.44 142 10:43 22.11.2021
4637 Clouds 4 1011 85 10000 0.29 93 09:43 22.11.2021
4638 Clouds 1 1009 85 10000 0.83 66 08:40 22.11.2021
4639 Clouds 4 1010 97 150 0.67 73 06:22 22.11.2021
4640 Clouds 6 1011 97 38 0.57 27 23:30 21.11.2021
4641 Clouds 6 1011 97 49 0.92 10 22:50 21.11.2021
4642 Clouds 6 1012 95 3126 1.05 0 21:57 21.11.2021
4643 Clouds 6 1012 91 10000 1.06 0 20:42 21.11.2021
4644 Clouds 7 1012 90 10000 1.11 15 19:58 21.11.2021
4645 Clouds 7 1012 93 3672 1.45 24 18:25 21.11.2021
4646 Clouds 9 1012 93 3672 1.45 24 17:39 21.11.2021
4647 Clouds 10 1010 69 10000 0.83 351 15:53 21.11.2021
4648 Clouds 10 1010 61 9347 0.49 320 14:45 21.11.2021
4649 Clouds 10 1011 59 10000 0.51 324 13:47 21.11.2021
4650 Clouds 9 1012 57 10000 0.73 340 12:37 21.11.2021
4651 Clouds 8 1013 57 10000 0.97 12 11:43 21.11.2021
4652 Clouds 7 1014 60 10000 1.4 24 11:24 21.11.2021
4653 Clouds 5 1015 63 10000 1.88 31 10:18 21.11.2021
4654 Clouds 5 1016 72 10000 2.06 25 08:42 21.11.2021
4655 Clouds -1 1015 81 10000 2.42 22 08:23 21.11.2021
4656 Clouds -1 1015 81 10000 2.42 22 07:47 21.11.2021
4657 Clouds 0 1015 79 10000 2.26 24 05:53 21.11.2021
4658 Clouds 0 1015 77 10000 2.11 24 05:25 21.11.2021
4659 Clouds 1 1017 77 10000 1.67 20 03:19 21.11.2021
4660 Clouds 2 1017 76 10000 1.67 20 02:51 21.11.2021
4661 Clouds 6 1020 86 10000 1.04 20 00:59 21.11.2021
4662 Clouds 7 1021 83 10000 0.86 17 23:47 20.11.2021
4663 Clouds 7 1022 80 10000 0.69 23 21:41 20.11.2021
4664 Clouds 7 1022 79 10000 0.7 36 21:23 20.11.2021
4665 Clouds 7 1022 77 10000 0.57 34 18:46 20.11.2021
4666 Clouds 7 1022 78 10000 0.49 31 18:26 20.11.2021
4667 Clouds 8 1021 74 10000 0.42 250 17:26 20.11.2021
4668 Clouds 9 1021 74 10000 0.42 250 16:46 20.11.2021
4669 Clouds 10 1021 54 10000 1.53 205 14:46 20.11.2021
4670 Clouds 7 1022 50 10000 0.45 217 14:23 20.11.2021
4671 Clouds 8 1023 52 10000 2.06 200 11:57 20.11.2021
4672 Clouds 5 1024 53 10000 2.06 196 10:35 20.11.2021
4673 Clouds 0 1026 75 10000 0.9 102 09:29 20.11.2021
4674 Clouds -5 1026 76 10000 1.35 55 07:22 20.11.2021
4675 Clear -1 1026 75 10000 0.92 53 05:27 20.11.2021
4676 Clear -1 1026 74 10000 0.92 53 04:50 20.11.2021
4677 Clear 3 1029 79 10000 1.1 76 01:48 20.11.2021
4678 Clear 4 1029 84 10000 0.95 86 00:40 20.11.2021
4679 Clear -1 1028 73 10000 0.76 101 22:55 19.11.2021
4680 Clear 0 1028 71 10000 0.45 213 21:58 19.11.2021
4681 Clear 5 1030 84 10000 1.64 66 20:58 19.11.2021
4682 Clear 1 1028 70 10000 1.64 66 20:36 19.11.2021
4683 Clear 3 1028 71 10000 1.45 63 19:50 19.11.2021
4684 Clear 6 1030 85 10000 1.08 69 18:54 19.11.2021
4685 Clear 8 1029 84 10000 0.34 75 18:22 19.11.2021
4686 Clear 6 1027 60 10000 1.28 211 17:26 19.11.2021
4687 Clear 12 1026 61 10000 1.8 205 15:32 19.11.2021
4688 Clear 11 1026 51 10000 2.32 198 13:25 19.11.2021
4689 Clear 5 1028 57 10000 1 152 10:27 19.11.2021
4690 Clear 5 1028 57 10000 1 152 10:27 19.11.2021
4691 Clear 5 1028 57 10000 1 152 09:37 19.11.2021
4692 Clear -4 1028 75 10000 1.25 50 07:41 19.11.2021
4693 Clear 1 1031 78 10000 0.94 55 04:29 19.11.2021
4694 Clear -3 1029 72 10000 0.92 60 02:26 19.11.2021
4695 Clear 1 1029 70 10000 1.13 66 23:51 18.11.2021
4696 Clear 1 1028 68 10000 1.25 55 21:50 18.11.2021
4697 Clear 0 1027 68 10000 1.38 51 20:48 18.11.2021
4698 Clear 0 1027 67 10000 1.38 51 20:30 18.11.2021
4699 Clear 5 1030 81 10000 1.12 49 19:44 18.11.2021
4700 Clear 5 1029 80 10000 1.31 46 18:55 18.11.2021
4701 Clear 5 1029 80 10000 1.47 40 18:27 18.11.2021
4702 Clear 8 1029 80 10000 1.47 40 17:49 18.11.2021
4703 Clear 9 1026 71 10000 0.86 17 16:44 18.11.2021
4704 Clear 8 1024 45 10000 0.67 340 15:25 18.11.2021
4705 Clear 8 1024 47 10000 0.62 344 13:31 18.11.2021
4706 Clear 9 1024 46 10000 0.83 5 12:33 18.11.2021
4707 Clear 7 1025 48 10000 1.5 11 11:42 18.11.2021
4708 Clear 7 1025 52 10000 1.92 17 11:24 18.11.2021
4709 Clear 0 1026 69 10000 2.8 19 09:34 18.11.2021
4710 Clouds 1 1030 85 10000 3.9 20 07:34 18.11.2021
4711 Clouds 2 1029 89 10000 4.03 21 05:48 18.11.2021
4712 Clouds 2 1029 88 10000 4.26 19 04:54 18.11.2021
4713 Clouds 2 1029 89 10000 4.45 15 01:23 18.11.2021
4714 Clouds 2 1029 89 10000 4.48 15 22:49 17.11.2021
4715 Clouds 2 1029 89 10000 4.56 14 22:20 17.11.2021
4716 Clouds 2 1029 89 10000 4.56 14 21:38 17.11.2021
4717 Clouds 3 1028 88 10000 4.53 13 20:56 17.11.2021
4718 Clouds 4 1026 87 10000 4.17 13 18:27 17.11.2021
4719 Clouds 5 1023 77 10000 3.78 10 17:27 17.11.2021
4720 Clouds 8 1020 53 10000 3.46 5 14:51 17.11.2021
4721 Clouds 8 1020 58 10000 3.38 2 12:41 17.11.2021
4722 Clouds 5 1021 61 10000 3.42 0 11:44 17.11.2021
4723 Clouds 2 1019 70 10000 3.29 7 10:29 17.11.2021
4724 Clouds 1 1019 80 10000 0.45 0 09:24 17.11.2021
4725 Clouds 0 1018 82 10000 3.45 14 07:44 17.11.2021
4726 Clouds 4 1023 90 10000 3.01 13 03:51 17.11.2021
4727 Clouds 4 1023 90 10000 3.01 13 03:51 17.11.2021
4728 Clouds 4 1021 88 10000 2.13 10 01:21 17.11.2021
4729 Clouds 4 1022 91 10000 1.63 15 23:18 16.11.2021
4730 Clouds 5 1021 91 10000 1.56 29 21:27 16.11.2021
4731 Clouds 5 1020 91 10000 1.7 37 20:18 16.11.2021
4732 Clouds 6 1020 90 10000 1.12 46 18:54 16.11.2021
4733 Clouds 6 1020 90 10000 1.12 46 18:35 16.11.2021
4734 Clouds 7 1019 88 10000 0.44 69 17:40 16.11.2021
4735 Clouds 7 1017 78 10000 0.63 186 16:39 16.11.2021
4736 Clouds 6 1017 55 10000 0.56 205 15:53 16.11.2021
4737 Clouds 6 1016 56 10000 0.55 200 15:27 16.11.2021
4738 Clouds 3 1018 62 10000 1.45 15 11:50 16.11.2021
4739 Clouds 4 1020 86 10000 2.05 2 09:49 16.11.2021
4740 Clouds 3 1020 85 5822 2.01 31 08:45 16.11.2021
4741 Clouds 3 1021 93 10000 3.17 27 07:32 16.11.2021
4742 Clouds 4 1022 93 10000 3.51 24 02:20 16.11.2021
4743 Clouds 4 1022 95 10000 3.52 12 23:23 15.11.2021
4744 Clouds 4 1022 95 10000 3.52 12 22:37 15.11.2021
4745 Clouds 4 1022 93 3691 3.34 9 21:53 15.11.2021
4746 Clouds 4 1021 94 3073 3.41 10 21:29 15.11.2021
4747 Clouds 4 1021 95 377 3.79 10 19:49 15.11.2021
4748 Clouds 3 1021 94 10000 4.38 11 18:47 15.11.2021
4749 Clouds 7 1019 86 10000 4.03 10 16:54 15.11.2021
4750 Clouds 8 1017 77 10000 3.51 1 15:42 15.11.2021
4751 Clouds 8 1017 76 10000 3.57 2 15:24 15.11.2021
4752 Clouds 8 1017 77 10000 3.8 7 13:32 15.11.2021
4753 Clouds 6 1018 78 10000 3.79 6 11:21 15.11.2021
4754 Clouds 3 1019 91 819 3.9 11 09:28 15.11.2021
4755 Clouds 2 1018 96 237 3.8 5 07:52 15.11.2021
4756 Clouds 3 1019 95 502 3.24 6 05:21 15.11.2021
4757 Clouds 3 1019 88 10000 3.26 6 23:54 14.11.2021
4758 Clouds 4 1020 86 10000 3.4 10 22:35 14.11.2021
4759 Clouds 5 1019 93 6098 3.32 8 19:53 14.11.2021
4760 Clouds 5 1018 94 6054 3.2 3 19:18 14.11.2021
4761 Clouds 5 1018 94 6054 3.2 3 18:54 14.11.2021
4762 Clouds 5 1018 94 6054 3.2 3 18:36 14.11.2021
4763 Clouds 5 1018 93 3718 3.05 2 18:18 14.11.2021
4764 Clouds 5 1018 93 3721 3.05 2 17:55 14.11.2021
4765 Clouds 5 1018 93 3718 3.05 2 17:37 14.11.2021
4766 Clouds 8 1017 86 6142 2.4 350 17:19 14.11.2021
4767 Clouds 8 1017 86 6142 2.4 350 16:46 14.11.2021
4768 Clouds 9 1016 77 5807 2.5 348 16:20 14.11.2021
4769 Clouds 10 1015 77 7098 2.5 341 15:23 14.11.2021
4770 Clouds 10 1015 77 7098 2.5 341 14:49 14.11.2021
4771 Clouds 10 1015 75 8566 2.52 343 14:28 14.11.2021
4772 Clouds 10 1015 75 8566 2.52 343 13:54 14.11.2021
4773 Clouds 10 1015 75 8566 2.52 343 13:35 14.11.2021
4774 Clouds 9 1016 75 10000 2.44 332 12:27 14.11.2021
4775 Clouds 8 1016 75 10000 2.44 332 11:41 14.11.2021
4776 Clouds 4 1015 73 10000 2.63 334 10:41 14.11.2021
4777 Clouds 3 1015 75 10000 2.46 340 09:48 14.11.2021
4778 Clouds 6 1017 81 10000 2.8 348 08:54 14.11.2021
4779 Clouds 2 1014 72 369 0.45 0 07:19 14.11.2021
4780 Clouds 7 1020 89 10000 3.03 11 23:47 13.11.2021
4781 Clouds 7 1020 91 10000 2.93 7 22:25 13.11.2021
4782 Clouds 7 1020 91 10000 2.92 7 21:50 13.11.2021
4783 Clouds 7 1019 87 10000 2.86 13 21:20 13.11.2021
4784 Clouds 8 1020 90 10000 3.2 9 19:38 13.11.2021
4785 Clouds 8 1020 90 10000 2.77 11 18:33 13.11.2021
4786 Clouds 8 1018 86 10000 2.31 5 18:33 13.11.2021
4787 Clouds 9 1018 86 10000 2.3 5 17:50 13.11.2021
4788 Clouds 10 1017 79 10000 1.8 353 16:37 13.11.2021
4789 Clouds 10 1016 50 10000 0.45 244 15:20 13.11.2021
4790 Clouds 12 1016 57 10000 1.14 303 14:20 13.11.2021
4791 Clouds 9 1018 55 10000 0.45 0 12:56 13.11.2021
4792 Clouds 8 1018 59 10000 0.45 0 12:20 13.11.2021
4793 Clouds 6 1019 64 10000 0.87 360 11:28 13.11.2021
4794 Clouds 5 1019 69 10000 0.87 360 10:44 13.11.2021
4795 Clouds 6 1019 66 10000 1.82 14 09:53 13.11.2021
4796 Clouds 6 1019 66 10000 1.82 14 09:33 13.11.2021
4797 Clouds 6 1020 79 10000 2.3 22 08:56 13.11.2021
4798 Clouds 5 1021 90 10000 2.79 27 08:20 13.11.2021
4799 Clouds 6 1020 90 10000 3.33 21 04:43 13.11.2021
4800 Clouds 3 1018 71 10000 3.45 18 04:23 13.11.2021
4801 Clouds 7 1020 93 10000 3.26 14 00:38 13.11.2021
4802 Clouds 8 1020 94 10000 3.31 12 22:44 12.11.2021
4803 Clouds 8 1021 95 10000 3.34 16 21:32 12.11.2021
4804 Clouds 8 1019 92 10000 3.04 24 19:45 12.11.2021
4805 Clouds 9 1020 94 10000 3.06 22 19:27 12.11.2021
4806 Clouds 9 1019 94 10000 3.11 19 18:21 12.11.2021
4807 Clouds 11 1017 80 10000 3.02 23 16:20 12.11.2021
4808 Clouds 11 1017 80 10000 3.02 23 15:31 12.11.2021
4809 Clouds 8 1017 73 10000 3.25 10 11:32 12.11.2021
4810 Clouds 6 1018 69 10000 1.34 182 10:49 12.11.2021
4811 Clouds 5 1018 83 3681 3.39 29 09:29 12.11.2021
4812 Clouds 4 1018 89 3681 3.39 29 08:38 12.11.2021
4813 Clouds 6 1020 84 10000 2.65 31 02:22 12.11.2021
4814 Clouds 6 1021 88 10000 2.71 39 23:33 11.11.2021
4815 Clouds 6 1021 89 10000 2.85 34 22:28 11.11.2021
4816 Clouds 7 1021 90 10000 2.79 29 21:26 11.11.2021
4817 Clouds 7 1021 91 10000 2.85 35 20:26 11.11.2021
4818 Clouds 4 1020 90 10000 2.42 35 18:55 11.11.2021
4819 Clouds 8 1020 95 10000 2.11 39 17:42 11.11.2021
4820 Clouds 9 1019 93 10000 1.52 52 16:38 11.11.2021
4821 Clouds 10 1018 94 4725 1.48 46 14:44 11.11.2021
4822 Clouds 10 1019 92 4691 1.49 45 14:26 11.11.2021
4823 Clouds 9 1019 92 4691 1.49 45 13:36 11.11.2021
4824 Clouds 6 1019 83 10000 0.45 315 12:48 11.11.2021
4825 Clouds 6 1019 74 10000 0.45 213 10:34 11.11.2021
4826 Clouds 4 1019 81 10000 2.11 49 09:33 11.11.2021
4827 Clouds 3 1018 83 10000 3.7 28 07:35 11.11.2021
4828 Clouds 3 1018 81 10000 3.1 36 00:43 11.11.2021
4829 Clouds 7 1021 94 10000 2.67 42 22:46 10.11.2021
4830 Clouds 6 1020 94 10000 2.4 39 21:56 10.11.2021
4831 Clouds 4 1018 78 10000 2.82 31 21:18 10.11.2021
4832 Clouds 4 1018 76 363 2.24 26 20:33 10.11.2021
4833 Clouds 7 1020 96 370 2.23 26 19:45 10.11.2021
4834 Rain 7 1019 95 3305 3.19 35 17:39 10.11.2021
4835 Clouds 7 1019 96 100 2.78 16 16:21 10.11.2021
4836 Clouds 7 1018 86 3154 3.01 22 14:25 10.11.2021
4837 Clouds 7 1018 86 3154 3.01 22 13:40 10.11.2021
4838 Rain 5 1017 67 10000 2.46 15 12:39 10.11.2021
4839 Clouds 3 1019 71 10000 1.59 33 09:41 10.11.2021
4840 Clouds 2 1019 76 10000 1.91 33 08:44 10.11.2021
4841 Clouds 2 1019 75 10000 2.17 35 07:00 10.11.2021
4842 Clouds 1 1019 76 10000 1.27 70 05:58 10.11.2021
4843 Clouds 6 1021 81 10000 1.32 66 04:58 10.11.2021
4844 Clouds 7 1023 86 10000 1.78 58 22:42 09.11.2021
4845 Clouds 6 1023 81 10000 1.73 66 20:51 09.11.2021
4846 Clouds 7 1023 68 10000 2.19 58 19:51 09.11.2021
4847 Clouds 6 1023 65 10000 2 46 18:58 09.11.2021
4848 Clouds 8 1018 49 10000 0.61 105 17:22 09.11.2021
4849 Clear 10 1017 31 10000 0.24 170 15:38 09.11.2021
4850 Clouds 8 1017 29 10000 0.54 151 13:55 09.11.2021
4851 Clear 9 1017 21 10000 0.25 255 12:49 09.11.2021
4852 Clear 8 1017 20 10000 0.33 48 11:34 09.11.2021
4853 Clear 6 1018 21 10000 1.34 21 10:41 09.11.2021
4854 Clear 5 1020 33 10000 2.96 22 09:22 09.11.2021
4855 Clear 3 1022 39 10000 3.67 20 07:55 09.11.2021
4856 Clear 2 1022 45 10000 3.73 20 03:45 09.11.2021
4857 Clear 2 1023 69 10000 4.01 19 01:58 09.11.2021
4858 Clear 2 1023 69 10000 4.01 19 01:36 09.11.2021
4859 Clouds 4 1023 85 10000 4.6 13 23:32 08.11.2021
4860 Clouds 3 1023 88 10000 4.64 12 22:47 08.11.2021
4861 Clouds 3 1023 88 10000 4.8 11 21:45 08.11.2021
4862 Clouds 3 1023 84 10000 5.22 13 20:36 08.11.2021
4863 Clouds 3 1023 84 10000 5.21 13 19:43 08.11.2021
4864 Clear 9 1021 78 10000 4.92 9 17:48 08.11.2021
4865 Clear 11 1017 54 10000 4.79 2 15:56 08.11.2021
4866 Clear 14 1016 47 10000 4.9 5 14:57 08.11.2021
4867 Clear 16 1016 47 10000 4.9 5 14:33 08.11.2021
4868 Clouds 15 1016 44 10000 4.74 2 13:18 08.11.2021
4869 Clouds 14 1017 49 10000 4.91 2 11:55 08.11.2021
4870 Clouds 12 1017 58 10000 5.03 6 10:50 08.11.2021
4871 Clouds 5 1020 83 10000 4.76 6 09:26 08.11.2021
4872 Clouds 4 1020 83 10000 4.76 6 08:42 08.11.2021
4873 Clouds 5 1021 94 10000 4.72 9 06:56 08.11.2021
4874 Clouds 5 1020 88 10000 4.77 6 03:35 08.11.2021
4875 Clouds 4 1021 88 10000 4.52 5 01:24 08.11.2021
4876 Clouds 5 1022 93 504 4.41 8 23:25 07.11.2021
4877 Clouds 4 1022 93 1607 4.47 9 21:26 07.11.2021
4878 Clouds 5 1022 91 10000 4.3 9 20:28 07.11.2021
4879 Clouds 4 1023 87 10000 4.65 14 18:47 07.11.2021
4880 Clouds 9 1023 81 10000 5.08 14 17:43 07.11.2021
4881 Clear 10 1020 61 10000 5.59 10 16:26 07.11.2021
4882 Clear 13 1020 55 10000 5.7 8 15:25 07.11.2021
4883 Clear 13 1020 51 10000 5.61 8 14:27 07.11.2021
4884 Clear 12 1021 47 10000 5.52 10 12:50 07.11.2021
4885 Clear 11 1022 45 10000 5.21 12 11:41 07.11.2021
4886 Clear 3 1025 47 10000 5.24 11 08:59 07.11.2021
4887 Clouds 0 1030 77 10000 5.12 9 02:56 07.11.2021
4888 Clouds 0 1029 78 10000 4.98 15 02:18 07.11.2021
4889 Clouds 1 1029 87 10000 5.3 14 22:56 06.11.2021
4890 Clouds 1 1030 87 10000 5.34 14 21:53 06.11.2021
4891 Clouds 1 1029 88 10000 5.18 8 20:56 06.11.2021
4892 Clouds 2 1030 87 10000 4.69 11 19:42 06.11.2021
4893 Clear 6 1029 89 10000 4.56 11 17:31 06.11.2021
4894 Clear 7 1026 74 10000 3.99 8 16:32 06.11.2021
4895 Clear 10 1024 45 10000 4.21 9 13:39 06.11.2021
4896 Clouds 10 1025 43 10000 3.86 9 12:55 06.11.2021
4897 Clouds 3 1024 39 10000 0.45 268 10:35 06.11.2021
4898 Clouds -2 1024 56 10000 4.18 15 08:47 06.11.2021
4899 Clouds -1 1030 84 10000 4.23 17 04:50 06.11.2021
4900 Clouds 0 1029 89 10000 4.02 16 23:49 05.11.2021
4901 Clouds 0 1029 89 10000 4.04 16 23:28 05.11.2021
4902 Clouds 1 1029 89 10000 4.04 16 22:33 05.11.2021
4903 Clouds 1 1028 90 10000 3.8 15 20:26 05.11.2021
4904 Clouds 1 1028 88 10000 3.91 15 19:51 05.11.2021
4905 Clouds 1 1027 90 10000 3.97 14 18:43 05.11.2021
4906 Clouds 1 1026 89 10000 3.73 12 17:52 05.11.2021
4907 Clouds 5 1024 74 10000 3.42 11 16:37 05.11.2021
4908 Clouds 6 1020 63 7228 3.68 11 14:21 05.11.2021
4909 Clouds 4 1019 48 10000 0.89 0 12:26 05.11.2021
4910 Clouds 1 1022 75 10000 3.22 11 09:27 05.11.2021
4911 Clouds 1 1023 87 10000 3.42 14 07:48 05.11.2021
4912 Clouds 1 1022 88 10000 3.36 12 05:36 05.11.2021
4913 Rain 2 1020 92 2952 3.35 14 02:28 05.11.2021
4914 Clouds 2 1020 92 2952 3.35 14 01:59 05.11.2021
4915 Clouds 2 1021 88 10000 3.15 18 23:45 04.11.2021
4916 Clouds 3 1020 89 10000 2.66 20 22:21 04.11.2021
4917 Clouds 2 1020 89 10000 2.66 20 21:54 04.11.2021
4918 Clouds 3 1019 86 10000 2.39 12 21:22 04.11.2021
4919 Clouds 3 1018 86 10000 2.17 15 20:25 04.11.2021
4920 Clouds 4 1018 86 10000 2.17 15 19:49 04.11.2021
4921 Clouds 4 1017 90 3181 2.32 19 19:22 04.11.2021
4922 Clouds 5 1015 84 3750 2.23 11 18:22 04.11.2021
4923 Clouds 6 1013 69 6225 1.82 2 17:26 04.11.2021
4924 Clouds 6 1013 69 6225 1.82 2 17:26 04.11.2021
4925 Clouds 8 1011 54 10000 1.51 2 15:36 04.11.2021
4926 Clouds 6 1009 45 10000 0.45 298 13:45 04.11.2021
4927 Clouds 4 1012 47 10000 1.65 16 10:22 04.11.2021
4928 Clouds 1 1013 58 10000 2.2 19 08:31 04.11.2021
4929 Clouds 0 1015 74 10000 2.86 21 07:36 04.11.2021
4930 Clouds 1 1014 85 10000 2.9 22 06:38 04.11.2021
4931 Clouds 3 1011 93 10000 2.81 11 22:54 03.11.2021
4932 Clouds 3 1011 93 10000 2.88 8 21:57 03.11.2021
4933 Clouds 3 1011 93 10000 2.88 8 21:33 03.11.2021
4934 Clouds 4 1009 94 10000 2.75 2 20:38 03.11.2021
4935 Clouds 4 1009 95 2176 2.71 0 20:19 03.11.2021
4936 Clouds 5 1007 93 10000 2.81 6 19:19 03.11.2021
4937 Clouds 5 1006 90 10000 2.31 359 18:26 03.11.2021
4938 Clouds 5 1006 90 10000 2.3 359 17:41 03.11.2021
4939 Clouds 6 1004 78 10000 1.9 344 16:31 03.11.2021
4940 Clouds 6 1002 68 10000 2.17 350 15:47 03.11.2021
4941 Clouds 6 1002 65 10000 2.17 347 15:28 03.11.2021
4942 Clouds 6 1002 65 10000 2.17 347 15:28 03.11.2021
4943 Clouds 7 1003 70 6403 2.04 3 12:33 03.11.2021
4944 Clouds 2 1002 73 6809 1.77 10 11:27 03.11.2021
4945 Clouds 5 1004 73 6809 1.77 10 10:49 03.11.2021
4946 Clouds 5 1004 73 6809 1.77 10 10:49 03.11.2021
4947 Clouds 5 1005 83 5230 2.02 359 09:31 03.11.2021
4948 Clouds 5 1005 83 5230 2.02 359 09:31 03.11.2021
4949 Clouds 4 1005 93 1465 2.24 14 08:24 03.11.2021
4950 Clouds 5 1004 94 368 2.21 13 07:39 03.11.2021
4951 Clouds 2 1001 91 1498 1.87 21 05:35 03.11.2021
4952 Clouds 2 1002 89 65 0.69 244 03:19 03.11.2021
4953 Clouds 6 1005 98 174 1.96 218 23:57 02.11.2021
4954 Clouds 2 1005 81 802 1.95 216 22:47 02.11.2021
4955 Clouds 5 1007 97 907 1.76 231 21:39 02.11.2021
4956 Clouds 6 1007 97 1087 2.43 216 20:34 02.11.2021
4957 Clouds 6 1008 96 4404 2.48 217 19:54 02.11.2021
4958 Clouds 7 1008 92 10000 2.01 213 19:18 02.11.2021
4959 Clouds 8 1008 89 10000 2.15 214 18:26 02.11.2021
4960 Clouds 8 1008 89 10000 2.15 214 18:26 02.11.2021
4961 Clouds 9 1008 89 10000 2.15 214 17:42 02.11.2021
4962 Clouds 11 1006 62 10000 2.9 207 16:31 02.11.2021
4963 Clouds 12 1006 62 10000 3.36 212 15:48 02.11.2021
4964 Clouds 12 1006 58 10000 3.44 214 14:30 02.11.2021
4965 Clouds 11 1007 64 10000 3.49 212 13:28 02.11.2021
4966 Clouds 11 1008 67 10000 3.59 212 12:41 02.11.2021
4967 Clear 10 1009 75 10000 2.54 200 11:34 02.11.2021
4968 Clear 9 1010 78 10000 2.54 200 10:53 02.11.2021
4969 Clear 8 1010 81 10000 2.16 194 10:27 02.11.2021
4970 Clear 5 1011 91 10000 0.79 172 08:43 02.11.2021
4971 Clouds 4 1012 91 10000 2.07 22 06:57 02.11.2021
4972 Clouds 3 1009 89 10000 1.77 6 03:49 02.11.2021
4973 Clouds 3 1009 88 10000 1.17 323 02:21 02.11.2021
4974 Clouds 7 1011 84 10000 0.89 11 22:47 01.11.2021
4975 Clouds 8 1011 81 10000 1.64 349 21:23 01.11.2021
4976 Clouds 8 1011 81 10000 1.64 349 20:38 01.11.2021
4977 Clouds 8 1011 83 10000 1.78 359 19:55 01.11.2021
4978 Clouds 9 1010 85 10000 2.05 8 19:29 01.11.2021
4979 Clouds 9 1010 84 10000 2.02 359 18:21 01.11.2021
4980 Clouds 12 1009 81 10000 2.14 348 17:21 01.11.2021
4981 Clouds 13 1009 81 10000 2.14 348 16:45 01.11.2021
4982 Clouds 13 1008 79 10000 2.16 343 15:47 01.11.2021
4983 Clouds 12 1008 81 10000 2.08 350 15:21 01.11.2021
4984 Clouds 13 1008 81 10000 2.08 350 14:42 01.11.2021
4985 Clouds 13 1008 85 10000 2.57 353 14:20 01.11.2021
4986 Clouds 12 1009 88 10000 2.91 352 13:19 01.11.2021
4987 Clouds 12 1009 88 10000 2.98 357 12:24 01.11.2021
4988 Clouds 10 1008 93 10000 2.83 359 10:23 01.11.2021
4989 Clouds 10 1008 90 10000 2.75 357 08:53 01.11.2021
4990 Clouds 7 1006 92 8326 2.38 351 07:47 01.11.2021
4991 Clouds 9 1006 90 252 0.45 327 05:56 01.11.2021
4992 Rain 9 1007 95 56 0.76 172 03:42 01.11.2021
4993 Rain 10 1009 93 1081 1.28 215 00:23 01.11.2021
4994 Clouds 11 1010 87 10000 0.46 308 21:37 31.10.2021
4995 Clouds 14 1010 92 1373 0.03 47 20:25 31.10.2021
4996 Clouds 15 1010 89 7565 0.26 108 18:51 31.10.2021
4997 Clouds 15 1009 88 10000 0.96 213 18:25 31.10.2021
4998 Clouds 17 1008 80 10000 1.31 225 16:48 31.10.2021
4999 Clouds 17 1007 76 10000 1.93 244 15:18 31.10.2021
5000 Clouds 17 1008 71 10000 2.18 248 13:27 31.10.2021
5001 Clouds 16 1009 73 10000 2.02 231 12:25 31.10.2021
5002 Clouds 13 1010 80 10000 1.94 229 10:51 31.10.2021
5003 Clouds 8 1012 87 10000 0.92 240 09:43 31.10.2021
5004 Clouds 10 1011 90 10000 1.37 226 08:47 31.10.2021
5005 Clouds 9 1011 96 7509 0.8 224 04:54 31.10.2021
5006 Clouds 12 1012 94 10000 0.61 177 00:36 31.10.2021
5007 Clouds 12 1012 94 10000 1.01 131 22:27 30.10.2021
5008 Clouds 13 1011 93 10000 0.59 143 21:29 30.10.2021
5009 Clouds 13 1010 94 10000 0.72 120 19:49 30.10.2021
5010 Clouds 14 1009 88 10000 0.72 179 17:49 30.10.2021
5011 Clouds 14 1008 91 10000 0.63 189 15:42 30.10.2021
5012 Clouds 13 1008 97 824 0.82 202 13:59 30.10.2021
5013 Clouds 13 1008 94 747 0.84 183 13:38 30.10.2021
5014 Clouds 12 1009 94 538 1.47 186 13:20 30.10.2021
5015 Clouds 11 1008 95 381 1.64 194 11:49 30.10.2021
5016 Clouds 11 1008 95 343 1.53 194 10:56 30.10.2021
5017 Clouds 10 1007 99 406 2.61 193 08:57 30.10.2021
5018 Clouds 11 1007 99 444 2.86 192 07:56 30.10.2021
5019 Clouds 11 1007 99 360 3.52 201 05:47 30.10.2021
5020 Clouds 7 1009 90 394 2.68 294 02:59 30.10.2021
5021 Clouds 10 1012 91 886 2.23 172 23:21 29.10.2021
5022 Clouds 11 1012 91 886 2.23 172 22:35 29.10.2021
5023 Clouds 10 1013 92 1208 1.58 183 21:18 29.10.2021
5024 Clouds 10 1013 93 1208 1.58 183 20:32 29.10.2021
5025 Clouds 10 1013 92 946 1.68 201 19:26 29.10.2021
5026 Clouds 12 1012 75 3998 2.06 199 17:43 29.10.2021
5027 Clouds 12 1012 73 2444 2.35 212 15:42 29.10.2021
5028 Clouds 11 1012 64 10000 3.62 208 12:50 29.10.2021
5029 Clouds 9 1013 81 10000 3.04 214 10:46 29.10.2021
5030 Clouds 4 1015 80 10000 2.26 213 09:45 29.10.2021
5031 Clear 6 1018 96 10000 0.89 167 02:22 29.10.2021
5032 Clear 6 1018 94 10000 1.19 177 00:30 29.10.2021
5033 Clear 7 1019 90 10000 1.12 160 22:27 28.10.2021
5034 Clear 8 1018 87 10000 1.17 149 20:59 28.10.2021
5035 Clear 9 1018 86 10000 1.14 179 19:52 28.10.2021
5036 Clear 13 1017 80 10000 1.62 208 18:46 28.10.2021
5037 Clear 13 1015 61 10000 2.49 213 17:38 28.10.2021
5038 Clear 15 1015 53 10000 2.98 216 16:38 28.10.2021
5039 Clear 15 1016 56 10000 2.95 212 14:40 28.10.2021
5040 Clear 13 1017 64 10000 2.68 208 13:33 28.10.2021
5041 Clear 12 1017 61 10000 2.59 204 12:49 28.10.2021
5042 Clear 12 1018 69 10000 2.36 196 11:37 28.10.2021
5043 Clear 7 1020 85 10000 0.92 174 10:23 28.10.2021
5044 Clear 8 1020 73 10000 0.93 174 09:36 28.10.2021
5045 Clear 0 1020 81 10000 0.49 93 08:36 28.10.2021
5046 Clear 6 1022 88 10000 0.76 89 07:41 28.10.2021
5047 Clear 8 1023 88 10000 0.99 67 01:37 28.10.2021
5048 Clear 7 1024 87 10000 0.89 101 22:47 27.10.2021
5049 Clear 8 1024 86 10000 0.93 119 21:52 27.10.2021
5050 Clear 5 1023 71 10000 0.86 127 21:18 27.10.2021
5051 Clear 9 1023 84 10000 0.86 127 20:40 27.10.2021
5052 Clouds 10 1023 80 10000 0.82 138 19:45 27.10.2021
5053 Clouds 12 1021 70 10000 1.47 175 18:55 27.10.2021
5054 Clouds 16 1020 36 10000 2.43 212 16:55 27.10.2021
5055 Clouds 16 1019 31 10000 2.5 206 16:24 27.10.2021
5056 Clouds 17 1020 36 10000 2.39 210 15:24 27.10.2021
5057 Clouds 17 1021 38 10000 2.22 199 14:19 27.10.2021
5058 Clouds 11 1022 24 10000 1.47 183 11:18 27.10.2021
5059 Clouds 9 1022 24 10000 1.47 183 10:36 27.10.2021
5060 Clouds 0 1024 64 10000 1.68 53 08:58 27.10.2021
5061 Clear 1 1023 62 10000 1.68 40 07:39 27.10.2021
5062 Clear 1 1023 56 10000 2.18 33 05:37 27.10.2021
5063 Clouds 3 1025 63 10000 2.55 23 01:21 27.10.2021
5064 Clouds 4 1025 67 10000 2.55 23 00:39 27.10.2021
5065 Clouds 8 1026 72 10000 2.47 29 23:52 26.10.2021
5066 Clouds 8 1026 63 10000 2.5 28 22:44 26.10.2021
5067 Clouds 8 1026 81 10000 2.58 28 22:21 26.10.2021
5068 Clouds 9 1026 81 10000 2.58 28 21:32 26.10.2021
5069 Clear 9 1025 90 10000 2.62 18 19:34 26.10.2021
5070 Clear 9 1024 81 10000 2.43 13 18:54 26.10.2021
5071 Clear 13 1022 60 10000 2.29 358 17:36 26.10.2021
5072 Clear 14 1022 44 10000 1.61 333 15:46 26.10.2021
5073 Clear 14 1022 55 10000 0.95 267 12:33 26.10.2021
5074 Clear 11 1023 50 10000 0.75 9 10:48 26.10.2021
5075 Clouds 1 1024 76 10000 2.9 23 08:24 26.10.2021
5076 Clouds 6 1025 74 10000 2.78 23 07:21 26.10.2021
5077 Clouds 8 1025 71 10000 2.67 23 00:19 26.10.2021
5078 Clouds 8 1025 69 10000 2.49 24 23:20 25.10.2021
5079 Clouds 8 1024 67 10000 2.35 24 22:28 25.10.2021
5080 Clouds 8 1024 79 10000 2.35 24 21:42 25.10.2021
5081 Clouds 9 1023 74 10000 2.48 23 20:26 25.10.2021
5082 Clouds 10 1023 74 10000 2.48 23 19:43 25.10.2021
5083 Clouds 12 1022 66 10000 1.56 12 19:21 25.10.2021
5084 Clouds 14 1022 66 10000 1.57 13 18:33 25.10.2021
5085 Clouds 16 1020 45 10000 1.74 231 16:38 25.10.2021
5086 Clear 16 1020 47 10000 2.22 214 14:45 25.10.2021
5087 Clear 12 1021 59 10000 2.08 201 12:31 25.10.2021
5088 Clear 7 1022 41 10000 0.72 169 10:30 25.10.2021
5089 Clear 1 1023 76 10000 1.57 39 08:54 25.10.2021
5090 Clear 7 1023 64 10000 1.98 38 06:26 25.10.2021
5091 Clear 2 1024 78 10000 1.55 27 02:42 25.10.2021
5092 Clear 7 1025 77 10000 1.08 27 00:47 25.10.2021
5093 Clear 4 1024 75 10000 1.14 39 23:47 24.10.2021
5094 Clear 5 1024 71 10000 1.13 41 22:56 24.10.2021
5095 Clear 5 1024 71 10000 1.13 41 22:37 24.10.2021
5096 Clear 3 1024 71 10000 0.99 43 22:18 24.10.2021
5097 Clear 9 1025 72 10000 1.13 45 20:46 24.10.2021
5098 Clear 9 1024 69 10000 0.86 35 20:27 24.10.2021
5099 Clear 14 1022 65 10000 0.49 244 18:53 24.10.2021
5100 Clear 15 1021 49 10000 1.8 222 17:58 24.10.2021
5101 Clear 13 1021 45 10000 0.45 0 17:29 24.10.2021
5102 Clear 17 1020 40 10000 2.33 212 15:47 24.10.2021
5103 Clear 14 1021 48 10000 2.38 205 13:52 24.10.2021
5104 Clear 12 1022 53 10000 2.16 196 12:41 24.10.2021
5105 Clear 9 1022 24 10000 1.66 184 11:41 24.10.2021
5106 Clear 3 1022 25 10000 0.89 165 10:45 24.10.2021
5107 Clear 10 1023 28 10000 0.28 78 09:54 24.10.2021
5108 Clear -2 1023 73 10000 1.33 45 05:35 24.10.2021
5109 Clear 3 1024 66 10000 0.73 47 00:44 24.10.2021
5110 Clear 3 1024 63 10000 0.88 35 23:32 23.10.2021
5111 Clear 5 1023 57 10000 0.99 49 21:50 23.10.2021
5112 Clear 9 1023 59 10000 1.59 41 19:47 23.10.2021
5113 Clear 13 1022 55 10000 1.33 14 18:48 23.10.2021
5114 Clear 14 1020 39 10000 0.71 322 18:21 23.10.2021
5115 Clear 14 1020 39 10000 0.71 322 17:42 23.10.2021
5116 Clear 15 1019 30 10000 0.89 278 16:20 23.10.2021
5117 Clear 16 1019 32 10000 1.23 227 13:57 23.10.2021
5118 Clear 6 1026 86 10000 3.56 17 03:32 23.10.2021
5119 Clouds 8 1025 89 10000 3.17 11 23:42 22.10.2021
5120 Clouds 8 1025 88 10000 3.36 14 22:44 22.10.2021
5121 Clouds 10 1023 91 10000 2.99 11 19:51 22.10.2021
5122 Clouds 13 1021 80 10000 2.94 1 18:40 22.10.2021
5123 Clouds 14 1019 56 10000 3.1 359 17:25 22.10.2021
5124 Clouds 15 1018 47 10000 2.14 346 14:58 22.10.2021
5125 Clouds 14 1019 51 10000 2.06 0 12:54 22.10.2021
5126 Clouds 9 1020 61 10000 2.12 9 10:58 22.10.2021
5127 Clouds 9 1020 61 10000 2.12 9 10:37 22.10.2021
5128 Clouds 8 1021 74 10000 2.41 13 09:36 22.10.2021
5129 Clouds 7 1019 83 10000 2.12 7 07:53 22.10.2021
5130 Clouds 7 1019 82 10000 1.83 6 07:21 22.10.2021
5131 Clouds 9 1019 88 10000 1.6 357 02:37 22.10.2021
5132 Clouds 9 1019 88 10000 1.6 357 02:37 22.10.2021
5133 Clouds 9 1019 88 10000 1.6 357 02:37 22.10.2021
5134 Clouds 10 1019 93 3759 1.89 360 23:51 21.10.2021
5135 Clouds 10 1019 93 10000 1.84 4 22:44 21.10.2021
5136 Clouds 10 1019 92 10000 2.06 357 21:39 21.10.2021
5137 Clouds 11 1019 94 10000 2.13 0 20:26 21.10.2021
5138 Clouds 11 1018 93 10000 2.05 357 19:56 21.10.2021
5139 Clouds 11 1018 93 10000 1.82 338 19:25 21.10.2021
5140 Clouds 12 1018 93 10000 1.82 338 18:34 21.10.2021
5141 Clouds 13 1017 88 10000 1.47 307 17:51 21.10.2021
5142 Clouds 13 1016 80 10000 1.55 274 16:50 21.10.2021
5143 Clouds 14 1016 74 10000 1.82 244 15:33 21.10.2021
5144 Clouds 12 1017 73 10000 0.89 322 14:56 21.10.2021
5145 Clouds 12 1017 73 10000 0.89 240 14:37 21.10.2021
5146 Clouds 12 1017 73 10000 0.89 240 14:37 21.10.2021
5147 Clouds 10 1019 81 10000 2.31 228 11:56 21.10.2021
5148 Clouds 8 1018 84 10000 1.18 12 09:39 21.10.2021
5149 Clouds 11 1018 94 10000 2.24 19 07:48 21.10.2021
5150 Clouds 8 1018 86 10000 2.53 20 06:45 21.10.2021
5151 Clouds 9 1020 81 4444 0.45 71 00:39 21.10.2021
5152 Clouds 10 1020 80 2189 1.6 231 22:29 20.10.2021
5153 Clouds 10 1020 79 2247 1.61 231 21:47 20.10.2021
5154 Clouds 15 1020 97 4869 2.04 217 20:58 20.10.2021
5155 Clouds 15 1020 97 4869 2.04 217 20:39 20.10.2021
5156 Clouds 15 1020 96 10000 2.3 213 20:18 20.10.2021
5157 Clouds 17 1019 92 10000 2.67 215 19:23 20.10.2021
5158 Clouds 18 1019 80 10000 3.13 212 18:29 20.10.2021
5159 Clouds 16 1021 64 10000 1.79 266 16:37 20.10.2021
5160 Clouds 18 1021 58 10000 3.22 206 13:54 20.10.2021
5161 Clouds 16 1024 63 10000 1.17 217 09:53 20.10.2021
5162 Clouds 10 1025 85 10000 0.38 297 05:30 20.10.2021
5163 Clouds 11 1027 88 10000 0.06 338 01:48 20.10.2021
5164 Clouds 11 1027 89 10000 0.17 261 00:33 20.10.2021
5165 Clouds 12 1028 91 10000 0.05 274 22:30 19.10.2021
5166 Clouds 12 1027 89 10000 0.14 159 21:35 19.10.2021
5167 Clouds 14 1027 85 10000 0.66 197 20:26 19.10.2021
5168 Clouds 14 1027 84 10000 0.54 191 19:56 19.10.2021
5169 Clouds 17 1026 79 10000 1.55 210 19:29 19.10.2021
5170 Clouds 18 1026 79 10000 1.55 210 18:31 19.10.2021
5171 Clouds 21 1024 50 10000 2.56 212 17:24 19.10.2021
5172 Clouds 20 1025 44 10000 2.67 211 15:28 19.10.2021
5173 Clouds 20 1025 44 10000 2.67 211 14:33 19.10.2021
5174 Clouds 20 1026 46 10000 2.65 212 13:49 19.10.2021
5175 Clouds 17 1026 51 10000 2.31 216 11:59 19.10.2021
5176 Clouds 15 1027 58 10000 1.76 217 11:23 19.10.2021
5177 Clouds 15 1027 69 10000 0.76 219 09:42 19.10.2021
5178 Clouds 4 1029 77 10000 0.17 353 08:56 19.10.2021
5179 Clouds 6 1029 77 10000 0.45 22 00:36 19.10.2021
5180 Clouds 7 1029 75 10000 0.43 22 23:56 18.10.2021
5181 Clouds 6 1028 74 10000 0.79 29 23:22 18.10.2021
5182 Clouds 6 1028 74 10000 0.79 29 22:55 18.10.2021
5183 Clouds 7 1027 70 10000 0.62 33 21:58 18.10.2021
5184 Clouds 7 1027 70 10000 0.62 33 21:58 18.10.2021
5185 Clouds 12 1027 85 10000 0.52 31 20:46 18.10.2021
5186 Clouds 12 1026 80 10000 0.21 213 20:21 18.10.2021
5187 Clouds 15 1026 80 10000 0.21 213 19:31 18.10.2021
5188 Clouds 17 1024 67 10000 1.07 226 18:58 18.10.2021
5189 Clouds 16 1024 39 10000 1.79 232 16:32 18.10.2021
5190 Clouds 18 1022 35 10000 1.51 231 14:41 18.10.2021
5191 Clouds 13 1023 39 10000 0.72 218 11:47 18.10.2021
5192 Clouds 4 1024 51 10000 0.76 29 09:47 18.10.2021
5193 Clear 9 1024 74 10000 1.8 35 06:39 18.10.2021
5194 Clouds 7 1023 78 10000 1.59 19 23:54 17.10.2021
5195 Clouds 10 1023 83 10000 1.32 35 22:27 17.10.2021
5196 Clouds 11 1023 83 10000 1.32 35 21:44 17.10.2021
5197 Clouds 12 1022 84 10000 0.97 24 20:49 17.10.2021
5198 Clouds 13 1021 81 10000 0.4 359 19:56 17.10.2021
5199 Clouds 13 1021 81 10000 0.4 359 19:37 17.10.2021
5200 Clouds 13 1019 57 10000 1.79 201 18:28 17.10.2021
5201 Clouds 15 1019 47 10000 1.79 244 15:57 17.10.2021
5202 Clouds 14 1019 51 10000 2.77 217 14:38 17.10.2021
5203 Clouds 17 1017 38 10000 2.5 212 13:56 17.10.2021
5204 Clouds 15 1017 38 10000 2.5 212 13:30 17.10.2021
5205 Clouds 11 1018 37 10000 0.58 219 11:27 17.10.2021
5206 Clouds 12 1018 44 10000 0.58 26 09:56 17.10.2021
5207 Clouds 8 1019 59 10000 1.7 31 07:42 17.10.2021
5208 Clear 8 1020 87 10000 0.64 26 02:35 17.10.2021
5209 Clear 10 1021 89 10000 0.63 45 00:29 17.10.2021
5210 Clear 10 1020 88 10000 0.46 28 22:40 16.10.2021
5211 Clear 11 1020 81 10000 0.77 47 20:36 16.10.2021
5212 Clear 11 1019 77 10000 0.3 59 19:58 16.10.2021
5213 Clear 12 1019 77 10000 0.3 59 19:39 16.10.2021
5214 Clear 13 1018 67 10000 1.22 217 19:18 16.10.2021
5215 Clear 17 1018 67 10000 1.22 217 18:43 16.10.2021
5216 Clear 16 1017 45 10000 1.88 221 18:22 16.10.2021
5217 Clear 14 1017 51 10000 2.24 207 17:30 16.10.2021
5218 Clear 16 1017 33 10000 1.79 234 15:40 16.10.2021
5219 Clear 14 1017 35 10000 2.13 212 12:45 16.10.2021
5220 Clear 9 1018 27 10000 1.08 198 10:57 16.10.2021
5221 Clear 8 1019 39 10000 1.97 33 08:56 16.10.2021
5222 Clouds 8 1020 43 10000 2.69 24 01:37 16.10.2021
5223 Clouds 9 1021 53 10000 2.62 25 00:29 16.10.2021
5224 Clouds 9 1021 63 10000 2.74 22 23:25 15.10.2021
5225 Clouds 10 1021 72 10000 2.9 17 22:20 15.10.2021
5226 Clouds 10 1021 72 10000 2.9 17 21:37 15.10.2021
5227 Clouds 11 1020 75 10000 2.91 18 20:52 15.10.2021
5228 Clouds 12 1020 72 10000 2.9 16 20:22 15.10.2021
5229 Clouds 14 1018 61 10000 2.37 5 19:19 15.10.2021
5230 Clouds 16 1017 43 10000 1.83 348 17:59 15.10.2021
5231 Clouds 17 1016 47 10000 1.17 326 15:45 15.10.2021
5232 Clouds 15 1017 29 10000 0.87 330 13:39 15.10.2021
5233 Clouds 12 1018 31 10000 1.29 356 11:52 15.10.2021
5234 Clouds 10 1019 35 10000 1.79 12 10:58 15.10.2021
5235 Clouds 9 1020 47 10000 1.89 15 10:19 15.10.2021
5236 Clouds -1 1021 74 10000 2.48 18 06:57 15.10.2021
5237 Clear 2 1022 74 10000 1.45 9 02:31 15.10.2021
5238 Clear 5 1023 74 10000 0.83 2 00:22 15.10.2021
5239 Clear 6 1023 69 10000 0.77 2 22:52 14.10.2021
5240 Clear 5 1024 69 10000 0.62 14 21:46 14.10.2021
5241 Clear 9 1024 66 10000 0.53 26 20:55 14.10.2021
5242 Clear 10 1023 63 10000 0.25 24 20:20 14.10.2021
5243 Clear 11 1023 63 10000 0.25 24 19:42 14.10.2021
5244 Clear 17 1021 38 10000 2.11 214 17:39 14.10.2021
5245 Clear 18 1021 29 10000 2.55 219 16:56 14.10.2021
5246 Clear 16 1022 33 10000 1.34 227 16:21 14.10.2021
5247 Clear 18 1021 24 10000 2.79 219 14:44 14.10.2021
5248 Clear 17 1021 24 10000 2.78 220 14:24 14.10.2021
5249 Clear 12 1021 31 10000 1.31 209 11:56 14.10.2021
5250 Clear 2 1022 23 10000 0.51 198 10:46 14.10.2021
5251 Clouds 1 1024 51 10000 2.47 30 07:39 14.10.2021
5252 Clouds 1 1022 39 10000 0.45 69 03:51 14.10.2021
5253 Clouds 4 1023 37 10000 3.48 22 00:31 14.10.2021
5254 Clouds 7 1026 31 10000 3.6 19 22:32 13.10.2021
5255 Clouds 7 1026 42 10000 3.75 19 21:34 13.10.2021
5256 Clouds 8 1025 73 10000 3.77 19 20:23 13.10.2021
5257 Clouds 9 1022 61 10000 3.73 10 19:19 13.10.2021
5258 Clouds 10 1022 61 10000 3.73 10 18:37 13.10.2021
5259 Clouds 17 1019 26 10000 3.59 1 15:53 13.10.2021
5260 Clear 17 1019 27 10000 3.51 358 14:46 13.10.2021
5261 Clear 17 1019 29 10000 3.45 360 14:22 13.10.2021
5262 Clear 12 1020 28 10000 1.34 158 12:23 13.10.2021
5263 Clear 11 1019 35 10000 3.05 358 11:35 13.10.2021
5264 Clear 3 1020 54 10000 3.76 13 08:57 13.10.2021
5265 Clear 3 1020 55 10000 3.85 12 07:43 13.10.2021
5266 Clear 9 1022 52 10000 3.72 12 02:30 13.10.2021
5267 Clouds 9 1022 56 10000 3.97 13 01:47 13.10.2021
5268 Clouds 9 1022 54 10000 3.78 12 23:31 12.10.2021
5269 Clouds 9 1021 57 10000 3.66 12 23:31 12.10.2021
5270 Clouds 9 1021 57 10000 3.64 12 22:47 12.10.2021
5271 Clouds 10 1021 58 10000 3.57 13 22:23 12.10.2021
5272 Clouds 10 1021 60 10000 3.66 14 20:46 12.10.2021
5273 Clouds 11 1021 66 10000 3.59 14 20:18 12.10.2021
5274 Clouds 12 1019 55 10000 3.44 8 18:45 12.10.2021
5275 Clear 16 1018 39 10000 3.27 2 17:57 12.10.2021
5276 Clear 16 1017 31 10000 3.66 3 16:39 12.10.2021
5277 Clear 17 1017 29 10000 3.78 359 15:58 12.10.2021
5278 Clear 17 1018 22 10000 3.13 223 14:46 12.10.2021
5279 Clouds 16 1019 23 10000 1.79 257 13:44 12.10.2021
5280 Clouds 14 1019 36 10000 0.45 0 12:40 12.10.2021
5281 Clouds 12 1020 28 10000 3.09 9 09:59 12.10.2021
5282 Clouds 2 1021 50 10000 3.52 16 08:44 12.10.2021
5283 Clear 3 1021 51 10000 3.71 17 07:54 12.10.2021
5284 Clear 2 1021 46 10000 3.63 18 05:31 12.10.2021
5285 Clear 1 1022 49 10000 3.54 19 04:33 12.10.2021
5286 Clear 4 1023 43 10000 2.98 19 00:28 12.10.2021
5287 Clear 5 1023 36 10000 2.98 19 23:41 11.10.2021
5288 Clear 8 1024 27 10000 2.97 21 22:57 11.10.2021
5289 Clear 10 1024 32 10000 3.1 22 21:46 11.10.2021
5290 Clear 11 1024 40 10000 3.18 20 20:47 11.10.2021
5291 Clear 12 1024 47 10000 3.11 20 19:45 11.10.2021
5292 Clear 17 1023 46 10000 2.73 13 18:43 11.10.2021
5293 Clear 17 1021 32 10000 2.04 360 17:49 11.10.2021
5294 Clear 18 1021 21 10000 2.33 359 16:39 11.10.2021
5295 Clear 20 1021 13 10000 2.37 1 15:51 11.10.2021
5296 Clear 18 1022 12 10000 1.34 248 14:55 11.10.2021
5297 Clear 15 1022 16 10000 1.34 265 14:33 11.10.2021
5298 Clear 18 1021 17 10000 2.47 2 13:36 11.10.2021
5299 Clear 13 1022 15 10000 2.69 10 11:39 11.10.2021
5300 Clear 9 1023 25 10000 3.08 18 10:31 11.10.2021
5301 Clear 5 1024 38 10000 3.72 20 09:22 11.10.2021
5302 Clouds 7 1024 28 10000 3.8 22 06:30 11.10.2021
5303 Clear 7 1026 32 10000 3.43 23 01:38 11.10.2021
5304 Clear 8 1026 38 10000 3.47 23 00:46 11.10.2021
5305 Clear 8 1026 36 10000 3.34 22 23:57 10.10.2021
5306 Clear 10 1025 57 10000 3.09 20 21:52 10.10.2021
5307 Clear 10 1025 57 10000 3.09 20 21:31 10.10.2021
5308 Clear 11 1025 81 10000 3.2 19 20:42 10.10.2021
5309 Clear 13 1024 84 10000 3.15 18 20:21 10.10.2021
5310 Clear 14 1024 84 10000 3.15 18 19:58 10.10.2021
5311 Clear 14 1024 84 10000 3.15 18 19:35 10.10.2021
5312 Clear 16 1022 69 10000 2.59 6 18:33 10.10.2021
5313 Clear 15 1021 57 10000 1.34 204 16:45 10.10.2021
5314 Clear 16 1021 53 10000 1.79 194 15:42 10.10.2021
5315 Clear 17 1020 58 10000 1.29 284 13:43 10.10.2021
5316 Clear 16 1020 62 10000 1.26 275 12:51 10.10.2021
5317 Clear 15 1020 64 10000 1.26 275 12:33 10.10.2021
5318 Clear 12 1021 29 10000 0.96 292 10:42 10.10.2021
5319 Clear 9 1023 88 10000 1.96 16 09:29 10.10.2021
5320 Clear 9 1023 88 10000 1.96 16 08:53 10.10.2021
5321 Clear 9 1023 52 10000 2.16 19 06:54 10.10.2021
5322 Clear 10 1023 72 10000 1.56 14 02:29 10.10.2021
5323 Clear 11 1024 77 10000 1.66 17 00:55 10.10.2021
5324 Clouds 11 1024 81 10000 1.77 21 23:52 09.10.2021
5325 Clouds 11 1024 81 10000 1.77 21 23:52 09.10.2021
5326 Clouds 11 1024 87 10000 1.99 20 22:39 09.10.2021
5327 Clouds 12 1023 93 10000 2.16 22 21:31 09.10.2021
5328 Clouds 12 1023 93 10000 2.2 17 20:59 09.10.2021
5329 Clouds 12 1023 93 10000 2.2 17 20:59 09.10.2021
5330 Clear 14 1022 91 10000 1.97 8 19:42 09.10.2021
5331 Clear 15 1020 79 10000 0.99 329 18:57 09.10.2021
5332 Clear 16 1019 58 10000 1.01 281 18:27 09.10.2021
5333 Clear 16 1020 55 10000 1.34 254 16:28 09.10.2021
5334 Clear 16 1020 55 10000 1.34 321 14:57 09.10.2021
5335 Clear 14 1021 60 10000 0.45 194 13:40 09.10.2021
5336 Clear 16 1020 64 10000 1.81 231 12:37 09.10.2021
5337 Clear 13 1020 76 10000 1.4 241 11:26 09.10.2021
5338 Clear 11 1021 88 10000 0.8 244 10:22 09.10.2021
5339 Clear 10 1021 88 10000 0.73 2 09:29 09.10.2021
5340 Clear 8 1021 89 10000 1.24 13 08:28 09.10.2021
5341 Clear 9 1021 87 10000 1.1 15 06:47 09.10.2021
5342 Clear 9 1021 90 10000 0.89 4 05:20 09.10.2021
5343 Clear 10 1021 86 10000 0.72 2 02:47 09.10.2021
5344 Clear 10 1022 86 10000 0.47 27 00:43 09.10.2021
5345 Clear 11 1022 85 10000 0.55 44 23:35 08.10.2021
5346 Clear 11 1023 83 10000 0.66 50 22:47 08.10.2021
5347 Clear 11 1022 81 10000 0.58 46 21:45 08.10.2021
5348 Clear 12 1022 78 10000 0.22 32 20:31 08.10.2021
5349 Clear 17 1019 43 10000 1.81 225 18:23 08.10.2021
5350 Clear 16 1019 50 10000 1.79 242 17:18 08.10.2021
5351 Clear 16 1019 50 10000 1.79 242 17:18 08.10.2021
5352 Clear 15 1019 51 10000 1.79 275 17:18 08.10.2021
5353 Clear 14 1019 46 10000 1.34 231 16:43 08.10.2021
5354 Clear 16 1019 44 10000 1.79 194 16:21 08.10.2021
5355 Clouds 14 1020 28 10000 2.01 227 13:48 08.10.2021
5356 Clouds 14 1020 33 10000 1.24 246 11:56 08.10.2021
5357 Clouds 10 1020 35 10000 0.72 303 10:47 08.10.2021
5358 Clouds 8 1021 34 10000 1.69 6 09:48 08.10.2021
5359 Clear 2 1021 45 10000 3.11 17 05:56 08.10.2021
5360 Clear 9 1023 53 10000 3.51 13 23:26 07.10.2021
5361 Clear 9 1023 53 10000 3.51 13 22:55 07.10.2021
5362 Clear 11 1023 60 10000 3.68 16 21:29 07.10.2021
5363 Clear 11 1023 61 10000 3.65 16 20:42 07.10.2021
5364 Clouds 11 1022 67 10000 3.81 14 19:38 07.10.2021
5365 Clouds 17 1021 58 10000 3.55 11 18:54 07.10.2021
5366 Clouds 17 1020 43 10000 3.38 4 17:34 07.10.2021
5367 Clouds 18 1020 36 10000 3.71 4 16:42 07.10.2021
5368 Clouds 19 1019 31 10000 3.48 1 14:56 07.10.2021
5369 Clouds 16 1021 27 10000 1.34 257 13:44 07.10.2021
5370 Clouds 15 1021 26 10000 0.45 65 13:19 07.10.2021
5371 Clouds 13 1021 18 10000 3.45 6 11:21 07.10.2021
5372 Clouds 14 1021 18 10000 3.45 6 10:46 07.10.2021
5373 Clouds 12 1022 18 10000 3.69 10 09:47 07.10.2021
5374 Clouds 3 1023 54 10000 0.45 74 08:54 07.10.2021
5375 Clouds 1 1023 53 10000 4.12 17 08:19 07.10.2021
5376 Clouds 2 1023 52 10000 4.13 17 07:38 07.10.2021
5377 Clouds 2 1023 51 10000 4.02 16 06:41 07.10.2021
5378 Clouds 8 1026 49 10000 3.73 15 00:52 07.10.2021
5379 Clouds 4 1024 49 10000 3.8 15 23:20 06.10.2021
5380 Clouds 9 1027 65 10000 3.8 15 22:31 06.10.2021
5381 Clouds 9 1027 78 10000 3.86 14 21:26 06.10.2021
5382 Clouds 10 1026 79 10000 3.59 10 20:28 06.10.2021
5383 Clouds 11 1024 63 10000 3.3 2 18:59 06.10.2021
5384 Clouds 15 1022 35 10000 3.35 352 17:26 06.10.2021
5385 Clouds 18 1022 31 10000 2.8 343 15:37 06.10.2021
5386 Clouds 14 1022 36 10000 2.31 331 14:43 06.10.2021
5387 Clouds 11 1023 41 10000 1.34 223 13:24 06.10.2021
5388 Clouds 11 1024 43 10000 2.3 349 12:47 06.10.2021
5389 Clouds 12 1024 55 10000 2.92 359 12:25 06.10.2021
5390 Clouds 10 1024 65 10000 3.49 7 11:23 06.10.2021
5391 Clouds 9 1025 74 10000 3.51 3 09:40 06.10.2021
5392 Clouds 9 1024 83 10000 3.07 1 08:58 06.10.2021
5393 Clouds 8 1024 83 10000 3.08 1 08:30 06.10.2021
5394 Clouds 10 1022 88 10000 2.76 2 05:38 06.10.2021
5395 Clouds 8 1021 81 2039 1.94 347 01:38 06.10.2021
5396 Clouds 11 1022 79 344 1.97 350 00:20 06.10.2021
5397 Clouds 8 1021 79 344 1.97 350 23:50 05.10.2021
5398 Clouds 9 1021 77 442 2.08 3 23:29 05.10.2021
5399 Clouds 12 1022 79 442 2.08 3 22:30 05.10.2021
5400 Clouds 12 1021 79 10000 2.25 10 21:51 05.10.2021
5401 Clouds 12 1021 78 10000 2.54 14 20:51 05.10.2021
5402 Clouds 13 1020 93 10000 2.78 15 20:25 05.10.2021
5403 Clouds 12 1020 93 10000 2.78 15 19:50 05.10.2021
5404 Clouds 13 1019 82 10000 2.29 11 19:21 05.10.2021
5405 Clouds 15 1017 66 10000 1.53 3 17:23 05.10.2021
5406 Clouds 13 1017 61 10000 1.06 329 15:22 05.10.2021
5407 Clouds 14 1017 56 10000 1.28 307 13:44 05.10.2021
5408 Clouds 14 1017 60 10000 0.98 269 12:57 05.10.2021
5409 Clouds 14 1017 64 10000 0.98 269 12:32 05.10.2021
5410 Clouds 11 1018 79 10000 1.31 298 11:22 05.10.2021
5411 Clouds 11 1018 65 10000 1.1 293 09:50 05.10.2021
5412 Clouds 1 1019 84 10000 1.19 32 05:36 05.10.2021
5413 Clouds 7 1024 86 10000 2.05 30 23:54 04.10.2021
5414 Clouds 8 1024 86 10000 2.49 25 22:39 04.10.2021
5415 Clouds 7 1023 90 10000 3.06 18 20:43 04.10.2021
5416 Clouds 15 1020 93 10000 2.8 10 18:47 04.10.2021
5417 Clouds 16 1019 83 10000 3.05 358 16:39 04.10.2021
5418 Clouds 13 1018 80 10000 3.05 358 15:32 04.10.2021
5419 Clouds 12 1018 78 10000 3.05 359 14:43 04.10.2021
5420 Clouds 11 1018 76 10000 2.97 1 13:57 04.10.2021
5421 Clouds 11 1019 79 10000 2.96 6 13:27 04.10.2021
5422 Clouds 10 1019 75 10000 3.05 11 12:28 04.10.2021
5423 Clouds 9 1019 81 10000 3.05 11 11:31 04.10.2021
5424 Clouds 8 1019 86 10000 3.43 12 10:34 04.10.2021
5425 Clouds 8 1019 95 10000 3.24 12 08:45 04.10.2021
5426 Clouds 7 1019 95 1878 3.12 13 07:43 04.10.2021
5427 Rain 8 1017 94 10000 3.52 23 01:56 04.10.2021
5428 Rain 12 1016 97 2315 2.44 14 22:41 03.10.2021
5429 Rain 13 1016 97 3418 2.55 22 21:42 03.10.2021
5430 Rain 12 1016 98 1617 3.68 351 21:23 03.10.2021
5431 Clouds 12 1012 97 1656 3.23 14 20:21 03.10.2021
5432 Rain 13 1012 97 1656 3.23 14 19:30 03.10.2021
5433 Rain 13 1012 97 1656 3.23 14 19:30 03.10.2021
5434 Rain 12 1011 87 10000 0.45 0 18:27 03.10.2021
5435 Clouds 14 1011 80 10000 0.89 184 17:24 03.10.2021
5436 Clouds 15 1011 74 10000 1.79 205 14:47 03.10.2021
5437 Clouds 16 1011 74 10000 2.24 248 14:18 03.10.2021
5438 Clouds 15 1011 74 10000 1.79 230 13:34 03.10.2021
5439 Clouds 17 1011 69 10000 4.1 194 12:29 03.10.2021
5440 Clouds 16 1011 74 10000 3.61 195 10:37 03.10.2021
5441 Clouds 15 1012 97 894 3.08 196 08:43 03.10.2021
5442 Clouds 16 1014 99 720 2.93 196 01:44 03.10.2021
5443 Clouds 15 1016 83 10000 2.42 196 22:40 02.10.2021
5444 Clouds 16 1016 81 10000 1.71 169 20:57 02.10.2021
5445 Clouds 17 1016 77 10000 2 187 19:42 02.10.2021
5446 Clouds 19 1015 63 10000 2.79 200 18:52 02.10.2021
5447 Clouds 19 1014 58 10000 3.81 213 17:54 02.10.2021
5448 Clouds 20 1014 58 10000 3.96 212 17:21 02.10.2021
5449 Clouds 20 1016 54 10000 4.05 211 14:58 02.10.2021
5450 Clouds 18 1024 47 10000 1.34 225 16:34 30.09.2021
5451 Clouds 16 1025 52 10000 1.95 217 14:57 30.09.2021
5452 Clouds 14 1027 57 10000 1.45 214 12:56 30.09.2021
5453 Clouds 14 1026 68 10000 0.62 227 11:35 30.09.2021
5454 Clouds 12 1026 50 10000 0.61 227 10:41 30.09.2021
5455 Clouds 10 1027 84 10000 1.82 17 08:56 30.09.2021
5456 Clouds 9 1028 84 10000 2.53 22 08:27 30.09.2021
5457 Clouds 9 1028 83 10000 2.72 18 06:59 30.09.2021
5458 Clouds 11 1028 79 10000 2.72 15 04:42 30.09.2021
5459 Clouds 12 1029 74 10000 2.81 17 00:46 30.09.2021
5460 Clouds 12 1030 74 10000 2.8 13 23:30 29.09.2021
5461 Clouds 13 1029 90 10000 2.71 12 21:55 29.09.2021
5462 Clouds 15 1029 91 10000 2.85 15 20:57 29.09.2021
5463 Clouds 16 1028 86 10000 2.78 12 20:23 29.09.2021
5464 Clouds 17 1028 86 10000 2.78 12 19:38 29.09.2021
5465 Clouds 18 1026 69 10000 2.78 3 18:22 29.09.2021
5466 Clouds 19 1025 67 10000 3.23 357 17:26 29.09.2021
5467 Clouds 17 1025 67 10000 3.23 357 16:43 29.09.2021
5468 Clouds 18 1025 61 10000 2.72 350 15:45 29.09.2021
5469 Clouds 18 1025 61 10000 2.72 350 15:45 29.09.2021
5470 Clouds 17 1024 56 10000 1.68 325 14:38 29.09.2021
5471 Clouds 17 1025 57 10000 1.26 281 13:36 29.09.2021
5472 Clouds 15 1026 58 10000 0.45 263 12:46 29.09.2021
5473 Clouds 15 1026 74 10000 1.76 6 11:26 29.09.2021
5474 Clouds 14 1026 82 10000 1.76 6 10:34 29.09.2021
5475 Clouds 13 1026 86 10000 1.96 10 09:44 29.09.2021
5476 Clouds 11 1025 87 10000 2.6 10 08:24 29.09.2021
5477 Clouds 11 1025 87 10000 2.61 16 06:53 29.09.2021
5478 Clouds 13 1024 84 10000 2.4 14 00:43 29.09.2021
5479 Clouds 14 1024 82 10000 1.62 20 22:52 28.09.2021
5480 Clouds 14 1024 80 10000 0.85 355 22:22 28.09.2021
5481 Clouds 15 1022 75 10000 0.51 223 21:23 28.09.2021
5482 Clouds 17 1022 68 10000 0.76 205 19:53 28.09.2021
5483 Clouds 17 1022 65 10000 0.76 205 19:32 28.09.2021
5484 Clouds 18 1021 62 10000 1.61 208 18:42 28.09.2021
5485 Clouds 20 1020 56 10000 2.73 218 16:58 28.09.2021
5486 Clouds 18 1022 56 10000 0.89 152 15:21 28.09.2021
5487 Clouds 19 1022 73 10000 3.18 214 13:27 28.09.2021
5488 Clouds 18 1023 73 10000 2.78 215 12:26 28.09.2021
5489 Clouds 17 1023 74 10000 2.78 215 11:51 28.09.2021
5490 Clouds 17 1023 74 10000 2.78 215 11:32 28.09.2021
5491 Clouds 15 1023 84 10000 2.3 216 10:30 28.09.2021
5492 Clouds 13 1024 87 10000 0.84 208 09:29 28.09.2021
5493 Clouds 12 1024 86 10000 0.84 208 08:44 28.09.2021
5494 Clouds 12 1024 86 10000 0.26 213 08:20 28.09.2021
5495 Clouds 9 1024 84 10000 0.31 220 06:46 28.09.2021
5496 Clouds 14 1025 90 10000 0.2 42 01:38 28.09.2021
5497 Clouds 14 1026 88 10000 0.55 20 00:32 28.09.2021
5498 Clouds 15 1026 89 10000 1.08 27 23:52 27.09.2021
5499 Clouds 15 1026 89 10000 1.41 29 23:25 27.09.2021
5500 Clouds 16 1026 89 10000 1.41 29 22:31 27.09.2021
5501 Clouds 16 1025 88 10000 1.56 34 21:38 27.09.2021
5502 Clouds 18 1024 84 10000 1.75 11 20:27 27.09.2021
5503 Clouds 16 1024 85 10000 2 14 19:37 27.09.2021
5504 Clouds 21 1022 71 10000 1.57 356 18:54 27.09.2021
5505 Clouds 22 1021 51 10000 1.1 329 17:41 27.09.2021
5506 Clouds 22 1021 51 10000 1.1 329 17:41 27.09.2021
5507 Clouds 23 1021 42 10000 1.54 295 17:21 27.09.2021
5508 Clouds 22 1021 42 10000 1.54 295 16:35 27.09.2021
5509 Clouds 21 1022 40 10000 1.11 310 15:39 27.09.2021
5510 Clouds 21 1020 53 10000 1.63 13 13:50 27.09.2021
5511 Clouds 16 1021 38 10000 1.32 354 12:25 27.09.2021
5512 Clouds 13 1021 43 10000 0.79 320 10:50 27.09.2021
5513 Clouds 16 1021 53 10000 0.89 301 09:42 27.09.2021
5514 Clouds 12 1022 85 10000 1.26 20 07:54 27.09.2021
5515 Clouds 9 1023 85 10000 0.5 234 03:34 27.09.2021
5516 Clouds 14 1023 80 10000 0.45 99 23:49 26.09.2021
5517 Clouds 15 1023 76 10000 0.7 71 21:59 26.09.2021
5518 Clouds 16 1022 74 10000 1.33 49 21:27 26.09.2021
5519 Clouds 17 1021 71 10000 0.49 359 20:26 26.09.2021
5520 Clouds 18 1021 81 10000 0.49 359 19:54 26.09.2021
5521 Clouds 19 1020 69 10000 1.22 229 19:25 26.09.2021
5522 Clouds 19 1020 69 10000 1.22 229 18:41 26.09.2021
5523 Clouds 21 1019 52 10000 2.28 225 17:38 26.09.2021
5524 Clouds 21 1019 54 10000 2.45 218 17:20 26.09.2021
5525 Clouds 21 1019 53 10000 2.78 217 16:23 26.09.2021
5526 Clouds 22 1019 52 10000 2.41 207 15:27 26.09.2021
5527 Clouds 23 1020 51 10000 2.62 215 14:22 26.09.2021
5528 Clouds 21 1020 53 10000 2.62 215 13:42 26.09.2021
5529 Clear 19 1019 62 10000 2.1 199 12:31 26.09.2021
5530 Clear 17 1020 63 10000 1.21 217 11:56 26.09.2021
5531 Clear 16 1021 73 10000 0.79 276 11:23 26.09.2021
5532 Clear 15 1021 69 10000 0.63 322 09:50 26.09.2021
5533 Clouds 10 1021 86 10000 0.6 355 08:41 26.09.2021
5534 Clouds 14 1020 93 10000 1.37 197 00:29 26.09.2021
5535 Clouds 14 1020 93 10000 1.37 197 23:43 25.09.2021
5536 Clouds 14 1020 92 10000 1.45 183 22:39 25.09.2021
5537 Clouds 14 1020 90 10000 1.66 186 22:18 25.09.2021
5538 Clouds 14 1020 90 10000 1.66 186 22:18 25.09.2021
5539 Clouds 16 1020 76 10000 1.66 186 21:40 25.09.2021
5540 Clouds 17 1020 83 10000 1.88 197 20:52 25.09.2021
5541 Clouds 17 1019 87 10000 2.12 209 19:33 25.09.2021
5542 Rain 20 1017 73 10000 4.37 220 18:28 25.09.2021
5543 Clear 21 1017 68 10000 5.55 222 17:21 25.09.2021
5544 Clear 21 1017 58 10000 4.83 214 14:30 25.09.2021
5545 Clouds 20 1018 60 10000 4.47 215 13:54 25.09.2021
5546 Clouds 15 1018 52 10000 3.82 208 12:37 25.09.2021
5547 Rain 11 1018 66 10000 3.14 214 10:42 25.09.2021
5548 Rain 12 1021 84 10000 1.79 213 09:59 25.09.2021
5549 Clouds 11 1020 83 10000 1.27 215 08:55 25.09.2021
5550 Clouds 10 1019 87 10000 1.23 133 07:47 25.09.2021
5551 Clouds 13 1021 82 10000 0.5 192 00:52 25.09.2021
5552 Clouds 17 1020 78 10000 0.81 130 21:58 24.09.2021
5553 Clouds 18 1020 75 10000 0.88 152 21:25 24.09.2021
5554 Clouds 18 1020 73 10000 0.88 152 20:31 24.09.2021
5555 Clouds 20 1018 64 10000 2.42 218 18:36 24.09.2021
5556 Clouds 21 1017 58 10000 2.57 211 17:56 24.09.2021
5557 Clouds 20 1017 62 10000 2.57 211 17:38 24.09.2021
5558 Clouds 21 1017 61 10000 2.96 218 17:19 24.09.2021
5559 Clouds 22 1017 58 10000 3.04 213 15:38 24.09.2021
5560 Clouds 18 1019 71 10000 2.44 197 13:20 24.09.2021
5561 Clouds 15 1019 57 10000 2.44 197 12:42 24.09.2021
5562 Clouds 14 1019 58 10000 2.59 196 12:24 24.09.2021
5563 Clouds 9 1019 58 10000 2.46 193 10:38 24.09.2021
5564 Clouds 13 1020 71 10000 0.66 93 08:59 24.09.2021
5565 Clouds 6 1022 88 10000 0.74 79 07:55 24.09.2021
5566 Clouds 7 1022 88 10000 1.11 72 06:57 24.09.2021
5567 Clear 7 1022 88 10000 1.2 70 05:22 24.09.2021
5568 Clear 8 1023 84 10000 0.45 74 01:24 24.09.2021
5569 Clear 9 1023 81 10000 0.94 52 22:37 23.09.2021
5570 Clear 13 1023 80 10000 1.05 62 21:57 23.09.2021
5571 Clouds 15 1023 90 10000 1.19 57 20:37 23.09.2021
5572 Clouds 15 1022 77 10000 0.2 82 20:19 23.09.2021
5573 Clouds 17 1021 71 10000 0.42 167 18:27 23.09.2021
5574 Clouds 18 1022 64 10000 1.28 172 15:37 23.09.2021
5575 Clouds 18 1021 61 10000 2.25 180 15:18 23.09.2021
5576 Clouds 17 1022 64 10000 2.37 188 13:49 23.09.2021
5577 Clouds 17 1021 64 10000 2.93 189 13:23 23.09.2021
5578 Clouds 17 1021 61 10000 2.93 189 12:53 23.09.2021
5579 Clouds 16 1021 60 10000 2.35 188 12:23 23.09.2021
5580 Clouds 16 1021 71 10000 2.35 188 11:55 23.09.2021
5581 Clouds 12 1022 83 10000 1.32 171 10:27 23.09.2021
5582 Clouds 14 1022 65 10000 1.32 171 09:53 23.09.2021
5583 Clouds 5 1023 83 10000 1.46 54 08:38 23.09.2021
5584 Clear 7 1023 81 10000 0.45 46 05:27 23.09.2021
5585 Clouds 9 1023 78 10000 1.67 44 23:45 22.09.2021
5586 Clouds 13 1023 94 10000 1.86 37 22:42 22.09.2021
5587 Clouds 14 1023 72 10000 1.81 41 21:57 22.09.2021
5588 Clouds 14 1023 70 10000 1.81 41 21:34 22.09.2021
5589 Clouds 15 1022 65 10000 1.66 33 20:57 22.09.2021
5590 Clouds 17 1022 87 10000 2.26 22 19:33 22.09.2021
5591 Clouds 19 1020 57 10000 0.73 354 18:40 22.09.2021
5592 Clouds 17 1022 52 10000 0.89 192 17:48 22.09.2021
5593 Clouds 16 1022 50 10000 3.13 225 16:40 22.09.2021
5594 Clouds 17 1022 47 10000 1.79 167 15:38 22.09.2021
5595 Clouds 17 1022 48 10000 0.89 9 14:25 22.09.2021
5596 Clouds 12 1023 57 10000 1.63 179 12:19 22.09.2021
5597 Clouds 15 1022 52 10000 0.8 175 10:53 22.09.2021
5598 Clouds 9 1024 87 10000 1.96 43 09:25 22.09.2021
5599 Clouds 8 1024 89 10000 1.96 43 08:30 22.09.2021
5600 Clouds 8 1024 89 10000 1.96 43 08:30 22.09.2021
5601 Clouds 5 1024 86 10000 0.89 293 07:21 22.09.2021
5602 Clouds 5 1024 85 10000 1.69 60 06:18 22.09.2021
5603 Clouds 5 1024 86 10000 1.69 60 05:36 22.09.2021
5604 Clouds 9 1025 88 10000 1.49 47 03:52 22.09.2021
5605 Clouds 10 1027 91 10000 2.19 51 00:22 22.09.2021
5606 Clouds 10 1027 90 10000 2.28 42 23:24 21.09.2021
5607 Clouds 10 1026 94 10000 2.12 34 21:37 21.09.2021
5608 Clouds 11 1025 90 10000 1.48 27 20:27 21.09.2021
5609 Clouds 12 1024 86 10000 1.75 42 19:22 21.09.2021
5610 Rain 13 1024 81 10000 1.5 22 17:39 21.09.2021
5611 Rain 14 1024 67 10000 1.83 4 16:38 21.09.2021
5612 Clouds 16 1024 71 10000 1.9 8 15:44 21.09.2021
5613 Clouds 16 1023 66 10000 2.9 21 14:58 21.09.2021
5614 Clouds 13 1023 55 10000 2.24 292 13:56 21.09.2021
5615 Clouds 13 1023 55 10000 1.79 229 13:36 21.09.2021
5616 Clouds 15 1023 64 10000 1.98 20 12:36 21.09.2021
5617 Clouds 12 1024 67 10000 2.07 28 10:32 21.09.2021
5618 Clouds 6 1026 92 10000 3.48 21 08:29 21.09.2021
5619 Clouds 6 1026 93 10000 3.61 18 07:18 21.09.2021
5620 Clouds 9 1024 94 10000 2.66 14 00:30 21.09.2021
5621 Clouds 9 1024 95 10000 3.2 13 22:27 20.09.2021
5622 Clouds 9 1024 95 10000 3.2 13 21:40 20.09.2021
5623 Clouds 9 1023 94 10000 3.12 15 20:34 20.09.2021
5624 Clouds 12 1022 69 10000 1.97 33 19:31 20.09.2021
5625 Clouds 14 1020 62 10000 2.57 1 17:47 20.09.2021
5626 Clouds 16 1019 53 10000 2.21 2 16:43 20.09.2021
5627 Clouds 17 1019 49 10000 2.37 356 15:50 20.09.2021
5628 Clouds 17 1019 49 10000 2.37 356 15:32 20.09.2021
5629 Clouds 18 1019 50 10000 2.48 1 14:24 20.09.2021
5630 Clouds 12 1020 60 10000 2.37 10 12:35 20.09.2021
5631 Clouds 14 1020 64 10000 2.64 2 11:26 20.09.2021
5632 Clouds 12 1020 74 10000 2.46 354 10:18 20.09.2021
5633 Clouds 11 1020 78 10000 2.46 354 09:36 20.09.2021
5634 Clouds 10 1020 80 10000 2.57 8 09:18 20.09.2021
5635 Clouds 10 1021 82 10000 2.75 17 07:45 20.09.2021
5636 Clouds 12 1022 76 10000 1.71 12 00:36 20.09.2021
5637 Clouds 14 1022 72 10000 2.32 13 22:26 19.09.2021
5638 Clouds 14 1022 70 10000 2.32 13 21:43 19.09.2021
5639 Clouds 15 1021 86 10000 2.48 9 20:43 19.09.2021
5640 Clear 17 1020 83 10000 2.59 0 19:31 19.09.2021
5641 Clouds 20 1017 50 10000 2.55 331 18:29 19.09.2021
5642 Clouds 20 1017 46 10000 2.59 323 17:23 19.09.2021
5643 Clouds 18 1018 42 10000 1.79 289 15:59 19.09.2021
5644 Clouds 18 1019 45 10000 1.34 265 15:30 19.09.2021
5645 Clouds 18 1019 45 10000 1.34 265 15:30 19.09.2021
5646 Clear 17 1019 45 10000 0.89 234 14:48 19.09.2021
5647 Clear 15 1019 53 10000 0.45 275 13:24 19.09.2021
5648 Clear 17 1018 57 10000 1.58 277 12:50 19.09.2021
5649 Clear 14 1019 67 10000 1.97 342 11:28 19.09.2021
5650 Clear 12 1019 74 10000 1.97 342 10:47 19.09.2021
5651 Clear 10 1020 79 10000 2.53 4 09:40 19.09.2021
5652 Clear 9 1020 81 10000 2.87 14 08:31 19.09.2021
5653 Clouds 5 1019 89 10000 3.16 17 06:41 19.09.2021
5654 Clouds 12 1018 94 2015 2.6 2 23:37 18.09.2021
5655 Clouds 10 1018 93 10000 2.13 11 21:59 18.09.2021
5656 Clouds 10 1016 93 4038 1.94 348 20:51 18.09.2021
5657 Clouds 10 1016 93 4038 1.94 348 20:31 18.09.2021
5658 Clouds 11 1016 90 10000 1.17 333 19:39 18.09.2021
5659 Clouds 11 1016 90 10000 1.16 195 19:20 18.09.2021
5660 Rain 12 1016 89 10000 0.45 291 18:32 18.09.2021
5661 Clouds 17 1015 92 10000 1.87 233 17:29 18.09.2021
5662 Clouds 15 1015 81 10000 2.24 261 15:50 18.09.2021
5663 Clouds 14 1017 78 10000 0.89 0 13:46 18.09.2021
5664 Clouds 13 1017 81 10000 3.48 216 13:27 18.09.2021
5665 Clouds 13 1017 86 10000 0.45 0 12:49 18.09.2021
5666 Clouds 11 1018 85 10000 3.57 213 11:38 18.09.2021
5667 Clouds 12 1017 77 10000 2.88 202 10:31 18.09.2021
5668 Clouds 10 1018 83 10000 0.36 173 09:27 18.09.2021
5669 Clouds 13 1017 86 10000 0.36 173 08:48 18.09.2021
5670 Clouds 10 1018 81 10000 1.16 34 00:59 18.09.2021
5671 Clouds 10 1018 81 10000 1.16 34 00:41 18.09.2021
5672 Clouds 9 1018 80 10000 0.97 36 23:44 17.09.2021
5673 Clouds 15 1018 86 10000 0.9 37 22:33 17.09.2021
5674 Clouds 16 1017 86 10000 1.08 43 21:48 17.09.2021
5675 Clouds 18 1016 67 10000 0.69 193 20:25 17.09.2021
5676 Clouds 21 1015 76 10000 1.74 221 18:51 17.09.2021
5677 Clouds 23 1015 67 10000 2.43 223 16:50 17.09.2021
5678 Clouds 22 1015 66 10000 2.24 228 15:50 17.09.2021
5679 Clouds 16 1017 67 10000 2.66 216 12:32 17.09.2021
5680 Clouds 10 1019 84 10000 2.18 214 10:40 17.09.2021
5681 Clear 8 1019 93 10000 0.84 27 07:50 17.09.2021
5682 Clear 8 1019 92 10000 1.08 23 06:29 17.09.2021
5683 Clouds 13 1021 85 10000 1.31 27 00:34 17.09.2021
5684 Clouds 14 1021 84 10000 1.95 16 22:46 16.09.2021
5685 Clouds 14 1021 83 10000 2.03 21 22:24 16.09.2021
5686 Clouds 15 1021 82 10000 2.03 21 21:36 16.09.2021
5687 Clouds 10 1021 90 10000 1.7 18 20:36 16.09.2021
5688 Clouds 16 1019 86 10000 0.83 251 19:18 16.09.2021
5689 Clouds 13 1020 82 10000 1.74 222 18:19 16.09.2021
5690 Clouds 13 1020 82 10000 1.74 222 18:19 16.09.2021
5691 Clouds 14 1020 74 10000 2.03 217 17:19 16.09.2021
5692 Clouds 16 1019 69 9805 0.45 221 14:51 16.09.2021
5693 Rain 16 1020 77 10000 2.51 225 13:40 16.09.2021
5694 Clouds 15 1020 74 10000 2.51 220 12:46 16.09.2021
5695 Clouds 14 1020 76 10000 1.81 208 11:50 16.09.2021
5696 Clouds 13 1020 77 10000 0.11 252 10:56 16.09.2021
5697 Clouds 15 1019 80 10000 1.41 39 10:23 16.09.2021
5698 Clouds 16 1019 85 10000 1.41 39 09:31 16.09.2021
5699 Clouds 14 1019 87 10000 1.27 66 07:52 16.09.2021
5700 Clouds 15 1019 86 10000 0.29 153 06:57 16.09.2021
5701 Clouds 11 1018 84 10000 0.29 153 06:38 16.09.2021
5702 Clouds 15 1019 80 10000 1.45 40 03:22 16.09.2021
5703 Clouds 12 1020 79 10000 1.42 28 00:53 16.09.2021
5704 Clear 17 1019 88 10000 0.84 4 23:26 15.09.2021
5705 Clear 17 1019 87 10000 0.54 290 22:28 15.09.2021
5706 Clear 16 1019 87 10000 0.54 290 21:31 15.09.2021
5707 Clear 17 1018 86 10000 0.84 233 20:42 15.09.2021
5708 Clouds 22 1016 73 10000 1.82 216 19:33 15.09.2021
5709 Clouds 22 1015 57 10000 3.24 202 18:45 15.09.2021
5710 Clouds 24 1015 49 10000 3.39 208 17:39 15.09.2021
5711 Clear 25 1015 49 10000 3.8 215 16:30 15.09.2021
5712 Clear 25 1015 49 10000 3.97 214 15:22 15.09.2021
5713 Clear 25 1015 54 10000 3.97 214 14:41 15.09.2021
5714 Clouds 24 1015 62 10000 4.23 208 13:45 15.09.2021
5715 Clouds 23 1015 70 10000 3.36 203 13:27 15.09.2021
5716 Clouds 21 1015 80 10000 3.36 203 12:33 15.09.2021
5717 Clear 21 1016 77 10000 2.91 199 11:50 15.09.2021
5718 Clear 18 1016 89 10000 1.65 187 10:57 15.09.2021
5719 Clouds 16 1016 91 10000 1.49 185 09:59 15.09.2021
5720 Clear 14 1016 91 10000 0.28 103 08:47 15.09.2021
5721 Clouds 11 1017 93 10000 0.15 64 07:25 15.09.2021
5722 Rain 17 1016 94 10000 1.65 242 00:41 15.09.2021
5723 Clouds 18 1017 88 10000 1.67 141 22:22 14.09.2021
5724 Clouds 19 1017 84 10000 1.75 143 21:19 14.09.2021
5725 Clouds 18 1017 86 10000 1.95 191 19:58 14.09.2021
5726 Clouds 19 1015 88 10000 2.57 203 18:40 14.09.2021
5727 Rain 20 1015 85 10000 3.74 216 17:29 14.09.2021
5728 Clouds 21 1016 80 10000 2.47 217 15:59 14.09.2021
5729 Clouds 24 1016 59 10000 4.32 211 14:32 14.09.2021
5730 Clouds 18 1018 61 10000 0.45 243 13:33 14.09.2021
5731 Clouds 20 1017 70 10000 2.99 203 10:57 14.09.2021
5732 Clouds 17 1018 82 10000 2.71 206 09:52 14.09.2021
5733 Clouds 16 1018 81 10000 1.43 188 09:18 14.09.2021
5734 Clouds 15 1017 83 10000 0.71 220 07:28 14.09.2021
5735 Clouds 17 1019 77 10000 1.75 194 00:56 14.09.2021
5736 Rain 18 1019 86 10000 1.02 174 22:58 13.09.2021
5737 Clouds 18 1019 80 10000 1.14 119 22:26 13.09.2021
5738 Clouds 19 1019 85 10000 1.14 119 21:54 13.09.2021
5739 Rain 10 1021 88 10000 0.89 59 21:19 13.09.2021
5740 Clouds 22 1017 69 10000 0.68 176 19:34 13.09.2021
5741 Rain 22 1017 70 10000 2.21 226 18:43 13.09.2021
5742 Clouds 24 1016 57 10000 2.9 212 16:58 13.09.2021
5743 Clouds 26 1016 49 10000 4.33 215 15:50 13.09.2021
5744 Clouds 24 1018 42 10000 3.35 223 13:36 13.09.2021
5745 Clouds 19 1019 76 10000 1.86 207 11:20 13.09.2021
5746 Clouds 13 1019 67 10000 0.88 185 09:42 13.09.2021
5747 Clouds 14 1020 88 10000 1.19 36 07:28 13.09.2021
5748 Clear 17 1020 75 10000 0.76 49 23:50 12.09.2021
5749 Clouds 18 1019 70 10000 0.94 83 22:26 12.09.2021
5750 Clouds 17 1019 85 10000 0.94 83 21:43 12.09.2021
5751 Clouds 18 1019 82 10000 0.84 132 20:40 12.09.2021
5752 Clouds 19 1018 76 10000 1.37 171 19:54 12.09.2021
5753 Clouds 22 1017 57 10000 1.68 184 19:28 12.09.2021
5754 Clouds 24 1016 51 10000 1.36 209 18:29 12.09.2021
5755 Clouds 25 1016 58 10000 2.16 216 16:33 12.09.2021
5756 Clouds 21 1019 47 10000 1.79 259 14:59 12.09.2021
5757 Clouds 24 1017 55 10000 2.67 208 13:49 12.09.2021
5758 Clouds 19 1018 73 10000 2.4 214 11:31 12.09.2021
5759 Clouds 17 1019 69 10000 1.21 202 09:35 12.09.2021
5760 Clouds 7 1020 85 10000 0.21 40 08:38 12.09.2021
5761 Clouds 16 1021 86 10000 0.82 58 02:22 12.09.2021
5762 Clouds 17 1021 92 10000 1.09 47 23:28 11.09.2021
5763 Clouds 18 1021 92 10000 1.08 49 21:50 11.09.2021
5764 Clouds 19 1021 91 10000 0.42 50 20:59 11.09.2021
5765 Clouds 21 1019 60 10000 1.56 218 19:21 11.09.2021
5766 Clouds 23 1018 61 10000 1.97 227 17:34 11.09.2021
5767 Clouds 19 1020 51 10000 1.79 292 15:48 11.09.2021
5768 Clouds 22 1019 57 10000 2.87 210 13:33 11.09.2021
5769 Clouds 20 1020 62 10000 2.61 211 12:48 11.09.2021
5770 Clouds 18 1021 79 10000 1.98 207 11:19 11.09.2021
5771 Clouds 15 1021 92 10000 1.44 196 09:38 11.09.2021
5772 Clouds 13 1022 95 10000 0.93 50 07:45 11.09.2021
5773 Clouds 13 1022 96 10000 0.83 49 06:48 11.09.2021
5774 Clouds 12 1022 90 10000 0.88 23 23:23 10.09.2021
5775 Clouds 12 1022 88 10000 1.03 18 22:23 10.09.2021
5776 Clouds 13 1022 87 10000 1.03 18 21:48 10.09.2021
5777 Clouds 17 1020 79 10000 0.34 330 19:57 10.09.2021
5778 Rain 15 1019 74 6469 0.89 69 18:26 10.09.2021
5779 Clouds 21 1018 80 6184 0.76 291 16:48 10.09.2021
5780 Clouds 21 1018 61 7960 0.54 266 13:55 10.09.2021
5781 Clouds 19 1018 86 9308 0.24 297 11:54 10.09.2021
5782 Clouds 14 1017 85 10000 1.03 14 08:36 10.09.2021
5783 Clouds 9 1018 90 10000 1.88 27 07:48 10.09.2021
5784 Clouds 16 1018 95 10000 0.68 66 00:42 10.09.2021
5785 Clouds 13 1018 90 3650 0.57 163 22:24 09.09.2021
5786 Clouds 13 1018 89 3950 1.08 166 21:28 09.09.2021
5787 Clouds 17 1017 85 3950 1.08 166 20:42 09.09.2021
5788 Clouds 15 1017 79 10000 0.45 235 18:55 09.09.2021
5789 Rain 18 1015 90 10000 1.37 217 17:54 09.09.2021
5790 Clouds 22 1015 89 8618 2.52 210 16:40 09.09.2021
5791 Clouds 22 1015 76 6052 2.84 202 15:26 09.09.2021
5792 Clouds 19 1014 87 10000 2.23 212 12:34 09.09.2021
5793 Clouds 18 1015 66 10000 1.91 193 11:33 09.09.2021
5794 Clouds 12 1018 93 10000 0.54 136 09:39 09.09.2021
5795 Rain 10 1018 88 10000 1.06 42 08:32 09.09.2021
5796 Clear 10 1017 88 10000 2.09 36 06:24 09.09.2021
5797 Clear 17 1017 83 10000 1.99 20 01:31 09.09.2021
5798 Clear 17 1017 83 10000 1.99 20 01:31 09.09.2021
5799 Clear 17 1017 83 10000 1.99 20 01:31 09.09.2021
5800 Clear 17 1017 83 10000 1.99 20 01:31 09.09.2021
5801 Clear 20 1016 80 10000 0.83 144 21:50 08.09.2021
5802 Clear 20 1016 76 10000 1.41 181 20:57 08.09.2021
5803 Clouds 16 1016 78 10000 2.63 206 19:47 08.09.2021
5804 Rain 18 1015 68 10000 1.79 315 18:49 08.09.2021
5805 Clouds 24 1013 69 10000 4.13 207 18:27 08.09.2021
5806 Clouds 20 1015 61 10000 1.34 240 17:52 08.09.2021
5807 Clouds 23 1015 47 10000 1.34 245 16:24 08.09.2021
5808 Clear 23 1016 44 10000 0.89 237 13:46 08.09.2021
5809 Clear 21 1017 50 10000 0.89 216 12:42 08.09.2021
5810 Clear 21 1017 52 10000 3.28 207 12:23 08.09.2021
5811 Clear 22 1016 67 10000 2.71 206 11:26 08.09.2021
5812 Clear 19 1016 45 10000 2.71 206 10:31 08.09.2021
5813 Clear 18 1016 48 10000 1.77 202 09:56 08.09.2021
5814 Clouds 10 1019 79 10000 0.84 80 07:46 08.09.2021
5815 Clouds 10 1019 79 10000 0.84 71 07:19 08.09.2021
5816 Clouds 15 1022 78 10000 0.66 73 23:32 07.09.2021
5817 Clouds 20 1022 80 10000 0.41 135 22:19 07.09.2021
5818 Clouds 23 1021 86 10000 0.85 138 20:42 07.09.2021
5819 Clouds 21 1021 63 10000 2.12 213 19:26 07.09.2021
5820 Clouds 24 1020 64 10000 2.12 213 18:37 07.09.2021
5821 Clouds 22 1021 58 10000 2.88 211 17:35 07.09.2021
5822 Clouds 26 1019 60 10000 3.64 215 15:57 07.09.2021
5823 Clouds 26 1020 62 10000 3.56 217 14:53 07.09.2021
5824 Clouds 21 1023 58 10000 3.16 222 13:52 07.09.2021
5825 Clouds 17 1024 57 10000 2.49 216 11:58 07.09.2021
5826 Clouds 15 1025 65 10000 0.45 0 10:50 07.09.2021
5827 Clouds 17 1022 55 10000 1.51 218 09:40 07.09.2021
5828 Clouds 10 1024 80 10000 0.53 60 07:47 07.09.2021
5829 Clouds 11 1024 80 10000 1.01 32 06:19 07.09.2021
5830 Clouds 17 1024 83 10000 0.32 27 02:38 07.09.2021
5831 Clouds 18 1025 82 10000 0.81 56 00:55 07.09.2021
5832 Clouds 19 1025 81 10000 0.73 59 23:46 06.09.2021
5833 Clouds 18 1025 78 10000 0.84 71 23:28 06.09.2021
5834 Clouds 18 1025 78 10000 0.86 71 22:49 06.09.2021
5835 Clouds 18 1025 75 10000 0.71 34 21:52 06.09.2021
5836 Clouds 24 1022 50 10000 1.13 208 19:44 06.09.2021
5837 Clouds 26 1021 49 10000 1.46 221 19:18 06.09.2021
5838 Clouds 28 1021 47 10000 1.46 221 18:33 06.09.2021
5839 Clouds 28 1020 46 10000 2.93 228 17:50 06.09.2021
5840 Clouds 27 1022 37 10000 0.89 281 16:20 06.09.2021
5841 Clouds 27 1022 37 10000 0.89 281 16:20 06.09.2021
5842 Clouds 29 1020 44 10000 2.63 230 14:37 06.09.2021
5843 Clouds 25 1022 54 10000 1.45 243 12:48 06.09.2021
5844 Clouds 22 1022 64 10000 1.31 246 11:43 06.09.2021
5845 Clouds 20 1022 46 10000 0.56 255 09:59 06.09.2021
5846 Clouds 8 1025 81 10000 1.95 28 07:34 06.09.2021
5847 Clouds 18 1024 71 10000 1.27 35 01:32 06.09.2021
5848 Clouds 13 1024 67 10000 1.54 38 23:20 05.09.2021
5849 Clouds 19 1024 72 10000 1.54 38 22:32 05.09.2021
5850 Clouds 20 1023 72 10000 1.95 33 21:55 05.09.2021
5851 Clouds 21 1022 60 10000 2.02 29 21:19 05.09.2021
5852 Clouds 26 1019 50 10000 0.91 12 19:22 05.09.2021
5853 Clouds 28 1019 41 10000 0.59 275 17:51 05.09.2021
5854 Clouds 28 1019 31 10000 1.92 235 15:40 05.09.2021
5855 Clouds 27 1019 36 10000 2.15 226 14:45 05.09.2021
5856 Clouds 22 1020 61 10000 1.82 218 12:34 05.09.2021
5857 Clouds 18 1020 46 10000 0.87 218 10:59 05.09.2021
5858 Clouds 15 1020 46 10000 0.87 218 10:34 05.09.2021
5859 Clouds 15 1021 70 10000 0.75 35 09:26 05.09.2021
5860 Clouds 7 1022 87 10000 1.62 34 08:23 05.09.2021
5861 Clear 10 1022 84 10000 1.21 33 03:20 05.09.2021
5862 Clouds 16 1020 81 10000 1.24 42 00:34 05.09.2021
5863 Clouds 17 1020 79 10000 0.78 28 23:46 04.09.2021
5864 Clouds 18 1020 77 10000 0.71 38 22:36 04.09.2021
5865 Clouds 18 1020 74 10000 0.91 30 21:59 04.09.2021
5866 Clouds 20 1018 80 10000 0.54 309 19:54 04.09.2021
5867 Clouds 22 1017 68 10000 0.94 237 19:29 04.09.2021
5868 Clouds 24 1017 65 10000 1.52 242 16:47 04.09.2021
5869 Clouds 23 1018 65 10000 1.84 213 13:49 04.09.2021
5870 Clear 19 1018 90 10000 1.61 207 11:21 04.09.2021
5871 Clouds 9 1020 90 10000 0.71 212 09:33 04.09.2021
5872 Clouds 13 1019 93 10000 1.04 20 06:55 04.09.2021
5873 Clouds 15 1020 94 10000 1.5 35 00:28 04.09.2021
5874 Rain 15 1020 94 10000 1.5 35 23:32 03.09.2021
5875 Clouds 16 1020 91 10000 1.73 32 22:40 03.09.2021
5876 Clouds 16 1020 90 10000 1.44 31 21:36 03.09.2021
5877 Clouds 17 1019 89 10000 0.4 25 20:49 03.09.2021
5878 Clouds 13 1018 82 10000 0.6 321 19:56 03.09.2021
5879 Clouds 15 1018 78 10000 0.83 259 19:23 03.09.2021
5880 Clouds 22 1018 66 10000 1.32 234 17:56 03.09.2021
5881 Clouds 22 1018 66 10000 1.32 234 17:56 03.09.2021
5882 Rain 20 1017 69 8434 1.87 237 16:38 03.09.2021
5883 Clouds 21 1018 72 8634 2.67 224 14:59 03.09.2021
5884 Clouds 19 1019 81 10000 2.23 209 12:26 03.09.2021
5885 Clouds 16 1019 93 10000 1.86 220 10:32 03.09.2021
5886 Clouds 16 1019 93 10000 1.86 220 10:32 03.09.2021
5887 Clouds 14 1019 96 10000 0.91 217 08:59 03.09.2021
5888 Clouds 9 1021 94 10000 0.45 120 07:47 03.09.2021
5889 Clouds 10 1021 93 10000 0.89 47 05:24 03.09.2021
5890 Clear 11 1022 87 10000 0.89 63 23:20 02.09.2021
5891 Clouds 16 1021 90 10000 0.62 143 21:38 02.09.2021
5892 Clouds 20 1019 85 10000 1.51 199 19:56 02.09.2021
5893 Clouds 23 1019 66 10000 1.99 204 17:33 02.09.2021
5894 Clouds 22 1019 68 10000 2.48 197 15:52 02.09.2021
5895 Clouds 17 1021 68 10000 0.45 0 13:57 02.09.2021
5896 Clouds 18 1020 75 10000 2.54 196 12:48 02.09.2021
5897 Clouds 16 1020 82 10000 2.02 185 11:35 02.09.2021
5898 Clouds 15 1020 97 10000 1.33 151 09:44 02.09.2021
5899 Clouds 13 1020 96 10000 1.27 175 07:57 02.09.2021
5900 Clouds 8 1018 87 10000 1.41 139 07:18 02.09.2021
5901 Clouds 9 1023 83 10000 0.45 94 02:56 02.09.2021
5902 Clouds 13 1022 95 10000 1.53 183 01:56 02.09.2021
5903 Clouds 13 1022 95 10000 1.64 138 01:25 02.09.2021
5904 Clouds 13 1022 95 10000 1.06 93 23:39 01.09.2021
5905 Clouds 13 1022 94 10000 0.88 125 22:40 01.09.2021
5906 Clouds 14 1022 94 10000 0.89 141 21:39 01.09.2021
5907 Clouds 12 1022 87 10000 0.45 0 20:29 01.09.2021
5908 Rain 17 1020 92 10000 1.2 167 18:33 01.09.2021
5909 Rain 13 1022 70 6196 3.58 331 17:38 01.09.2021
5910 Clouds 20 1019 77 8448 2.59 201 16:47 01.09.2021
5911 Clouds 19 1020 50 10000 1.79 296 15:27 01.09.2021
5912 Clouds 13 1021 66 10000 2.28 198 11:50 01.09.2021
5913 Clouds 13 1022 72 10000 0.45 5 10:59 01.09.2021
5914 Clouds 14 1020 90 10000 0.25 344 08:47 01.09.2021
5915 Clouds 8 1021 87 10000 0.1 46 07:51 01.09.2021
5916 Clouds 9 1022 85 10000 0.78 89 01:48 01.09.2021
5917 Clouds 14 1021 86 10000 1.9 36 22:38 31.08.2021
5918 Clouds 11 1021 80 10000 1.74 39 21:23 31.08.2021
5919 Clouds 16 1020 87 10000 2.28 27 19:45 31.08.2021
5920 Clouds 12 1020 75 10000 0.89 30 18:28 31.08.2021
5921 Rain 13 1020 74 10000 1.34 127 17:36 31.08.2021
5922 Rain 12 1020 69 10000 1.79 70 16:52 31.08.2021
5923 Rain 21 1019 76 10000 1.92 9 16:24 31.08.2021
5924 Clouds 18 1020 53 10000 1.34 223 12:57 31.08.2021
5925 Clear 21 1019 60 10000 1.51 229 11:27 31.08.2021
5926 Clear 20 1019 60 10000 1.51 229 10:52 31.08.2021
5927 Clear 17 1019 69 10000 0.64 249 09:43 31.08.2021
5928 Clear 10 1021 75 10000 0.45 0 08:37 31.08.2021
5929 Clouds 14 1019 93 10000 1.07 28 05:58 31.08.2021
5930 Clouds 16 1019 88 10000 1.64 32 00:23 31.08.2021
5931 Clouds 16 1019 86 10000 1.28 25 23:29 30.08.2021
5932 Clouds 15 1019 88 10000 1.44 1 21:43 30.08.2021
5933 Clouds 17 1018 88 10000 1.93 17 20:42 30.08.2021
5934 Clouds 19 1017 88 10000 2 17 19:58 30.08.2021
5935 Clouds 14 1017 68 10000 2.24 239 19:29 30.08.2021
5936 Rain 16 1016 64 10000 2.24 238 18:29 30.08.2021
5937 Clouds 17 1015 60 10000 2.24 252 17:44 30.08.2021
5938 Clouds 24 1014 34 10000 2.48 220 15:56 30.08.2021
5939 Clouds 25 1014 35 10000 3.07 215 14:39 30.08.2021
5940 Clouds 20 1016 45 10000 1.34 256 13:27 30.08.2021
5941 Clouds 20 1015 47 10000 2.72 215 11:56 30.08.2021
5942 Clouds 13 1016 81 10000 0.84 25 08:23 30.08.2021
5943 Clouds 17 1017 58 10000 2.09 23 22:18 29.08.2021
5944 Clouds 18 1017 59 10000 2.47 15 21:25 29.08.2021
5945 Clear 21 1015 53 10000 2.44 359 19:32 29.08.2021
5946 Clear 21 1014 43 10000 1.79 271 18:30 29.08.2021
5947 Clear 22 1014 39 10000 1.79 251 16:25 29.08.2021
5948 Clear 22 1015 38 10000 2.24 267 14:34 29.08.2021
5949 Clear 25 1014 30 10000 1.47 256 13:57 29.08.2021
5950 Clear 23 1014 36 10000 1.21 259 12:58 29.08.2021
5951 Clear 21 1015 39 10000 0.82 281 12:19 29.08.2021
5952 Clear 20 1015 19 10000 0.82 281 11:41 29.08.2021
5953 Clear 18 1015 21 10000 0.83 323 10:48 29.08.2021
5954 Clear 16 1016 24 10000 1.15 354 10:29 29.08.2021
5955 Clear 16 1016 24 10000 1.15 354 09:35 29.08.2021
5956 Clear 12 1018 57 10000 2.15 19 04:21 29.08.2021
5957 Clear 17 1020 67 10000 3.36 16 22:57 28.08.2021
5958 Clear 19 1019 65 10000 3.6 14 20:33 28.08.2021
5959 Clear 23 1015 41 10000 3.86 353 19:29 28.08.2021
5960 Clear 26 1014 33 10000 3.71 345 18:24 28.08.2021
5961 Clear 27 1014 33 10000 3.71 345 17:46 28.08.2021
5962 Clear 28 1013 27 10000 3.15 334 16:32 28.08.2021
5963 Clear 28 1013 23 10000 2.54 320 14:52 28.08.2021
5964 Clear 22 1015 32 10000 0.89 227 13:58 28.08.2021
5965 Clear 21 1015 37 10000 1.34 0 13:39 28.08.2021
5966 Clear 22 1014 23 10000 1.7 294 12:30 28.08.2021
5967 Clear 18 1015 30 10000 1.43 315 10:46 28.08.2021
5968 Clear 16 1015 36 10000 1.64 338 09:34 28.08.2021
5969 Clear 8 1017 55 10000 2.87 13 07:34 28.08.2021
5970 Clear 16 1018 65 10000 2.49 20 23:45 27.08.2021
5971 Clear 21 1018 61 10000 3.59 11 21:26 27.08.2021
5972 Clear 15 1018 61 10000 3.59 11 20:35 27.08.2021
5973 Clouds 26 1016 48 10000 3.54 6 19:30 27.08.2021
5974 Clouds 27 1015 34 10000 3.44 359 18:38 27.08.2021
5975 Clouds 28 1013 26 10000 2.67 339 17:38 27.08.2021
5976 Clouds 30 1013 21 10000 1.86 322 16:28 27.08.2021
5977 Clear 25 1015 15 10000 0.89 218 14:44 27.08.2021
5978 Clouds 21 1016 31 10000 0.45 265 12:56 27.08.2021
5979 Clear 18 1017 43 10000 0.45 244 11:42 27.08.2021
5980 Clear 19 1015 18 10000 1.38 309 10:48 27.08.2021
5981 Clear 20 1015 25 10000 1.52 345 09:52 27.08.2021
5982 Clear 17 1016 47 10000 2.23 9 08:55 27.08.2021
5983 Clear 9 1018 76 10000 2.92 19 07:39 27.08.2021
5984 Clear 9 1018 74 10000 2.71 13 05:33 27.08.2021
5985 Clear 17 1019 75 10000 2.7 17 00:39 27.08.2021
5986 Clear 18 1019 78 10000 2.9 9 23:28 26.08.2021
5987 Clear 19 1019 76 10000 3.06 10 22:19 26.08.2021
5988 Clear 22 1018 70 10000 3.17 9 21:28 26.08.2021
5989 Clear 27 1015 43 10000 3.49 355 19:20 26.08.2021
5990 Clear 28 1015 33 10000 3.24 344 17:45 26.08.2021
5991 Clear 29 1014 28 10000 2.54 332 16:44 26.08.2021
5992 Clear 28 1014 26 10000 1.9 318 16:26 26.08.2021
5993 Clear 28 1014 26 10000 1.9 318 16:26 26.08.2021
5994 Clear 22 1017 21 10000 0.45 0 13:59 26.08.2021
5995 Clear 19 1018 40 10000 1.13 288 12:58 26.08.2021
5996 Clear 18 1018 50 10000 0.45 0 12:31 26.08.2021
5997 Clear 18 1018 50 10000 0.45 0 12:31 26.08.2021
5998 Clear 14 1017 41 10000 1.07 330 10:33 26.08.2021
5999 Clear 17 1017 75 10000 1 1 08:35 26.08.2021
6000 Clear 7 1019 85 10000 1.8 16 07:47 26.08.2021
6001 Clouds 12 1019 82 10000 0.45 0 22:55 25.08.2021
6002 Clouds 12 1019 81 10000 2.1 27 22:36 25.08.2021
6003 Clouds 12 1019 80 10000 2.26 25 21:54 25.08.2021
6004 Clouds 13 1018 78 10000 0.45 265 20:49 25.08.2021
6005 Clouds 12 1018 78 10000 0.95 357 20:28 25.08.2021
6006 Rain 12 1017 79 10000 0.42 12 18:45 25.08.2021
6007 Rain 15 1017 64 6503 2.24 292 17:43 25.08.2021
6008 Clouds 21 1014 50 10000 2.55 222 15:45 25.08.2021
6009 Clouds 19 1016 41 10000 2.24 274 14:48 25.08.2021
6010 Clouds 19 1016 41 10000 2.24 238 14:30 25.08.2021
6011 Clouds 19 1016 45 10000 0.45 274 13:25 25.08.2021
6012 Clouds 21 1016 60 10000 1.36 222 11:27 25.08.2021
6013 Clouds 20 1016 60 10000 1.36 222 10:43 25.08.2021
6014 Clouds 17 1016 74 10000 0.9 214 09:58 25.08.2021
6015 Clouds 11 1017 75 10000 0.56 212 09:18 25.08.2021
6016 Clouds 15 1016 87 10000 0.56 212 08:30 25.08.2021
6017 Clouds 15 1017 98 7292 1.52 187 04:19 25.08.2021
6018 Clouds 17 1018 64 10000 1.41 55 23:54 24.08.2021
6019 Clouds 18 1018 84 10000 2.01 16 21:49 24.08.2021
6020 Clouds 20 1018 85 10000 2.24 26 20:48 24.08.2021
6021 Clouds 21 1017 71 10000 2.55 25 19:52 24.08.2021
6022 Clouds 23 1016 63 10000 2.74 32 18:47 24.08.2021
6023 Clouds 24 1015 59 10000 2.6 20 17:46 24.08.2021
6024 Clouds 25 1015 52 10000 1.9 347 17:19 24.08.2021
6025 Clouds 21 1017 47 10000 2.68 225 14:30 24.08.2021
6026 Clouds 20 1017 51 10000 1.34 307 13:25 24.08.2021
6027 Clouds 20 1018 56 10000 1.34 282 12:33 24.08.2021
6028 Clouds 16 1018 70 10000 0.89 257 10:48 24.08.2021
6029 Clouds 18 1018 76 10000 0.97 9 10:27 24.08.2021
6030 Clouds 16 1018 88 10000 1.42 18 08:50 24.08.2021
6031 Clouds 16 1019 95 10000 2.22 19 06:51 24.08.2021
6032 Clouds 16 1019 95 10000 2.03 10 04:54 24.08.2021
6033 Clouds 16 1020 89 10000 1.57 16 00:47 24.08.2021
6034 Clouds 17 1021 88 10000 1.9 10 22:52 23.08.2021
6035 Clouds 17 1022 89 8708 2.59 6 22:21 23.08.2021
6036 Clouds 18 1021 90 6640 2.86 6 20:31 23.08.2021
6037 Rain 22 1019 69 10000 3.25 359 19:19 23.08.2021
6038 Clouds 22 1018 52 10000 1.34 290 16:39 23.08.2021
6039 Clear 24 1019 51 10000 2.24 273 14:46 23.08.2021
6040 Clear 21 1020 58 10000 1.79 269 12:57 23.08.2021
6041 Clear 20 1021 59 10000 1.86 258 11:49 23.08.2021
6042 Clear 16 1022 71 10000 1.44 274 10:38 23.08.2021
6043 Clear 14 1022 77 10000 1.15 299 09:41 23.08.2021
6044 Clear 16 1022 85 10000 2.45 12 08:20 23.08.2021
6045 Clear 16 1023 84 10000 2.57 12 06:48 23.08.2021
6046 Clear 16 1023 85 10000 2.31 9 05:40 23.08.2021
6047 Clouds 18 1025 83 10000 2.09 11 00:52 23.08.2021
6048 Clouds 18 1024 79 10000 2.22 19 22:44 22.08.2021
6049 Clouds 19 1024 77 10000 2.33 6 22:24 22.08.2021
6050 Clouds 25 1021 54 10000 1.9 248 20:21 22.08.2021
6051 Clouds 27 1020 41 10000 2.81 254 19:28 22.08.2021
6052 Clear 30 1020 33 10000 3.93 230 16:28 22.08.2021
6053 Clear 30 1020 36 10000 4.02 225 14:56 22.08.2021
6054 Clear 30 1020 35 10000 4.02 225 14:35 22.08.2021
6055 Clear 25 1023 38 10000 1.34 243 13:20 22.08.2021
6056 Clear 24 1023 40 10000 1.34 309 12:51 22.08.2021
6057 Clear 25 1022 51 10000 3.09 218 11:58 22.08.2021
6058 Clear 24 1022 56 10000 3.09 218 11:39 22.08.2021
6059 Clear 16 1024 65 10000 2.24 218 10:20 22.08.2021
6060 Clear 13 1024 71 10000 0.08 155 08:18 22.08.2021
6061 Clear 13 1024 72 10000 0.51 46 04:50 22.08.2021
6062 Clear 20 1024 82 10000 2.42 44 22:51 21.08.2021
6063 Clear 19 1024 80 10000 2.83 32 22:27 21.08.2021
6064 Clouds 29 1019 29 10000 2.76 252 19:22 21.08.2021
6065 Clouds 29 1019 29 10000 2.76 252 19:22 21.08.2021
6066 Clouds 30 1019 33 10000 2.76 252 18:39 21.08.2021
6067 Clear 31 1019 31 10000 3.67 245 17:48 21.08.2021
6068 Clear 31 1019 26 10000 3.81 242 16:50 21.08.2021
6069 Clear 31 1019 27 10000 4.24 236 15:51 21.08.2021
6070 Clear 31 1020 26 10000 4.51 228 15:26 21.08.2021
6071 Clear 27 1022 27 10000 0.45 222 14:20 21.08.2021
6072 Clear 24 1022 37 10000 0.45 0 12:41 21.08.2021
6073 Clear 23 1022 42 10000 0.45 0 12:22 21.08.2021
6074 Clear 19 1021 53 10000 0.54 173 09:20 21.08.2021
6075 Clear 19 1021 65 10000 1.23 48 00:54 21.08.2021
6076 Clear 20 1021 64 10000 1.61 37 22:33 20.08.2021
6077 Clouds 25 1017 52 10000 1.28 259 19:51 20.08.2021
6078 Clouds 28 1016 37 10000 3.79 241 17:46 20.08.2021
6079 Clear 28 1016 30 10000 4.53 218 14:35 20.08.2021
6080 Clear 24 1017 45 10000 2.92 206 12:44 20.08.2021
6081 Clouds 19 1017 62 10000 1.99 210 11:29 20.08.2021
6082 Clouds 16 1017 50 10000 1.99 210 10:31 20.08.2021
6083 Clouds 16 1018 74 10000 0.55 201 09:28 20.08.2021
6084 Clouds 16 1018 74 10000 0.55 201 08:37 20.08.2021
6085 Clear 9 1020 82 10000 0.15 108 04:46 20.08.2021
6086 Clear 9 1020 82 10000 0.47 114 04:20 20.08.2021
6087 Clouds 11 1020 80 10000 0.79 32 23:40 19.08.2021
6088 Clouds 12 1020 79 10000 0.73 54 22:38 19.08.2021
6089 Clouds 17 1018 83 10000 0.45 355 21:55 19.08.2021
6090 Clouds 15 1018 67 6264 0.89 0 20:20 19.08.2021
6091 Clouds 17 1018 61 10000 2.33 246 18:24 19.08.2021
6092 Rain 18 1018 62 10000 3.13 247 16:55 19.08.2021
6093 Clouds 24 1017 32 10000 1.34 250 14:37 19.08.2021
6094 Clouds 21 1017 41 10000 1.79 331 12:51 19.08.2021
6095 Clouds 20 1018 47 10000 0.89 344 12:28 19.08.2021
6096 Clouds 15 1018 55 10000 2.09 214 10:49 19.08.2021
6097 Clouds 17 1017 53 10000 2.01 219 09:49 19.08.2021
6098 Clear 15 1017 73 10000 0.94 208 09:28 19.08.2021
6099 Clear 8 1020 71 10000 0.99 206 08:33 19.08.2021
6100 Clear 14 1019 91 10000 0.02 116 03:53 19.08.2021
6101 Clear 16 1020 89 10000 0.35 45 02:20 19.08.2021
6102 Clouds 18 1020 82 10000 0.88 63 23:29 18.08.2021
6103 Clouds 13 1020 82 10000 0.88 63 22:36 18.08.2021
6104 Clouds 11 1020 81 10000 1.91 23 21:33 18.08.2021
6105 Clouds 23 1017 58 10000 1.5 340 20:20 18.08.2021
6106 Clouds 25 1016 44 10000 1.4 281 19:26 18.08.2021
6107 Clouds 26 1016 44 10000 1.4 281 18:34 18.08.2021
6108 Clear 27 1015 31 10000 1.94 255 16:56 18.08.2021
6109 Clear 25 1018 25 10000 1.79 257 15:40 18.08.2021
6110 Clear 28 1016 26 10000 1.99 247 15:21 18.08.2021
6111 Clear 22 1019 27 10000 0.89 241 12:51 18.08.2021
6112 Clear 20 1020 33 10000 1.5 238 12:27 18.08.2021
6113 Clear 18 1020 37 10000 1.5 238 11:49 18.08.2021
6114 Clear 15 1019 38 10000 1 4 08:43 18.08.2021
6115 Clouds 14 1023 83 10000 2.98 14 02:29 18.08.2021
6116 Clear 12 1024 87 10000 3.27 12 22:40 17.08.2021
6117 Clear 12 1024 88 10000 3.41 11 21:54 17.08.2021
6118 Clear 19 1023 82 10000 3.47 8 21:22 17.08.2021
6119 Clear 24 1021 64 10000 3.46 3 19:42 17.08.2021
6120 Clear 27 1018 42 10000 2.65 340 17:47 17.08.2021
6121 Clear 28 1018 36 10000 2.35 329 17:25 17.08.2021
6122 Clear 28 1018 34 10000 2.07 316 15:44 17.08.2021
6123 Clear 27 1018 33 10000 1.92 305 14:47 17.08.2021
6124 Clear 21 1021 36 10000 0.45 200 12:37 17.08.2021
6125 Clear 11 1022 58 10000 2.96 11 09:27 17.08.2021
6126 Clear 10 1022 55 10000 2.96 11 08:43 17.08.2021
6127 Clear 13 1023 70 10000 3.96 16 06:55 17.08.2021
6128 Clear 16 1024 88 10000 3.81 15 23:25 16.08.2021
6129 Clear 13 1024 88 10000 3.81 15 22:53 16.08.2021
6130 Clear 13 1024 88 10000 3.81 15 22:34 16.08.2021
6131 Clear 13 1024 86 10000 3.89 13 21:40 16.08.2021
6132 Clear 14 1022 81 10000 3.96 5 20:51 16.08.2021
6133 Clear 25 1020 56 10000 4.29 360 19:29 16.08.2021
6134 Clear 28 1018 43 10000 3.85 345 18:25 16.08.2021
6135 Clear 28 1018 43 10000 3.85 345 18:25 16.08.2021
6136 Clear 28 1018 43 10000 3.85 345 17:53 16.08.2021
6137 Clear 29 1017 28 10000 2.47 308 16:25 16.08.2021
6138 Clear 30 1018 27 10000 2.39 295 15:18 16.08.2021
6139 Clear 28 1018 26 10000 2.4 284 13:41 16.08.2021
6140 Clear 24 1019 32 10000 2.33 272 12:56 16.08.2021
6141 Clear 19 1020 47 10000 2.05 270 11:30 16.08.2021
6142 Clear 15 1021 60 10000 1.36 351 08:58 16.08.2021
6143 Clear 13 1020 63 10000 2.7 8 07:45 16.08.2021
6144 Clear 17 1020 84 10000 2.64 12 07:27 16.08.2021
6145 Clear 18 1020 83 10000 2.61 7 05:51 16.08.2021
6146 Clear 20 1021 76 10000 0.77 31 23:46 15.08.2021
6147 Clear 24 1019 58 10000 1.34 356 20:51 15.08.2021
6148 Clouds 35 1017 28 10000 4.22 253 18:48 15.08.2021
6149 Clouds 35 1017 20 10000 5.75 244 18:20 15.08.2021
6150 Clouds 35 1017 22 10000 5.75 244 17:42 15.08.2021
6151 Clouds 36 1017 22 10000 6.64 233 16:29 15.08.2021
6152 Clouds 32 1020 21 10000 0.89 211 15:28 15.08.2021
6153 Clouds 35 1018 22 10000 6.83 224 14:30 15.08.2021
6154 Clouds 23 1023 40 10000 4.35 226 11:44 15.08.2021
6155 Clouds 26 1020 31 10000 2.21 212 09:41 15.08.2021
6156 Clouds 14 1024 54 10000 0.4 188 06:31 15.08.2021
6157 Clouds 19 1026 53 10000 1.75 45 00:43 15.08.2021
6158 Clouds 23 1024 61 10000 1.35 51 23:25 14.08.2021
6159 Clear 25 1022 60 10000 2.2 35 21:20 14.08.2021
6160 Clouds 28 1021 50 10000 1.96 359 19:44 14.08.2021
6161 Clouds 33 1020 31 10000 1.65 289 19:24 14.08.2021
6162 Clouds 37 1020 20 10000 5.31 259 17:22 14.08.2021
6163 Clouds 37 1020 21 10000 6.23 244 15:54 14.08.2021
6164 Clear 35 1021 23 10000 4.76 229 14:32 14.08.2021
6165 Clear 31 1022 35 10000 3.63 226 12:33 14.08.2021
6166 Clear 24 1023 28 10000 2.5 223 10:54 14.08.2021
6167 Clear 13 1027 60 10000 0.71 53 07:49 14.08.2021
6168 Clear 24 1027 51 10000 1.21 90 23:54 13.08.2021
6169 Clear 24 1027 46 10000 1.71 93 23:18 13.08.2021
6170 Clear 19 1026 43 10000 1.79 69 21:42 13.08.2021
6171 Clear 35 1023 30 10000 2.33 251 18:49 13.08.2021
6172 Clear 35 1023 25 10000 3.73 253 17:57 13.08.2021
6173 Clear 35 1023 24 10000 4.61 245 16:33 13.08.2021
6174 Clear 35 1024 25 10000 4.91 242 15:32 13.08.2021
6175 Clear 26 1025 57 10000 2.77 240 11:20 13.08.2021
6176 Clear 25 1025 35 10000 1.97 236 09:49 13.08.2021
6177 Clear 21 1025 45 10000 0.85 229 08:36 13.08.2021
6178 Clear 14 1027 66 10000 1.2 22 07:22 13.08.2021
6179 Clear 14 1027 65 10000 0.62 24 04:59 13.08.2021
6180 Clouds 23 1026 73 10000 3.03 33 23:49 12.08.2021
6181 Clouds 23 1023 50 10000 1.85 337 21:21 12.08.2021
6182 Clear 30 1022 44 10000 1.92 244 20:24 12.08.2021
6183 Clouds 30 1021 44 10000 2.19 245 19:45 12.08.2021
6184 Clear 35 1020 25 10000 4.81 221 17:54 12.08.2021
6185 Clear 35 1020 26 10000 5.33 214 16:34 12.08.2021
6186 Clear 34 1020 25 10000 4.57 221 15:20 12.08.2021
6187 Clouds 31 1021 31 10000 2.63 212 12:59 12.08.2021
6188 Clouds 28 1022 31 10000 2.94 207 11:20 12.08.2021
6189 Clouds 15 1023 56 10000 0.7 70 07:57 12.08.2021
6190 Rain 23 1024 56 10000 0.52 273 01:52 12.08.2021
6191 Clouds 23 1024 59 10000 0.66 273 22:55 11.08.2021
6192 Clouds 24 1022 60 10000 1.44 225 21:23 11.08.2021
6193 Clear 33 1019 31 10000 4.2 215 18:29 11.08.2021
6194 Clear 33 1019 35 10000 4.61 216 15:39 11.08.2021
6195 Clear 29 1021 32 10000 0.89 234 15:20 11.08.2021
6196 Clear 33 1020 37 10000 3.55 214 14:22 11.08.2021
6197 Clear 33 1020 37 10000 3.55 214 14:22 11.08.2021
6198 Clear 27 1021 48 10000 3.24 225 12:31 11.08.2021
6199 Clear 27 1021 55 10000 3.38 216 11:46 11.08.2021
6200 Clear 25 1021 45 10000 2.87 207 11:22 11.08.2021
6201 Clear 23 1021 53 10000 2.33 202 09:59 11.08.2021
6202 Clear 13 1023 70 10000 0.7 32 08:30 11.08.2021
6203 Clouds 21 1022 65 10000 1.25 36 23:42 10.08.2021
6204 Clouds 20 1022 68 10000 1.65 24 22:32 10.08.2021
6205 Clouds 17 1020 67 10000 0.37 222 21:19 10.08.2021
6206 Clouds 23 1020 60 10000 1.41 211 19:52 10.08.2021
6207 Clouds 30 1019 44 10000 3.34 203 18:33 10.08.2021
6208 Clouds 27 1020 33 10000 1.34 340 16:37 10.08.2021
6209 Clouds 28 1020 33 10000 0.89 198 14:52 10.08.2021
6210 Clouds 28 1019 45 10000 2.85 212 12:22 10.08.2021
6211 Clear 22 1019 47 10000 2.19 208 09:51 10.08.2021
6212 Clouds 10 1022 74 10000 1.02 36 06:48 10.08.2021
6213 Clouds 10 1022 75 10000 0.72 29 04:58 10.08.2021
6214 Clouds 19 1021 76 10000 0.67 65 23:41 09.08.2021
6215 Clouds 22 1021 78 10000 0.57 123 21:55 09.08.2021
6216 Clouds 18 1021 78 10000 0.57 123 21:35 09.08.2021
6217 Clouds 26 1019 60 10000 1.94 202 19:36 09.08.2021
6218 Clouds 28 1019 39 10000 4.06 222 17:22 09.08.2021
6219 Clouds 25 1021 41 10000 1.34 246 15:35 09.08.2021
6220 Clear 27 1019 50 10000 4.35 214 13:46 09.08.2021
6221 Clear 26 1019 56 10000 3.97 215 13:26 09.08.2021
6222 Clear 19 1019 53 10000 3.22 211 10:44 09.08.2021
6223 Clear 10 1022 83 10000 0.37 223 08:26 09.08.2021
6224 Clear 16 1021 84 10000 1.29 168 23:26 08.08.2021
6225 Clear 20 1019 71 10000 2 200 21:26 08.08.2021
6226 Clear 24 1017 42 10000 3.56 206 19:29 08.08.2021
6227 Clear 20 1019 49 10000 1.79 293 16:54 08.08.2021
6228 Clear 23 1016 49 10000 4.82 212 15:33 08.08.2021
6229 Clouds 18 1019 54 10000 1.79 213 13:23 08.08.2021
6230 Clouds 18 1016 65 10000 3.72 213 11:25 08.08.2021
6231 Clouds 13 1017 98 7453 0.36 215 06:45 08.08.2021
6232 Clouds 13 1017 98 1640 0.07 91 05:37 08.08.2021
6233 Clouds 14 1016 79 10000 0.96 5 00:31 08.08.2021
6234 Clouds 16 1015 90 10000 2.67 359 22:19 07.08.2021
6235 Clouds 17 1015 90 10000 2.67 359 21:41 07.08.2021
6236 Clouds 22 1012 72 10000 2.37 325 20:25 07.08.2021
6237 Clouds 25 1009 55 10000 2.48 263 17:30 07.08.2021
6238 Clouds 25 1009 57 10000 2.65 253 16:34 07.08.2021
6239 Clouds 22 1009 48 10000 1.79 302 14:25 07.08.2021
6240 Clouds 21 1010 52 10000 1.34 221 12:53 07.08.2021
6241 Clouds 16 1010 82 10000 2.89 209 09:56 07.08.2021
6242 Clouds 17 1009 95 10000 0.73 105 04:56 07.08.2021
6243 Clouds 16 1012 96 10000 1.17 150 23:54 06.08.2021
6244 Clouds 17 1010 76 10000 2.13 195 21:23 06.08.2021
6245 Clouds 22 1010 60 10000 3.08 208 20:27 06.08.2021
6246 Clouds 21 1010 57 10000 2.83 209 19:55 06.08.2021
6247 Clouds 23 1012 42 10000 1.79 184 18:28 06.08.2021
6248 Clear 22 1014 45 10000 1.34 210 13:50 06.08.2021
6249 Clear 17 1014 77 10000 3.2 211 09:58 06.08.2021
6250 Clear 16 1014 79 10000 2.22 208 09:25 06.08.2021
6251 Clouds 17 1016 78 10000 0.93 76 00:39 06.08.2021
6252 Clouds 18 1016 80 10000 1.79 11 23:26 05.08.2021
6253 Clouds 19 1016 79 10000 1.12 5 21:31 05.08.2021
6254 Clouds 23 1014 67 10000 1.18 203 19:53 05.08.2021
6255 Clouds 25 1013 45 10000 2.28 230 18:26 05.08.2021
6256 Clouds 25 1014 48 10000 3.06 218 15:44 05.08.2021
6257 Clouds 23 1015 57 10000 2.53 222 12:52 05.08.2021
6258 Clouds 16 1016 73 10000 1.79 227 09:56 05.08.2021
6259 Clouds 13 1017 87 10000 0.64 335 08:19 05.08.2021
6260 Clouds 12 1019 88 10000 1.33 2 02:51 05.08.2021
6261 Clouds 15 1020 95 10000 2.32 11 22:41 04.08.2021
6262 Clouds 16 1018 76 10000 2.37 2 21:26 04.08.2021
6263 Clouds 18 1016 78 10000 1.79 322 19:25 04.08.2021
6264 Rain 18 1016 83 10000 1.07 359 17:22 04.08.2021
6265 Clouds 21 1016 92 7264 1.74 351 14:46 04.08.2021
6266 Clouds 17 1015 95 8620 2.73 218 12:21 04.08.2021
6267 Clouds 15 1016 98 785 1.74 199 07:38 04.08.2021
6268 Clouds 19 1017 71 10000 0.86 232 20:58 03.08.2021
6269 Clouds 21 1015 53 10000 1.85 227 20:26 03.08.2021
6270 Clouds 23 1015 47 10000 3.25 233 18:37 03.08.2021
6271 Clouds 23 1016 45 10000 3.13 233 16:58 03.08.2021
6272 Clouds 24 1017 46 10000 4.11 221 13:57 03.08.2021
6273 Clouds 19 1018 72 10000 3.06 216 10:57 03.08.2021
6274 Clouds 16 1019 65 10000 2.66 212 09:42 03.08.2021
6275 Clouds 16 1019 75 10000 0.85 33 21:55 02.08.2021
6276 Clouds 23 1017 38 10000 3.84 231 16:40 02.08.2021
6277 Clouds 23 1017 40 10000 3.8 222 15:31 02.08.2021
6278 Clouds 20 1018 48 10000 2.62 225 12:29 02.08.2021
6279 Clouds 19 1018 55 10000 2.62 225 11:57 02.08.2021
6280 Clouds 19 1018 55 10000 2.62 225 11:57 02.08.2021
6281 Clouds 14 1018 71 10000 1.85 218 09:50 02.08.2021
6282 Clouds 10 1019 93 10000 0.09 16 05:30 02.08.2021
6283 Clouds 18 1016 63 10000 0.76 285 18:27 01.08.2021
6284 Clouds 19 1016 64 10000 1.04 269 15:31 01.08.2021
6285 Clouds 14 1016 63 10000 0.89 0 11:38 01.08.2021
6286 Clouds 12 1016 90 10000 1.81 355 09:36 01.08.2021
6287 Clouds 10 1015 95 10000 3.03 8 03:48 01.08.2021
6288 Clouds 12 1015 94 10000 2.85 354 22:52 31.07.2021
6289 Rain 11 1014 89 1954 3.15 342 20:54 31.07.2021
6290 Clouds 15 1012 88 10000 2.95 221 17:49 31.07.2021
6291 Rain 17 1012 81 10000 0.45 69 16:36 31.07.2021
6292 Clouds 17 1013 78 10000 3.13 198 12:50 31.07.2021
6293 Clear 16 1014 92 10000 1.79 195 08:53 31.07.2021
6294 Clouds 15 1016 85 10000 1.09 40 01:39 31.07.2021
6295 Clouds 15 1016 85 10000 1.06 39 01:39 31.07.2021
6296 Clear 16 1015 59 10000 1.21 300 20:31 30.07.2021
6297 Clear 25 1013 43 10000 3.14 228 19:58 30.07.2021
6298 Clear 18 1015 65 10000 1.53 207 08:31 30.07.2021
6299 Clear 30 1015 41 10000 4.16 218 17:33 29.07.2021
6300 Clear 12 1020 85 10000 0.28 95 06:32 29.07.2021
6301 Clear 12 1020 84 10000 0.02 332 04:29 29.07.2021
6302 Clear 19 1018 75 10000 1.69 222 21:21 28.07.2021
6303 Clouds 26 1017 57 10000 2.8 218 17:22 28.07.2021
6304 Clouds 21 1019 56 10000 1.34 219 14:49 28.07.2021
6305 Clouds 12 1018 92 10000 0.37 136 07:44 28.07.2021
6306 Clouds 22 1017 69 10000 1.79 39 21:46 27.07.2021
6307 Clouds 22 1016 69 10000 0.2 294 21:27 27.07.2021
6308 Clouds 26 1015 45 10000 3.69 218 14:52 27.07.2021
6309 Clouds 18 1017 81 10000 2.49 211 10:45 27.07.2021
6310 Clouds 9 1019 73 10000 0.45 0 07:38 27.07.2021
6311 Rain 16 1018 73 10000 0.89 254 15:48 26.07.2021
6312 Clouds 21 1015 57 10000 2.67 217 14:24 26.07.2021
6313 Clouds 14 1016 91 10000 1.28 15 04:51 26.07.2021
6314 Clouds 18 1013 66 10000 0.81 299 20:55 25.07.2021
6315 Clouds 25 1011 33 10000 3.86 223 18:22 25.07.2021
6316 Clouds 22 1013 33 10000 1.79 224 15:28 25.07.2021
6317 Clouds 19 1013 45 10000 3.04 214 10:44 25.07.2021
6318 Clouds 14 1014 80 10000 0.2 34 08:18 25.07.2021
6319 Clouds 23 1012 39 10000 2.24 219 20:24 24.07.2021
6320 Clouds 23 1012 36 10000 2.24 219 19:54 24.07.2021
6321 Clouds 23 1013 29 10000 1.79 257 12:34 24.07.2021
6322 Clouds 18 1016 58 10000 1.49 133 21:47 23.07.2021
6323 Clouds 32 1014 25 10000 5.43 199 14:36 23.07.2021
6324 Clouds 29 1015 31 10000 4.41 203 12:40 23.07.2021
6325 Clear 21 1022 56 10000 1.27 85 22:58 22.07.2021
6326 Clear 32 1019 37 10000 3.85 214 15:28 22.07.2021
6327 Clear 25 1021 57 10000 2.48 210 11:19 22.07.2021
6328 Clear 21 1022 51 10000 0.8 191 08:34 22.07.2021
6329 Clouds 15 1025 73 10000 0.89 44 01:58 22.07.2021
6330 Clouds 21 1024 76 10000 0.85 87 21:42 21.07.2021
6331 Clouds 22 1023 75 10000 1.32 108 21:22 21.07.2021
6332 Clear 24 1021 32 10000 1.88 242 11:52 21.07.2021
6333 Clear 19 1021 64 10000 0.54 173 09:20 21.07.2021
6334 Clear 14 1022 81 10000 1.86 34 06:42 21.07.2021
6335 Clouds 13 1023 85 10000 2.31 124 21:54 20.07.2021
6336 Clouds 18 1018 67 10000 0.45 213 16:36 20.07.2021
6337 Clouds 30 1016 36 10000 1.64 222 15:28 20.07.2021
6338 Clear 29 1016 43 10000 3.16 212 12:36 20.07.2021
6339 Clear 11 1020 76 10000 0.13 154 07:57 20.07.2021
6340 Clear 16 1019 87 10000 0.33 87 03:19 20.07.2021
6341 Clear 29 1014 32 10000 2.18 338 18:38 19.07.2021
6342 Clear 27 1015 20 10000 0.93 280 12:52 19.07.2021
6343 Clear 9 1019 57 10000 3.37 22 07:29 19.07.2021
6344 Clear 29 1015 42 10000 3.98 358 17:21 18.07.2021
6345 Clear 20 1018 38 10000 1.34 232 10:53 18.07.2021
6346 Clear 14 1022 90 10000 3.19 19 22:58 17.07.2021
6347 Clear 15 1022 88 10000 3.45 18 21:59 17.07.2021
6348 Clear 15 1022 88 10000 3.45 18 21:41 17.07.2021
6349 Clear 30 1017 31 10000 2.81 347 16:52 17.07.2021
6350 Clear 20 1021 36 10000 2.36 343 11:30 17.07.2021
6351 Clear 9 1022 61 10000 3.45 17 04:48 17.07.2021
6352 Clear 26 1019 38 10000 3.42 349 17:41 16.07.2021
6353 Clouds 19 1021 33 10000 0.45 0 12:21 16.07.2021
6354 Clear 10 1023 49 10000 3.34 21 07:25 16.07.2021
6355 Clouds 19 1020 66 10000 2.85 355 19:47 15.07.2021
6356 Clouds 21 1020 42 10000 1.34 219 13:51 15.07.2021
6357 Clouds 11 1022 66 10000 0.45 74 09:51 15.07.2021
6358 Clouds 14 1023 88 10000 1.43 18 00:31 15.07.2021
6359 Clouds 22 1020 60 10000 2.52 13 16:55 14.07.2021
6360 Clouds 19 1019 52 10000 1.49 337 12:01 14.07.2021
6361 Clouds 10 1021 93 10000 3.12 13 04:44 14.07.2021
6362 Clouds 16 1017 63 10000 2.9 340 20:23 13.07.2021
6363 Clouds 16 1017 63 10000 2.9 340 19:50 13.07.2021
6364 Clouds 17 1016 57 10000 2.98 334 19:23 13.07.2021
6365 Clouds 16 1016 57 10000 2.98 334 18:44 13.07.2021
6366 Clouds 17 1016 55 10000 3.57 331 18:24 13.07.2021
6367 Clouds 20 1016 50 10000 2.54 319 15:31 13.07.2021
6368 Clouds 12 1017 62 10000 2.67 351 09:38 13.07.2021
6369 Clouds 11 1018 91 10000 3.86 7 00:19 13.07.2021
6370 Clouds 22 1011 73 6611 2.73 248 17:29 12.07.2021
6371 Clouds 20 1012 46 10000 2.68 292 15:21 12.07.2021
6372 Clouds 18 1017 77 10000 1.55 87 00:31 12.07.2021
6373 Clouds 25 1017 66 10000 1.83 183 21:57 11.07.2021
6374 Clear 32 1016 32 10000 3.99 221 15:50 11.07.2021
6375 Clear 15 1021 84 10000 0.62 61 02:31 11.07.2021
6376 Clouds 28 1017 41 10000 3.22 254 17:38 10.07.2021
6377 Clear 14 1021 81 10000 0.08 146 07:57 10.07.2021
6378 Clear 10 1023 77 10000 0.56 45 07:22 10.07.2021
6379 Clear 24 1020 49 10000 1.88 222 19:57 09.07.2021
6380 Clear 22 1023 38 10000 1.79 257 14:51 09.07.2021
6381 Clouds 23 1022 45 10000 2.73 211 12:48 09.07.2021
6382 Clouds 13 1027 90 10000 2.29 34 23:55 08.07.2021
6383 Clouds 14 1027 90 10000 2.59 22 22:49 08.07.2021
6384 Clouds 19 1022 53 10000 1.64 306 19:49 08.07.2021
6385 Clouds 19 1022 36 10000 2.24 221 17:50 08.07.2021
6386 Clear 19 1022 39 10000 2.24 254 13:49 08.07.2021
6387 Clear 22 1021 41 10000 1.76 277 13:30 08.07.2021
6388 Clear 18 1022 41 10000 1.79 226 12:33 08.07.2021
6389 Clear 14 1022 57 10000 0.45 0 10:54 08.07.2021
6390 Clouds 11 1022 91 10000 2.47 12 06:20 08.07.2021
6391 Clouds 11 1022 89 10000 2.44 9 03:50 08.07.2021
6392 Clouds 13 1022 88 10000 3.2 14 22:58 07.07.2021
6393 Clear 13 1021 80 10000 2.75 20 22:19 07.07.2021
6394 Clear 13 1021 80 10000 2.75 20 21:45 07.07.2021
6395 Clear 17 1019 66 10000 1.18 343 21:24 07.07.2021
6396 Clear 20 1017 47 10000 1.95 241 19:58 07.07.2021
6397 Clear 23 1016 40 10000 2.84 233 19:29 07.07.2021
6398 Clear 25 1016 35 10000 3.67 230 17:36 07.07.2021
6399 Clear 19 1017 37 10000 1.79 300 15:47 07.07.2021
6400 Clear 19 1018 42 10000 2.68 306 13:56 07.07.2021
6401 Clear 13 1016 90 10000 1.07 194 08:53 07.07.2021
6402 Clouds 11 1016 93 10000 0.56 59 06:47 07.07.2021
6403 Clouds 12 1016 94 10000 1.1 57 05:48 07.07.2021
6404 Clouds 13 1016 91 10000 0.46 175 02:48 07.07.2021
6405 Clouds 21 1013 53 10000 2.62 217 19:31 06.07.2021
6406 Clouds 19 1014 43 10000 1.79 313 18:48 06.07.2021
6407 Rain 19 1015 48 10000 1.34 240 18:30 06.07.2021
6408 Clouds 22 1014 47 10000 1.79 14 14:58 06.07.2021
6409 Clear 22 1013 42 10000 1.79 250 12:58 06.07.2021
6410 Clear 16 1014 71 10000 3.69 209 09:42 06.07.2021
6411 Clear 14 1014 78 10000 2.46 198 08:35 06.07.2021
6412 Clouds 17 1013 78 10000 1.15 183 07:34 06.07.2021
6413 Clear 18 1015 77 10000 1.05 81 01:43 06.07.2021
6414 Clear 20 1015 70 10000 0.7 134 22:44 05.07.2021
6415 Clear 26 1013 53 10000 3.63 212 20:27 05.07.2021
6416 Clear 29 1014 45 10000 4.23 217 15:45 05.07.2021
6417 Clear 10 1019 75 10000 0.44 37 07:26 05.07.2021
6418 Clear 9 1019 73 10000 0.45 215 05:46 05.07.2021
6419 Clear 10 1019 71 10000 0.69 52 04:40 05.07.2021
6420 Clear 16 1018 70 10000 0.76 234 23:18 04.07.2021
6421 Clouds 24 1014 46 10000 4.58 225 19:24 04.07.2021
6422 Clouds 28 1014 34 10000 4.54 217 16:51 04.07.2021
6423 Clouds 26 1015 71 10000 2.59 236 12:58 04.07.2021
6424 Clouds 18 1015 87 10000 1.14 242 09:24 04.07.2021
6425 Clouds 18 1017 75 10000 1.17 179 23:33 03.07.2021
6426 Clouds 18 1017 76 10000 0.13 228 22:40 03.07.2021
6427 Clouds 23 1017 38 10000 1.79 269 14:57 03.07.2021
6428 Clouds 23 1018 44 10000 1.79 282 12:38 03.07.2021
6429 Clouds 19 1017 53 10000 2.48 199 09:30 03.07.2021
6430 Clouds 19 1017 53 10000 2.48 199 09:30 03.07.2021
6431 Clouds 18 1017 60 10000 1.35 189 08:46 03.07.2021
6432 Clouds 12 1019 73 10000 1.25 85 07:29 03.07.2021
6433 Clouds 30 1017 38 10000 3.46 230 17:21 02.07.2021
6434 Clouds 11 1021 82 10000 0.6 203 07:41 02.07.2021
6435 Clouds 11 1021 81 10000 0.7 52 05:44 02.07.2021
6436 Clouds 20 1021 79 10000 1.87 12 22:55 01.07.2021
6437 Clouds 22 1020 77 10000 1.4 358 21:55 01.07.2021
6438 Clouds 22 1019 71 10000 0.78 247 21:20 01.07.2021
6439 Clouds 25 1018 58 10000 1.72 223 19:36 01.07.2021
6440 Clouds 25 1017 44 10000 3.19 223 19:18 01.07.2021
6441 Clouds 28 1017 44 10000 3.19 223 18:33 01.07.2021
6442 Clouds 28 1017 38 10000 4.1 235 17:18 01.07.2021
6443 Clouds 27 1017 48 10000 5.22 227 15:26 01.07.2021
6444 Clouds 26 1017 46 10000 4.49 218 14:24 01.07.2021
6445 Clouds 20 1018 50 10000 2.88 217 10:56 01.07.2021
6446 Clouds 9 1021 82 10000 0.37 276 07:36 01.07.2021
6447 Clear 15 1021 79 10000 0.48 350 23:23 30.06.2021
6448 Clouds 16 1020 80 10000 0.5 330 22:20 30.06.2021
6449 Clouds 18 1019 73 10000 1.12 247 21:22 30.06.2021
6450 Clouds 18 1019 59 10000 1.34 250 20:28 30.06.2021
6451 Clouds 19 1018 54 10000 1.34 208 19:19 30.06.2021
6452 Clouds 19 1019 51 10000 3.13 302 14:26 30.06.2021
6453 Clouds 19 1019 51 10000 2.68 256 13:24 30.06.2021
6454 Clouds 9 1020 76 7090 1.65 217 08:19 30.06.2021
6455 Clouds 14 1019 83 10000 1.21 329 21:40 29.06.2021
6456 Clouds 20 1016 43 10000 3.63 222 18:45 29.06.2021
6457 Clouds 21 1016 42 10000 4.05 223 17:43 29.06.2021
6458 Clouds 21 1016 42 10000 4.05 223 17:43 29.06.2021
6459 Clouds 22 1016 42 10000 4.53 225 16:59 29.06.2021
6460 Clouds 18 1017 39 10000 1.79 276 15:50 29.06.2021
6461 Clouds 21 1017 42 10000 4.53 215 13:59 29.06.2021
6462 Clouds 21 1017 42 10000 4.13 213 13:19 29.06.2021
6463 Clear 13 1019 79 10000 0.22 198 00:41 29.06.2021
6464 Clear 14 1017 78 10000 1.08 347 21:47 28.06.2021
6465 Clouds 19 1015 52 10000 3.06 213 19:53 28.06.2021
6466 Clouds 23 1014 39 10000 5.36 214 17:32 28.06.2021
6467 Clouds 20 1016 43 10000 3.13 213 15:22 28.06.2021
6468 Clouds 20 1016 44 10000 0.89 202 14:20 28.06.2021
6469 Clouds 12 1016 72 10000 3.49 198 09:36 28.06.2021
6470 Rain 15 1017 89 10000 1.89 136 23:46 27.06.2021
6471 Clouds 15 1016 90 10000 2.1 163 21:51 27.06.2021
6472 Clouds 20 1014 79 10000 2.61 175 19:42 27.06.2021
6473 Clouds 26 1014 46 10000 5.12 214 16:53 27.06.2021
6474 Clouds 24 1014 62 10000 5.18 211 14:20 27.06.2021
6475 Clouds 14 1016 87 10000 1.41 145 07:38 27.06.2021
6476 Clouds 16 1019 94 10000 1.28 186 23:27 26.06.2021
6477 Rain 19 1017 87 9951 1.73 261 21:19 26.06.2021
6478 Clouds 21 1017 86 9951 1.73 261 20:40 26.06.2021
6479 Clouds 24 1014 54 10000 2.77 192 19:25 26.06.2021
6480 Clouds 25 1017 55 10000 3.86 227 15:29 26.06.2021
6481 Clouds 23 1017 56 10000 3.31 219 12:28 26.06.2021
6482 Clouds 17 1019 70 10000 1.95 209 09:29 26.06.2021
6483 Clouds 9 1022 80 10000 0.12 14 04:35 26.06.2021
6484 Clouds 20 1020 77 10000 1.11 221 20:50 25.06.2021
6485 Clouds 22 1019 59 10000 2.23 218 19:44 25.06.2021
6486 Clouds 25 1018 42 10000 3.02 216 17:53 25.06.2021
6487 Clouds 25 1018 45 10000 3.01 213 16:50 25.06.2021
6488 Clear 24 1019 50 10000 3.26 210 14:59 25.06.2021
6489 Clear 19 1021 70 10000 2.69 212 11:46 25.06.2021
6490 Clear 13 1022 74 10000 0.98 234 08:48 25.06.2021
6491 Clear 10 1023 91 10000 1.33 19 07:20 25.06.2021
6492 Clouds 11 1024 89 10000 0.83 22 03:54 25.06.2021
6493 Clouds 13 1025 94 10000 2.1 7 22:41 24.06.2021
6494 Clouds 14 1024 92 10000 1.89 353 21:41 24.06.2021
6495 Clouds 16 1023 88 10000 1.55 348 20:41 24.06.2021
6496 Clouds 20 1022 84 10000 1.15 314 18:47 24.06.2021
6497 Clouds 21 1020 53 10000 0.89 291 16:19 24.06.2021
6498 Clouds 19 1022 45 10000 2.24 252 15:22 24.06.2021
6499 Clouds 19 1022 44 10000 2.68 310 14:47 24.06.2021
6500 Clouds 15 1021 72 10000 0.9 344 11:20 24.06.2021
6501 Clouds 12 1021 63 10000 1.32 351 09:30 24.06.2021
6502 Clear 9 1021 84 10000 0.98 3 08:22 24.06.2021
6503 Clear 9 1021 94 10000 1.26 26 02:50 24.06.2021
6504 Clouds 11 1022 94 10000 0.67 2 22:36 23.06.2021
6505 Clouds 12 1021 94 10000 0.4 6 21:44 23.06.2021
6506 Clouds 12 1020 93 10000 1.34 218 20:37 23.06.2021
6507 Clouds 14 1018 94 10000 2.46 203 18:34 23.06.2021
6508 Clouds 14 1018 93 8711 2.71 202 17:32 23.06.2021
6509 Clouds 15 1018 83 9311 2.65 214 15:34 23.06.2021
6510 Clouds 9 1019 79 10000 1.57 201 12:51 23.06.2021
6511 Clouds 14 1019 84 10000 1.2 154 11:55 23.06.2021
6512 Clouds 14 1018 90 1309 1.84 205 09:55 23.06.2021
6513 Clouds 9 1018 90 4850 2.15 215 08:45 23.06.2021
6514 Clouds 8 1018 93 10000 1.03 193 07:51 23.06.2021
6515 Clouds 8 1018 92 10000 0.89 85 06:49 23.06.2021
6516 Clouds 8 1018 92 10000 0.8 98 03:33 23.06.2021
6517 Clouds 10 1019 85 10000 0.45 43 00:43 23.06.2021
6518 Clouds 14 1018 82 10000 1.98 22 23:55 22.06.2021
6519 Clouds 14 1018 72 10000 1.73 12 22:44 22.06.2021
6520 Clouds 15 1017 71 10000 1.26 3 21:56 22.06.2021
6521 Clouds 17 1016 66 10000 0.49 247 20:58 22.06.2021
6522 Clouds 19 1015 61 10000 1.49 190 19:37 22.06.2021
6523 Clouds 19 1015 61 10000 1.8 203 18:53 22.06.2021
6524 Clouds 19 1015 58 10000 2.24 224 18:21 22.06.2021
6525 Clouds 20 1015 54 10000 2.95 219 17:21 22.06.2021
6526 Clouds 20 1014 52 10000 3.08 220 16:20 22.06.2021
6527 Clouds 20 1014 48 10000 3.39 218 14:34 22.06.2021
6528 Clouds 19 1013 49 10000 3.75 215 13:47 22.06.2021
6529 Clear 18 1013 54 10000 3.65 214 12:35 22.06.2021
6530 Clear 14 1015 54 10000 1.79 182 10:58 22.06.2021
6531 Clear 13 1014 61 10000 1.65 195 09:18 22.06.2021
6532 Clear 11 1013 82 10000 0.76 60 04:43 22.06.2021
6533 Clouds 11 1013 64 10000 1.27 176 00:37 22.06.2021
6534 Clouds 15 1014 60 10000 0.85 212 22:59 21.06.2021
6535 Clouds 16 1013 74 10000 0.96 229 21:41 21.06.2021
6536 Clouds 19 1012 69 10000 1.69 226 20:52 21.06.2021
6537 Clear 18 1011 54 10000 2.44 228 19:56 21.06.2021
6538 Clear 18 1011 54 10000 2.44 228 19:56 21.06.2021
6539 Clear 20 1011 54 10000 2.44 228 19:31 21.06.2021
6540 Clear 22 1010 47 10000 3.96 214 18:22 21.06.2021
6541 Clear 18 1011 47 10000 2.68 225 16:54 21.06.2021
6542 Clear 22 1010 44 10000 4.35 213 16:29 21.06.2021
6543 Clear 21 1010 44 10000 4.35 213 15:56 21.06.2021
6544 Clear 22 1010 42 10000 4.52 212 15:20 21.06.2021
6545 Clouds 21 1010 49 10000 4.33 213 13:47 21.06.2021
6546 Clouds 20 1010 53 10000 4.44 213 12:55 21.06.2021
6547 Clouds 20 1010 55 10000 4.45 213 12:31 21.06.2021
6548 Clouds 17 1011 62 10000 4.33 213 10:43 21.06.2021
6549 Clear 16 1011 63 10000 4.16 213 10:22 21.06.2021
6550 Clear 13 1011 69 10000 3.14 205 08:32 21.06.2021
6551 Clouds 12 1012 86 10000 2.26 209 07:56 21.06.2021
6552 Clouds 10 1013 77 10000 0.45 0 01:20 21.06.2021
6553 Clouds 11 1013 74 10000 2.15 199 23:48 20.06.2021
6554 Clouds 15 1013 71 10000 1.99 214 23:28 20.06.2021
6555 Clouds 15 1013 73 10000 1.99 214 22:47 20.06.2021
6556 Clouds 15 1012 86 10000 1.21 215 21:37 20.06.2021
6557 Clouds 19 1010 61 10000 2.86 226 20:22 20.06.2021
6558 Clouds 20 1010 62 10000 2.86 226 19:35 20.06.2021
6559 Clouds 20 1009 64 10000 3.38 231 18:44 20.06.2021
6560 Clouds 21 1009 57 10000 3.31 228 17:35 20.06.2021
6561 Clouds 20 1009 53 10000 3.62 229 16:39 20.06.2021
6562 Clouds 21 1010 59 10000 4.04 227 15:36 20.06.2021
6563 Clouds 20 1009 63 10000 4.36 224 14:55 20.06.2021
6564 Clouds 20 1009 69 10000 4.36 224 14:36 20.06.2021
6565 Clouds 18 1009 79 10000 5.57 215 13:19 20.06.2021
6566 Rain 13 1010 88 10000 4.08 204 11:48 20.06.2021
6567 Rain 14 1012 76 2902 0.91 164 10:55 20.06.2021
6568 Rain 15 1011 99 196 3.46 214 09:48 20.06.2021
6569 Rain 14 1013 100 195 2.99 189 08:36 20.06.2021
6570 Clouds 15 1016 95 10000 1.93 144 00:33 20.06.2021
6571 Clouds 16 1017 82 10000 1.92 149 23:26 19.06.2021
6572 Clouds 15 1016 85 10000 1.86 146 22:29 19.06.2021
6573 Clouds 16 1016 83 10000 1.86 146 21:44 19.06.2021
6574 Rain 17 1016 89 10000 3.81 184 19:22 19.06.2021
6575 Rain 17 1016 90 10000 3.81 184 18:47 19.06.2021
6576 Rain 18 1015 89 10000 4.07 163 17:49 19.06.2021
6577 Rain 18 1015 88 10000 3.61 180 16:59 19.06.2021
6578 Clouds 17 1016 85 10000 2.69 181 15:46 19.06.2021
6579 Rain 22 1016 48 10000 5.56 199 13:47 19.06.2021
6580 Clouds 22 1015 45 10000 5.57 197 12:43 19.06.2021
6581 Clouds 18 1016 70 10000 2.79 186 11:18 19.06.2021
6582 Rain 12 1020 71 10000 2.79 186 10:36 19.06.2021
6583 Rain 15 1020 70 10000 0.45 54 10:18 19.06.2021
6584 Clouds 16 1020 85 10000 2.29 231 08:33 19.06.2021
6585 Clouds 14 1018 76 10000 1.68 157 07:40 19.06.2021
6586 Clouds 10 1019 83 10000 0.69 107 04:27 19.06.2021
6587 Clouds 17 1020 91 10000 1.52 135 00:24 19.06.2021
6588 Clouds 16 1020 91 10000 1.52 135 23:58 18.06.2021
6589 Clouds 17 1019 84 10000 1.48 133 22:57 18.06.2021
6590 Clouds 12 1019 84 10000 1.48 133 22:36 18.06.2021
6591 Clouds 19 1019 80 10000 1.6 160 21:51 18.06.2021
6592 Clouds 20 1017 61 10000 1.86 189 21:27 18.06.2021
6593 Clouds 20 1017 61 10000 1.86 189 21:27 18.06.2021
6594 Clouds 22 1016 58 10000 2.29 198 20:28 18.06.2021
6595 Clouds 24 1015 58 10000 2.58 208 18:46 18.06.2021
6596 Clouds 24 1015 56 10000 3.13 211 17:59 18.06.2021
6597 Clouds 25 1015 47 10000 3.29 211 16:39 18.06.2021
6598 Clouds 25 1015 51 10000 3.24 210 15:48 18.06.2021
6599 Clouds 24 1016 52 10000 3.31 210 14:50 18.06.2021
6600 Clouds 23 1016 50 10000 3.43 209 13:54 18.06.2021
6601 Clouds 21 1016 65 10000 2.97 205 12:58 18.06.2021
6602 Clouds 20 1016 67 10000 2.97 205 12:35 18.06.2021
6603 Clouds 18 1016 74 10000 3.16 206 11:46 18.06.2021
6604 Clouds 16 1016 49 10000 2.77 206 10:59 18.06.2021
6605 Clouds 14 1016 62 10000 1.65 204 10:27 18.06.2021
6606 Clouds 8 1018 85 10000 1.65 204 09:59 18.06.2021
6607 Clouds 14 1017 74 10000 2.07 208 09:21 18.06.2021
6608 Clouds 14 1017 75 10000 2.06 211 08:33 18.06.2021
6609 Clouds 4 1018 94 10000 1.13 206 07:36 18.06.2021
6610 Clouds 10 1016 93 10000 0.37 148 05:36 18.06.2021
6611 Clouds 12 1015 92 1445 1.45 153 00:35 18.06.2021
6612 Clouds 13 1015 86 709 2.13 204 23:27 17.06.2021
6613 Clouds 14 1014 89 703 2.24 174 22:27 17.06.2021
6614 Clouds 13 1014 91 703 2.24 174 21:57 17.06.2021
6615 Clouds 14 1014 92 396 1.66 171 21:18 17.06.2021
6616 Clouds 13 1015 93 396 1.66 171 20:32 17.06.2021
6617 Clouds 14 1012 91 1830 3.88 171 19:55 17.06.2021
6618 Clouds 14 1011 92 10000 3.62 182 19:22 17.06.2021
6619 Rain 12 1011 87 10000 4.09 171 17:50 17.06.2021
6620 Rain 13 1011 83 5240 3.57 176 17:22 17.06.2021
6621 Rain 13 1011 83 5240 3.57 176 16:30 17.06.2021
6622 Rain 17 1011 80 6270 4.43 174 15:53 17.06.2021
6623 Clouds 14 1013 81 7050 0.45 272 14:33 17.06.2021
6624 Clouds 13 1014 84 10000 0.89 227 13:46 17.06.2021
6625 Clouds 15 1015 91 10000 2.57 155 12:31 17.06.2021
6626 Rain 14 1015 91 10000 0.51 162 11:41 17.06.2021
6627 Rain 15 1015 89 3141 1.44 172 10:44 17.06.2021
6628 Rain 16 1015 91 10000 1.78 101 10:23 17.06.2021
6629 Rain 16 1015 84 10000 1.78 101 09:40 17.06.2021
6630 Rain 16 1015 77 10000 2.25 204 08:48 17.06.2021
6631 Clouds 12 1015 72 10000 1.61 163 07:51 17.06.2021
6632 Clouds 11 1017 78 10000 0.94 11 05:54 17.06.2021
6633 Clouds 16 1017 72 10000 1.57 91 01:54 17.06.2021
6634 Clouds 18 1017 82 10000 1.06 154 23:40 16.06.2021
6635 Clouds 18 1017 80 10000 1.48 162 23:20 16.06.2021
6636 Clouds 19 1016 77 10000 1.77 166 22:23 16.06.2021
6637 Clouds 13 1016 77 10000 1.77 166 21:41 16.06.2021
6638 Clouds 22 1014 56 10000 2.21 167 21:18 16.06.2021
6639 Clouds 24 1013 53 10000 2.21 167 20:36 16.06.2021
6640 Clouds 24 1016 64 10000 2.7 201 19:50 16.06.2021
6641 Clouds 24 1016 64 10000 2.7 201 19:32 16.06.2021
6642 Clouds 24 1016 60 10000 4.46 206 18:51 16.06.2021
6643 Clouds 25 1015 49 10000 5.82 204 18:24 16.06.2021
6644 Clouds 26 1015 48 10000 5.82 204 17:36 16.06.2021
6645 Clouds 26 1015 47 10000 3.36 181 17:18 16.06.2021
6646 Clouds 25 1015 52 10000 3.36 181 16:42 16.06.2021
6647 Clouds 26 1016 51 10000 2.64 183 15:50 16.06.2021
6648 Rain 27 1015 48 10000 3.79 236 15:28 16.06.2021
6649 Clouds 27 1018 44 10000 2.24 335 14:45 16.06.2021
6650 Clouds 28 1015 39 10000 3.69 208 14:26 16.06.2021
6651 Clouds 28 1015 44 10000 3.69 208 13:44 16.06.2021
6652 Clouds 27 1016 46 10000 3.31 206 13:22 16.06.2021
6653 Clouds 26 1016 45 10000 3.3 206 12:41 16.06.2021
6654 Clouds 25 1016 48 10000 3 208 12:18 16.06.2021
6655 Clouds 24 1016 54 10000 3 208 11:31 16.06.2021
6656 Clouds 21 1017 49 10000 2.91 209 10:44 16.06.2021
6657 Clouds 18 1017 55 10000 2.62 204 09:50 16.06.2021
6658 Clouds 18 1018 63 10000 1.42 190 09:23 16.06.2021
6659 Clouds 15 1018 71 10000 0.75 128 08:19 16.06.2021
6660 Clouds 8 1021 81 10000 0.75 128 07:38 16.06.2021
6661 Clouds 11 1022 80 10000 0.75 58 02:59 16.06.2021
6662 Clouds 13 1022 74 10000 1.01 56 00:48 16.06.2021